<?xml version="1.0" encoding="utf-8"?>
<gpx xmlns:xsi="http://www.w3.org/2001/XMLSchema-instance" xmlns:xsd="http://www.w3.org/2001/XMLSchema" version="1.1" creator="Shapelink.com" xmlns="http://www.topografix.com/GPX/1/1" xmlns:gpxtpx="http://www.garmin.com/xmlschemas/TrackPointExtension/v1">
  <metadata>
    <name>Sykling 19.56 km, 2013-06-06</name>
    <desc></desc>
    <author><name>Mikael Blom</name></author> 
    <time>2013-06-06T14:18:01Z</time>
  </metadata>
  <trk>
    <name>Sykling 19.56 km, 2013-06-06</name>
    <trkseg>
      <trkpt lat="59.8523401" lon="17.6855958">
        <ele>27.0543</ele>
        <time>2013-06-06T14:18:01Z</time>
      </trkpt>
      <trkpt lat="59.8523852" lon="17.6855983">
        <ele>27.0543</ele>
        <time>2013-06-06T14:18:02Z</time>
      </trkpt>
      <trkpt lat="59.8524335" lon="17.6856154">
        <ele>26.0929</ele>
        <time>2013-06-06T14:18:03Z</time>
      </trkpt>
      <trkpt lat="59.8524744" lon="17.6856533">
        <ele>25.6123</ele>
        <time>2013-06-06T14:18:04Z</time>
      </trkpt>
      <trkpt lat="59.8525095" lon="17.6857102">
        <ele>25.1317</ele>
        <time>2013-06-06T14:18:05Z</time>
      </trkpt>
      <trkpt lat="59.8525411" lon="17.6857626">
        <ele>25.1317</ele>
        <time>2013-06-06T14:18:06Z</time>
      </trkpt>
      <trkpt lat="59.8525684" lon="17.6858067">
        <ele>24.651</ele>
        <time>2013-06-06T14:18:07Z</time>
      </trkpt>
      <trkpt lat="59.8525971" lon="17.6858303">
        <ele>24.651</ele>
        <time>2013-06-06T14:18:08Z</time>
      </trkpt>
      <trkpt lat="59.8526281" lon="17.6858233">
        <ele>25.1317</ele>
        <time>2013-06-06T14:18:09Z</time>
      </trkpt>
      <trkpt lat="59.852656" lon="17.6857915">
        <ele>25.1317</ele>
        <time>2013-06-06T14:18:10Z</time>
      </trkpt>
      <trkpt lat="59.8526813" lon="17.685746">
        <ele>25.1317</ele>
        <time>2013-06-06T14:18:11Z</time>
      </trkpt>
      <trkpt lat="59.8527067" lon="17.6856921">
        <ele>25.1317</ele>
        <time>2013-06-06T14:18:12Z</time>
      </trkpt>
      <trkpt lat="59.8527333" lon="17.6856342">
        <ele>25.1317</ele>
        <time>2013-06-06T14:18:13Z</time>
      </trkpt>
      <trkpt lat="59.8527595" lon="17.6855719">
        <ele>24.651</ele>
        <time>2013-06-06T14:18:14Z</time>
      </trkpt>
      <trkpt lat="59.8527847" lon="17.6854999">
        <ele>24.651</ele>
        <time>2013-06-06T14:18:15Z</time>
      </trkpt>
      <trkpt lat="59.8528121" lon="17.6854236">
        <ele>24.651</ele>
        <time>2013-06-06T14:18:16Z</time>
      </trkpt>
      <trkpt lat="59.8528409" lon="17.6853415">
        <ele>24.651</ele>
        <time>2013-06-06T14:18:17Z</time>
      </trkpt>
      <trkpt lat="59.8528705" lon="17.6852549">
        <ele>24.651</ele>
        <time>2013-06-06T14:18:18Z</time>
      </trkpt>
      <trkpt lat="59.8528987" lon="17.6851698">
        <ele>24.651</ele>
        <time>2013-06-06T14:18:19Z</time>
      </trkpt>
      <trkpt lat="59.852924" lon="17.685087">
        <ele>24.651</ele>
        <time>2013-06-06T14:18:20Z</time>
      </trkpt>
      <trkpt lat="59.8529466" lon="17.6850077">
        <ele>24.651</ele>
        <time>2013-06-06T14:18:21Z</time>
      </trkpt>
      <trkpt lat="59.8529683" lon="17.6849343">
        <ele>24.651</ele>
        <time>2013-06-06T14:18:22Z</time>
      </trkpt>
      <trkpt lat="59.8529909" lon="17.6848659">
        <ele>24.651</ele>
        <time>2013-06-06T14:18:23Z</time>
      </trkpt>
      <trkpt lat="59.8530123" lon="17.684798">
        <ele>24.651</ele>
        <time>2013-06-06T14:18:24Z</time>
      </trkpt>
      <trkpt lat="59.8530301" lon="17.6847276">
        <ele>24.651</ele>
        <time>2013-06-06T14:18:25Z</time>
      </trkpt>
      <trkpt lat="59.8530472" lon="17.6846533">
        <ele>24.651</ele>
        <time>2013-06-06T14:18:26Z</time>
      </trkpt>
      <trkpt lat="59.8530638" lon="17.6845764">
        <ele>24.651</ele>
        <time>2013-06-06T14:18:27Z</time>
      </trkpt>
      <trkpt lat="59.8530784" lon="17.6844997">
        <ele>24.651</ele>
        <time>2013-06-06T14:18:28Z</time>
      </trkpt>
      <trkpt lat="59.8530905" lon="17.6844238">
        <ele>24.651</ele>
        <time>2013-06-06T14:18:29Z</time>
      </trkpt>
      <trkpt lat="59.8530964" lon="17.6843482">
        <ele>24.651</ele>
        <time>2013-06-06T14:18:30Z</time>
      </trkpt>
      <trkpt lat="59.8530947" lon="17.6842676">
        <ele>24.651</ele>
        <time>2013-06-06T14:18:31Z</time>
      </trkpt>
      <trkpt lat="59.8530823" lon="17.6841893">
        <ele>24.651</ele>
        <time>2013-06-06T14:18:32Z</time>
      </trkpt>
      <trkpt lat="59.8530607" lon="17.6841188">
        <ele>24.651</ele>
        <time>2013-06-06T14:18:33Z</time>
      </trkpt>
      <trkpt lat="59.8530301" lon="17.6840494">
        <ele>24.651</ele>
        <time>2013-06-06T14:18:34Z</time>
      </trkpt>
      <trkpt lat="59.8529955" lon="17.6839711">
        <ele>24.651</ele>
        <time>2013-06-06T14:18:35Z</time>
      </trkpt>
      <trkpt lat="59.8529659" lon="17.683878">
        <ele>24.651</ele>
        <time>2013-06-06T14:18:36Z</time>
      </trkpt>
      <trkpt lat="59.8529475" lon="17.6837718">
        <ele>24.1703</ele>
        <time>2013-06-06T14:18:37Z</time>
      </trkpt>
      <trkpt lat="59.8529509" lon="17.6836671">
        <ele>24.651</ele>
        <time>2013-06-06T14:18:38Z</time>
      </trkpt>
      <trkpt lat="59.8529654" lon="17.683573">
        <ele>24.651</ele>
        <time>2013-06-06T14:18:39Z</time>
      </trkpt>
      <trkpt lat="59.8529878" lon="17.6834881">
        <ele>24.651</ele>
        <time>2013-06-06T14:18:40Z</time>
      </trkpt>
      <trkpt lat="59.8530185" lon="17.6834201">
        <ele>24.651</ele>
        <time>2013-06-06T14:18:41Z</time>
      </trkpt>
      <trkpt lat="59.8530597" lon="17.6833893">
        <ele>25.1317</ele>
        <time>2013-06-06T14:18:42Z</time>
      </trkpt>
      <trkpt lat="59.8531005" lon="17.6833833">
        <ele>25.1317</ele>
        <time>2013-06-06T14:18:43Z</time>
      </trkpt>
      <trkpt lat="59.853138" lon="17.6833792">
        <ele>25.1317</ele>
        <time>2013-06-06T14:18:44Z</time>
      </trkpt>
      <trkpt lat="59.853172" lon="17.6833612">
        <ele>25.1317</ele>
        <time>2013-06-06T14:18:45Z</time>
      </trkpt>
      <trkpt lat="59.8532027" lon="17.6833268">
        <ele>25.1317</ele>
        <time>2013-06-06T14:18:46Z</time>
      </trkpt>
      <trkpt lat="59.8532285" lon="17.6832909">
        <ele>25.1317</ele>
        <time>2013-06-06T14:18:47Z</time>
      </trkpt>
      <trkpt lat="59.8532486" lon="17.6832518">
        <ele>25.1317</ele>
        <time>2013-06-06T14:18:48Z</time>
      </trkpt>
      <trkpt lat="59.8532668" lon="17.6832113">
        <ele>25.1317</ele>
        <time>2013-06-06T14:18:49Z</time>
      </trkpt>
      <trkpt lat="59.8532829" lon="17.6831689">
        <ele>25.1317</ele>
        <time>2013-06-06T14:18:50Z</time>
      </trkpt>
      <trkpt lat="59.8532943" lon="17.6831303">
        <ele>24.651</ele>
        <time>2013-06-06T14:18:51Z</time>
      </trkpt>
      <trkpt lat="59.8533019" lon="17.6830969">
        <ele>24.1703</ele>
        <time>2013-06-06T14:18:52Z</time>
      </trkpt>
      <trkpt lat="59.8533057" lon="17.6830715">
        <ele>24.1703</ele>
        <time>2013-06-06T14:18:53Z</time>
      </trkpt>
      <trkpt lat="59.8533093" lon="17.6830464">
        <ele>24.1703</ele>
        <time>2013-06-06T14:18:54Z</time>
      </trkpt>
      <trkpt lat="59.8533177" lon="17.6830244">
        <ele>23.6896</ele>
        <time>2013-06-06T14:18:55Z</time>
      </trkpt>
      <trkpt lat="59.8533275" lon="17.6830087">
        <ele>23.209</ele>
        <time>2013-06-06T14:18:56Z</time>
      </trkpt>
      <trkpt lat="59.8533461" lon="17.6829986">
        <ele>22.7283</ele>
        <time>2013-06-06T14:18:57Z</time>
      </trkpt>
      <trkpt lat="59.8533756" lon="17.6829967">
        <ele>22.2476</ele>
        <time>2013-06-06T14:18:58Z</time>
      </trkpt>
      <trkpt lat="59.8534146" lon="17.6830041">
        <ele>22.2476</ele>
        <time>2013-06-06T14:18:59Z</time>
      </trkpt>
      <trkpt lat="59.8534554" lon="17.6830238">
        <ele>21.2864</ele>
        <time>2013-06-06T14:19:00Z</time>
      </trkpt>
      <trkpt lat="59.8534985" lon="17.6830654">
        <ele>20.8057</ele>
        <time>2013-06-06T14:19:01Z</time>
      </trkpt>
      <trkpt lat="59.8535383" lon="17.6831393">
        <ele>20.8057</ele>
        <time>2013-06-06T14:19:02Z</time>
      </trkpt>
      <trkpt lat="59.8535605" lon="17.6832429">
        <ele>20.8057</ele>
        <time>2013-06-06T14:19:03Z</time>
      </trkpt>
      <trkpt lat="59.8535671" lon="17.68336">
        <ele>20.8057</ele>
        <time>2013-06-06T14:19:04Z</time>
      </trkpt>
      <trkpt lat="59.8535728" lon="17.68348">
        <ele>20.8057</ele>
        <time>2013-06-06T14:19:05Z</time>
      </trkpt>
      <trkpt lat="59.8535859" lon="17.6835997">
        <ele>20.8057</ele>
        <time>2013-06-06T14:19:06Z</time>
      </trkpt>
      <trkpt lat="59.853608" lon="17.6837137">
        <ele>20.8057</ele>
        <time>2013-06-06T14:19:07Z</time>
      </trkpt>
      <trkpt lat="59.8536383" lon="17.6838138">
        <ele>20.325</ele>
        <time>2013-06-06T14:19:08Z</time>
      </trkpt>
      <trkpt lat="59.8536807" lon="17.6838961">
        <ele>20.325</ele>
        <time>2013-06-06T14:19:09Z</time>
      </trkpt>
      <trkpt lat="59.8537314" lon="17.683961">
        <ele>20.325</ele>
        <time>2013-06-06T14:19:10Z</time>
      </trkpt>
      <trkpt lat="59.8537859" lon="17.684017">
        <ele>20.325</ele>
        <time>2013-06-06T14:19:11Z</time>
      </trkpt>
      <trkpt lat="59.8538418" lon="17.6840722">
        <ele>20.325</ele>
        <time>2013-06-06T14:19:12Z</time>
      </trkpt>
      <trkpt lat="59.8538983" lon="17.6841282">
        <ele>19.8444</ele>
        <time>2013-06-06T14:19:13Z</time>
      </trkpt>
      <trkpt lat="59.8539553" lon="17.6841845">
        <ele>19.8444</ele>
        <time>2013-06-06T14:19:14Z</time>
      </trkpt>
      <trkpt lat="59.8540113" lon="17.6842443">
        <ele>20.325</ele>
        <time>2013-06-06T14:19:15Z</time>
      </trkpt>
      <trkpt lat="59.8540671" lon="17.6843075">
        <ele>19.8444</ele>
        <time>2013-06-06T14:19:16Z</time>
      </trkpt>
      <trkpt lat="59.8541246" lon="17.6843699">
        <ele>19.8444</ele>
        <time>2013-06-06T14:19:17Z</time>
      </trkpt>
      <trkpt lat="59.8541838" lon="17.6844349">
        <ele>19.3638</ele>
        <time>2013-06-06T14:19:18Z</time>
      </trkpt>
      <trkpt lat="59.8542455" lon="17.6845022">
        <ele>19.3638</ele>
        <time>2013-06-06T14:19:19Z</time>
      </trkpt>
      <trkpt lat="59.8543107" lon="17.6845675">
        <ele>18.8831</ele>
        <time>2013-06-06T14:19:20Z</time>
      </trkpt>
      <trkpt lat="59.8543802" lon="17.6846121">
        <ele>18.4023</ele>
        <time>2013-06-06T14:19:21Z</time>
      </trkpt>
      <trkpt lat="59.8544557" lon="17.6846228">
        <ele>18.4023</ele>
        <time>2013-06-06T14:19:22Z</time>
      </trkpt>
      <trkpt lat="59.8545334" lon="17.6846058">
        <ele>17.9218</ele>
        <time>2013-06-06T14:19:23Z</time>
      </trkpt>
      <trkpt lat="59.8546124" lon="17.684568">
        <ele>17.4412</ele>
        <time>2013-06-06T14:19:24Z</time>
      </trkpt>
      <trkpt lat="59.8546925" lon="17.684524">
        <ele>16.9604</ele>
        <time>2013-06-06T14:19:25Z</time>
      </trkpt>
      <trkpt lat="59.8547766" lon="17.6844965">
        <ele>16.4797</ele>
        <time>2013-06-06T14:19:26Z</time>
      </trkpt>
      <trkpt lat="59.8548645" lon="17.6845002">
        <ele>16.4797</ele>
        <time>2013-06-06T14:19:27Z</time>
      </trkpt>
      <trkpt lat="59.8549177" lon="17.6844364">
        <ele>15.999</ele>
        <time>2013-06-06T14:19:28Z</time>
      </trkpt>
      <trkpt lat="59.8550227" lon="17.6844609">
        <ele>15.999</ele>
        <time>2013-06-06T14:19:29Z</time>
      </trkpt>
      <trkpt lat="59.8551032" lon="17.6846901">
        <ele>15.5184</ele>
        <time>2013-06-06T14:19:30Z</time>
      </trkpt>
      <trkpt lat="59.8551814" lon="17.6848589">
        <ele>15.0377</ele>
        <time>2013-06-06T14:19:31Z</time>
      </trkpt>
      <trkpt lat="59.8552524" lon="17.6849564">
        <ele>14.557</ele>
        <time>2013-06-06T14:19:32Z</time>
      </trkpt>
      <trkpt lat="59.8553244" lon="17.6850314">
        <ele>15.0377</ele>
        <time>2013-06-06T14:19:33Z</time>
      </trkpt>
      <trkpt lat="59.8553898" lon="17.6851098">
        <ele>15.5184</ele>
        <time>2013-06-06T14:19:34Z</time>
      </trkpt>
      <trkpt lat="59.8554503" lon="17.6851772">
        <ele>15.5184</ele>
        <time>2013-06-06T14:19:35Z</time>
      </trkpt>
      <trkpt lat="59.8555129" lon="17.6852213">
        <ele>15.999</ele>
        <time>2013-06-06T14:19:36Z</time>
      </trkpt>
      <trkpt lat="59.8555656" lon="17.6852414">
        <ele>15.5184</ele>
        <time>2013-06-06T14:19:37Z</time>
      </trkpt>
      <trkpt lat="59.8556124" lon="17.6852191">
        <ele>15.5184</ele>
        <time>2013-06-06T14:19:38Z</time>
      </trkpt>
      <trkpt lat="59.8556554" lon="17.6851527">
        <ele>15.5184</ele>
        <time>2013-06-06T14:19:39Z</time>
      </trkpt>
      <trkpt lat="59.855715" lon="17.6851026">
        <ele>15.0377</ele>
        <time>2013-06-06T14:19:40Z</time>
      </trkpt>
      <trkpt lat="59.8557776" lon="17.6850368">
        <ele>15.0377</ele>
        <time>2013-06-06T14:19:41Z</time>
      </trkpt>
      <trkpt lat="59.8558424" lon="17.6849716">
        <ele>15.0377</ele>
        <time>2013-06-06T14:19:42Z</time>
      </trkpt>
      <trkpt lat="59.8559113" lon="17.6848927">
        <ele>15.5184</ele>
        <time>2013-06-06T14:19:43Z</time>
      </trkpt>
      <trkpt lat="59.8559772" lon="17.6848105">
        <ele>15.5184</ele>
        <time>2013-06-06T14:19:44Z</time>
      </trkpt>
      <trkpt lat="59.8560366" lon="17.6846968">
        <ele>15.5184</ele>
        <time>2013-06-06T14:19:45Z</time>
      </trkpt>
      <trkpt lat="59.8560896" lon="17.6845877">
        <ele>15.999</ele>
        <time>2013-06-06T14:19:46Z</time>
      </trkpt>
      <trkpt lat="59.8561413" lon="17.6844742">
        <ele>15.999</ele>
        <time>2013-06-06T14:19:47Z</time>
      </trkpt>
      <trkpt lat="59.8561905" lon="17.684363">
        <ele>15.999</ele>
        <time>2013-06-06T14:19:48Z</time>
      </trkpt>
      <trkpt lat="59.8562372" lon="17.6842519">
        <ele>15.999</ele>
        <time>2013-06-06T14:19:49Z</time>
      </trkpt>
      <trkpt lat="59.8562812" lon="17.6841483">
        <ele>15.5184</ele>
        <time>2013-06-06T14:19:50Z</time>
      </trkpt>
      <trkpt lat="59.856326" lon="17.684048">
        <ele>15.5184</ele>
        <time>2013-06-06T14:19:51Z</time>
      </trkpt>
      <trkpt lat="59.8563726" lon="17.6839531">
        <ele>15.0377</ele>
        <time>2013-06-06T14:19:52Z</time>
      </trkpt>
      <trkpt lat="59.8564205" lon="17.6838615">
        <ele>14.557</ele>
        <time>2013-06-06T14:19:53Z</time>
      </trkpt>
      <trkpt lat="59.8564693" lon="17.6837682">
        <ele>14.557</ele>
        <time>2013-06-06T14:19:54Z</time>
      </trkpt>
      <trkpt lat="59.8565174" lon="17.6836709">
        <ele>14.0764</ele>
        <time>2013-06-06T14:19:55Z</time>
      </trkpt>
      <trkpt lat="59.8565625" lon="17.683561">
        <ele>14.557</ele>
        <time>2013-06-06T14:19:56Z</time>
      </trkpt>
      <trkpt lat="59.8566031" lon="17.6834439">
        <ele>14.0764</ele>
        <time>2013-06-06T14:19:57Z</time>
      </trkpt>
      <trkpt lat="59.8566443" lon="17.683331">
        <ele>14.0764</ele>
        <time>2013-06-06T14:19:58Z</time>
      </trkpt>
      <trkpt lat="59.8566869" lon="17.6832238">
        <ele>14.0764</ele>
        <time>2013-06-06T14:19:59Z</time>
      </trkpt>
      <trkpt lat="59.8567287" lon="17.6831119">
        <ele>14.0764</ele>
        <time>2013-06-06T14:20:00Z</time>
      </trkpt>
      <trkpt lat="59.8567694" lon="17.6830004">
        <ele>13.5958</ele>
        <time>2013-06-06T14:20:01Z</time>
      </trkpt>
      <trkpt lat="59.8568098" lon="17.6828869">
        <ele>13.5958</ele>
        <time>2013-06-06T14:20:02Z</time>
      </trkpt>
      <trkpt lat="59.8568535" lon="17.6827783">
        <ele>13.5958</ele>
        <time>2013-06-06T14:20:03Z</time>
      </trkpt>
      <trkpt lat="59.8569022" lon="17.6826773">
        <ele>13.1151</ele>
        <time>2013-06-06T14:20:04Z</time>
      </trkpt>
      <trkpt lat="59.8569547" lon="17.6825815">
        <ele>13.1151</ele>
        <time>2013-06-06T14:20:05Z</time>
      </trkpt>
      <trkpt lat="59.8570109" lon="17.6824901">
        <ele>13.1151</ele>
        <time>2013-06-06T14:20:06Z</time>
      </trkpt>
      <trkpt lat="59.8570689" lon="17.6823999">
        <ele>13.1151</ele>
        <time>2013-06-06T14:20:07Z</time>
      </trkpt>
      <trkpt lat="59.8571279" lon="17.6823111">
        <ele>13.1151</ele>
        <time>2013-06-06T14:20:08Z</time>
      </trkpt>
      <trkpt lat="59.8571865" lon="17.6822225">
        <ele>13.1151</ele>
        <time>2013-06-06T14:20:09Z</time>
      </trkpt>
      <trkpt lat="59.8572446" lon="17.6821384">
        <ele>13.1151</ele>
        <time>2013-06-06T14:20:10Z</time>
      </trkpt>
      <trkpt lat="59.8573056" lon="17.682064">
        <ele>13.1151</ele>
        <time>2013-06-06T14:20:11Z</time>
      </trkpt>
      <trkpt lat="59.8573694" lon="17.6820022">
        <ele>13.1151</ele>
        <time>2013-06-06T14:20:12Z</time>
      </trkpt>
      <trkpt lat="59.8574315" lon="17.6819469">
        <ele>13.1151</ele>
        <time>2013-06-06T14:20:13Z</time>
      </trkpt>
      <trkpt lat="59.8574926" lon="17.6819018">
        <ele>13.1151</ele>
        <time>2013-06-06T14:20:14Z</time>
      </trkpt>
      <trkpt lat="59.8575558" lon="17.6818712">
        <ele>12.6344</ele>
        <time>2013-06-06T14:20:15Z</time>
      </trkpt>
      <trkpt lat="59.8576239" lon="17.6818551">
        <ele>13.1151</ele>
        <time>2013-06-06T14:20:16Z</time>
      </trkpt>
      <trkpt lat="59.8576948" lon="17.6818424">
        <ele>13.5958</ele>
        <time>2013-06-06T14:20:17Z</time>
      </trkpt>
      <trkpt lat="59.8577604" lon="17.6818328">
        <ele>13.5958</ele>
        <time>2013-06-06T14:20:18Z</time>
      </trkpt>
      <trkpt lat="59.8578231" lon="17.6818256">
        <ele>14.0764</ele>
        <time>2013-06-06T14:20:19Z</time>
      </trkpt>
      <trkpt lat="59.8578822" lon="17.6818125">
        <ele>14.0764</ele>
        <time>2013-06-06T14:20:20Z</time>
      </trkpt>
      <trkpt lat="59.8579418" lon="17.6817932">
        <ele>13.5958</ele>
        <time>2013-06-06T14:20:21Z</time>
      </trkpt>
      <trkpt lat="59.8580025" lon="17.6817833">
        <ele>13.5958</ele>
        <time>2013-06-06T14:20:22Z</time>
      </trkpt>
      <trkpt lat="59.8580662" lon="17.6817897">
        <ele>14.0764</ele>
        <time>2013-06-06T14:20:23Z</time>
      </trkpt>
      <trkpt lat="59.8581031" lon="17.6818701">
        <ele>15.5184</ele>
        <time>2013-06-06T14:20:24Z</time>
      </trkpt>
      <trkpt lat="59.8581269" lon="17.6819718">
        <ele>15.5184</ele>
        <time>2013-06-06T14:20:25Z</time>
      </trkpt>
      <trkpt lat="59.8581393" lon="17.6820878">
        <ele>15.999</ele>
        <time>2013-06-06T14:20:26Z</time>
      </trkpt>
      <trkpt lat="59.8581478" lon="17.6822115">
        <ele>15.999</ele>
        <time>2013-06-06T14:20:27Z</time>
      </trkpt>
      <trkpt lat="59.8581615" lon="17.6823414">
        <ele>15.999</ele>
        <time>2013-06-06T14:20:28Z</time>
      </trkpt>
      <trkpt lat="59.8581818" lon="17.682474">
        <ele>15.999</ele>
        <time>2013-06-06T14:20:29Z</time>
      </trkpt>
      <trkpt lat="59.8582069" lon="17.6826053">
        <ele>15.999</ele>
        <time>2013-06-06T14:20:30Z</time>
      </trkpt>
      <trkpt lat="59.8582284" lon="17.6827342">
        <ele>15.999</ele>
        <time>2013-06-06T14:20:31Z</time>
      </trkpt>
      <trkpt lat="59.8582458" lon="17.6828509">
        <ele>16.4797</ele>
        <time>2013-06-06T14:20:32Z</time>
      </trkpt>
      <trkpt lat="59.8582616" lon="17.6829574">
        <ele>16.4797</ele>
        <time>2013-06-06T14:20:33Z</time>
      </trkpt>
      <trkpt lat="59.8582787" lon="17.6830649">
        <ele>16.4797</ele>
        <time>2013-06-06T14:20:34Z</time>
      </trkpt>
      <trkpt lat="59.8582977" lon="17.6831788">
        <ele>16.4797</ele>
        <time>2013-06-06T14:20:35Z</time>
      </trkpt>
      <trkpt lat="59.85832" lon="17.6832987">
        <ele>16.4797</ele>
        <time>2013-06-06T14:20:36Z</time>
      </trkpt>
      <trkpt lat="59.8583448" lon="17.6834246">
        <ele>16.4797</ele>
        <time>2013-06-06T14:20:37Z</time>
      </trkpt>
      <trkpt lat="59.8583704" lon="17.6835556">
        <ele>16.4797</ele>
        <time>2013-06-06T14:20:38Z</time>
      </trkpt>
      <trkpt lat="59.8583994" lon="17.6836924">
        <ele>16.4797</ele>
        <time>2013-06-06T14:20:39Z</time>
      </trkpt>
      <trkpt lat="59.8584319" lon="17.6838277">
        <ele>16.4797</ele>
        <time>2013-06-06T14:20:40Z</time>
      </trkpt>
      <trkpt lat="59.8584672" lon="17.6839561">
        <ele>16.4797</ele>
        <time>2013-06-06T14:20:41Z</time>
      </trkpt>
      <trkpt lat="59.8585029" lon="17.6840832">
        <ele>16.4797</ele>
        <time>2013-06-06T14:20:42Z</time>
      </trkpt>
      <trkpt lat="59.8585381" lon="17.6842094">
        <ele>16.4797</ele>
        <time>2013-06-06T14:20:43Z</time>
      </trkpt>
      <trkpt lat="59.858575" lon="17.6843411">
        <ele>16.4797</ele>
        <time>2013-06-06T14:20:44Z</time>
      </trkpt>
      <trkpt lat="59.8586122" lon="17.6844621">
        <ele>16.4797</ele>
        <time>2013-06-06T14:20:45Z</time>
      </trkpt>
      <trkpt lat="59.8586477" lon="17.6845799">
        <ele>16.4797</ele>
        <time>2013-06-06T14:20:46Z</time>
      </trkpt>
      <trkpt lat="59.85868" lon="17.6846986">
        <ele>16.4797</ele>
        <time>2013-06-06T14:20:47Z</time>
      </trkpt>
      <trkpt lat="59.8587055" lon="17.6848186">
        <ele>16.4797</ele>
        <time>2013-06-06T14:20:48Z</time>
      </trkpt>
      <trkpt lat="59.8587251" lon="17.6849384">
        <ele>16.4797</ele>
        <time>2013-06-06T14:20:49Z</time>
      </trkpt>
      <trkpt lat="59.8587464" lon="17.6850606">
        <ele>16.9604</ele>
        <time>2013-06-06T14:20:50Z</time>
      </trkpt>
      <trkpt lat="59.8587684" lon="17.6851848">
        <ele>16.9604</ele>
        <time>2013-06-06T14:20:51Z</time>
      </trkpt>
      <trkpt lat="59.8587878" lon="17.6853123">
        <ele>16.9604</ele>
        <time>2013-06-06T14:20:52Z</time>
      </trkpt>
      <trkpt lat="59.8588029" lon="17.6854414">
        <ele>17.4412</ele>
        <time>2013-06-06T14:20:53Z</time>
      </trkpt>
      <trkpt lat="59.858814" lon="17.6855725">
        <ele>17.4412</ele>
        <time>2013-06-06T14:20:54Z</time>
      </trkpt>
      <trkpt lat="59.8588329" lon="17.685705">
        <ele>17.9218</ele>
        <time>2013-06-06T14:20:55Z</time>
      </trkpt>
      <trkpt lat="59.8588427" lon="17.6858323">
        <ele>17.9218</ele>
        <time>2013-06-06T14:20:56Z</time>
      </trkpt>
      <trkpt lat="59.8588464" lon="17.6859589">
        <ele>17.9218</ele>
        <time>2013-06-06T14:20:57Z</time>
      </trkpt>
      <trkpt lat="59.8588506" lon="17.6860811">
        <ele>18.4023</ele>
        <time>2013-06-06T14:20:58Z</time>
      </trkpt>
      <trkpt lat="59.8588515" lon="17.6861971">
        <ele>18.4023</ele>
        <time>2013-06-06T14:20:59Z</time>
      </trkpt>
      <trkpt lat="59.8588526" lon="17.6863075">
        <ele>18.4023</ele>
        <time>2013-06-06T14:21:00Z</time>
      </trkpt>
      <trkpt lat="59.8588573" lon="17.6864159">
        <ele>18.4023</ele>
        <time>2013-06-06T14:21:01Z</time>
      </trkpt>
      <trkpt lat="59.8588632" lon="17.6865207">
        <ele>18.4023</ele>
        <time>2013-06-06T14:21:02Z</time>
      </trkpt>
      <trkpt lat="59.8588748" lon="17.6866219">
        <ele>18.4023</ele>
        <time>2013-06-06T14:21:03Z</time>
      </trkpt>
      <trkpt lat="59.858893" lon="17.6867184">
        <ele>17.9218</ele>
        <time>2013-06-06T14:21:04Z</time>
      </trkpt>
      <trkpt lat="59.8589207" lon="17.6867965">
        <ele>17.9218</ele>
        <time>2013-06-06T14:21:05Z</time>
      </trkpt>
      <trkpt lat="59.8589656" lon="17.6868219">
        <ele>17.9218</ele>
        <time>2013-06-06T14:21:06Z</time>
      </trkpt>
      <trkpt lat="59.8590114" lon="17.6867929">
        <ele>17.9218</ele>
        <time>2013-06-06T14:21:07Z</time>
      </trkpt>
      <trkpt lat="59.8590525" lon="17.6867639">
        <ele>17.9218</ele>
        <time>2013-06-06T14:21:08Z</time>
      </trkpt>
      <trkpt lat="59.8590968" lon="17.6867224">
        <ele>17.9218</ele>
        <time>2013-06-06T14:21:09Z</time>
      </trkpt>
      <trkpt lat="59.8591357" lon="17.6867016">
        <ele>17.4412</ele>
        <time>2013-06-06T14:21:10Z</time>
      </trkpt>
      <trkpt lat="59.8591657" lon="17.6866893">
        <ele>17.4412</ele>
        <time>2013-06-06T14:21:11Z</time>
      </trkpt>
      <trkpt lat="59.8591852" lon="17.686698">
        <ele>16.9604</ele>
        <time>2013-06-06T14:21:12Z</time>
      </trkpt>
      <trkpt lat="59.8591994" lon="17.6867085">
        <ele>16.9604</ele>
        <time>2013-06-06T14:21:13Z</time>
      </trkpt>
      <trkpt lat="59.8592124" lon="17.6866945">
        <ele>16.9604</ele>
        <time>2013-06-06T14:21:14Z</time>
      </trkpt>
      <trkpt lat="59.859222" lon="17.6866753">
        <ele>15.999</ele>
        <time>2013-06-06T14:21:15Z</time>
      </trkpt>
      <trkpt lat="59.8592373" lon="17.6866633">
        <ele>15.999</ele>
        <time>2013-06-06T14:21:16Z</time>
      </trkpt>
      <trkpt lat="59.8592476" lon="17.6866763">
        <ele>15.999</ele>
        <time>2013-06-06T14:21:17Z</time>
      </trkpt>
      <trkpt lat="59.859259" lon="17.6866917">
        <ele>15.999</ele>
        <time>2013-06-06T14:21:18Z</time>
      </trkpt>
      <trkpt lat="59.8592768" lon="17.6866852">
        <ele>15.999</ele>
        <time>2013-06-06T14:21:19Z</time>
      </trkpt>
      <trkpt lat="59.8593009" lon="17.6866736">
        <ele>15.0377</ele>
        <time>2013-06-06T14:21:20Z</time>
      </trkpt>
      <trkpt lat="59.8593322" lon="17.6866586">
        <ele>14.557</ele>
        <time>2013-06-06T14:21:21Z</time>
      </trkpt>
      <trkpt lat="59.8593707" lon="17.68664">
        <ele>14.0764</ele>
        <time>2013-06-06T14:21:22Z</time>
      </trkpt>
      <trkpt lat="59.8594232" lon="17.6865738">
        <ele>14.557</ele>
        <time>2013-06-06T14:21:23Z</time>
      </trkpt>
      <trkpt lat="59.8594799" lon="17.6865034">
        <ele>14.557</ele>
        <time>2013-06-06T14:21:24Z</time>
      </trkpt>
      <trkpt lat="59.8595219" lon="17.6864105">
        <ele>14.0764</ele>
        <time>2013-06-06T14:21:25Z</time>
      </trkpt>
      <trkpt lat="59.8595548" lon="17.6862945">
        <ele>13.5958</ele>
        <time>2013-06-06T14:21:26Z</time>
      </trkpt>
      <trkpt lat="59.8595798" lon="17.6861811">
        <ele>13.1151</ele>
        <time>2013-06-06T14:21:27Z</time>
      </trkpt>
      <trkpt lat="59.8596089" lon="17.6860963">
        <ele>12.6344</ele>
        <time>2013-06-06T14:21:28Z</time>
      </trkpt>
      <trkpt lat="59.8596452" lon="17.6860184">
        <ele>12.6344</ele>
        <time>2013-06-06T14:21:29Z</time>
      </trkpt>
      <trkpt lat="59.8596912" lon="17.685946">
        <ele>13.1151</ele>
        <time>2013-06-06T14:21:30Z</time>
      </trkpt>
      <trkpt lat="59.8597455" lon="17.6858951">
        <ele>13.5958</ele>
        <time>2013-06-06T14:21:31Z</time>
      </trkpt>
      <trkpt lat="59.8597985" lon="17.685848">
        <ele>13.1151</ele>
        <time>2013-06-06T14:21:32Z</time>
      </trkpt>
      <trkpt lat="59.8598528" lon="17.6857953">
        <ele>13.1151</ele>
        <time>2013-06-06T14:21:33Z</time>
      </trkpt>
      <trkpt lat="59.8599066" lon="17.6857356">
        <ele>13.1151</ele>
        <time>2013-06-06T14:21:34Z</time>
      </trkpt>
      <trkpt lat="59.8599624" lon="17.6856709">
        <ele>13.1151</ele>
        <time>2013-06-06T14:21:35Z</time>
      </trkpt>
      <trkpt lat="59.8600192" lon="17.685606">
        <ele>12.6344</ele>
        <time>2013-06-06T14:21:36Z</time>
      </trkpt>
      <trkpt lat="59.8600809" lon="17.6855326">
        <ele>13.1151</ele>
        <time>2013-06-06T14:21:37Z</time>
      </trkpt>
      <trkpt lat="59.8601367" lon="17.685459">
        <ele>12.6344</ele>
        <time>2013-06-06T14:21:38Z</time>
      </trkpt>
      <trkpt lat="59.8601898" lon="17.685388">
        <ele>12.6344</ele>
        <time>2013-06-06T14:21:39Z</time>
      </trkpt>
      <trkpt lat="59.8602402" lon="17.6853165">
        <ele>12.1538</ele>
        <time>2013-06-06T14:21:40Z</time>
      </trkpt>
      <trkpt lat="59.8602972" lon="17.6852492">
        <ele>12.1538</ele>
        <time>2013-06-06T14:21:41Z</time>
      </trkpt>
      <trkpt lat="59.8603558" lon="17.6851808">
        <ele>11.6732</ele>
        <time>2013-06-06T14:21:42Z</time>
      </trkpt>
      <trkpt lat="59.8604137" lon="17.6851156">
        <ele>10.7118</ele>
        <time>2013-06-06T14:21:43Z</time>
      </trkpt>
      <trkpt lat="59.8604716" lon="17.6850481">
        <ele>10.7118</ele>
        <time>2013-06-06T14:21:44Z</time>
      </trkpt>
      <trkpt lat="59.8605335" lon="17.684983">
        <ele>11.1925</ele>
        <time>2013-06-06T14:21:45Z</time>
      </trkpt>
      <trkpt lat="59.8605955" lon="17.684917">
        <ele>11.1925</ele>
        <time>2013-06-06T14:21:46Z</time>
      </trkpt>
      <trkpt lat="59.8606646" lon="17.6848395">
        <ele>12.1538</ele>
        <time>2013-06-06T14:21:47Z</time>
      </trkpt>
      <trkpt lat="59.8607277" lon="17.6847747">
        <ele>12.1538</ele>
        <time>2013-06-06T14:21:48Z</time>
      </trkpt>
      <trkpt lat="59.8607921" lon="17.6847161">
        <ele>12.1538</ele>
        <time>2013-06-06T14:21:49Z</time>
      </trkpt>
      <trkpt lat="59.8608577" lon="17.6846611">
        <ele>12.1538</ele>
        <time>2013-06-06T14:21:50Z</time>
      </trkpt>
      <trkpt lat="59.8609219" lon="17.684608">
        <ele>12.1538</ele>
        <time>2013-06-06T14:21:51Z</time>
      </trkpt>
      <trkpt lat="59.8609857" lon="17.6845564">
        <ele>12.1538</ele>
        <time>2013-06-06T14:21:52Z</time>
      </trkpt>
      <trkpt lat="59.86105" lon="17.6845049">
        <ele>11.6732</ele>
        <time>2013-06-06T14:21:53Z</time>
      </trkpt>
      <trkpt lat="59.8611158" lon="17.6844504">
        <ele>12.1538</ele>
        <time>2013-06-06T14:21:54Z</time>
      </trkpt>
      <trkpt lat="59.8611808" lon="17.6843936">
        <ele>12.1538</ele>
        <time>2013-06-06T14:21:55Z</time>
      </trkpt>
      <trkpt lat="59.8612445" lon="17.6843386">
        <ele>12.1538</ele>
        <time>2013-06-06T14:21:56Z</time>
      </trkpt>
      <trkpt lat="59.8613083" lon="17.6842892">
        <ele>12.1538</ele>
        <time>2013-06-06T14:21:57Z</time>
      </trkpt>
      <trkpt lat="59.8613754" lon="17.6842379">
        <ele>11.6732</ele>
        <time>2013-06-06T14:21:58Z</time>
      </trkpt>
      <trkpt lat="59.8614638" lon="17.6841733">
        <ele>12.6344</ele>
        <time>2013-06-06T14:21:59Z</time>
      </trkpt>
      <trkpt lat="59.8615271" lon="17.6841237">
        <ele>12.1538</ele>
        <time>2013-06-06T14:22:00Z</time>
      </trkpt>
      <trkpt lat="59.8615897" lon="17.68407">
        <ele>12.1538</ele>
        <time>2013-06-06T14:22:01Z</time>
      </trkpt>
      <trkpt lat="59.8616537" lon="17.684013">
        <ele>12.6344</ele>
        <time>2013-06-06T14:22:02Z</time>
      </trkpt>
      <trkpt lat="59.8617185" lon="17.6839582">
        <ele>12.6344</ele>
        <time>2013-06-06T14:22:03Z</time>
      </trkpt>
      <trkpt lat="59.861782" lon="17.6839082">
        <ele>12.6344</ele>
        <time>2013-06-06T14:22:04Z</time>
      </trkpt>
      <trkpt lat="59.8618464" lon="17.6838538">
        <ele>12.6344</ele>
        <time>2013-06-06T14:22:05Z</time>
      </trkpt>
      <trkpt lat="59.8619109" lon="17.6837987">
        <ele>12.6344</ele>
        <time>2013-06-06T14:22:06Z</time>
      </trkpt>
      <trkpt lat="59.8619751" lon="17.6837495">
        <ele>12.6344</ele>
        <time>2013-06-06T14:22:07Z</time>
      </trkpt>
      <trkpt lat="59.8620415" lon="17.683693">
        <ele>13.1151</ele>
        <time>2013-06-06T14:22:08Z</time>
      </trkpt>
      <trkpt lat="59.8621087" lon="17.6836438">
        <ele>13.1151</ele>
        <time>2013-06-06T14:22:09Z</time>
      </trkpt>
      <trkpt lat="59.8621761" lon="17.6835974">
        <ele>13.1151</ele>
        <time>2013-06-06T14:22:10Z</time>
      </trkpt>
      <trkpt lat="59.8622445" lon="17.6835521">
        <ele>13.1151</ele>
        <time>2013-06-06T14:22:11Z</time>
      </trkpt>
      <trkpt lat="59.8623129" lon="17.6835087">
        <ele>13.1151</ele>
        <time>2013-06-06T14:22:12Z</time>
      </trkpt>
      <trkpt lat="59.8623819" lon="17.6834667">
        <ele>13.1151</ele>
        <time>2013-06-06T14:22:13Z</time>
      </trkpt>
      <trkpt lat="59.8624473" lon="17.6834256">
        <ele>12.6344</ele>
        <time>2013-06-06T14:22:14Z</time>
      </trkpt>
      <trkpt lat="59.8625102" lon="17.6833801">
        <ele>12.6344</ele>
        <time>2013-06-06T14:22:15Z</time>
      </trkpt>
      <trkpt lat="59.8625698" lon="17.6833336">
        <ele>12.6344</ele>
        <time>2013-06-06T14:22:16Z</time>
      </trkpt>
      <trkpt lat="59.8626294" lon="17.6832933">
        <ele>12.1538</ele>
        <time>2013-06-06T14:22:17Z</time>
      </trkpt>
      <trkpt lat="59.8626893" lon="17.6832557">
        <ele>12.1538</ele>
        <time>2013-06-06T14:22:18Z</time>
      </trkpt>
      <trkpt lat="59.862749" lon="17.6832149">
        <ele>11.6732</ele>
        <time>2013-06-06T14:22:19Z</time>
      </trkpt>
      <trkpt lat="59.8628087" lon="17.6831747">
        <ele>11.1925</ele>
        <time>2013-06-06T14:22:20Z</time>
      </trkpt>
      <trkpt lat="59.8628705" lon="17.6831337">
        <ele>10.7118</ele>
        <time>2013-06-06T14:22:21Z</time>
      </trkpt>
      <trkpt lat="59.8629328" lon="17.6830896">
        <ele>10.7118</ele>
        <time>2013-06-06T14:22:22Z</time>
      </trkpt>
      <trkpt lat="59.8629935" lon="17.6830469">
        <ele>10.7118</ele>
        <time>2013-06-06T14:22:23Z</time>
      </trkpt>
      <trkpt lat="59.8630511" lon="17.6830067">
        <ele>10.2312</ele>
        <time>2013-06-06T14:22:24Z</time>
      </trkpt>
      <trkpt lat="59.8631121" lon="17.6829599">
        <ele>10.7118</ele>
        <time>2013-06-06T14:22:25Z</time>
      </trkpt>
      <trkpt lat="59.8631743" lon="17.6829159">
        <ele>10.7118</ele>
        <time>2013-06-06T14:22:26Z</time>
      </trkpt>
      <trkpt lat="59.8632358" lon="17.6828725">
        <ele>10.7118</ele>
        <time>2013-06-06T14:22:27Z</time>
      </trkpt>
      <trkpt lat="59.8632955" lon="17.6828285">
        <ele>10.7118</ele>
        <time>2013-06-06T14:22:28Z</time>
      </trkpt>
      <trkpt lat="59.8633609" lon="17.6827772">
        <ele>11.6732</ele>
        <time>2013-06-06T14:22:29Z</time>
      </trkpt>
      <trkpt lat="59.8634235" lon="17.6827269">
        <ele>12.1538</ele>
        <time>2013-06-06T14:22:30Z</time>
      </trkpt>
      <trkpt lat="59.8634805" lon="17.6826845">
        <ele>12.1538</ele>
        <time>2013-06-06T14:22:31Z</time>
      </trkpt>
      <trkpt lat="59.863537" lon="17.6826493">
        <ele>12.6344</ele>
        <time>2013-06-06T14:22:32Z</time>
      </trkpt>
      <trkpt lat="59.8635956" lon="17.6826156">
        <ele>12.1538</ele>
        <time>2013-06-06T14:22:33Z</time>
      </trkpt>
      <trkpt lat="59.8636577" lon="17.6825732">
        <ele>12.6344</ele>
        <time>2013-06-06T14:22:34Z</time>
      </trkpt>
      <trkpt lat="59.8637183" lon="17.6825281">
        <ele>12.6344</ele>
        <time>2013-06-06T14:22:35Z</time>
      </trkpt>
      <trkpt lat="59.8637812" lon="17.6824811">
        <ele>12.6344</ele>
        <time>2013-06-06T14:22:36Z</time>
      </trkpt>
      <trkpt lat="59.8638524" lon="17.6824311">
        <ele>12.6344</ele>
        <time>2013-06-06T14:22:37Z</time>
      </trkpt>
      <trkpt lat="59.8639222" lon="17.6823648">
        <ele>12.6344</ele>
        <time>2013-06-06T14:22:38Z</time>
      </trkpt>
      <trkpt lat="59.8639898" lon="17.6822996">
        <ele>12.6344</ele>
        <time>2013-06-06T14:22:39Z</time>
      </trkpt>
      <trkpt lat="59.8640535" lon="17.6822417">
        <ele>12.6344</ele>
        <time>2013-06-06T14:22:40Z</time>
      </trkpt>
      <trkpt lat="59.864114" lon="17.682198">
        <ele>12.6344</ele>
        <time>2013-06-06T14:22:41Z</time>
      </trkpt>
      <trkpt lat="59.8641756" lon="17.6821596">
        <ele>12.1538</ele>
        <time>2013-06-06T14:22:42Z</time>
      </trkpt>
      <trkpt lat="59.8642373" lon="17.6821158">
        <ele>12.1538</ele>
        <time>2013-06-06T14:22:43Z</time>
      </trkpt>
      <trkpt lat="59.8642982" lon="17.6820737">
        <ele>12.1538</ele>
        <time>2013-06-06T14:22:44Z</time>
      </trkpt>
      <trkpt lat="59.8643595" lon="17.6820318">
        <ele>12.1538</ele>
        <time>2013-06-06T14:22:45Z</time>
      </trkpt>
      <trkpt lat="59.8644182" lon="17.6819888">
        <ele>12.1538</ele>
        <time>2013-06-06T14:22:46Z</time>
      </trkpt>
      <trkpt lat="59.8644806" lon="17.681941">
        <ele>12.6344</ele>
        <time>2013-06-06T14:22:47Z</time>
      </trkpt>
      <trkpt lat="59.8645416" lon="17.6818888">
        <ele>12.1538</ele>
        <time>2013-06-06T14:22:48Z</time>
      </trkpt>
      <trkpt lat="59.8646012" lon="17.6818418">
        <ele>12.1538</ele>
        <time>2013-06-06T14:22:49Z</time>
      </trkpt>
      <trkpt lat="59.8646609" lon="17.681793">
        <ele>11.6732</ele>
        <time>2013-06-06T14:22:50Z</time>
      </trkpt>
      <trkpt lat="59.8647232" lon="17.6817282">
        <ele>11.6732</ele>
        <time>2013-06-06T14:22:51Z</time>
      </trkpt>
      <trkpt lat="59.8647806" lon="17.6816521">
        <ele>11.1925</ele>
        <time>2013-06-06T14:22:52Z</time>
      </trkpt>
      <trkpt lat="59.8648335" lon="17.6815687">
        <ele>10.7118</ele>
        <time>2013-06-06T14:22:53Z</time>
      </trkpt>
      <trkpt lat="59.8648805" lon="17.6814784">
        <ele>10.2312</ele>
        <time>2013-06-06T14:22:54Z</time>
      </trkpt>
      <trkpt lat="59.8649257" lon="17.6813896">
        <ele>9.75061</ele>
        <time>2013-06-06T14:22:55Z</time>
      </trkpt>
      <trkpt lat="59.8649701" lon="17.6813055">
        <ele>9.2699</ele>
        <time>2013-06-06T14:22:56Z</time>
      </trkpt>
      <trkpt lat="59.8650147" lon="17.6812273">
        <ele>9.2699</ele>
        <time>2013-06-06T14:22:57Z</time>
      </trkpt>
      <trkpt lat="59.8650557" lon="17.6811486">
        <ele>9.2699</ele>
        <time>2013-06-06T14:22:58Z</time>
      </trkpt>
      <trkpt lat="59.8650878" lon="17.6810593">
        <ele>10.2312</ele>
        <time>2013-06-06T14:22:59Z</time>
      </trkpt>
      <trkpt lat="59.8651052" lon="17.6809623">
        <ele>10.7118</ele>
        <time>2013-06-06T14:23:00Z</time>
      </trkpt>
      <trkpt lat="59.8651149" lon="17.6808611">
        <ele>11.1925</ele>
        <time>2013-06-06T14:23:01Z</time>
      </trkpt>
      <trkpt lat="59.86512" lon="17.6807547">
        <ele>11.6732</ele>
        <time>2013-06-06T14:23:02Z</time>
      </trkpt>
      <trkpt lat="59.8651308" lon="17.6806488">
        <ele>12.1538</ele>
        <time>2013-06-06T14:23:03Z</time>
      </trkpt>
      <trkpt lat="59.8651543" lon="17.6805514">
        <ele>12.6344</ele>
        <time>2013-06-06T14:23:04Z</time>
      </trkpt>
      <trkpt lat="59.8651856" lon="17.6804673">
        <ele>11.6732</ele>
        <time>2013-06-06T14:23:05Z</time>
      </trkpt>
      <trkpt lat="59.8652281" lon="17.6803995">
        <ele>12.1538</ele>
        <time>2013-06-06T14:23:06Z</time>
      </trkpt>
      <trkpt lat="59.8652767" lon="17.6803533">
        <ele>12.6344</ele>
        <time>2013-06-06T14:23:07Z</time>
      </trkpt>
      <trkpt lat="59.8653254" lon="17.6803098">
        <ele>13.5958</ele>
        <time>2013-06-06T14:23:08Z</time>
      </trkpt>
      <trkpt lat="59.8653691" lon="17.6802661">
        <ele>14.0764</ele>
        <time>2013-06-06T14:23:09Z</time>
      </trkpt>
      <trkpt lat="59.8654146" lon="17.6802357">
        <ele>14.557</ele>
        <time>2013-06-06T14:23:10Z</time>
      </trkpt>
      <trkpt lat="59.8654608" lon="17.680229">
        <ele>14.557</ele>
        <time>2013-06-06T14:23:11Z</time>
      </trkpt>
      <trkpt lat="59.8655038" lon="17.6802083">
        <ele>12.6344</ele>
        <time>2013-06-06T14:23:12Z</time>
      </trkpt>
      <trkpt lat="59.865551" lon="17.6801847">
        <ele>13.1151</ele>
        <time>2013-06-06T14:23:13Z</time>
      </trkpt>
      <trkpt lat="59.8655995" lon="17.6801471">
        <ele>13.5958</ele>
        <time>2013-06-06T14:23:14Z</time>
      </trkpt>
      <trkpt lat="59.865645" lon="17.6801182">
        <ele>14.0764</ele>
        <time>2013-06-06T14:23:15Z</time>
      </trkpt>
      <trkpt lat="59.8656958" lon="17.680077">
        <ele>14.557</ele>
        <time>2013-06-06T14:23:16Z</time>
      </trkpt>
      <trkpt lat="59.8657436" lon="17.6800469">
        <ele>14.0764</ele>
        <time>2013-06-06T14:23:17Z</time>
      </trkpt>
      <trkpt lat="59.8657947" lon="17.6800158">
        <ele>13.5958</ele>
        <time>2013-06-06T14:23:18Z</time>
      </trkpt>
      <trkpt lat="59.8658462" lon="17.6799774">
        <ele>12.1538</ele>
        <time>2013-06-06T14:23:19Z</time>
      </trkpt>
      <trkpt lat="59.8658992" lon="17.6799518">
        <ele>10.7118</ele>
        <time>2013-06-06T14:23:20Z</time>
      </trkpt>
      <trkpt lat="59.8659564" lon="17.6799207">
        <ele>10.7118</ele>
        <time>2013-06-06T14:23:21Z</time>
      </trkpt>
      <trkpt lat="59.8660151" lon="17.6798789">
        <ele>11.1925</ele>
        <time>2013-06-06T14:23:22Z</time>
      </trkpt>
      <trkpt lat="59.8660727" lon="17.6798427">
        <ele>11.1925</ele>
        <time>2013-06-06T14:23:23Z</time>
      </trkpt>
      <trkpt lat="59.8661301" lon="17.6798277">
        <ele>11.6732</ele>
        <time>2013-06-06T14:23:24Z</time>
      </trkpt>
      <trkpt lat="59.866188" lon="17.6798028">
        <ele>11.6732</ele>
        <time>2013-06-06T14:23:25Z</time>
      </trkpt>
      <trkpt lat="59.8662457" lon="17.6797738">
        <ele>11.6732</ele>
        <time>2013-06-06T14:23:26Z</time>
      </trkpt>
      <trkpt lat="59.8663077" lon="17.6797391">
        <ele>11.6732</ele>
        <time>2013-06-06T14:23:27Z</time>
      </trkpt>
      <trkpt lat="59.8663699" lon="17.6797128">
        <ele>12.1538</ele>
        <time>2013-06-06T14:23:28Z</time>
      </trkpt>
      <trkpt lat="59.8664313" lon="17.6796904">
        <ele>13.1151</ele>
        <time>2013-06-06T14:23:29Z</time>
      </trkpt>
      <trkpt lat="59.8664953" lon="17.6796564">
        <ele>13.5958</ele>
        <time>2013-06-06T14:23:30Z</time>
      </trkpt>
      <trkpt lat="59.8665605" lon="17.6796272">
        <ele>14.557</ele>
        <time>2013-06-06T14:23:31Z</time>
      </trkpt>
      <trkpt lat="59.8666256" lon="17.6796035">
        <ele>15.5184</ele>
        <time>2013-06-06T14:23:32Z</time>
      </trkpt>
      <trkpt lat="59.8666906" lon="17.6795804">
        <ele>16.4797</ele>
        <time>2013-06-06T14:23:33Z</time>
      </trkpt>
      <trkpt lat="59.8667563" lon="17.6795567">
        <ele>17.4412</ele>
        <time>2013-06-06T14:23:34Z</time>
      </trkpt>
      <trkpt lat="59.8668195" lon="17.6795273">
        <ele>18.8831</ele>
        <time>2013-06-06T14:23:35Z</time>
      </trkpt>
      <trkpt lat="59.8668777" lon="17.6794903">
        <ele>19.3638</ele>
        <time>2013-06-06T14:23:36Z</time>
      </trkpt>
      <trkpt lat="59.8669351" lon="17.6794528">
        <ele>19.8444</ele>
        <time>2013-06-06T14:23:37Z</time>
      </trkpt>
      <trkpt lat="59.8669936" lon="17.6794209">
        <ele>20.325</ele>
        <time>2013-06-06T14:23:38Z</time>
      </trkpt>
      <trkpt lat="59.8670506" lon="17.6793901">
        <ele>21.2864</ele>
        <time>2013-06-06T14:23:39Z</time>
      </trkpt>
      <trkpt lat="59.8671014" lon="17.6793605">
        <ele>20.8057</ele>
        <time>2013-06-06T14:23:40Z</time>
      </trkpt>
      <trkpt lat="59.8671449" lon="17.6793413">
        <ele>20.325</ele>
        <time>2013-06-06T14:23:41Z</time>
      </trkpt>
      <trkpt lat="59.8671908" lon="17.6793201">
        <ele>20.325</ele>
        <time>2013-06-06T14:23:42Z</time>
      </trkpt>
      <trkpt lat="59.867235" lon="17.6793009">
        <ele>19.3638</ele>
        <time>2013-06-06T14:23:43Z</time>
      </trkpt>
      <trkpt lat="59.867281" lon="17.679282">
        <ele>18.4023</ele>
        <time>2013-06-06T14:23:44Z</time>
      </trkpt>
      <trkpt lat="59.867335" lon="17.679275">
        <ele>18.8831</ele>
        <time>2013-06-06T14:23:45Z</time>
      </trkpt>
      <trkpt lat="59.867393" lon="17.6792647">
        <ele>19.3638</ele>
        <time>2013-06-06T14:23:46Z</time>
      </trkpt>
      <trkpt lat="59.8674482" lon="17.6792496">
        <ele>18.8831</ele>
        <time>2013-06-06T14:23:47Z</time>
      </trkpt>
      <trkpt lat="59.8675028" lon="17.6792309">
        <ele>18.4023</ele>
        <time>2013-06-06T14:23:48Z</time>
      </trkpt>
      <trkpt lat="59.8675578" lon="17.6792117">
        <ele>17.9218</ele>
        <time>2013-06-06T14:23:49Z</time>
      </trkpt>
      <trkpt lat="59.8676156" lon="17.6791926">
        <ele>17.4412</ele>
        <time>2013-06-06T14:23:50Z</time>
      </trkpt>
      <trkpt lat="59.867668" lon="17.6791745">
        <ele>16.4797</ele>
        <time>2013-06-06T14:23:51Z</time>
      </trkpt>
      <trkpt lat="59.8677229" lon="17.6791562">
        <ele>15.5184</ele>
        <time>2013-06-06T14:23:52Z</time>
      </trkpt>
      <trkpt lat="59.8677782" lon="17.6791293">
        <ele>14.0764</ele>
        <time>2013-06-06T14:23:53Z</time>
      </trkpt>
      <trkpt lat="59.867835" lon="17.6791021">
        <ele>13.1151</ele>
        <time>2013-06-06T14:23:54Z</time>
      </trkpt>
      <trkpt lat="59.8678912" lon="17.6790692">
        <ele>11.6732</ele>
        <time>2013-06-06T14:23:55Z</time>
      </trkpt>
      <trkpt lat="59.8679479" lon="17.6790371">
        <ele>10.2312</ele>
        <time>2013-06-06T14:23:56Z</time>
      </trkpt>
      <trkpt lat="59.8680051" lon="17.6790059">
        <ele>9.2699</ele>
        <time>2013-06-06T14:23:57Z</time>
      </trkpt>
      <trkpt lat="59.8680686" lon="17.6789709">
        <ele>9.2699</ele>
        <time>2013-06-06T14:23:58Z</time>
      </trkpt>
      <trkpt lat="59.8681321" lon="17.678941">
        <ele>8.78918</ele>
        <time>2013-06-06T14:23:59Z</time>
      </trkpt>
      <trkpt lat="59.8681954" lon="17.6789097">
        <ele>9.2699</ele>
        <time>2013-06-06T14:24:00Z</time>
      </trkpt>
      <trkpt lat="59.8682553" lon="17.6788757">
        <ele>9.2699</ele>
        <time>2013-06-06T14:24:01Z</time>
      </trkpt>
      <trkpt lat="59.8683133" lon="17.6788485">
        <ele>9.75061</ele>
        <time>2013-06-06T14:24:02Z</time>
      </trkpt>
      <trkpt lat="59.8683747" lon="17.6788312">
        <ele>10.7118</ele>
        <time>2013-06-06T14:24:03Z</time>
      </trkpt>
      <trkpt lat="59.8684366" lon="17.6788081">
        <ele>11.1925</ele>
        <time>2013-06-06T14:24:04Z</time>
      </trkpt>
      <trkpt lat="59.8684979" lon="17.6787865">
        <ele>12.1538</ele>
        <time>2013-06-06T14:24:05Z</time>
      </trkpt>
      <trkpt lat="59.8685554" lon="17.6787611">
        <ele>12.1538</ele>
        <time>2013-06-06T14:24:06Z</time>
      </trkpt>
      <trkpt lat="59.8686071" lon="17.6787415">
        <ele>12.1538</ele>
        <time>2013-06-06T14:24:07Z</time>
      </trkpt>
      <trkpt lat="59.8686593" lon="17.6787193">
        <ele>12.1538</ele>
        <time>2013-06-06T14:24:08Z</time>
      </trkpt>
      <trkpt lat="59.8687094" lon="17.6786959">
        <ele>11.6732</ele>
        <time>2013-06-06T14:24:09Z</time>
      </trkpt>
      <trkpt lat="59.8687591" lon="17.6786792">
        <ele>11.1925</ele>
        <time>2013-06-06T14:24:10Z</time>
      </trkpt>
      <trkpt lat="59.8688051" lon="17.6786617">
        <ele>10.7118</ele>
        <time>2013-06-06T14:24:11Z</time>
      </trkpt>
      <trkpt lat="59.8688548" lon="17.6786368">
        <ele>10.7118</ele>
        <time>2013-06-06T14:24:12Z</time>
      </trkpt>
      <trkpt lat="59.8689031" lon="17.6786205">
        <ele>11.1925</ele>
        <time>2013-06-06T14:24:13Z</time>
      </trkpt>
      <trkpt lat="59.868949" lon="17.678605">
        <ele>11.1925</ele>
        <time>2013-06-06T14:24:14Z</time>
      </trkpt>
      <trkpt lat="59.8689988" lon="17.6785834">
        <ele>11.1925</ele>
        <time>2013-06-06T14:24:15Z</time>
      </trkpt>
      <trkpt lat="59.8690452" lon="17.6785685">
        <ele>10.7118</ele>
        <time>2013-06-06T14:24:16Z</time>
      </trkpt>
      <trkpt lat="59.8690982" lon="17.6785524">
        <ele>10.7118</ele>
        <time>2013-06-06T14:24:17Z</time>
      </trkpt>
      <trkpt lat="59.8691525" lon="17.678532">
        <ele>11.1925</ele>
        <time>2013-06-06T14:24:18Z</time>
      </trkpt>
      <trkpt lat="59.8692125" lon="17.6785187">
        <ele>12.1538</ele>
        <time>2013-06-06T14:24:19Z</time>
      </trkpt>
      <trkpt lat="59.8692758" lon="17.6785285">
        <ele>13.5958</ele>
        <time>2013-06-06T14:24:20Z</time>
      </trkpt>
      <trkpt lat="59.8693325" lon="17.6785814">
        <ele>14.0764</ele>
        <time>2013-06-06T14:24:21Z</time>
      </trkpt>
      <trkpt lat="59.8693744" lon="17.6786794">
        <ele>15.5184</ele>
        <time>2013-06-06T14:24:22Z</time>
      </trkpt>
      <trkpt lat="59.8693942" lon="17.6787947">
        <ele>15.999</ele>
        <time>2013-06-06T14:24:23Z</time>
      </trkpt>
      <trkpt lat="59.8694081" lon="17.678904">
        <ele>16.4797</ele>
        <time>2013-06-06T14:24:24Z</time>
      </trkpt>
      <trkpt lat="59.8694226" lon="17.6790081">
        <ele>16.9604</ele>
        <time>2013-06-06T14:24:25Z</time>
      </trkpt>
      <trkpt lat="59.8694371" lon="17.6791055">
        <ele>17.4412</ele>
        <time>2013-06-06T14:24:26Z</time>
      </trkpt>
      <trkpt lat="59.8694531" lon="17.6791968">
        <ele>17.9218</ele>
        <time>2013-06-06T14:24:27Z</time>
      </trkpt>
      <trkpt lat="59.8694653" lon="17.6792859">
        <ele>18.8831</ele>
        <time>2013-06-06T14:24:28Z</time>
      </trkpt>
      <trkpt lat="59.8694801" lon="17.6793672">
        <ele>18.8831</ele>
        <time>2013-06-06T14:24:29Z</time>
      </trkpt>
      <trkpt lat="59.8695032" lon="17.6794264">
        <ele>19.3638</ele>
        <time>2013-06-06T14:24:30Z</time>
      </trkpt>
      <trkpt lat="59.8695338" lon="17.6794475">
        <ele>19.3638</ele>
        <time>2013-06-06T14:24:31Z</time>
      </trkpt>
      <trkpt lat="59.8695736" lon="17.6794253">
        <ele>18.8831</ele>
        <time>2013-06-06T14:24:32Z</time>
      </trkpt>
      <trkpt lat="59.8696205" lon="17.6793956">
        <ele>18.8831</ele>
        <time>2013-06-06T14:24:33Z</time>
      </trkpt>
      <trkpt lat="59.8696707" lon="17.6793662">
        <ele>19.3638</ele>
        <time>2013-06-06T14:24:34Z</time>
      </trkpt>
      <trkpt lat="59.8697209" lon="17.6793385">
        <ele>18.8831</ele>
        <time>2013-06-06T14:24:35Z</time>
      </trkpt>
      <trkpt lat="59.8697692" lon="17.6793163">
        <ele>18.4023</ele>
        <time>2013-06-06T14:24:36Z</time>
      </trkpt>
      <trkpt lat="59.8698199" lon="17.6792955">
        <ele>17.9218</ele>
        <time>2013-06-06T14:24:37Z</time>
      </trkpt>
      <trkpt lat="59.8698768" lon="17.679274">
        <ele>17.9218</ele>
        <time>2013-06-06T14:24:38Z</time>
      </trkpt>
      <trkpt lat="59.869935" lon="17.6792569">
        <ele>17.4412</ele>
        <time>2013-06-06T14:24:39Z</time>
      </trkpt>
      <trkpt lat="59.8699919" lon="17.679237">
        <ele>17.4412</ele>
        <time>2013-06-06T14:24:40Z</time>
      </trkpt>
      <trkpt lat="59.8700434" lon="17.6792185">
        <ele>16.9604</ele>
        <time>2013-06-06T14:24:41Z</time>
      </trkpt>
      <trkpt lat="59.8701011" lon="17.6791971">
        <ele>16.4797</ele>
        <time>2013-06-06T14:24:42Z</time>
      </trkpt>
      <trkpt lat="59.8701592" lon="17.6791782">
        <ele>16.4797</ele>
        <time>2013-06-06T14:24:43Z</time>
      </trkpt>
      <trkpt lat="59.8702187" lon="17.6791608">
        <ele>16.4797</ele>
        <time>2013-06-06T14:24:44Z</time>
      </trkpt>
      <trkpt lat="59.8702793" lon="17.6791407">
        <ele>16.4797</ele>
        <time>2013-06-06T14:24:45Z</time>
      </trkpt>
      <trkpt lat="59.8703354" lon="17.6791227">
        <ele>15.999</ele>
        <time>2013-06-06T14:24:46Z</time>
      </trkpt>
      <trkpt lat="59.8703983" lon="17.6791005">
        <ele>16.4797</ele>
        <time>2013-06-06T14:24:47Z</time>
      </trkpt>
      <trkpt lat="59.8704581" lon="17.6790798">
        <ele>15.5184</ele>
        <time>2013-06-06T14:24:48Z</time>
      </trkpt>
      <trkpt lat="59.8705144" lon="17.6790557">
        <ele>15.0377</ele>
        <time>2013-06-06T14:24:49Z</time>
      </trkpt>
      <trkpt lat="59.8705708" lon="17.6790362">
        <ele>15.5184</ele>
        <time>2013-06-06T14:24:50Z</time>
      </trkpt>
      <trkpt lat="59.870627" lon="17.6790256">
        <ele>15.999</ele>
        <time>2013-06-06T14:24:51Z</time>
      </trkpt>
      <trkpt lat="59.8706817" lon="17.679017">
        <ele>15.999</ele>
        <time>2013-06-06T14:24:52Z</time>
      </trkpt>
      <trkpt lat="59.8707361" lon="17.6790023">
        <ele>16.4797</ele>
        <time>2013-06-06T14:24:53Z</time>
      </trkpt>
      <trkpt lat="59.8707909" lon="17.6789808">
        <ele>16.9604</ele>
        <time>2013-06-06T14:24:54Z</time>
      </trkpt>
      <trkpt lat="59.8708469" lon="17.6789616">
        <ele>16.9604</ele>
        <time>2013-06-06T14:24:55Z</time>
      </trkpt>
      <trkpt lat="59.8709051" lon="17.678945">
        <ele>16.9604</ele>
        <time>2013-06-06T14:24:56Z</time>
      </trkpt>
      <trkpt lat="59.8709636" lon="17.6789248">
        <ele>16.9604</ele>
        <time>2013-06-06T14:24:57Z</time>
      </trkpt>
      <trkpt lat="59.8710233" lon="17.6789049">
        <ele>16.9604</ele>
        <time>2013-06-06T14:24:58Z</time>
      </trkpt>
      <trkpt lat="59.8710848" lon="17.6788918">
        <ele>17.4412</ele>
        <time>2013-06-06T14:24:59Z</time>
      </trkpt>
      <trkpt lat="59.8711464" lon="17.6788782">
        <ele>17.4412</ele>
        <time>2013-06-06T14:25:00Z</time>
      </trkpt>
      <trkpt lat="59.8712074" lon="17.6788574">
        <ele>17.9218</ele>
        <time>2013-06-06T14:25:01Z</time>
      </trkpt>
      <trkpt lat="59.8712682" lon="17.678835">
        <ele>17.9218</ele>
        <time>2013-06-06T14:25:02Z</time>
      </trkpt>
      <trkpt lat="59.8713277" lon="17.6788123">
        <ele>17.9218</ele>
        <time>2013-06-06T14:25:03Z</time>
      </trkpt>
      <trkpt lat="59.871388" lon="17.6787973">
        <ele>17.9218</ele>
        <time>2013-06-06T14:25:04Z</time>
      </trkpt>
      <trkpt lat="59.8714468" lon="17.6787896">
        <ele>17.9218</ele>
        <time>2013-06-06T14:25:05Z</time>
      </trkpt>
      <trkpt lat="59.8715014" lon="17.6787751">
        <ele>17.4412</ele>
        <time>2013-06-06T14:25:06Z</time>
      </trkpt>
      <trkpt lat="59.8715588" lon="17.6787524">
        <ele>17.9218</ele>
        <time>2013-06-06T14:25:07Z</time>
      </trkpt>
      <trkpt lat="59.8716131" lon="17.6787337">
        <ele>17.9218</ele>
        <time>2013-06-06T14:25:08Z</time>
      </trkpt>
      <trkpt lat="59.8716672" lon="17.6787109">
        <ele>17.4412</ele>
        <time>2013-06-06T14:25:09Z</time>
      </trkpt>
      <trkpt lat="59.8717205" lon="17.6786912">
        <ele>17.4412</ele>
        <time>2013-06-06T14:25:10Z</time>
      </trkpt>
      <trkpt lat="59.8717731" lon="17.6786744">
        <ele>17.4412</ele>
        <time>2013-06-06T14:25:11Z</time>
      </trkpt>
      <trkpt lat="59.8718257" lon="17.6786639">
        <ele>17.4412</ele>
        <time>2013-06-06T14:25:12Z</time>
      </trkpt>
      <trkpt lat="59.871878" lon="17.6786508">
        <ele>17.4412</ele>
        <time>2013-06-06T14:25:13Z</time>
      </trkpt>
      <trkpt lat="59.8719319" lon="17.6786372">
        <ele>17.4412</ele>
        <time>2013-06-06T14:25:14Z</time>
      </trkpt>
      <trkpt lat="59.8719894" lon="17.6786222">
        <ele>17.4412</ele>
        <time>2013-06-06T14:25:15Z</time>
      </trkpt>
      <trkpt lat="59.8720427" lon="17.6786094">
        <ele>16.9604</ele>
        <time>2013-06-06T14:25:16Z</time>
      </trkpt>
      <trkpt lat="59.8720961" lon="17.6785954">
        <ele>16.9604</ele>
        <time>2013-06-06T14:25:17Z</time>
      </trkpt>
      <trkpt lat="59.8721499" lon="17.6785819">
        <ele>16.4797</ele>
        <time>2013-06-06T14:25:18Z</time>
      </trkpt>
      <trkpt lat="59.8722043" lon="17.6785698">
        <ele>15.999</ele>
        <time>2013-06-06T14:25:19Z</time>
      </trkpt>
      <trkpt lat="59.8722617" lon="17.6785586">
        <ele>15.999</ele>
        <time>2013-06-06T14:25:20Z</time>
      </trkpt>
      <trkpt lat="59.8723208" lon="17.6785441">
        <ele>15.5184</ele>
        <time>2013-06-06T14:25:21Z</time>
      </trkpt>
      <trkpt lat="59.872384" lon="17.6785239">
        <ele>15.5184</ele>
        <time>2013-06-06T14:25:22Z</time>
      </trkpt>
      <trkpt lat="59.8724482" lon="17.6785058">
        <ele>15.5184</ele>
        <time>2013-06-06T14:25:23Z</time>
      </trkpt>
      <trkpt lat="59.87251" lon="17.6784918">
        <ele>15.5184</ele>
        <time>2013-06-06T14:25:24Z</time>
      </trkpt>
      <trkpt lat="59.8725699" lon="17.6784758">
        <ele>15.0377</ele>
        <time>2013-06-06T14:25:25Z</time>
      </trkpt>
      <trkpt lat="59.8726328" lon="17.6784639">
        <ele>14.557</ele>
        <time>2013-06-06T14:25:26Z</time>
      </trkpt>
      <trkpt lat="59.8727" lon="17.6784499">
        <ele>14.557</ele>
        <time>2013-06-06T14:25:27Z</time>
      </trkpt>
      <trkpt lat="59.8727678" lon="17.6784343">
        <ele>15.0377</ele>
        <time>2013-06-06T14:25:28Z</time>
      </trkpt>
      <trkpt lat="59.8728326" lon="17.6784161">
        <ele>15.0377</ele>
        <time>2013-06-06T14:25:29Z</time>
      </trkpt>
      <trkpt lat="59.8728952" lon="17.6783971">
        <ele>15.5184</ele>
        <time>2013-06-06T14:25:30Z</time>
      </trkpt>
      <trkpt lat="59.8729558" lon="17.6783826">
        <ele>15.5184</ele>
        <time>2013-06-06T14:25:31Z</time>
      </trkpt>
      <trkpt lat="59.8730148" lon="17.6783727">
        <ele>15.999</ele>
        <time>2013-06-06T14:25:32Z</time>
      </trkpt>
      <trkpt lat="59.8730719" lon="17.6783617">
        <ele>15.999</ele>
        <time>2013-06-06T14:25:33Z</time>
      </trkpt>
      <trkpt lat="59.8731263" lon="17.6783498">
        <ele>15.999</ele>
        <time>2013-06-06T14:25:34Z</time>
      </trkpt>
      <trkpt lat="59.8731812" lon="17.678337">
        <ele>15.5184</ele>
        <time>2013-06-06T14:25:35Z</time>
      </trkpt>
      <trkpt lat="59.873238" lon="17.6783229">
        <ele>15.5184</ele>
        <time>2013-06-06T14:25:36Z</time>
      </trkpt>
      <trkpt lat="59.8732993" lon="17.6783064">
        <ele>15.999</ele>
        <time>2013-06-06T14:25:37Z</time>
      </trkpt>
      <trkpt lat="59.8733624" lon="17.6782908">
        <ele>15.999</ele>
        <time>2013-06-06T14:25:38Z</time>
      </trkpt>
      <trkpt lat="59.8734268" lon="17.678273">
        <ele>15.999</ele>
        <time>2013-06-06T14:25:39Z</time>
      </trkpt>
      <trkpt lat="59.8734904" lon="17.6782551">
        <ele>15.999</ele>
        <time>2013-06-06T14:25:40Z</time>
      </trkpt>
      <trkpt lat="59.8735511" lon="17.6782333">
        <ele>15.999</ele>
        <time>2013-06-06T14:25:41Z</time>
      </trkpt>
      <trkpt lat="59.8736084" lon="17.6782061">
        <ele>15.5184</ele>
        <time>2013-06-06T14:25:42Z</time>
      </trkpt>
      <trkpt lat="59.8736613" lon="17.678172">
        <ele>15.5184</ele>
        <time>2013-06-06T14:25:43Z</time>
      </trkpt>
      <trkpt lat="59.8737075" lon="17.6781187">
        <ele>15.0377</ele>
        <time>2013-06-06T14:25:44Z</time>
      </trkpt>
      <trkpt lat="59.8737396" lon="17.6780416">
        <ele>14.557</ele>
        <time>2013-06-06T14:25:45Z</time>
      </trkpt>
      <trkpt lat="59.8737571" lon="17.6779524">
        <ele>13.1151</ele>
        <time>2013-06-06T14:25:46Z</time>
      </trkpt>
      <trkpt lat="59.8737706" lon="17.6778505">
        <ele>12.6344</ele>
        <time>2013-06-06T14:25:47Z</time>
      </trkpt>
      <trkpt lat="59.8737872" lon="17.6777385">
        <ele>14.0764</ele>
        <time>2013-06-06T14:25:48Z</time>
      </trkpt>
      <trkpt lat="59.8738035" lon="17.677623">
        <ele>15.0377</ele>
        <time>2013-06-06T14:25:49Z</time>
      </trkpt>
      <trkpt lat="59.8738187" lon="17.6775091">
        <ele>15.0377</ele>
        <time>2013-06-06T14:25:50Z</time>
      </trkpt>
      <trkpt lat="59.8738339" lon="17.6773975">
        <ele>15.5184</ele>
        <time>2013-06-06T14:25:51Z</time>
      </trkpt>
      <trkpt lat="59.873851" lon="17.6772853">
        <ele>16.4797</ele>
        <time>2013-06-06T14:25:52Z</time>
      </trkpt>
      <trkpt lat="59.8738641" lon="17.6771808">
        <ele>15.0377</ele>
        <time>2013-06-06T14:25:53Z</time>
      </trkpt>
      <trkpt lat="59.8738794" lon="17.677074">
        <ele>15.0377</ele>
        <time>2013-06-06T14:25:54Z</time>
      </trkpt>
      <trkpt lat="59.8738822" lon="17.6769474">
        <ele>15.0377</ele>
        <time>2013-06-06T14:25:55Z</time>
      </trkpt>
      <trkpt lat="59.8739001" lon="17.6767899">
        <ele>15.999</ele>
        <time>2013-06-06T14:25:56Z</time>
      </trkpt>
      <trkpt lat="59.8739059" lon="17.6766623">
        <ele>16.4797</ele>
        <time>2013-06-06T14:25:57Z</time>
      </trkpt>
      <trkpt lat="59.8739353" lon="17.6765407">
        <ele>16.4797</ele>
        <time>2013-06-06T14:25:58Z</time>
      </trkpt>
      <trkpt lat="59.8739817" lon="17.6764631">
        <ele>15.999</ele>
        <time>2013-06-06T14:25:59Z</time>
      </trkpt>
      <trkpt lat="59.8740463" lon="17.6764798">
        <ele>18.4023</ele>
        <time>2013-06-06T14:26:00Z</time>
      </trkpt>
      <trkpt lat="59.8741022" lon="17.6764647">
        <ele>20.325</ele>
        <time>2013-06-06T14:26:01Z</time>
      </trkpt>
      <trkpt lat="59.8741591" lon="17.6764231">
        <ele>19.8444</ele>
        <time>2013-06-06T14:26:02Z</time>
      </trkpt>
      <trkpt lat="59.8742213" lon="17.6763783">
        <ele>19.3638</ele>
        <time>2013-06-06T14:26:03Z</time>
      </trkpt>
      <trkpt lat="59.8742805" lon="17.6763455">
        <ele>17.4412</ele>
        <time>2013-06-06T14:26:04Z</time>
      </trkpt>
      <trkpt lat="59.8743315" lon="17.6762949">
        <ele>15.0377</ele>
        <time>2013-06-06T14:26:05Z</time>
      </trkpt>
      <trkpt lat="59.8743856" lon="17.6762467">
        <ele>15.5184</ele>
        <time>2013-06-06T14:26:06Z</time>
      </trkpt>
      <trkpt lat="59.8744296" lon="17.6761745">
        <ele>15.0377</ele>
        <time>2013-06-06T14:26:07Z</time>
      </trkpt>
      <trkpt lat="59.8744622" lon="17.6761021">
        <ele>14.0764</ele>
        <time>2013-06-06T14:26:08Z</time>
      </trkpt>
      <trkpt lat="59.874485" lon="17.6759984">
        <ele>15.0377</ele>
        <time>2013-06-06T14:26:09Z</time>
      </trkpt>
      <trkpt lat="59.8744939" lon="17.6758897">
        <ele>15.5184</ele>
        <time>2013-06-06T14:26:10Z</time>
      </trkpt>
      <trkpt lat="59.8745071" lon="17.6757821">
        <ele>15.5184</ele>
        <time>2013-06-06T14:26:11Z</time>
      </trkpt>
      <trkpt lat="59.8745394" lon="17.6756898">
        <ele>16.9604</ele>
        <time>2013-06-06T14:26:12Z</time>
      </trkpt>
      <trkpt lat="59.8745887" lon="17.675594">
        <ele>18.4023</ele>
        <time>2013-06-06T14:26:13Z</time>
      </trkpt>
      <trkpt lat="59.8746379" lon="17.6755063">
        <ele>19.8444</ele>
        <time>2013-06-06T14:26:14Z</time>
      </trkpt>
      <trkpt lat="59.8746893" lon="17.6754257">
        <ele>20.8057</ele>
        <time>2013-06-06T14:26:15Z</time>
      </trkpt>
      <trkpt lat="59.8747358" lon="17.6753453">
        <ele>21.767</ele>
        <time>2013-06-06T14:26:16Z</time>
      </trkpt>
      <trkpt lat="59.8747871" lon="17.6752838">
        <ele>21.767</ele>
        <time>2013-06-06T14:26:17Z</time>
      </trkpt>
      <trkpt lat="59.874841" lon="17.6752293">
        <ele>22.2476</ele>
        <time>2013-06-06T14:26:18Z</time>
      </trkpt>
      <trkpt lat="59.8748998" lon="17.6751832">
        <ele>22.2476</ele>
        <time>2013-06-06T14:26:19Z</time>
      </trkpt>
      <trkpt lat="59.8749616" lon="17.6751427">
        <ele>22.7283</ele>
        <time>2013-06-06T14:26:20Z</time>
      </trkpt>
      <trkpt lat="59.8750298" lon="17.6751127">
        <ele>24.1703</ele>
        <time>2013-06-06T14:26:21Z</time>
      </trkpt>
      <trkpt lat="59.8750964" lon="17.6750827">
        <ele>25.1317</ele>
        <time>2013-06-06T14:26:22Z</time>
      </trkpt>
      <trkpt lat="59.87516" lon="17.6750528">
        <ele>25.6123</ele>
        <time>2013-06-06T14:26:23Z</time>
      </trkpt>
      <trkpt lat="59.8752254" lon="17.6750221">
        <ele>26.0929</ele>
        <time>2013-06-06T14:26:24Z</time>
      </trkpt>
      <trkpt lat="59.8752906" lon="17.6749891">
        <ele>25.1317</ele>
        <time>2013-06-06T14:26:27Z</time>
      </trkpt>
      <trkpt lat="59.875347" lon="17.674949">
        <ele>23.6896</ele>
        <time>2013-06-06T14:26:28Z</time>
      </trkpt>
      <trkpt lat="59.8754003" lon="17.6749017">
        <ele>22.7283</ele>
        <time>2013-06-06T14:26:29Z</time>
      </trkpt>
      <trkpt lat="59.8754553" lon="17.6748435">
        <ele>22.7283</ele>
        <time>2013-06-06T14:26:30Z</time>
      </trkpt>
      <trkpt lat="59.8755075" lon="17.6747806">
        <ele>24.1703</ele>
        <time>2013-06-06T14:26:31Z</time>
      </trkpt>
      <trkpt lat="59.8755474" lon="17.6747097">
        <ele>23.6896</ele>
        <time>2013-06-06T14:26:32Z</time>
      </trkpt>
      <trkpt lat="59.8755895" lon="17.6746279">
        <ele>24.1703</ele>
        <time>2013-06-06T14:26:33Z</time>
      </trkpt>
      <trkpt lat="59.8756283" lon="17.6745518">
        <ele>24.1703</ele>
        <time>2013-06-06T14:26:34Z</time>
      </trkpt>
      <trkpt lat="59.8756623" lon="17.6744773">
        <ele>24.1703</ele>
        <time>2013-06-06T14:26:35Z</time>
      </trkpt>
      <trkpt lat="59.8756936" lon="17.6744062">
        <ele>24.1703</ele>
        <time>2013-06-06T14:26:36Z</time>
      </trkpt>
      <trkpt lat="59.87572" lon="17.6743346">
        <ele>23.209</ele>
        <time>2013-06-06T14:26:37Z</time>
      </trkpt>
      <trkpt lat="59.8757514" lon="17.6742473">
        <ele>23.209</ele>
        <time>2013-06-06T14:26:38Z</time>
      </trkpt>
      <trkpt lat="59.8757915" lon="17.674152">
        <ele>23.6896</ele>
        <time>2013-06-06T14:26:39Z</time>
      </trkpt>
      <trkpt lat="59.8758257" lon="17.674058">
        <ele>23.6896</ele>
        <time>2013-06-06T14:26:40Z</time>
      </trkpt>
      <trkpt lat="59.8758622" lon="17.6739772">
        <ele>24.1703</ele>
        <time>2013-06-06T14:26:41Z</time>
      </trkpt>
      <trkpt lat="59.8758997" lon="17.6738846">
        <ele>24.1703</ele>
        <time>2013-06-06T14:26:42Z</time>
      </trkpt>
      <trkpt lat="59.875943" lon="17.6737892">
        <ele>24.1703</ele>
        <time>2013-06-06T14:26:43Z</time>
      </trkpt>
      <trkpt lat="59.8759904" lon="17.6736932">
        <ele>23.6896</ele>
        <time>2013-06-06T14:26:44Z</time>
      </trkpt>
      <trkpt lat="59.876034" lon="17.6735669">
        <ele>24.1703</ele>
        <time>2013-06-06T14:26:45Z</time>
      </trkpt>
      <trkpt lat="59.87608" lon="17.6734724">
        <ele>23.6896</ele>
        <time>2013-06-06T14:26:46Z</time>
      </trkpt>
      <trkpt lat="59.876123" lon="17.6733788">
        <ele>23.6896</ele>
        <time>2013-06-06T14:26:47Z</time>
      </trkpt>
      <trkpt lat="59.8761649" lon="17.6732853">
        <ele>23.209</ele>
        <time>2013-06-06T14:26:48Z</time>
      </trkpt>
      <trkpt lat="59.8762081" lon="17.6731977">
        <ele>23.209</ele>
        <time>2013-06-06T14:26:49Z</time>
      </trkpt>
      <trkpt lat="59.8762509" lon="17.6731122">
        <ele>22.7283</ele>
        <time>2013-06-06T14:26:50Z</time>
      </trkpt>
      <trkpt lat="59.8762922" lon="17.6730317">
        <ele>23.209</ele>
        <time>2013-06-06T14:26:51Z</time>
      </trkpt>
      <trkpt lat="59.8763383" lon="17.6729675">
        <ele>23.6896</ele>
        <time>2013-06-06T14:26:52Z</time>
      </trkpt>
      <trkpt lat="59.8763868" lon="17.6729235">
        <ele>24.1703</ele>
        <time>2013-06-06T14:26:53Z</time>
      </trkpt>
      <trkpt lat="59.8764349" lon="17.6728935">
        <ele>23.6896</ele>
        <time>2013-06-06T14:26:54Z</time>
      </trkpt>
      <trkpt lat="59.8764762" lon="17.6728765">
        <ele>22.7283</ele>
        <time>2013-06-06T14:26:55Z</time>
      </trkpt>
      <trkpt lat="59.8765188" lon="17.6728556">
        <ele>21.767</ele>
        <time>2013-06-06T14:26:56Z</time>
      </trkpt>
      <trkpt lat="59.8765717" lon="17.6728283">
        <ele>21.767</ele>
        <time>2013-06-06T14:26:57Z</time>
      </trkpt>
      <trkpt lat="59.876625" lon="17.6728409">
        <ele>20.8057</ele>
        <time>2013-06-06T14:26:58Z</time>
      </trkpt>
      <trkpt lat="59.8766726" lon="17.6728341">
        <ele>19.8444</ele>
        <time>2013-06-06T14:26:59Z</time>
      </trkpt>
      <trkpt lat="59.8767243" lon="17.6728196">
        <ele>19.3638</ele>
        <time>2013-06-06T14:27:00Z</time>
      </trkpt>
      <trkpt lat="59.8767732" lon="17.672785">
        <ele>19.8444</ele>
        <time>2013-06-06T14:27:01Z</time>
      </trkpt>
      <trkpt lat="59.8768152" lon="17.6727471">
        <ele>19.8444</ele>
        <time>2013-06-06T14:27:02Z</time>
      </trkpt>
      <trkpt lat="59.8768553" lon="17.6726936">
        <ele>19.8444</ele>
        <time>2013-06-06T14:27:03Z</time>
      </trkpt>
      <trkpt lat="59.8768954" lon="17.6726565">
        <ele>20.8057</ele>
        <time>2013-06-06T14:27:04Z</time>
      </trkpt>
      <trkpt lat="59.8769326" lon="17.6726279">
        <ele>19.8444</ele>
        <time>2013-06-06T14:27:05Z</time>
      </trkpt>
      <trkpt lat="59.8769746" lon="17.6726041">
        <ele>19.3638</ele>
        <time>2013-06-06T14:27:06Z</time>
      </trkpt>
      <trkpt lat="59.8770226" lon="17.6725683">
        <ele>21.2864</ele>
        <time>2013-06-06T14:27:07Z</time>
      </trkpt>
      <trkpt lat="59.8770697" lon="17.6725382">
        <ele>21.2864</ele>
        <time>2013-06-06T14:27:08Z</time>
      </trkpt>
      <trkpt lat="59.87712" lon="17.6725058">
        <ele>20.8057</ele>
        <time>2013-06-06T14:27:09Z</time>
      </trkpt>
      <trkpt lat="59.8771757" lon="17.6724723">
        <ele>21.2864</ele>
        <time>2013-06-06T14:27:10Z</time>
      </trkpt>
      <trkpt lat="59.877236" lon="17.6724602">
        <ele>20.325</ele>
        <time>2013-06-06T14:27:11Z</time>
      </trkpt>
      <trkpt lat="59.8772979" lon="17.6724336">
        <ele>21.2864</ele>
        <time>2013-06-06T14:27:12Z</time>
      </trkpt>
      <trkpt lat="59.8773552" lon="17.6724492">
        <ele>21.2864</ele>
        <time>2013-06-06T14:27:13Z</time>
      </trkpt>
      <trkpt lat="59.8773871" lon="17.6725037">
        <ele>18.8831</ele>
        <time>2013-06-06T14:27:14Z</time>
      </trkpt>
      <trkpt lat="59.877417" lon="17.6725096">
        <ele>16.9604</ele>
        <time>2013-06-06T14:27:15Z</time>
      </trkpt>
      <trkpt lat="59.8774609" lon="17.6724909">
        <ele>16.9604</ele>
        <time>2013-06-06T14:27:16Z</time>
      </trkpt>
      <trkpt lat="59.8775028" lon="17.6724532">
        <ele>16.4797</ele>
        <time>2013-06-06T14:27:17Z</time>
      </trkpt>
      <trkpt lat="59.8775438" lon="17.6724123">
        <ele>15.999</ele>
        <time>2013-06-06T14:27:18Z</time>
      </trkpt>
      <trkpt lat="59.877587" lon="17.6723856">
        <ele>15.0377</ele>
        <time>2013-06-06T14:27:19Z</time>
      </trkpt>
      <trkpt lat="59.8776418" lon="17.6723513">
        <ele>15.5184</ele>
        <time>2013-06-06T14:27:20Z</time>
      </trkpt>
      <trkpt lat="59.8777024" lon="17.6722896">
        <ele>17.9218</ele>
        <time>2013-06-06T14:27:21Z</time>
      </trkpt>
      <trkpt lat="59.8777537" lon="17.6722392">
        <ele>18.4023</ele>
        <time>2013-06-06T14:27:22Z</time>
      </trkpt>
      <trkpt lat="59.8778167" lon="17.6721771">
        <ele>20.325</ele>
        <time>2013-06-06T14:27:23Z</time>
      </trkpt>
      <trkpt lat="59.8778682" lon="17.6721399">
        <ele>20.325</ele>
        <time>2013-06-06T14:27:24Z</time>
      </trkpt>
      <trkpt lat="59.8779169" lon="17.6721166">
        <ele>20.325</ele>
        <time>2013-06-06T14:27:25Z</time>
      </trkpt>
      <trkpt lat="59.8779697" lon="17.672085">
        <ele>20.8057</ele>
        <time>2013-06-06T14:27:26Z</time>
      </trkpt>
      <trkpt lat="59.8780246" lon="17.6720446">
        <ele>21.2864</ele>
        <time>2013-06-06T14:27:27Z</time>
      </trkpt>
      <trkpt lat="59.8780789" lon="17.6720164">
        <ele>22.2476</ele>
        <time>2013-06-06T14:27:28Z</time>
      </trkpt>
      <trkpt lat="59.8781337" lon="17.6720057">
        <ele>23.209</ele>
        <time>2013-06-06T14:27:29Z</time>
      </trkpt>
      <trkpt lat="59.8781904" lon="17.6719933">
        <ele>23.209</ele>
        <time>2013-06-06T14:27:30Z</time>
      </trkpt>
      <trkpt lat="59.8782489" lon="17.6719916">
        <ele>23.209</ele>
        <time>2013-06-06T14:27:31Z</time>
      </trkpt>
      <trkpt lat="59.8783068" lon="17.6719944">
        <ele>23.209</ele>
        <time>2013-06-06T14:27:32Z</time>
      </trkpt>
      <trkpt lat="59.8783614" lon="17.6719901">
        <ele>22.7283</ele>
        <time>2013-06-06T14:27:33Z</time>
      </trkpt>
      <trkpt lat="59.8784125" lon="17.6719835">
        <ele>22.7283</ele>
        <time>2013-06-06T14:27:34Z</time>
      </trkpt>
      <trkpt lat="59.8784608" lon="17.6719758">
        <ele>22.7283</ele>
        <time>2013-06-06T14:27:35Z</time>
      </trkpt>
      <trkpt lat="59.8785072" lon="17.6719685">
        <ele>23.209</ele>
        <time>2013-06-06T14:27:36Z</time>
      </trkpt>
      <trkpt lat="59.8785497" lon="17.671961">
        <ele>22.7283</ele>
        <time>2013-06-06T14:27:37Z</time>
      </trkpt>
      <trkpt lat="59.8785903" lon="17.6719523">
        <ele>22.2476</ele>
        <time>2013-06-06T14:27:38Z</time>
      </trkpt>
      <trkpt lat="59.8786296" lon="17.6719513">
        <ele>22.7283</ele>
        <time>2013-06-06T14:27:39Z</time>
      </trkpt>
      <trkpt lat="59.8786649" lon="17.6719849">
        <ele>22.7283</ele>
        <time>2013-06-06T14:27:40Z</time>
      </trkpt>
      <trkpt lat="59.8786944" lon="17.6720612">
        <ele>23.6896</ele>
        <time>2013-06-06T14:27:41Z</time>
      </trkpt>
      <trkpt lat="59.8787166" lon="17.672146">
        <ele>24.1703</ele>
        <time>2013-06-06T14:27:42Z</time>
      </trkpt>
      <trkpt lat="59.8787331" lon="17.6722446">
        <ele>24.651</ele>
        <time>2013-06-06T14:27:43Z</time>
      </trkpt>
      <trkpt lat="59.8787417" lon="17.6723506">
        <ele>24.1703</ele>
        <time>2013-06-06T14:27:44Z</time>
      </trkpt>
      <trkpt lat="59.8787426" lon="17.6724668">
        <ele>24.1703</ele>
        <time>2013-06-06T14:27:45Z</time>
      </trkpt>
      <trkpt lat="59.878754" lon="17.6725771">
        <ele>24.1703</ele>
        <time>2013-06-06T14:27:46Z</time>
      </trkpt>
      <trkpt lat="59.878768" lon="17.6726959">
        <ele>25.6123</ele>
        <time>2013-06-06T14:27:47Z</time>
      </trkpt>
      <trkpt lat="59.8787776" lon="17.672815">
        <ele>24.1703</ele>
        <time>2013-06-06T14:27:48Z</time>
      </trkpt>
      <trkpt lat="59.8787887" lon="17.6729278">
        <ele>25.1317</ele>
        <time>2013-06-06T14:27:49Z</time>
      </trkpt>
      <trkpt lat="59.8788058" lon="17.6730386">
        <ele>27.0543</ele>
        <time>2013-06-06T14:27:50Z</time>
      </trkpt>
      <trkpt lat="59.8788115" lon="17.6731574">
        <ele>26.0929</ele>
        <time>2013-06-06T14:27:51Z</time>
      </trkpt>
      <trkpt lat="59.878817" lon="17.67328">
        <ele>25.1317</ele>
        <time>2013-06-06T14:27:52Z</time>
      </trkpt>
      <trkpt lat="59.8788265" lon="17.6734008">
        <ele>25.1317</ele>
        <time>2013-06-06T14:27:53Z</time>
      </trkpt>
      <trkpt lat="59.8788462" lon="17.6735345">
        <ele>25.1317</ele>
        <time>2013-06-06T14:27:54Z</time>
      </trkpt>
      <trkpt lat="59.8788655" lon="17.6736663">
        <ele>26.0929</ele>
        <time>2013-06-06T14:27:55Z</time>
      </trkpt>
      <trkpt lat="59.8788788" lon="17.6738016">
        <ele>26.0929</ele>
        <time>2013-06-06T14:27:56Z</time>
      </trkpt>
      <trkpt lat="59.8788897" lon="17.6739391">
        <ele>26.5736</ele>
        <time>2013-06-06T14:27:57Z</time>
      </trkpt>
      <trkpt lat="59.878899" lon="17.6740851">
        <ele>26.5736</ele>
        <time>2013-06-06T14:27:58Z</time>
      </trkpt>
      <trkpt lat="59.8789084" lon="17.6742352">
        <ele>26.0929</ele>
        <time>2013-06-06T14:27:59Z</time>
      </trkpt>
      <trkpt lat="59.8789208" lon="17.6743856">
        <ele>26.0929</ele>
        <time>2013-06-06T14:28:00Z</time>
      </trkpt>
      <trkpt lat="59.8789343" lon="17.6745342">
        <ele>26.0929</ele>
        <time>2013-06-06T14:28:01Z</time>
      </trkpt>
      <trkpt lat="59.8789496" lon="17.6746786">
        <ele>26.5736</ele>
        <time>2013-06-06T14:28:02Z</time>
      </trkpt>
      <trkpt lat="59.8789646" lon="17.6748246">
        <ele>25.6123</ele>
        <time>2013-06-06T14:28:03Z</time>
      </trkpt>
      <trkpt lat="59.8789814" lon="17.6749663">
        <ele>25.1317</ele>
        <time>2013-06-06T14:28:04Z</time>
      </trkpt>
      <trkpt lat="59.8790017" lon="17.6751044">
        <ele>26.0929</ele>
        <time>2013-06-06T14:28:05Z</time>
      </trkpt>
      <trkpt lat="59.879004" lon="17.6752428">
        <ele>26.0929</ele>
        <time>2013-06-06T14:28:06Z</time>
      </trkpt>
      <trkpt lat="59.8790025" lon="17.675378">
        <ele>26.0929</ele>
        <time>2013-06-06T14:28:07Z</time>
      </trkpt>
      <trkpt lat="59.879011" lon="17.67551">
        <ele>26.5736</ele>
        <time>2013-06-06T14:28:08Z</time>
      </trkpt>
      <trkpt lat="59.8790335" lon="17.6756314">
        <ele>26.5736</ele>
        <time>2013-06-06T14:28:09Z</time>
      </trkpt>
      <trkpt lat="59.8790694" lon="17.6757178">
        <ele>26.5736</ele>
        <time>2013-06-06T14:28:10Z</time>
      </trkpt>
      <trkpt lat="59.8791223" lon="17.6757333">
        <ele>26.0929</ele>
        <time>2013-06-06T14:28:11Z</time>
      </trkpt>
      <trkpt lat="59.8791787" lon="17.6757005">
        <ele>25.6123</ele>
        <time>2013-06-06T14:28:12Z</time>
      </trkpt>
      <trkpt lat="59.8792481" lon="17.6756096">
        <ele>26.0929</ele>
        <time>2013-06-06T14:28:13Z</time>
      </trkpt>
      <trkpt lat="59.8792954" lon="17.6754915">
        <ele>25.6123</ele>
        <time>2013-06-06T14:28:14Z</time>
      </trkpt>
      <trkpt lat="59.8793461" lon="17.6753779">
        <ele>25.6123</ele>
        <time>2013-06-06T14:28:15Z</time>
      </trkpt>
      <trkpt lat="59.8794025" lon="17.6752656">
        <ele>25.6123</ele>
        <time>2013-06-06T14:28:16Z</time>
      </trkpt>
      <trkpt lat="59.8794662" lon="17.6751754">
        <ele>25.6123</ele>
        <time>2013-06-06T14:28:17Z</time>
      </trkpt>
      <trkpt lat="59.8795355" lon="17.6750922">
        <ele>25.6123</ele>
        <time>2013-06-06T14:28:18Z</time>
      </trkpt>
      <trkpt lat="59.8796071" lon="17.675017">
        <ele>25.6123</ele>
        <time>2013-06-06T14:28:19Z</time>
      </trkpt>
      <trkpt lat="59.8796781" lon="17.6749419">
        <ele>25.1317</ele>
        <time>2013-06-06T14:28:20Z</time>
      </trkpt>
      <trkpt lat="59.8797501" lon="17.6748647">
        <ele>25.1317</ele>
        <time>2013-06-06T14:28:21Z</time>
      </trkpt>
      <trkpt lat="59.8798225" lon="17.6747875">
        <ele>25.1317</ele>
        <time>2013-06-06T14:28:22Z</time>
      </trkpt>
      <trkpt lat="59.8798952" lon="17.6747104">
        <ele>24.651</ele>
        <time>2013-06-06T14:28:23Z</time>
      </trkpt>
      <trkpt lat="59.8799657" lon="17.6746336">
        <ele>23.209</ele>
        <time>2013-06-06T14:28:24Z</time>
      </trkpt>
      <trkpt lat="59.8800392" lon="17.6745575">
        <ele>22.7283</ele>
        <time>2013-06-06T14:28:25Z</time>
      </trkpt>
      <trkpt lat="59.8801115" lon="17.6744825">
        <ele>22.2476</ele>
        <time>2013-06-06T14:28:26Z</time>
      </trkpt>
      <trkpt lat="59.8801852" lon="17.6744105">
        <ele>23.209</ele>
        <time>2013-06-06T14:28:27Z</time>
      </trkpt>
      <trkpt lat="59.8802562" lon="17.6743414">
        <ele>23.209</ele>
        <time>2013-06-06T14:28:28Z</time>
      </trkpt>
      <trkpt lat="59.8803252" lon="17.6742725">
        <ele>23.209</ele>
        <time>2013-06-06T14:28:29Z</time>
      </trkpt>
      <trkpt lat="59.8803926" lon="17.6742022">
        <ele>22.7283</ele>
        <time>2013-06-06T14:28:30Z</time>
      </trkpt>
      <trkpt lat="59.8804592" lon="17.6741353">
        <ele>22.7283</ele>
        <time>2013-06-06T14:28:31Z</time>
      </trkpt>
      <trkpt lat="59.8805249" lon="17.6740709">
        <ele>22.7283</ele>
        <time>2013-06-06T14:28:32Z</time>
      </trkpt>
      <trkpt lat="59.8805893" lon="17.6740083">
        <ele>22.2476</ele>
        <time>2013-06-06T14:28:33Z</time>
      </trkpt>
      <trkpt lat="59.8806535" lon="17.6739473">
        <ele>22.2476</ele>
        <time>2013-06-06T14:28:34Z</time>
      </trkpt>
      <trkpt lat="59.8807193" lon="17.6738861">
        <ele>22.2476</ele>
        <time>2013-06-06T14:28:35Z</time>
      </trkpt>
      <trkpt lat="59.8807854" lon="17.6738253">
        <ele>21.767</ele>
        <time>2013-06-06T14:28:36Z</time>
      </trkpt>
      <trkpt lat="59.8808509" lon="17.6737633">
        <ele>21.767</ele>
        <time>2013-06-06T14:28:37Z</time>
      </trkpt>
      <trkpt lat="59.8809163" lon="17.6737022">
        <ele>21.767</ele>
        <time>2013-06-06T14:28:38Z</time>
      </trkpt>
      <trkpt lat="59.880983" lon="17.6736417">
        <ele>21.767</ele>
        <time>2013-06-06T14:28:39Z</time>
      </trkpt>
      <trkpt lat="59.8810517" lon="17.67358">
        <ele>21.2864</ele>
        <time>2013-06-06T14:28:40Z</time>
      </trkpt>
      <trkpt lat="59.8811217" lon="17.6735182">
        <ele>21.2864</ele>
        <time>2013-06-06T14:28:41Z</time>
      </trkpt>
      <trkpt lat="59.8811929" lon="17.6734573">
        <ele>21.2864</ele>
        <time>2013-06-06T14:28:42Z</time>
      </trkpt>
      <trkpt lat="59.8812648" lon="17.6733971">
        <ele>21.2864</ele>
        <time>2013-06-06T14:28:43Z</time>
      </trkpt>
      <trkpt lat="59.8813357" lon="17.6733368">
        <ele>21.2864</ele>
        <time>2013-06-06T14:28:44Z</time>
      </trkpt>
      <trkpt lat="59.8814055" lon="17.6732775">
        <ele>21.2864</ele>
        <time>2013-06-06T14:28:45Z</time>
      </trkpt>
      <trkpt lat="59.8814742" lon="17.6732184">
        <ele>20.8057</ele>
        <time>2013-06-06T14:28:46Z</time>
      </trkpt>
      <trkpt lat="59.8815418" lon="17.6731597">
        <ele>20.8057</ele>
        <time>2013-06-06T14:28:47Z</time>
      </trkpt>
      <trkpt lat="59.8816082" lon="17.6731029">
        <ele>20.8057</ele>
        <time>2013-06-06T14:28:48Z</time>
      </trkpt>
      <trkpt lat="59.8816734" lon="17.673048">
        <ele>20.8057</ele>
        <time>2013-06-06T14:28:49Z</time>
      </trkpt>
      <trkpt lat="59.881738" lon="17.6729945">
        <ele>20.8057</ele>
        <time>2013-06-06T14:28:50Z</time>
      </trkpt>
      <trkpt lat="59.881803" lon="17.6729413">
        <ele>20.8057</ele>
        <time>2013-06-06T14:28:51Z</time>
      </trkpt>
      <trkpt lat="59.8818693" lon="17.6728886">
        <ele>20.325</ele>
        <time>2013-06-06T14:28:52Z</time>
      </trkpt>
      <trkpt lat="59.881936" lon="17.6728329">
        <ele>20.325</ele>
        <time>2013-06-06T14:28:53Z</time>
      </trkpt>
      <trkpt lat="59.882003" lon="17.672775">
        <ele>20.325</ele>
        <time>2013-06-06T14:28:54Z</time>
      </trkpt>
      <trkpt lat="59.8820704" lon="17.6727154">
        <ele>20.325</ele>
        <time>2013-06-06T14:28:55Z</time>
      </trkpt>
      <trkpt lat="59.8821382" lon="17.6726559">
        <ele>20.325</ele>
        <time>2013-06-06T14:28:56Z</time>
      </trkpt>
      <trkpt lat="59.882207" lon="17.6725971">
        <ele>19.8444</ele>
        <time>2013-06-06T14:28:57Z</time>
      </trkpt>
      <trkpt lat="59.882277" lon="17.6725372">
        <ele>19.8444</ele>
        <time>2013-06-06T14:28:58Z</time>
      </trkpt>
      <trkpt lat="59.8823465" lon="17.6724766">
        <ele>19.8444</ele>
        <time>2013-06-06T14:28:59Z</time>
      </trkpt>
      <trkpt lat="59.8824148" lon="17.6724184">
        <ele>19.3638</ele>
        <time>2013-06-06T14:29:00Z</time>
      </trkpt>
      <trkpt lat="59.8824824" lon="17.6723616">
        <ele>19.3638</ele>
        <time>2013-06-06T14:29:01Z</time>
      </trkpt>
      <trkpt lat="59.8825489" lon="17.6723058">
        <ele>19.3638</ele>
        <time>2013-06-06T14:29:02Z</time>
      </trkpt>
      <trkpt lat="59.8826137" lon="17.6722497">
        <ele>18.8831</ele>
        <time>2013-06-06T14:29:03Z</time>
      </trkpt>
      <trkpt lat="59.882677" lon="17.6721927">
        <ele>18.8831</ele>
        <time>2013-06-06T14:29:04Z</time>
      </trkpt>
      <trkpt lat="59.8827397" lon="17.6721379">
        <ele>18.8831</ele>
        <time>2013-06-06T14:29:05Z</time>
      </trkpt>
      <trkpt lat="59.8828027" lon="17.6720851">
        <ele>18.4023</ele>
        <time>2013-06-06T14:29:06Z</time>
      </trkpt>
      <trkpt lat="59.8828663" lon="17.6720332">
        <ele>18.4023</ele>
        <time>2013-06-06T14:29:07Z</time>
      </trkpt>
      <trkpt lat="59.8829302" lon="17.6719774">
        <ele>18.4023</ele>
        <time>2013-06-06T14:29:08Z</time>
      </trkpt>
      <trkpt lat="59.8829944" lon="17.6719172">
        <ele>17.9218</ele>
        <time>2013-06-06T14:29:09Z</time>
      </trkpt>
      <trkpt lat="59.8830586" lon="17.6718559">
        <ele>17.9218</ele>
        <time>2013-06-06T14:29:10Z</time>
      </trkpt>
      <trkpt lat="59.8831229" lon="17.6717939">
        <ele>17.9218</ele>
        <time>2013-06-06T14:29:11Z</time>
      </trkpt>
      <trkpt lat="59.883188" lon="17.6717317">
        <ele>17.9218</ele>
        <time>2013-06-06T14:29:12Z</time>
      </trkpt>
      <trkpt lat="59.8832519" lon="17.6716688">
        <ele>17.9218</ele>
        <time>2013-06-06T14:29:13Z</time>
      </trkpt>
      <trkpt lat="59.883315" lon="17.6716065">
        <ele>17.4412</ele>
        <time>2013-06-06T14:29:14Z</time>
      </trkpt>
      <trkpt lat="59.8833766" lon="17.6715448">
        <ele>17.4412</ele>
        <time>2013-06-06T14:29:15Z</time>
      </trkpt>
      <trkpt lat="59.8834367" lon="17.6714826">
        <ele>17.4412</ele>
        <time>2013-06-06T14:29:16Z</time>
      </trkpt>
      <trkpt lat="59.8834943" lon="17.6714163">
        <ele>17.4412</ele>
        <time>2013-06-06T14:29:17Z</time>
      </trkpt>
      <trkpt lat="59.8835503" lon="17.6713463">
        <ele>17.4412</ele>
        <time>2013-06-06T14:29:18Z</time>
      </trkpt>
      <trkpt lat="59.8836082" lon="17.6712773">
        <ele>17.4412</ele>
        <time>2013-06-06T14:29:19Z</time>
      </trkpt>
      <trkpt lat="59.8836702" lon="17.6712178">
        <ele>17.4412</ele>
        <time>2013-06-06T14:29:20Z</time>
      </trkpt>
      <trkpt lat="59.8837367" lon="17.671177">
        <ele>17.4412</ele>
        <time>2013-06-06T14:29:21Z</time>
      </trkpt>
      <trkpt lat="59.8838068" lon="17.6711557">
        <ele>16.9604</ele>
        <time>2013-06-06T14:29:22Z</time>
      </trkpt>
      <trkpt lat="59.8838782" lon="17.6711329">
        <ele>16.9604</ele>
        <time>2013-06-06T14:29:23Z</time>
      </trkpt>
      <trkpt lat="59.8839468" lon="17.6710885">
        <ele>16.4797</ele>
        <time>2013-06-06T14:29:24Z</time>
      </trkpt>
      <trkpt lat="59.8839864" lon="17.6709376">
        <ele>15.5184</ele>
        <time>2013-06-06T14:29:25Z</time>
      </trkpt>
      <trkpt lat="59.8840243" lon="17.6708058">
        <ele>15.999</ele>
        <time>2013-06-06T14:29:26Z</time>
      </trkpt>
      <trkpt lat="59.884049" lon="17.670647">
        <ele>16.4797</ele>
        <time>2013-06-06T14:29:27Z</time>
      </trkpt>
      <trkpt lat="59.8840807" lon="17.6704816">
        <ele>18.8831</ele>
        <time>2013-06-06T14:29:28Z</time>
      </trkpt>
      <trkpt lat="59.8841205" lon="17.6703305">
        <ele>19.3638</ele>
        <time>2013-06-06T14:29:29Z</time>
      </trkpt>
      <trkpt lat="59.8841786" lon="17.6702078">
        <ele>19.3638</ele>
        <time>2013-06-06T14:29:30Z</time>
      </trkpt>
      <trkpt lat="59.8842438" lon="17.6700925">
        <ele>18.8831</ele>
        <time>2013-06-06T14:29:31Z</time>
      </trkpt>
      <trkpt lat="59.8843081" lon="17.6699726">
        <ele>18.8831</ele>
        <time>2013-06-06T14:29:32Z</time>
      </trkpt>
      <trkpt lat="59.8843702" lon="17.6698473">
        <ele>18.4023</ele>
        <time>2013-06-06T14:29:33Z</time>
      </trkpt>
      <trkpt lat="59.8844296" lon="17.6697177">
        <ele>18.4023</ele>
        <time>2013-06-06T14:29:34Z</time>
      </trkpt>
      <trkpt lat="59.8844863" lon="17.6695859">
        <ele>18.4023</ele>
        <time>2013-06-06T14:29:35Z</time>
      </trkpt>
      <trkpt lat="59.8845412" lon="17.6694541">
        <ele>17.9218</ele>
        <time>2013-06-06T14:29:36Z</time>
      </trkpt>
      <trkpt lat="59.8845934" lon="17.6693252">
        <ele>17.9218</ele>
        <time>2013-06-06T14:29:37Z</time>
      </trkpt>
      <trkpt lat="59.8846425" lon="17.6691986">
        <ele>17.4412</ele>
        <time>2013-06-06T14:29:38Z</time>
      </trkpt>
      <trkpt lat="59.8846883" lon="17.6690728">
        <ele>17.4412</ele>
        <time>2013-06-06T14:29:39Z</time>
      </trkpt>
      <trkpt lat="59.8847322" lon="17.6689479">
        <ele>16.9604</ele>
        <time>2013-06-06T14:29:40Z</time>
      </trkpt>
      <trkpt lat="59.8847723" lon="17.6688229">
        <ele>16.9604</ele>
        <time>2013-06-06T14:29:41Z</time>
      </trkpt>
      <trkpt lat="59.8848086" lon="17.6686988">
        <ele>16.9604</ele>
        <time>2013-06-06T14:29:42Z</time>
      </trkpt>
      <trkpt lat="59.8848422" lon="17.6685737">
        <ele>16.4797</ele>
        <time>2013-06-06T14:29:43Z</time>
      </trkpt>
      <trkpt lat="59.8848746" lon="17.6684486">
        <ele>16.4797</ele>
        <time>2013-06-06T14:29:44Z</time>
      </trkpt>
      <trkpt lat="59.8849072" lon="17.6683247">
        <ele>15.999</ele>
        <time>2013-06-06T14:29:45Z</time>
      </trkpt>
      <trkpt lat="59.884944" lon="17.668201">
        <ele>16.9604</ele>
        <time>2013-06-06T14:29:46Z</time>
      </trkpt>
      <trkpt lat="59.884981" lon="17.6680905">
        <ele>16.4797</ele>
        <time>2013-06-06T14:29:47Z</time>
      </trkpt>
      <trkpt lat="59.885026" lon="17.6679885">
        <ele>16.9604</ele>
        <time>2013-06-06T14:29:48Z</time>
      </trkpt>
      <trkpt lat="59.8850764" lon="17.6678967">
        <ele>16.9604</ele>
        <time>2013-06-06T14:29:49Z</time>
      </trkpt>
      <trkpt lat="59.8851246" lon="17.6678056">
        <ele>16.4797</ele>
        <time>2013-06-06T14:29:50Z</time>
      </trkpt>
      <trkpt lat="59.8851606" lon="17.6677">
        <ele>16.4797</ele>
        <time>2013-06-06T14:29:51Z</time>
      </trkpt>
      <trkpt lat="59.8851794" lon="17.6675782">
        <ele>16.4797</ele>
        <time>2013-06-06T14:29:52Z</time>
      </trkpt>
      <trkpt lat="59.8851803" lon="17.6674405">
        <ele>16.9604</ele>
        <time>2013-06-06T14:29:53Z</time>
      </trkpt>
      <trkpt lat="59.8851725" lon="17.6673042">
        <ele>17.4412</ele>
        <time>2013-06-06T14:29:54Z</time>
      </trkpt>
      <trkpt lat="59.8851618" lon="17.6671601">
        <ele>16.9604</ele>
        <time>2013-06-06T14:29:55Z</time>
      </trkpt>
      <trkpt lat="59.885159" lon="17.6670112">
        <ele>17.9218</ele>
        <time>2013-06-06T14:29:56Z</time>
      </trkpt>
      <trkpt lat="59.8851633" lon="17.6668553">
        <ele>18.4023</ele>
        <time>2013-06-06T14:29:57Z</time>
      </trkpt>
      <trkpt lat="59.8851696" lon="17.6667034">
        <ele>17.4412</ele>
        <time>2013-06-06T14:29:58Z</time>
      </trkpt>
      <trkpt lat="59.8851813" lon="17.6665538">
        <ele>17.4412</ele>
        <time>2013-06-06T14:29:59Z</time>
      </trkpt>
      <trkpt lat="59.8851932" lon="17.6664081">
        <ele>17.4412</ele>
        <time>2013-06-06T14:30:00Z</time>
      </trkpt>
      <trkpt lat="59.8852064" lon="17.6662647">
        <ele>17.4412</ele>
        <time>2013-06-06T14:30:01Z</time>
      </trkpt>
      <trkpt lat="59.8852198" lon="17.6661259">
        <ele>17.4412</ele>
        <time>2013-06-06T14:30:02Z</time>
      </trkpt>
      <trkpt lat="59.8852337" lon="17.6659901">
        <ele>17.4412</ele>
        <time>2013-06-06T14:30:03Z</time>
      </trkpt>
      <trkpt lat="59.8852477" lon="17.6658543">
        <ele>17.4412</ele>
        <time>2013-06-06T14:30:04Z</time>
      </trkpt>
      <trkpt lat="59.8852638" lon="17.6657187">
        <ele>16.9604</ele>
        <time>2013-06-06T14:30:05Z</time>
      </trkpt>
      <trkpt lat="59.8852799" lon="17.665585">
        <ele>16.9604</ele>
        <time>2013-06-06T14:30:06Z</time>
      </trkpt>
      <trkpt lat="59.8852981" lon="17.6654461">
        <ele>16.9604</ele>
        <time>2013-06-06T14:30:07Z</time>
      </trkpt>
      <trkpt lat="59.8853222" lon="17.6653123">
        <ele>17.9218</ele>
        <time>2013-06-06T14:30:08Z</time>
      </trkpt>
      <trkpt lat="59.8853532" lon="17.6651907">
        <ele>17.9218</ele>
        <time>2013-06-06T14:30:09Z</time>
      </trkpt>
      <trkpt lat="59.8853929" lon="17.6650831">
        <ele>17.9218</ele>
        <time>2013-06-06T14:30:10Z</time>
      </trkpt>
      <trkpt lat="59.8854413" lon="17.6649893">
        <ele>17.4412</ele>
        <time>2013-06-06T14:30:11Z</time>
      </trkpt>
      <trkpt lat="59.8854996" lon="17.6649097">
        <ele>17.4412</ele>
        <time>2013-06-06T14:30:12Z</time>
      </trkpt>
      <trkpt lat="59.8855692" lon="17.664856">
        <ele>17.4412</ele>
        <time>2013-06-06T14:30:13Z</time>
      </trkpt>
      <trkpt lat="59.885645" lon="17.6648317">
        <ele>17.4412</ele>
        <time>2013-06-06T14:30:14Z</time>
      </trkpt>
      <trkpt lat="59.8857264" lon="17.6648448">
        <ele>17.9218</ele>
        <time>2013-06-06T14:30:15Z</time>
      </trkpt>
      <trkpt lat="59.8858067" lon="17.6648826">
        <ele>17.9218</ele>
        <time>2013-06-06T14:30:16Z</time>
      </trkpt>
      <trkpt lat="59.8858932" lon="17.6649084">
        <ele>18.8831</ele>
        <time>2013-06-06T14:30:17Z</time>
      </trkpt>
      <trkpt lat="59.8859862" lon="17.6649212">
        <ele>19.3638</ele>
        <time>2013-06-06T14:30:18Z</time>
      </trkpt>
      <trkpt lat="59.8860771" lon="17.6649017">
        <ele>19.8444</ele>
        <time>2013-06-06T14:30:19Z</time>
      </trkpt>
      <trkpt lat="59.8861582" lon="17.664833">
        <ele>19.8444</ele>
        <time>2013-06-06T14:30:20Z</time>
      </trkpt>
      <trkpt lat="59.8862235" lon="17.6647278">
        <ele>18.8831</ele>
        <time>2013-06-06T14:30:21Z</time>
      </trkpt>
      <trkpt lat="59.8862725" lon="17.6645993">
        <ele>15.999</ele>
        <time>2013-06-06T14:30:22Z</time>
      </trkpt>
      <trkpt lat="59.8863139" lon="17.664439">
        <ele>15.0377</ele>
        <time>2013-06-06T14:30:23Z</time>
      </trkpt>
      <trkpt lat="59.8863574" lon="17.6642751">
        <ele>14.557</ele>
        <time>2013-06-06T14:30:24Z</time>
      </trkpt>
      <trkpt lat="59.8864027" lon="17.6641155">
        <ele>14.0764</ele>
        <time>2013-06-06T14:30:25Z</time>
      </trkpt>
      <trkpt lat="59.8864489" lon="17.663963">
        <ele>14.0764</ele>
        <time>2013-06-06T14:30:26Z</time>
      </trkpt>
      <trkpt lat="59.8864993" lon="17.6638172">
        <ele>13.5958</ele>
        <time>2013-06-06T14:30:27Z</time>
      </trkpt>
      <trkpt lat="59.8865531" lon="17.6636877">
        <ele>13.5958</ele>
        <time>2013-06-06T14:30:28Z</time>
      </trkpt>
      <trkpt lat="59.8866089" lon="17.6635649">
        <ele>13.5958</ele>
        <time>2013-06-06T14:30:29Z</time>
      </trkpt>
      <trkpt lat="59.8866664" lon="17.6634487">
        <ele>13.5958</ele>
        <time>2013-06-06T14:30:30Z</time>
      </trkpt>
      <trkpt lat="59.8867241" lon="17.6633384">
        <ele>14.0764</ele>
        <time>2013-06-06T14:30:31Z</time>
      </trkpt>
      <trkpt lat="59.88678" lon="17.663232">
        <ele>14.0764</ele>
        <time>2013-06-06T14:30:32Z</time>
      </trkpt>
      <trkpt lat="59.8868319" lon="17.663124">
        <ele>14.0764</ele>
        <time>2013-06-06T14:30:33Z</time>
      </trkpt>
      <trkpt lat="59.8868809" lon="17.663014">
        <ele>14.0764</ele>
        <time>2013-06-06T14:30:34Z</time>
      </trkpt>
      <trkpt lat="59.8869265" lon="17.6628985">
        <ele>14.557</ele>
        <time>2013-06-06T14:30:35Z</time>
      </trkpt>
      <trkpt lat="59.8869689" lon="17.6627846">
        <ele>15.0377</ele>
        <time>2013-06-06T14:30:36Z</time>
      </trkpt>
      <trkpt lat="59.8870068" lon="17.6626656">
        <ele>15.5184</ele>
        <time>2013-06-06T14:30:37Z</time>
      </trkpt>
      <trkpt lat="59.8870406" lon="17.6625402">
        <ele>15.5184</ele>
        <time>2013-06-06T14:30:38Z</time>
      </trkpt>
      <trkpt lat="59.8870609" lon="17.6623924">
        <ele>15.999</ele>
        <time>2013-06-06T14:30:39Z</time>
      </trkpt>
      <trkpt lat="59.8870866" lon="17.6622625">
        <ele>16.4797</ele>
        <time>2013-06-06T14:30:40Z</time>
      </trkpt>
      <trkpt lat="59.8871096" lon="17.6621303">
        <ele>15.999</ele>
        <time>2013-06-06T14:30:41Z</time>
      </trkpt>
      <trkpt lat="59.8871275" lon="17.6619823">
        <ele>15.999</ele>
        <time>2013-06-06T14:30:42Z</time>
      </trkpt>
      <trkpt lat="59.8871394" lon="17.6618518">
        <ele>15.999</ele>
        <time>2013-06-06T14:30:43Z</time>
      </trkpt>
      <trkpt lat="59.8871472" lon="17.6617181">
        <ele>15.5184</ele>
        <time>2013-06-06T14:30:44Z</time>
      </trkpt>
      <trkpt lat="59.8871577" lon="17.6615761">
        <ele>15.5184</ele>
        <time>2013-06-06T14:30:45Z</time>
      </trkpt>
      <trkpt lat="59.8871784" lon="17.6614347">
        <ele>15.999</ele>
        <time>2013-06-06T14:30:46Z</time>
      </trkpt>
      <trkpt lat="59.8872082" lon="17.6613001">
        <ele>16.9604</ele>
        <time>2013-06-06T14:30:47Z</time>
      </trkpt>
      <trkpt lat="59.8872545" lon="17.6611901">
        <ele>17.4412</ele>
        <time>2013-06-06T14:30:48Z</time>
      </trkpt>
      <trkpt lat="59.8873135" lon="17.6610996">
        <ele>17.9218</ele>
        <time>2013-06-06T14:30:49Z</time>
      </trkpt>
      <trkpt lat="59.8873783" lon="17.6610152">
        <ele>18.4023</ele>
        <time>2013-06-06T14:30:50Z</time>
      </trkpt>
      <trkpt lat="59.8874483" lon="17.6609424">
        <ele>18.8831</ele>
        <time>2013-06-06T14:30:51Z</time>
      </trkpt>
      <trkpt lat="59.8875213" lon="17.6608735">
        <ele>19.3638</ele>
        <time>2013-06-06T14:30:52Z</time>
      </trkpt>
      <trkpt lat="59.8875957" lon="17.6608204">
        <ele>19.8444</ele>
        <time>2013-06-06T14:30:53Z</time>
      </trkpt>
      <trkpt lat="59.8876644" lon="17.6607407">
        <ele>19.8444</ele>
        <time>2013-06-06T14:30:54Z</time>
      </trkpt>
      <trkpt lat="59.8877271" lon="17.6606499">
        <ele>18.8831</ele>
        <time>2013-06-06T14:30:55Z</time>
      </trkpt>
      <trkpt lat="59.8877863" lon="17.6605587">
        <ele>17.9218</ele>
        <time>2013-06-06T14:30:56Z</time>
      </trkpt>
      <trkpt lat="59.88784" lon="17.6604593">
        <ele>17.4412</ele>
        <time>2013-06-06T14:30:57Z</time>
      </trkpt>
      <trkpt lat="59.8878878" lon="17.6603413">
        <ele>16.9604</ele>
        <time>2013-06-06T14:30:58Z</time>
      </trkpt>
      <trkpt lat="59.8879341" lon="17.6602213">
        <ele>16.4797</ele>
        <time>2013-06-06T14:30:59Z</time>
      </trkpt>
      <trkpt lat="59.8879822" lon="17.6600999">
        <ele>16.4797</ele>
        <time>2013-06-06T14:31:00Z</time>
      </trkpt>
      <trkpt lat="59.888027" lon="17.6599739">
        <ele>16.4797</ele>
        <time>2013-06-06T14:31:01Z</time>
      </trkpt>
      <trkpt lat="59.8880704" lon="17.6598644">
        <ele>16.4797</ele>
        <time>2013-06-06T14:31:02Z</time>
      </trkpt>
      <trkpt lat="59.8881111" lon="17.6597637">
        <ele>15.999</ele>
        <time>2013-06-06T14:31:03Z</time>
      </trkpt>
      <trkpt lat="59.8881502" lon="17.6596637">
        <ele>15.0377</ele>
        <time>2013-06-06T14:31:04Z</time>
      </trkpt>
      <trkpt lat="59.8881895" lon="17.65956">
        <ele>14.557</ele>
        <time>2013-06-06T14:31:05Z</time>
      </trkpt>
      <trkpt lat="59.888231" lon="17.6594506">
        <ele>14.0764</ele>
        <time>2013-06-06T14:31:06Z</time>
      </trkpt>
      <trkpt lat="59.888274" lon="17.659339">
        <ele>14.0764</ele>
        <time>2013-06-06T14:31:07Z</time>
      </trkpt>
      <trkpt lat="59.8883216" lon="17.6592129">
        <ele>15.0377</ele>
        <time>2013-06-06T14:31:08Z</time>
      </trkpt>
      <trkpt lat="59.8883676" lon="17.6590856">
        <ele>15.999</ele>
        <time>2013-06-06T14:31:09Z</time>
      </trkpt>
      <trkpt lat="59.8884138" lon="17.6589592">
        <ele>16.4797</ele>
        <time>2013-06-06T14:31:10Z</time>
      </trkpt>
      <trkpt lat="59.8884598" lon="17.6588276">
        <ele>16.9604</ele>
        <time>2013-06-06T14:31:11Z</time>
      </trkpt>
      <trkpt lat="59.8885065" lon="17.6587028">
        <ele>17.4412</ele>
        <time>2013-06-06T14:31:12Z</time>
      </trkpt>
      <trkpt lat="59.8885556" lon="17.6585852">
        <ele>17.9218</ele>
        <time>2013-06-06T14:31:13Z</time>
      </trkpt>
      <trkpt lat="59.888597" lon="17.658452">
        <ele>16.9604</ele>
        <time>2013-06-06T14:31:14Z</time>
      </trkpt>
      <trkpt lat="59.8886457" lon="17.6583338">
        <ele>16.9604</ele>
        <time>2013-06-06T14:31:15Z</time>
      </trkpt>
      <trkpt lat="59.8886904" lon="17.6582122">
        <ele>16.4797</ele>
        <time>2013-06-06T14:31:16Z</time>
      </trkpt>
      <trkpt lat="59.8887365" lon="17.6580801">
        <ele>16.4797</ele>
        <time>2013-06-06T14:31:17Z</time>
      </trkpt>
      <trkpt lat="59.8887816" lon="17.6579516">
        <ele>16.4797</ele>
        <time>2013-06-06T14:31:18Z</time>
      </trkpt>
      <trkpt lat="59.8888276" lon="17.6578252">
        <ele>16.4797</ele>
        <time>2013-06-06T14:31:19Z</time>
      </trkpt>
      <trkpt lat="59.8888717" lon="17.6577047">
        <ele>15.999</ele>
        <time>2013-06-06T14:31:20Z</time>
      </trkpt>
      <trkpt lat="59.8889162" lon="17.6575916">
        <ele>15.999</ele>
        <time>2013-06-06T14:31:21Z</time>
      </trkpt>
      <trkpt lat="59.8889598" lon="17.6574854">
        <ele>15.5184</ele>
        <time>2013-06-06T14:31:22Z</time>
      </trkpt>
      <trkpt lat="59.8890001" lon="17.6573637">
        <ele>15.5184</ele>
        <time>2013-06-06T14:31:23Z</time>
      </trkpt>
      <trkpt lat="59.8890401" lon="17.6572532">
        <ele>15.5184</ele>
        <time>2013-06-06T14:31:24Z</time>
      </trkpt>
      <trkpt lat="59.8890804" lon="17.6571403">
        <ele>15.999</ele>
        <time>2013-06-06T14:31:25Z</time>
      </trkpt>
      <trkpt lat="59.8891256" lon="17.657032">
        <ele>16.9604</ele>
        <time>2013-06-06T14:31:26Z</time>
      </trkpt>
      <trkpt lat="59.8891706" lon="17.6569092">
        <ele>17.9218</ele>
        <time>2013-06-06T14:31:27Z</time>
      </trkpt>
      <trkpt lat="59.8892093" lon="17.6568032">
        <ele>17.4412</ele>
        <time>2013-06-06T14:31:28Z</time>
      </trkpt>
      <trkpt lat="59.8892518" lon="17.6566951">
        <ele>17.4412</ele>
        <time>2013-06-06T14:31:29Z</time>
      </trkpt>
      <trkpt lat="59.8892925" lon="17.6565929">
        <ele>16.9604</ele>
        <time>2013-06-06T14:31:30Z</time>
      </trkpt>
      <trkpt lat="59.8893339" lon="17.6564945">
        <ele>16.9604</ele>
        <time>2013-06-06T14:31:31Z</time>
      </trkpt>
      <trkpt lat="59.8893753" lon="17.6564002">
        <ele>16.9604</ele>
        <time>2013-06-06T14:31:32Z</time>
      </trkpt>
      <trkpt lat="59.8894127" lon="17.6562876">
        <ele>16.9604</ele>
        <time>2013-06-06T14:31:33Z</time>
      </trkpt>
      <trkpt lat="59.8894524" lon="17.6561917">
        <ele>16.4797</ele>
        <time>2013-06-06T14:31:34Z</time>
      </trkpt>
      <trkpt lat="59.8894932" lon="17.656098">
        <ele>16.4797</ele>
        <time>2013-06-06T14:31:35Z</time>
      </trkpt>
      <trkpt lat="59.8895343" lon="17.6560053">
        <ele>16.4797</ele>
        <time>2013-06-06T14:31:36Z</time>
      </trkpt>
      <trkpt lat="59.8895762" lon="17.6559076">
        <ele>15.999</ele>
        <time>2013-06-06T14:31:37Z</time>
      </trkpt>
      <trkpt lat="59.8896151" lon="17.6558112">
        <ele>15.0377</ele>
        <time>2013-06-06T14:31:38Z</time>
      </trkpt>
      <trkpt lat="59.8896565" lon="17.6557149">
        <ele>14.557</ele>
        <time>2013-06-06T14:31:39Z</time>
      </trkpt>
      <trkpt lat="59.8896978" lon="17.6556076">
        <ele>14.557</ele>
        <time>2013-06-06T14:31:40Z</time>
      </trkpt>
      <trkpt lat="59.8897393" lon="17.6554932">
        <ele>14.557</ele>
        <time>2013-06-06T14:31:41Z</time>
      </trkpt>
      <trkpt lat="59.889781" lon="17.6553875">
        <ele>14.557</ele>
        <time>2013-06-06T14:31:42Z</time>
      </trkpt>
      <trkpt lat="59.8898233" lon="17.6552826">
        <ele>14.0764</ele>
        <time>2013-06-06T14:31:43Z</time>
      </trkpt>
      <trkpt lat="59.8898637" lon="17.6551787">
        <ele>13.5958</ele>
        <time>2013-06-06T14:31:44Z</time>
      </trkpt>
      <trkpt lat="59.8899014" lon="17.6550684">
        <ele>13.1151</ele>
        <time>2013-06-06T14:31:45Z</time>
      </trkpt>
      <trkpt lat="59.8899376" lon="17.6549547">
        <ele>13.1151</ele>
        <time>2013-06-06T14:31:46Z</time>
      </trkpt>
      <trkpt lat="59.8899766" lon="17.6548447">
        <ele>13.5958</ele>
        <time>2013-06-06T14:31:47Z</time>
      </trkpt>
      <trkpt lat="59.8900117" lon="17.654744">
        <ele>14.0764</ele>
        <time>2013-06-06T14:31:48Z</time>
      </trkpt>
      <trkpt lat="59.8900443" lon="17.6546364">
        <ele>14.0764</ele>
        <time>2013-06-06T14:31:49Z</time>
      </trkpt>
      <trkpt lat="59.8900795" lon="17.6545295">
        <ele>14.557</ele>
        <time>2013-06-06T14:31:50Z</time>
      </trkpt>
      <trkpt lat="59.8901148" lon="17.6544256">
        <ele>15.0377</ele>
        <time>2013-06-06T14:31:51Z</time>
      </trkpt>
      <trkpt lat="59.89015" lon="17.6543255">
        <ele>14.0764</ele>
        <time>2013-06-06T14:31:52Z</time>
      </trkpt>
      <trkpt lat="59.8901945" lon="17.6542381">
        <ele>14.0764</ele>
        <time>2013-06-06T14:31:53Z</time>
      </trkpt>
      <trkpt lat="59.8902315" lon="17.6541506">
        <ele>13.5958</ele>
        <time>2013-06-06T14:31:54Z</time>
      </trkpt>
      <trkpt lat="59.8902686" lon="17.6540514">
        <ele>13.5958</ele>
        <time>2013-06-06T14:31:55Z</time>
      </trkpt>
      <trkpt lat="59.8903049" lon="17.6539531">
        <ele>13.5958</ele>
        <time>2013-06-06T14:31:56Z</time>
      </trkpt>
      <trkpt lat="59.8903433" lon="17.6538621">
        <ele>13.5958</ele>
        <time>2013-06-06T14:31:57Z</time>
      </trkpt>
      <trkpt lat="59.8903822" lon="17.6537563">
        <ele>14.0764</ele>
        <time>2013-06-06T14:31:58Z</time>
      </trkpt>
      <trkpt lat="59.8904232" lon="17.6536385">
        <ele>14.557</ele>
        <time>2013-06-06T14:31:59Z</time>
      </trkpt>
      <trkpt lat="59.8904655" lon="17.6535232">
        <ele>14.557</ele>
        <time>2013-06-06T14:32:00Z</time>
      </trkpt>
      <trkpt lat="59.890508" lon="17.6534021">
        <ele>15.0377</ele>
        <time>2013-06-06T14:32:01Z</time>
      </trkpt>
      <trkpt lat="59.8905486" lon="17.6532795">
        <ele>15.5184</ele>
        <time>2013-06-06T14:32:02Z</time>
      </trkpt>
      <trkpt lat="59.8905883" lon="17.6531602">
        <ele>15.5184</ele>
        <time>2013-06-06T14:32:03Z</time>
      </trkpt>
      <trkpt lat="59.8906278" lon="17.6530383">
        <ele>15.999</ele>
        <time>2013-06-06T14:32:04Z</time>
      </trkpt>
      <trkpt lat="59.8906672" lon="17.6529176">
        <ele>16.9604</ele>
        <time>2013-06-06T14:32:05Z</time>
      </trkpt>
      <trkpt lat="59.8907082" lon="17.6527981">
        <ele>16.9604</ele>
        <time>2013-06-06T14:32:06Z</time>
      </trkpt>
      <trkpt lat="59.8907496" lon="17.652689">
        <ele>17.4412</ele>
        <time>2013-06-06T14:32:07Z</time>
      </trkpt>
      <trkpt lat="59.8907893" lon="17.6525772">
        <ele>17.4412</ele>
        <time>2013-06-06T14:32:08Z</time>
      </trkpt>
      <trkpt lat="59.8908282" lon="17.6524574">
        <ele>17.9218</ele>
        <time>2013-06-06T14:32:09Z</time>
      </trkpt>
      <trkpt lat="59.8908665" lon="17.6523324">
        <ele>17.9218</ele>
        <time>2013-06-06T14:32:10Z</time>
      </trkpt>
      <trkpt lat="59.8909052" lon="17.6522103">
        <ele>18.4023</ele>
        <time>2013-06-06T14:32:11Z</time>
      </trkpt>
      <trkpt lat="59.8909437" lon="17.6520929">
        <ele>18.4023</ele>
        <time>2013-06-06T14:32:12Z</time>
      </trkpt>
      <trkpt lat="59.8909841" lon="17.6519785">
        <ele>18.8831</ele>
        <time>2013-06-06T14:32:13Z</time>
      </trkpt>
      <trkpt lat="59.8910268" lon="17.6518691">
        <ele>19.3638</ele>
        <time>2013-06-06T14:32:14Z</time>
      </trkpt>
      <trkpt lat="59.8910674" lon="17.6517612">
        <ele>19.3638</ele>
        <time>2013-06-06T14:32:15Z</time>
      </trkpt>
      <trkpt lat="59.8911031" lon="17.651653">
        <ele>18.8831</ele>
        <time>2013-06-06T14:32:16Z</time>
      </trkpt>
      <trkpt lat="59.8911386" lon="17.651548">
        <ele>18.4023</ele>
        <time>2013-06-06T14:32:17Z</time>
      </trkpt>
      <trkpt lat="59.8911754" lon="17.651447">
        <ele>17.9218</ele>
        <time>2013-06-06T14:32:18Z</time>
      </trkpt>
      <trkpt lat="59.8912094" lon="17.6513516">
        <ele>18.4023</ele>
        <time>2013-06-06T14:32:19Z</time>
      </trkpt>
      <trkpt lat="59.891242" lon="17.6512598">
        <ele>17.9218</ele>
        <time>2013-06-06T14:32:20Z</time>
      </trkpt>
      <trkpt lat="59.8912754" lon="17.6511702">
        <ele>17.9218</ele>
        <time>2013-06-06T14:32:21Z</time>
      </trkpt>
      <trkpt lat="59.8913111" lon="17.6510755">
        <ele>17.9218</ele>
        <time>2013-06-06T14:32:22Z</time>
      </trkpt>
      <trkpt lat="59.8913457" lon="17.6509771">
        <ele>17.9218</ele>
        <time>2013-06-06T14:32:23Z</time>
      </trkpt>
      <trkpt lat="59.8913768" lon="17.6508851">
        <ele>17.9218</ele>
        <time>2013-06-06T14:32:24Z</time>
      </trkpt>
      <trkpt lat="59.8914069" lon="17.6507923">
        <ele>17.9218</ele>
        <time>2013-06-06T14:32:25Z</time>
      </trkpt>
      <trkpt lat="59.8914349" lon="17.6506986">
        <ele>17.9218</ele>
        <time>2013-06-06T14:32:26Z</time>
      </trkpt>
      <trkpt lat="59.8914642" lon="17.650596">
        <ele>18.4023</ele>
        <time>2013-06-06T14:32:27Z</time>
      </trkpt>
      <trkpt lat="59.8914974" lon="17.6504922">
        <ele>19.3638</ele>
        <time>2013-06-06T14:32:28Z</time>
      </trkpt>
      <trkpt lat="59.8915249" lon="17.6503909">
        <ele>19.3638</ele>
        <time>2013-06-06T14:32:29Z</time>
      </trkpt>
      <trkpt lat="59.8915535" lon="17.6502867">
        <ele>19.8444</ele>
        <time>2013-06-06T14:32:30Z</time>
      </trkpt>
      <trkpt lat="59.8915754" lon="17.6501977">
        <ele>19.3638</ele>
        <time>2013-06-06T14:32:31Z</time>
      </trkpt>
      <trkpt lat="59.891608" lon="17.6500904">
        <ele>19.3638</ele>
        <time>2013-06-06T14:32:32Z</time>
      </trkpt>
      <trkpt lat="59.8916447" lon="17.6499814">
        <ele>20.325</ele>
        <time>2013-06-06T14:32:33Z</time>
      </trkpt>
      <trkpt lat="59.8916778" lon="17.6498651">
        <ele>21.2864</ele>
        <time>2013-06-06T14:32:34Z</time>
      </trkpt>
      <trkpt lat="59.8917072" lon="17.6497402">
        <ele>22.7283</ele>
        <time>2013-06-06T14:32:35Z</time>
      </trkpt>
      <trkpt lat="59.8917377" lon="17.649621">
        <ele>26.5736</ele>
        <time>2013-06-06T14:32:36Z</time>
      </trkpt>
      <trkpt lat="59.891766" lon="17.6495044">
        <ele>27.0543</ele>
        <time>2013-06-06T14:32:37Z</time>
      </trkpt>
      <trkpt lat="59.8917952" lon="17.6493786">
        <ele>27.5349</ele>
        <time>2013-06-06T14:32:38Z</time>
      </trkpt>
      <trkpt lat="59.8918216" lon="17.6492465">
        <ele>28.0155</ele>
        <time>2013-06-06T14:32:39Z</time>
      </trkpt>
      <trkpt lat="59.8918444" lon="17.6491102">
        <ele>28.0155</ele>
        <time>2013-06-06T14:32:40Z</time>
      </trkpt>
      <trkpt lat="59.8918638" lon="17.6489822">
        <ele>28.0155</ele>
        <time>2013-06-06T14:32:41Z</time>
      </trkpt>
      <trkpt lat="59.891881" lon="17.6488552">
        <ele>28.0155</ele>
        <time>2013-06-06T14:32:42Z</time>
      </trkpt>
      <trkpt lat="59.891898" lon="17.6487404">
        <ele>27.0543</ele>
        <time>2013-06-06T14:32:43Z</time>
      </trkpt>
      <trkpt lat="59.891916" lon="17.6486232">
        <ele>27.0543</ele>
        <time>2013-06-06T14:32:44Z</time>
      </trkpt>
      <trkpt lat="59.8919353" lon="17.6485129">
        <ele>26.5736</ele>
        <time>2013-06-06T14:32:45Z</time>
      </trkpt>
      <trkpt lat="59.8919558" lon="17.6484035">
        <ele>26.0929</ele>
        <time>2013-06-06T14:32:46Z</time>
      </trkpt>
      <trkpt lat="59.8919752" lon="17.6482859">
        <ele>25.6123</ele>
        <time>2013-06-06T14:32:47Z</time>
      </trkpt>
      <trkpt lat="59.8919954" lon="17.6481643">
        <ele>25.6123</ele>
        <time>2013-06-06T14:32:48Z</time>
      </trkpt>
      <trkpt lat="59.8920154" lon="17.6480362">
        <ele>25.6123</ele>
        <time>2013-06-06T14:32:49Z</time>
      </trkpt>
      <trkpt lat="59.892034" lon="17.6479151">
        <ele>25.1317</ele>
        <time>2013-06-06T14:32:50Z</time>
      </trkpt>
      <trkpt lat="59.8920518" lon="17.6477966">
        <ele>24.651</ele>
        <time>2013-06-06T14:32:51Z</time>
      </trkpt>
      <trkpt lat="59.8920699" lon="17.6476829">
        <ele>24.1703</ele>
        <time>2013-06-06T14:32:52Z</time>
      </trkpt>
      <trkpt lat="59.8920874" lon="17.6475613">
        <ele>23.6896</ele>
        <time>2013-06-06T14:32:53Z</time>
      </trkpt>
      <trkpt lat="59.8921077" lon="17.6474329">
        <ele>23.6896</ele>
        <time>2013-06-06T14:32:54Z</time>
      </trkpt>
      <trkpt lat="59.8921285" lon="17.6473044">
        <ele>23.6896</ele>
        <time>2013-06-06T14:32:55Z</time>
      </trkpt>
      <trkpt lat="59.8921445" lon="17.647176">
        <ele>22.7283</ele>
        <time>2013-06-06T14:32:56Z</time>
      </trkpt>
      <trkpt lat="59.8921596" lon="17.6470417">
        <ele>22.7283</ele>
        <time>2013-06-06T14:32:57Z</time>
      </trkpt>
      <trkpt lat="59.8921741" lon="17.6469102">
        <ele>22.7283</ele>
        <time>2013-06-06T14:32:58Z</time>
      </trkpt>
      <trkpt lat="59.8921874" lon="17.6467786">
        <ele>22.2476</ele>
        <time>2013-06-06T14:32:59Z</time>
      </trkpt>
      <trkpt lat="59.8921978" lon="17.6466381">
        <ele>22.2476</ele>
        <time>2013-06-06T14:33:00Z</time>
      </trkpt>
      <trkpt lat="59.8922087" lon="17.646503">
        <ele>22.2476</ele>
        <time>2013-06-06T14:33:01Z</time>
      </trkpt>
      <trkpt lat="59.8922208" lon="17.646368">
        <ele>22.2476</ele>
        <time>2013-06-06T14:33:02Z</time>
      </trkpt>
      <trkpt lat="59.892234" lon="17.6462278">
        <ele>22.7283</ele>
        <time>2013-06-06T14:33:03Z</time>
      </trkpt>
      <trkpt lat="59.8922492" lon="17.6461058">
        <ele>23.209</ele>
        <time>2013-06-06T14:33:04Z</time>
      </trkpt>
      <trkpt lat="59.8922661" lon="17.6459866">
        <ele>23.6896</ele>
        <time>2013-06-06T14:33:05Z</time>
      </trkpt>
      <trkpt lat="59.8922767" lon="17.645854">
        <ele>23.6896</ele>
        <time>2013-06-06T14:33:06Z</time>
      </trkpt>
      <trkpt lat="59.8922895" lon="17.6457259">
        <ele>23.6896</ele>
        <time>2013-06-06T14:33:07Z</time>
      </trkpt>
      <trkpt lat="59.8922999" lon="17.6456041">
        <ele>23.209</ele>
        <time>2013-06-06T14:33:08Z</time>
      </trkpt>
      <trkpt lat="59.8923181" lon="17.6454665">
        <ele>24.1703</ele>
        <time>2013-06-06T14:33:09Z</time>
      </trkpt>
      <trkpt lat="59.8923288" lon="17.6453386">
        <ele>23.6896</ele>
        <time>2013-06-06T14:33:10Z</time>
      </trkpt>
      <trkpt lat="59.8923383" lon="17.6452053">
        <ele>22.7283</ele>
        <time>2013-06-06T14:33:11Z</time>
      </trkpt>
      <trkpt lat="59.8923476" lon="17.6450734">
        <ele>23.209</ele>
        <time>2013-06-06T14:33:12Z</time>
      </trkpt>
      <trkpt lat="59.8923581" lon="17.6449473">
        <ele>21.767</ele>
        <time>2013-06-06T14:33:13Z</time>
      </trkpt>
      <trkpt lat="59.8923698" lon="17.6448323">
        <ele>21.2864</ele>
        <time>2013-06-06T14:33:14Z</time>
      </trkpt>
      <trkpt lat="59.8923817" lon="17.6447237">
        <ele>21.767</ele>
        <time>2013-06-06T14:33:15Z</time>
      </trkpt>
      <trkpt lat="59.8923948" lon="17.644613">
        <ele>22.2476</ele>
        <time>2013-06-06T14:33:16Z</time>
      </trkpt>
      <trkpt lat="59.8924088" lon="17.6445075">
        <ele>21.2864</ele>
        <time>2013-06-06T14:33:17Z</time>
      </trkpt>
      <trkpt lat="59.8924263" lon="17.6444044">
        <ele>21.767</ele>
        <time>2013-06-06T14:33:18Z</time>
      </trkpt>
      <trkpt lat="59.8924418" lon="17.6443005">
        <ele>21.767</ele>
        <time>2013-06-06T14:33:19Z</time>
      </trkpt>
      <trkpt lat="59.8924534" lon="17.6441752">
        <ele>22.2476</ele>
        <time>2013-06-06T14:33:20Z</time>
      </trkpt>
      <trkpt lat="59.8924677" lon="17.6440482">
        <ele>22.2476</ele>
        <time>2013-06-06T14:33:21Z</time>
      </trkpt>
      <trkpt lat="59.892485" lon="17.6439202">
        <ele>22.2476</ele>
        <time>2013-06-06T14:33:22Z</time>
      </trkpt>
      <trkpt lat="59.8924989" lon="17.6437842">
        <ele>22.2476</ele>
        <time>2013-06-06T14:33:23Z</time>
      </trkpt>
      <trkpt lat="59.8925121" lon="17.6436499">
        <ele>21.767</ele>
        <time>2013-06-06T14:33:24Z</time>
      </trkpt>
      <trkpt lat="59.8925236" lon="17.6435207">
        <ele>21.767</ele>
        <time>2013-06-06T14:33:25Z</time>
      </trkpt>
      <trkpt lat="59.8925362" lon="17.6433879">
        <ele>22.2476</ele>
        <time>2013-06-06T14:33:26Z</time>
      </trkpt>
      <trkpt lat="59.8925492" lon="17.643251">
        <ele>20.8057</ele>
        <time>2013-06-06T14:33:27Z</time>
      </trkpt>
      <trkpt lat="59.8925653" lon="17.6431257">
        <ele>19.3638</ele>
        <time>2013-06-06T14:33:28Z</time>
      </trkpt>
      <trkpt lat="59.892582" lon="17.6429926">
        <ele>18.8831</ele>
        <time>2013-06-06T14:33:29Z</time>
      </trkpt>
      <trkpt lat="59.8925988" lon="17.6428641">
        <ele>19.3638</ele>
        <time>2013-06-06T14:33:30Z</time>
      </trkpt>
      <trkpt lat="59.8926045" lon="17.642715">
        <ele>20.325</ele>
        <time>2013-06-06T14:33:31Z</time>
      </trkpt>
      <trkpt lat="59.892596" lon="17.6425681">
        <ele>20.325</ele>
        <time>2013-06-06T14:33:32Z</time>
      </trkpt>
      <trkpt lat="59.8926128" lon="17.6424548">
        <ele>20.325</ele>
        <time>2013-06-06T14:33:33Z</time>
      </trkpt>
      <trkpt lat="59.8926171" lon="17.6423001">
        <ele>20.8057</ele>
        <time>2013-06-06T14:33:34Z</time>
      </trkpt>
      <trkpt lat="59.8926214" lon="17.6421415">
        <ele>21.767</ele>
        <time>2013-06-06T14:33:35Z</time>
      </trkpt>
      <trkpt lat="59.8926315" lon="17.6419781">
        <ele>22.2476</ele>
        <time>2013-06-06T14:33:36Z</time>
      </trkpt>
      <trkpt lat="59.892638" lon="17.641817">
        <ele>23.209</ele>
        <time>2013-06-06T14:33:37Z</time>
      </trkpt>
      <trkpt lat="59.892647" lon="17.6416664">
        <ele>23.6896</ele>
        <time>2013-06-06T14:33:38Z</time>
      </trkpt>
      <trkpt lat="59.8926551" lon="17.6415234">
        <ele>23.6896</ele>
        <time>2013-06-06T14:33:39Z</time>
      </trkpt>
      <trkpt lat="59.8926634" lon="17.6413748">
        <ele>24.651</ele>
        <time>2013-06-06T14:33:40Z</time>
      </trkpt>
      <trkpt lat="59.8926718" lon="17.6412323">
        <ele>24.651</ele>
        <time>2013-06-06T14:33:41Z</time>
      </trkpt>
      <trkpt lat="59.8926802" lon="17.6411011">
        <ele>25.1317</ele>
        <time>2013-06-06T14:33:42Z</time>
      </trkpt>
      <trkpt lat="59.8926899" lon="17.6409755">
        <ele>24.651</ele>
        <time>2013-06-06T14:33:43Z</time>
      </trkpt>
      <trkpt lat="59.8926972" lon="17.640849">
        <ele>24.651</ele>
        <time>2013-06-06T14:33:44Z</time>
      </trkpt>
      <trkpt lat="59.8927055" lon="17.640732">
        <ele>25.1317</ele>
        <time>2013-06-06T14:33:45Z</time>
      </trkpt>
      <trkpt lat="59.8927168" lon="17.6406178">
        <ele>24.651</ele>
        <time>2013-06-06T14:33:46Z</time>
      </trkpt>
      <trkpt lat="59.8927251" lon="17.6404956">
        <ele>24.651</ele>
        <time>2013-06-06T14:33:47Z</time>
      </trkpt>
      <trkpt lat="59.8927283" lon="17.640363">
        <ele>23.6896</ele>
        <time>2013-06-06T14:33:48Z</time>
      </trkpt>
      <trkpt lat="59.892731" lon="17.6402233">
        <ele>23.209</ele>
        <time>2013-06-06T14:33:49Z</time>
      </trkpt>
      <trkpt lat="59.8927347" lon="17.6400875">
        <ele>22.7283</ele>
        <time>2013-06-06T14:33:50Z</time>
      </trkpt>
      <trkpt lat="59.8927378" lon="17.6399556">
        <ele>22.7283</ele>
        <time>2013-06-06T14:33:51Z</time>
      </trkpt>
      <trkpt lat="59.8927404" lon="17.63983">
        <ele>23.209</ele>
        <time>2013-06-06T14:33:52Z</time>
      </trkpt>
      <trkpt lat="59.8927443" lon="17.6397115">
        <ele>23.209</ele>
        <time>2013-06-06T14:33:53Z</time>
      </trkpt>
      <trkpt lat="59.8927464" lon="17.6395851">
        <ele>23.209</ele>
        <time>2013-06-06T14:33:54Z</time>
      </trkpt>
      <trkpt lat="59.8927497" lon="17.6394562">
        <ele>24.1703</ele>
        <time>2013-06-06T14:33:55Z</time>
      </trkpt>
      <trkpt lat="59.8927499" lon="17.6393203">
        <ele>23.209</ele>
        <time>2013-06-06T14:33:56Z</time>
      </trkpt>
      <trkpt lat="59.8927521" lon="17.6392003">
        <ele>21.767</ele>
        <time>2013-06-06T14:33:57Z</time>
      </trkpt>
      <trkpt lat="59.8927514" lon="17.6390696">
        <ele>21.767</ele>
        <time>2013-06-06T14:33:58Z</time>
      </trkpt>
      <trkpt lat="59.8927499" lon="17.638955">
        <ele>21.767</ele>
        <time>2013-06-06T14:33:59Z</time>
      </trkpt>
      <trkpt lat="59.8927473" lon="17.6388464">
        <ele>21.2864</ele>
        <time>2013-06-06T14:34:00Z</time>
      </trkpt>
      <trkpt lat="59.892748" lon="17.6387186">
        <ele>21.767</ele>
        <time>2013-06-06T14:34:01Z</time>
      </trkpt>
      <trkpt lat="59.8927464" lon="17.6385973">
        <ele>22.2476</ele>
        <time>2013-06-06T14:34:02Z</time>
      </trkpt>
      <trkpt lat="59.8927541" lon="17.6384818">
        <ele>22.2476</ele>
        <time>2013-06-06T14:34:03Z</time>
      </trkpt>
      <trkpt lat="59.8927719" lon="17.6383433">
        <ele>22.7283</ele>
        <time>2013-06-06T14:34:04Z</time>
      </trkpt>
      <trkpt lat="59.8928101" lon="17.638258">
        <ele>22.2476</ele>
        <time>2013-06-06T14:34:05Z</time>
      </trkpt>
      <trkpt lat="59.8928589" lon="17.6382166">
        <ele>21.767</ele>
        <time>2013-06-06T14:34:06Z</time>
      </trkpt>
      <trkpt lat="59.8929127" lon="17.638193">
        <ele>21.767</ele>
        <time>2013-06-06T14:34:07Z</time>
      </trkpt>
      <trkpt lat="59.8929669" lon="17.6382007">
        <ele>21.2864</ele>
        <time>2013-06-06T14:34:08Z</time>
      </trkpt>
      <trkpt lat="59.8930163" lon="17.6381881">
        <ele>20.8057</ele>
        <time>2013-06-06T14:34:09Z</time>
      </trkpt>
      <trkpt lat="59.8930634" lon="17.6381673">
        <ele>21.2864</ele>
        <time>2013-06-06T14:34:10Z</time>
      </trkpt>
      <trkpt lat="59.8931151" lon="17.638149">
        <ele>21.2864</ele>
        <time>2013-06-06T14:34:11Z</time>
      </trkpt>
      <trkpt lat="59.8931727" lon="17.6381248">
        <ele>21.767</ele>
        <time>2013-06-06T14:34:12Z</time>
      </trkpt>
      <trkpt lat="59.8932298" lon="17.6380987">
        <ele>21.767</ele>
        <time>2013-06-06T14:34:13Z</time>
      </trkpt>
      <trkpt lat="59.8932894" lon="17.6380686">
        <ele>22.2476</ele>
        <time>2013-06-06T14:34:14Z</time>
      </trkpt>
      <trkpt lat="59.893348" lon="17.6380471">
        <ele>23.209</ele>
        <time>2013-06-06T14:34:15Z</time>
      </trkpt>
      <trkpt lat="59.8934105" lon="17.6380132">
        <ele>22.7283</ele>
        <time>2013-06-06T14:34:16Z</time>
      </trkpt>
      <trkpt lat="59.8934785" lon="17.6379714">
        <ele>23.209</ele>
        <time>2013-06-06T14:34:17Z</time>
      </trkpt>
      <trkpt lat="59.8935534" lon="17.6379435">
        <ele>24.1703</ele>
        <time>2013-06-06T14:34:18Z</time>
      </trkpt>
      <trkpt lat="59.8936258" lon="17.6378991">
        <ele>24.651</ele>
        <time>2013-06-06T14:34:19Z</time>
      </trkpt>
      <trkpt lat="59.8936944" lon="17.6378559">
        <ele>25.1317</ele>
        <time>2013-06-06T14:34:20Z</time>
      </trkpt>
      <trkpt lat="59.893759" lon="17.63781">
        <ele>25.1317</ele>
        <time>2013-06-06T14:34:21Z</time>
      </trkpt>
      <trkpt lat="59.8938238" lon="17.6377613">
        <ele>25.6123</ele>
        <time>2013-06-06T14:34:22Z</time>
      </trkpt>
      <trkpt lat="59.8938897" lon="17.6377205">
        <ele>26.0929</ele>
        <time>2013-06-06T14:34:23Z</time>
      </trkpt>
      <trkpt lat="59.8939538" lon="17.6376793">
        <ele>26.5736</ele>
        <time>2013-06-06T14:34:24Z</time>
      </trkpt>
      <trkpt lat="59.894017" lon="17.6376332">
        <ele>26.5736</ele>
        <time>2013-06-06T14:34:25Z</time>
      </trkpt>
      <trkpt lat="59.894082" lon="17.6375936">
        <ele>27.0543</ele>
        <time>2013-06-06T14:34:26Z</time>
      </trkpt>
      <trkpt lat="59.8941481" lon="17.6375523">
        <ele>28.4962</ele>
        <time>2013-06-06T14:34:27Z</time>
      </trkpt>
      <trkpt lat="59.8942114" lon="17.6375022">
        <ele>28.9769</ele>
        <time>2013-06-06T14:34:28Z</time>
      </trkpt>
      <trkpt lat="59.8942754" lon="17.6374571">
        <ele>29.4575</ele>
        <time>2013-06-06T14:34:29Z</time>
      </trkpt>
      <trkpt lat="59.8943378" lon="17.6374222">
        <ele>29.4575</ele>
        <time>2013-06-06T14:34:30Z</time>
      </trkpt>
      <trkpt lat="59.8944077" lon="17.6373824">
        <ele>30.4188</ele>
        <time>2013-06-06T14:34:31Z</time>
      </trkpt>
      <trkpt lat="59.8944756" lon="17.6373487">
        <ele>31.8607</ele>
        <time>2013-06-06T14:34:32Z</time>
      </trkpt>
      <trkpt lat="59.894541" lon="17.6373146">
        <ele>32.3416</ele>
        <time>2013-06-06T14:34:33Z</time>
      </trkpt>
      <trkpt lat="59.8945961" lon="17.6372825">
        <ele>30.8995</ele>
        <time>2013-06-06T14:34:34Z</time>
      </trkpt>
      <trkpt lat="59.8946515" lon="17.6372489">
        <ele>30.4188</ele>
        <time>2013-06-06T14:34:35Z</time>
      </trkpt>
      <trkpt lat="59.8947091" lon="17.6372098">
        <ele>30.8995</ele>
        <time>2013-06-06T14:34:36Z</time>
      </trkpt>
      <trkpt lat="59.8947672" lon="17.6371715">
        <ele>31.3801</ele>
        <time>2013-06-06T14:34:37Z</time>
      </trkpt>
      <trkpt lat="59.8948241" lon="17.6371329">
        <ele>31.3801</ele>
        <time>2013-06-06T14:34:38Z</time>
      </trkpt>
      <trkpt lat="59.8948817" lon="17.6370918">
        <ele>31.8607</ele>
        <time>2013-06-06T14:34:39Z</time>
      </trkpt>
      <trkpt lat="59.8949431" lon="17.6370497">
        <ele>31.8607</ele>
        <time>2013-06-06T14:34:40Z</time>
      </trkpt>
      <trkpt lat="59.8950039" lon="17.637007">
        <ele>31.8607</ele>
        <time>2013-06-06T14:34:41Z</time>
      </trkpt>
      <trkpt lat="59.895062" lon="17.6369665">
        <ele>31.3801</ele>
        <time>2013-06-06T14:34:42Z</time>
      </trkpt>
      <trkpt lat="59.8951224" lon="17.636926">
        <ele>31.3801</ele>
        <time>2013-06-06T14:34:43Z</time>
      </trkpt>
      <trkpt lat="59.8951831" lon="17.6368845">
        <ele>30.8995</ele>
        <time>2013-06-06T14:34:44Z</time>
      </trkpt>
      <trkpt lat="59.8952442" lon="17.6368428">
        <ele>30.8995</ele>
        <time>2013-06-06T14:34:45Z</time>
      </trkpt>
      <trkpt lat="59.895306" lon="17.6367997">
        <ele>30.8995</ele>
        <time>2013-06-06T14:34:46Z</time>
      </trkpt>
      <trkpt lat="59.895368" lon="17.6367579">
        <ele>29.9381</ele>
        <time>2013-06-06T14:34:47Z</time>
      </trkpt>
      <trkpt lat="59.8954308" lon="17.6367208">
        <ele>28.9769</ele>
        <time>2013-06-06T14:34:48Z</time>
      </trkpt>
      <trkpt lat="59.8954981" lon="17.6366793">
        <ele>29.4575</ele>
        <time>2013-06-06T14:34:49Z</time>
      </trkpt>
      <trkpt lat="59.8955666" lon="17.6366375">
        <ele>29.4575</ele>
        <time>2013-06-06T14:34:50Z</time>
      </trkpt>
      <trkpt lat="59.8956321" lon="17.6366094">
        <ele>28.4962</ele>
        <time>2013-06-06T14:34:51Z</time>
      </trkpt>
      <trkpt lat="59.8956979" lon="17.6365786">
        <ele>28.4962</ele>
        <time>2013-06-06T14:34:52Z</time>
      </trkpt>
      <trkpt lat="59.8957635" lon="17.6365556">
        <ele>28.4962</ele>
        <time>2013-06-06T14:34:53Z</time>
      </trkpt>
      <trkpt lat="59.8958286" lon="17.6365331">
        <ele>28.9769</ele>
        <time>2013-06-06T14:34:54Z</time>
      </trkpt>
      <trkpt lat="59.8958906" lon="17.6365159">
        <ele>28.9769</ele>
        <time>2013-06-06T14:34:55Z</time>
      </trkpt>
      <trkpt lat="59.8959507" lon="17.6365146">
        <ele>28.0155</ele>
        <time>2013-06-06T14:34:56Z</time>
      </trkpt>
      <trkpt lat="59.8960099" lon="17.6365186">
        <ele>27.5349</ele>
        <time>2013-06-06T14:34:57Z</time>
      </trkpt>
      <trkpt lat="59.8960694" lon="17.6365393">
        <ele>27.0543</ele>
        <time>2013-06-06T14:34:58Z</time>
      </trkpt>
      <trkpt lat="59.8961254" lon="17.6365677">
        <ele>24.651</ele>
        <time>2013-06-06T14:34:59Z</time>
      </trkpt>
      <trkpt lat="59.8961813" lon="17.6365954">
        <ele>24.1703</ele>
        <time>2013-06-06T14:35:00Z</time>
      </trkpt>
      <trkpt lat="59.8962413" lon="17.6366118">
        <ele>24.651</ele>
        <time>2013-06-06T14:35:01Z</time>
      </trkpt>
      <trkpt lat="59.8963004" lon="17.6366351">
        <ele>23.6896</ele>
        <time>2013-06-06T14:35:02Z</time>
      </trkpt>
      <trkpt lat="59.8963594" lon="17.6366614">
        <ele>23.6896</ele>
        <time>2013-06-06T14:35:03Z</time>
      </trkpt>
      <trkpt lat="59.8964189" lon="17.6366796">
        <ele>24.1703</ele>
        <time>2013-06-06T14:35:04Z</time>
      </trkpt>
      <trkpt lat="59.8964788" lon="17.636696">
        <ele>25.1317</ele>
        <time>2013-06-06T14:35:05Z</time>
      </trkpt>
      <trkpt lat="59.8965355" lon="17.6367122">
        <ele>25.1317</ele>
        <time>2013-06-06T14:35:06Z</time>
      </trkpt>
      <trkpt lat="59.8965912" lon="17.6367312">
        <ele>25.1317</ele>
        <time>2013-06-06T14:35:07Z</time>
      </trkpt>
      <trkpt lat="59.8966474" lon="17.6367469">
        <ele>25.6123</ele>
        <time>2013-06-06T14:35:08Z</time>
      </trkpt>
      <trkpt lat="59.8967025" lon="17.636763">
        <ele>25.6123</ele>
        <time>2013-06-06T14:35:09Z</time>
      </trkpt>
      <trkpt lat="59.8967543" lon="17.636783">
        <ele>25.6123</ele>
        <time>2013-06-06T14:35:10Z</time>
      </trkpt>
      <trkpt lat="59.8968061" lon="17.6368017">
        <ele>26.0929</ele>
        <time>2013-06-06T14:35:11Z</time>
      </trkpt>
      <trkpt lat="59.8968575" lon="17.6368208">
        <ele>26.5736</ele>
        <time>2013-06-06T14:35:12Z</time>
      </trkpt>
      <trkpt lat="59.8969066" lon="17.6368449">
        <ele>26.0929</ele>
        <time>2013-06-06T14:35:13Z</time>
      </trkpt>
      <trkpt lat="59.8969582" lon="17.6368451">
        <ele>26.0929</ele>
        <time>2013-06-06T14:35:14Z</time>
      </trkpt>
      <trkpt lat="59.8970057" lon="17.6368297">
        <ele>26.0929</ele>
        <time>2013-06-06T14:35:15Z</time>
      </trkpt>
      <trkpt lat="59.897054" lon="17.636796">
        <ele>26.0929</ele>
        <time>2013-06-06T14:35:16Z</time>
      </trkpt>
      <trkpt lat="59.8970979" lon="17.63674">
        <ele>25.6123</ele>
        <time>2013-06-06T14:35:17Z</time>
      </trkpt>
      <trkpt lat="59.8971464" lon="17.6366899">
        <ele>25.6123</ele>
        <time>2013-06-06T14:35:18Z</time>
      </trkpt>
      <trkpt lat="59.8972017" lon="17.6366532">
        <ele>25.6123</ele>
        <time>2013-06-06T14:35:19Z</time>
      </trkpt>
      <trkpt lat="59.897262" lon="17.6366317">
        <ele>25.6123</ele>
        <time>2013-06-06T14:35:20Z</time>
      </trkpt>
      <trkpt lat="59.8973169" lon="17.6366438">
        <ele>25.1317</ele>
        <time>2013-06-06T14:35:21Z</time>
      </trkpt>
      <trkpt lat="59.897377" lon="17.6366687">
        <ele>25.1317</ele>
        <time>2013-06-06T14:35:22Z</time>
      </trkpt>
      <trkpt lat="59.8974355" lon="17.6367042">
        <ele>25.6123</ele>
        <time>2013-06-06T14:35:23Z</time>
      </trkpt>
      <trkpt lat="59.8974883" lon="17.6367459">
        <ele>25.6123</ele>
        <time>2013-06-06T14:35:24Z</time>
      </trkpt>
      <trkpt lat="59.8975416" lon="17.6368008">
        <ele>25.6123</ele>
        <time>2013-06-06T14:35:25Z</time>
      </trkpt>
      <trkpt lat="59.897595" lon="17.6368436">
        <ele>26.5736</ele>
        <time>2013-06-06T14:35:26Z</time>
      </trkpt>
      <trkpt lat="59.8976477" lon="17.6368777">
        <ele>25.1317</ele>
        <time>2013-06-06T14:35:27Z</time>
      </trkpt>
      <trkpt lat="59.8977074" lon="17.6368681">
        <ele>25.6123</ele>
        <time>2013-06-06T14:35:28Z</time>
      </trkpt>
      <trkpt lat="59.8977449" lon="17.636835">
        <ele>23.6896</ele>
        <time>2013-06-06T14:35:29Z</time>
      </trkpt>
      <trkpt lat="59.8977862" lon="17.6368164">
        <ele>24.1703</ele>
        <time>2013-06-06T14:35:30Z</time>
      </trkpt>
      <trkpt lat="59.897827" lon="17.6368076">
        <ele>24.1703</ele>
        <time>2013-06-06T14:35:31Z</time>
      </trkpt>
      <trkpt lat="59.897854" lon="17.6368379">
        <ele>23.209</ele>
        <time>2013-06-06T14:35:32Z</time>
      </trkpt>
      <trkpt lat="59.8979016" lon="17.6368717">
        <ele>23.6896</ele>
        <time>2013-06-06T14:35:33Z</time>
      </trkpt>
      <trkpt lat="59.8979504" lon="17.6369261">
        <ele>24.1703</ele>
        <time>2013-06-06T14:35:34Z</time>
      </trkpt>
      <trkpt lat="59.8980056" lon="17.6369566">
        <ele>24.1703</ele>
        <time>2013-06-06T14:35:35Z</time>
      </trkpt>
      <trkpt lat="59.8980519" lon="17.6369815">
        <ele>23.209</ele>
        <time>2013-06-06T14:35:36Z</time>
      </trkpt>
      <trkpt lat="59.8981172" lon="17.6369577">
        <ele>23.209</ele>
        <time>2013-06-06T14:35:37Z</time>
      </trkpt>
      <trkpt lat="59.8981752" lon="17.6369459">
        <ele>21.767</ele>
        <time>2013-06-06T14:35:38Z</time>
      </trkpt>
      <trkpt lat="59.8982323" lon="17.6369344">
        <ele>20.8057</ele>
        <time>2013-06-06T14:35:39Z</time>
      </trkpt>
      <trkpt lat="59.8982923" lon="17.6369239">
        <ele>20.8057</ele>
        <time>2013-06-06T14:35:40Z</time>
      </trkpt>
      <trkpt lat="59.8983555" lon="17.63691">
        <ele>21.2864</ele>
        <time>2013-06-06T14:35:41Z</time>
      </trkpt>
      <trkpt lat="59.8984124" lon="17.6369022">
        <ele>19.8444</ele>
        <time>2013-06-06T14:35:42Z</time>
      </trkpt>
      <trkpt lat="59.8984689" lon="17.6368834">
        <ele>21.2864</ele>
        <time>2013-06-06T14:35:43Z</time>
      </trkpt>
      <trkpt lat="59.898528" lon="17.6368728">
        <ele>22.2476</ele>
        <time>2013-06-06T14:35:44Z</time>
      </trkpt>
      <trkpt lat="59.898589" lon="17.6368599">
        <ele>23.209</ele>
        <time>2013-06-06T14:35:45Z</time>
      </trkpt>
      <trkpt lat="59.8986476" lon="17.6368461">
        <ele>23.6896</ele>
        <time>2013-06-06T14:35:46Z</time>
      </trkpt>
      <trkpt lat="59.8986977" lon="17.6368406">
        <ele>24.1703</ele>
        <time>2013-06-06T14:35:47Z</time>
      </trkpt>
      <trkpt lat="59.898729" lon="17.6368572">
        <ele>24.1703</ele>
        <time>2013-06-06T14:35:48Z</time>
      </trkpt>
      <trkpt lat="59.8987523" lon="17.6368742">
        <ele>24.651</ele>
        <time>2013-06-06T14:35:49Z</time>
      </trkpt>
      <trkpt lat="59.8987669" lon="17.6368997">
        <ele>24.651</ele>
        <time>2013-06-06T14:35:50Z</time>
      </trkpt>
      <trkpt lat="59.8987726" lon="17.6369301">
        <ele>25.1317</ele>
        <time>2013-06-06T14:35:51Z</time>
      </trkpt>
      <trkpt lat="59.8987802" lon="17.6369651">
        <ele>25.6123</ele>
        <time>2013-06-06T14:35:52Z</time>
      </trkpt>
      <trkpt lat="59.898785" lon="17.6369966">
        <ele>26.0929</ele>
        <time>2013-06-06T14:35:53Z</time>
      </trkpt>
      <trkpt lat="59.8987854" lon="17.6370352">
        <ele>26.5736</ele>
        <time>2013-06-06T14:35:54Z</time>
      </trkpt>
      <trkpt lat="59.8987863" lon="17.6370721">
        <ele>26.5736</ele>
        <time>2013-06-06T14:35:55Z</time>
      </trkpt>
      <trkpt lat="59.8987886" lon="17.6371114">
        <ele>27.0543</ele>
        <time>2013-06-06T14:35:56Z</time>
      </trkpt>
      <trkpt lat="59.8987902" lon="17.6371565">
        <ele>27.5349</ele>
        <time>2013-06-06T14:35:57Z</time>
      </trkpt>
      <trkpt lat="59.8987962" lon="17.6372094">
        <ele>27.5349</ele>
        <time>2013-06-06T14:35:58Z</time>
      </trkpt>
      <trkpt lat="59.8988004" lon="17.6372586">
        <ele>28.4962</ele>
        <time>2013-06-06T14:35:59Z</time>
      </trkpt>
      <trkpt lat="59.898807" lon="17.6373095">
        <ele>28.9769</ele>
        <time>2013-06-06T14:36:00Z</time>
      </trkpt>
      <trkpt lat="59.8988091" lon="17.6373524">
        <ele>29.9381</ele>
        <time>2013-06-06T14:36:01Z</time>
      </trkpt>
      <trkpt lat="59.8988124" lon="17.6374025">
        <ele>30.4188</ele>
        <time>2013-06-06T14:36:02Z</time>
      </trkpt>
      <trkpt lat="59.8988125" lon="17.6374524">
        <ele>30.4188</ele>
        <time>2013-06-06T14:36:03Z</time>
      </trkpt>
      <trkpt lat="59.8988068" lon="17.6375012">
        <ele>29.9381</ele>
        <time>2013-06-06T14:36:04Z</time>
      </trkpt>
      <trkpt lat="59.8988003" lon="17.6375528">
        <ele>30.4188</ele>
        <time>2013-06-06T14:36:05Z</time>
      </trkpt>
      <trkpt lat="59.8987916" lon="17.6376063">
        <ele>29.9381</ele>
        <time>2013-06-06T14:36:06Z</time>
      </trkpt>
      <trkpt lat="59.898789" lon="17.6376485">
        <ele>29.4575</ele>
        <time>2013-06-06T14:36:07Z</time>
      </trkpt>
      <trkpt lat="59.8988013" lon="17.6376836">
        <ele>29.4575</ele>
        <time>2013-06-06T14:36:08Z</time>
      </trkpt>
      <trkpt lat="59.8988168" lon="17.6377063">
        <ele>28.0155</ele>
        <time>2013-06-06T14:36:09Z</time>
      </trkpt>
      <trkpt lat="59.8988441" lon="17.6377266">
        <ele>27.5349</ele>
        <time>2013-06-06T14:36:10Z</time>
      </trkpt>
      <trkpt lat="59.8988704" lon="17.6377478">
        <ele>26.5736</ele>
        <time>2013-06-06T14:36:11Z</time>
      </trkpt>
      <trkpt lat="59.8989038" lon="17.6377713">
        <ele>26.0929</ele>
        <time>2013-06-06T14:36:12Z</time>
      </trkpt>
      <trkpt lat="59.8989415" lon="17.6378073">
        <ele>25.6123</ele>
        <time>2013-06-06T14:36:13Z</time>
      </trkpt>
      <trkpt lat="59.8989748" lon="17.6378568">
        <ele>24.651</ele>
        <time>2013-06-06T14:36:14Z</time>
      </trkpt>
      <trkpt lat="59.8990133" lon="17.6379127">
        <ele>24.1703</ele>
        <time>2013-06-06T14:36:15Z</time>
      </trkpt>
      <trkpt lat="59.8990543" lon="17.6379575">
        <ele>24.651</ele>
        <time>2013-06-06T14:36:16Z</time>
      </trkpt>
      <trkpt lat="59.8990957" lon="17.6380024">
        <ele>23.6896</ele>
        <time>2013-06-06T14:36:17Z</time>
      </trkpt>
      <trkpt lat="59.8991373" lon="17.638043">
        <ele>23.6896</ele>
        <time>2013-06-06T14:36:18Z</time>
      </trkpt>
      <trkpt lat="59.8991801" lon="17.638086">
        <ele>23.209</ele>
        <time>2013-06-06T14:36:19Z</time>
      </trkpt>
      <trkpt lat="59.8992288" lon="17.6381283">
        <ele>23.6896</ele>
        <time>2013-06-06T14:36:20Z</time>
      </trkpt>
      <trkpt lat="59.899283" lon="17.6381708">
        <ele>23.209</ele>
        <time>2013-06-06T14:36:21Z</time>
      </trkpt>
      <trkpt lat="59.8993324" lon="17.6382103">
        <ele>22.7283</ele>
        <time>2013-06-06T14:36:22Z</time>
      </trkpt>
      <trkpt lat="59.8993837" lon="17.6382469">
        <ele>22.7283</ele>
        <time>2013-06-06T14:36:23Z</time>
      </trkpt>
      <trkpt lat="59.8994345" lon="17.6382863">
        <ele>22.7283</ele>
        <time>2013-06-06T14:36:24Z</time>
      </trkpt>
      <trkpt lat="59.8994876" lon="17.6383282">
        <ele>22.2476</ele>
        <time>2013-06-06T14:36:25Z</time>
      </trkpt>
      <trkpt lat="59.8995387" lon="17.6383634">
        <ele>22.7283</ele>
        <time>2013-06-06T14:36:26Z</time>
      </trkpt>
      <trkpt lat="59.899584" lon="17.6384066">
        <ele>20.325</ele>
        <time>2013-06-06T14:36:27Z</time>
      </trkpt>
      <trkpt lat="59.8996358" lon="17.6384417">
        <ele>20.325</ele>
        <time>2013-06-06T14:36:28Z</time>
      </trkpt>
      <trkpt lat="59.8996882" lon="17.6384756">
        <ele>20.325</ele>
        <time>2013-06-06T14:36:29Z</time>
      </trkpt>
      <trkpt lat="59.8997413" lon="17.6385091">
        <ele>20.325</ele>
        <time>2013-06-06T14:36:30Z</time>
      </trkpt>
      <trkpt lat="59.8997945" lon="17.6385466">
        <ele>20.325</ele>
        <time>2013-06-06T14:36:31Z</time>
      </trkpt>
      <trkpt lat="59.8998484" lon="17.6385879">
        <ele>20.325</ele>
        <time>2013-06-06T14:36:32Z</time>
      </trkpt>
      <trkpt lat="59.8999031" lon="17.6386278">
        <ele>20.325</ele>
        <time>2013-06-06T14:36:33Z</time>
      </trkpt>
      <trkpt lat="59.8999598" lon="17.6386662">
        <ele>20.8057</ele>
        <time>2013-06-06T14:36:34Z</time>
      </trkpt>
      <trkpt lat="59.9000196" lon="17.6387081">
        <ele>20.8057</ele>
        <time>2013-06-06T14:36:35Z</time>
      </trkpt>
      <trkpt lat="59.9000809" lon="17.6387522">
        <ele>20.8057</ele>
        <time>2013-06-06T14:36:36Z</time>
      </trkpt>
      <trkpt lat="59.9001434" lon="17.6387982">
        <ele>20.8057</ele>
        <time>2013-06-06T14:36:37Z</time>
      </trkpt>
      <trkpt lat="59.9002063" lon="17.6388443">
        <ele>20.8057</ele>
        <time>2013-06-06T14:36:38Z</time>
      </trkpt>
      <trkpt lat="59.9002716" lon="17.6388895">
        <ele>20.325</ele>
        <time>2013-06-06T14:36:39Z</time>
      </trkpt>
      <trkpt lat="59.9003367" lon="17.6389358">
        <ele>20.325</ele>
        <time>2013-06-06T14:36:40Z</time>
      </trkpt>
      <trkpt lat="59.9004026" lon="17.6389833">
        <ele>20.325</ele>
        <time>2013-06-06T14:36:41Z</time>
      </trkpt>
      <trkpt lat="59.9004673" lon="17.6390338">
        <ele>20.325</ele>
        <time>2013-06-06T14:36:42Z</time>
      </trkpt>
      <trkpt lat="59.9005309" lon="17.6390881">
        <ele>20.325</ele>
        <time>2013-06-06T14:36:43Z</time>
      </trkpt>
      <trkpt lat="59.9005937" lon="17.6391417">
        <ele>20.325</ele>
        <time>2013-06-06T14:36:44Z</time>
      </trkpt>
      <trkpt lat="59.9006552" lon="17.6391933">
        <ele>20.325</ele>
        <time>2013-06-06T14:36:45Z</time>
      </trkpt>
      <trkpt lat="59.9007175" lon="17.6392421">
        <ele>20.8057</ele>
        <time>2013-06-06T14:36:46Z</time>
      </trkpt>
      <trkpt lat="59.9007741" lon="17.6392935">
        <ele>20.8057</ele>
        <time>2013-06-06T14:36:47Z</time>
      </trkpt>
      <trkpt lat="59.900836" lon="17.6393426">
        <ele>20.8057</ele>
        <time>2013-06-06T14:36:48Z</time>
      </trkpt>
      <trkpt lat="59.9008962" lon="17.6393916">
        <ele>20.8057</ele>
        <time>2013-06-06T14:36:49Z</time>
      </trkpt>
      <trkpt lat="59.9009549" lon="17.6394395">
        <ele>21.2864</ele>
        <time>2013-06-06T14:36:50Z</time>
      </trkpt>
      <trkpt lat="59.9010142" lon="17.6394916">
        <ele>21.2864</ele>
        <time>2013-06-06T14:36:51Z</time>
      </trkpt>
      <trkpt lat="59.9010739" lon="17.6395443">
        <ele>21.767</ele>
        <time>2013-06-06T14:36:52Z</time>
      </trkpt>
      <trkpt lat="59.9011365" lon="17.6395961">
        <ele>21.767</ele>
        <time>2013-06-06T14:36:53Z</time>
      </trkpt>
      <trkpt lat="59.9011966" lon="17.6396481">
        <ele>22.2476</ele>
        <time>2013-06-06T14:36:54Z</time>
      </trkpt>
      <trkpt lat="59.9012587" lon="17.6397047">
        <ele>22.2476</ele>
        <time>2013-06-06T14:36:55Z</time>
      </trkpt>
      <trkpt lat="59.901325" lon="17.6397648">
        <ele>22.2476</ele>
        <time>2013-06-06T14:36:56Z</time>
      </trkpt>
      <trkpt lat="59.9013885" lon="17.6398249">
        <ele>22.2476</ele>
        <time>2013-06-06T14:36:57Z</time>
      </trkpt>
      <trkpt lat="59.9014538" lon="17.6398875">
        <ele>22.2476</ele>
        <time>2013-06-06T14:36:58Z</time>
      </trkpt>
      <trkpt lat="59.9015245" lon="17.6399553">
        <ele>21.767</ele>
        <time>2013-06-06T14:36:59Z</time>
      </trkpt>
      <trkpt lat="59.9015952" lon="17.6400245">
        <ele>21.767</ele>
        <time>2013-06-06T14:37:00Z</time>
      </trkpt>
      <trkpt lat="59.9016584" lon="17.6400961">
        <ele>20.325</ele>
        <time>2013-06-06T14:37:01Z</time>
      </trkpt>
      <trkpt lat="59.9017225" lon="17.6401673">
        <ele>20.325</ele>
        <time>2013-06-06T14:37:02Z</time>
      </trkpt>
      <trkpt lat="59.9017918" lon="17.6402325">
        <ele>20.325</ele>
        <time>2013-06-06T14:37:03Z</time>
      </trkpt>
      <trkpt lat="59.9018612" lon="17.6402953">
        <ele>20.325</ele>
        <time>2013-06-06T14:37:04Z</time>
      </trkpt>
      <trkpt lat="59.9019295" lon="17.6403515">
        <ele>20.325</ele>
        <time>2013-06-06T14:37:05Z</time>
      </trkpt>
      <trkpt lat="59.901996" lon="17.640409">
        <ele>20.325</ele>
        <time>2013-06-06T14:37:06Z</time>
      </trkpt>
      <trkpt lat="59.9020577" lon="17.6404722">
        <ele>19.3638</ele>
        <time>2013-06-06T14:37:07Z</time>
      </trkpt>
      <trkpt lat="59.9021204" lon="17.6405304">
        <ele>19.8444</ele>
        <time>2013-06-06T14:37:08Z</time>
      </trkpt>
      <trkpt lat="59.9021808" lon="17.6405905">
        <ele>20.325</ele>
        <time>2013-06-06T14:37:09Z</time>
      </trkpt>
      <trkpt lat="59.9022417" lon="17.6406505">
        <ele>20.8057</ele>
        <time>2013-06-06T14:37:10Z</time>
      </trkpt>
      <trkpt lat="59.9023053" lon="17.6407066">
        <ele>20.8057</ele>
        <time>2013-06-06T14:37:11Z</time>
      </trkpt>
      <trkpt lat="59.9023641" lon="17.6407631">
        <ele>20.8057</ele>
        <time>2013-06-06T14:37:12Z</time>
      </trkpt>
      <trkpt lat="59.9024222" lon="17.6408215">
        <ele>21.2864</ele>
        <time>2013-06-06T14:37:13Z</time>
      </trkpt>
      <trkpt lat="59.9024783" lon="17.640882">
        <ele>21.2864</ele>
        <time>2013-06-06T14:37:14Z</time>
      </trkpt>
      <trkpt lat="59.9025367" lon="17.6409422">
        <ele>21.2864</ele>
        <time>2013-06-06T14:37:15Z</time>
      </trkpt>
      <trkpt lat="59.9025947" lon="17.6410013">
        <ele>21.767</ele>
        <time>2013-06-06T14:37:16Z</time>
      </trkpt>
      <trkpt lat="59.9026537" lon="17.6410573">
        <ele>21.767</ele>
        <time>2013-06-06T14:37:17Z</time>
      </trkpt>
      <trkpt lat="59.9027134" lon="17.6411149">
        <ele>21.767</ele>
        <time>2013-06-06T14:37:18Z</time>
      </trkpt>
      <trkpt lat="59.9027736" lon="17.6411765">
        <ele>21.767</ele>
        <time>2013-06-06T14:37:19Z</time>
      </trkpt>
      <trkpt lat="59.9028346" lon="17.6412423">
        <ele>21.767</ele>
        <time>2013-06-06T14:37:20Z</time>
      </trkpt>
      <trkpt lat="59.9028956" lon="17.6413192">
        <ele>22.2476</ele>
        <time>2013-06-06T14:37:21Z</time>
      </trkpt>
      <trkpt lat="59.9029514" lon="17.6414081">
        <ele>22.2476</ele>
        <time>2013-06-06T14:37:22Z</time>
      </trkpt>
      <trkpt lat="59.9030005" lon="17.641508">
        <ele>21.767</ele>
        <time>2013-06-06T14:37:23Z</time>
      </trkpt>
      <trkpt lat="59.9030486" lon="17.6416089">
        <ele>21.767</ele>
        <time>2013-06-06T14:37:24Z</time>
      </trkpt>
      <trkpt lat="59.9031033" lon="17.641698">
        <ele>21.767</ele>
        <time>2013-06-06T14:37:25Z</time>
      </trkpt>
      <trkpt lat="59.9031604" lon="17.6417727">
        <ele>21.767</ele>
        <time>2013-06-06T14:37:26Z</time>
      </trkpt>
      <trkpt lat="59.9032217" lon="17.6418275">
        <ele>21.2864</ele>
        <time>2013-06-06T14:37:27Z</time>
      </trkpt>
      <trkpt lat="59.9032881" lon="17.6418693">
        <ele>21.2864</ele>
        <time>2013-06-06T14:37:28Z</time>
      </trkpt>
      <trkpt lat="59.9033543" lon="17.6419099">
        <ele>21.2864</ele>
        <time>2013-06-06T14:37:29Z</time>
      </trkpt>
      <trkpt lat="59.9034207" lon="17.6419512">
        <ele>21.2864</ele>
        <time>2013-06-06T14:37:30Z</time>
      </trkpt>
      <trkpt lat="59.9034828" lon="17.641996">
        <ele>21.767</ele>
        <time>2013-06-06T14:37:31Z</time>
      </trkpt>
      <trkpt lat="59.9035407" lon="17.6420234">
        <ele>21.767</ele>
        <time>2013-06-06T14:37:32Z</time>
      </trkpt>
      <trkpt lat="59.9035956" lon="17.6420271">
        <ele>21.2864</ele>
        <time>2013-06-06T14:37:33Z</time>
      </trkpt>
      <trkpt lat="59.9036526" lon="17.6420252">
        <ele>20.8057</ele>
        <time>2013-06-06T14:37:34Z</time>
      </trkpt>
      <trkpt lat="59.9037099" lon="17.6420446">
        <ele>20.8057</ele>
        <time>2013-06-06T14:37:35Z</time>
      </trkpt>
      <trkpt lat="59.9037726" lon="17.6420718">
        <ele>20.325</ele>
        <time>2013-06-06T14:37:36Z</time>
      </trkpt>
      <trkpt lat="59.9038371" lon="17.6421017">
        <ele>20.325</ele>
        <time>2013-06-06T14:37:37Z</time>
      </trkpt>
      <trkpt lat="59.9039024" lon="17.6421342">
        <ele>19.8444</ele>
        <time>2013-06-06T14:37:38Z</time>
      </trkpt>
      <trkpt lat="59.903968" lon="17.6421679">
        <ele>19.8444</ele>
        <time>2013-06-06T14:37:39Z</time>
      </trkpt>
      <trkpt lat="59.9040319" lon="17.6422026">
        <ele>19.3638</ele>
        <time>2013-06-06T14:37:40Z</time>
      </trkpt>
      <trkpt lat="59.9040954" lon="17.6422379">
        <ele>19.8444</ele>
        <time>2013-06-06T14:37:41Z</time>
      </trkpt>
      <trkpt lat="59.9041588" lon="17.6422741">
        <ele>19.3638</ele>
        <time>2013-06-06T14:37:42Z</time>
      </trkpt>
      <trkpt lat="59.904223" lon="17.6423117">
        <ele>19.3638</ele>
        <time>2013-06-06T14:37:43Z</time>
      </trkpt>
      <trkpt lat="59.904288" lon="17.6423498">
        <ele>19.3638</ele>
        <time>2013-06-06T14:37:44Z</time>
      </trkpt>
      <trkpt lat="59.9043556" lon="17.6423865">
        <ele>19.3638</ele>
        <time>2013-06-06T14:37:45Z</time>
      </trkpt>
      <trkpt lat="59.9044245" lon="17.6424243">
        <ele>19.3638</ele>
        <time>2013-06-06T14:37:46Z</time>
      </trkpt>
      <trkpt lat="59.9044954" lon="17.642464">
        <ele>19.3638</ele>
        <time>2013-06-06T14:37:47Z</time>
      </trkpt>
      <trkpt lat="59.9045642" lon="17.6425025">
        <ele>18.8831</ele>
        <time>2013-06-06T14:37:48Z</time>
      </trkpt>
      <trkpt lat="59.9046307" lon="17.642546">
        <ele>18.4023</ele>
        <time>2013-06-06T14:37:49Z</time>
      </trkpt>
      <trkpt lat="59.9046883" lon="17.6425979">
        <ele>17.9218</ele>
        <time>2013-06-06T14:37:50Z</time>
      </trkpt>
      <trkpt lat="59.9047515" lon="17.642645">
        <ele>17.9218</ele>
        <time>2013-06-06T14:37:51Z</time>
      </trkpt>
      <trkpt lat="59.9048125" lon="17.6426854">
        <ele>18.4023</ele>
        <time>2013-06-06T14:37:52Z</time>
      </trkpt>
      <trkpt lat="59.904872" lon="17.642735">
        <ele>17.4412</ele>
        <time>2013-06-06T14:37:53Z</time>
      </trkpt>
      <trkpt lat="59.9049352" lon="17.6427724">
        <ele>17.4412</ele>
        <time>2013-06-06T14:37:54Z</time>
      </trkpt>
      <trkpt lat="59.9049972" lon="17.6428027">
        <ele>17.4412</ele>
        <time>2013-06-06T14:37:55Z</time>
      </trkpt>
      <trkpt lat="59.9050632" lon="17.6428261">
        <ele>18.4023</ele>
        <time>2013-06-06T14:37:56Z</time>
      </trkpt>
      <trkpt lat="59.90513" lon="17.6428481">
        <ele>17.9218</ele>
        <time>2013-06-06T14:37:57Z</time>
      </trkpt>
      <trkpt lat="59.9051974" lon="17.6428787">
        <ele>17.9218</ele>
        <time>2013-06-06T14:37:58Z</time>
      </trkpt>
      <trkpt lat="59.9052622" lon="17.6429155">
        <ele>17.4412</ele>
        <time>2013-06-06T14:37:59Z</time>
      </trkpt>
      <trkpt lat="59.9053284" lon="17.6429531">
        <ele>15.5184</ele>
        <time>2013-06-06T14:38:00Z</time>
      </trkpt>
      <trkpt lat="59.9054031" lon="17.6429709">
        <ele>15.5184</ele>
        <time>2013-06-06T14:38:01Z</time>
      </trkpt>
      <trkpt lat="59.905476" lon="17.6429729">
        <ele>15.999</ele>
        <time>2013-06-06T14:38:02Z</time>
      </trkpt>
      <trkpt lat="59.9055515" lon="17.6429811">
        <ele>15.999</ele>
        <time>2013-06-06T14:38:03Z</time>
      </trkpt>
      <trkpt lat="59.9056248" lon="17.6429965">
        <ele>15.999</ele>
        <time>2013-06-06T14:38:04Z</time>
      </trkpt>
      <trkpt lat="59.9056927" lon="17.6430255">
        <ele>15.999</ele>
        <time>2013-06-06T14:38:05Z</time>
      </trkpt>
      <trkpt lat="59.9057564" lon="17.6430594">
        <ele>16.4797</ele>
        <time>2013-06-06T14:38:06Z</time>
      </trkpt>
      <trkpt lat="59.9058184" lon="17.6430904">
        <ele>16.4797</ele>
        <time>2013-06-06T14:38:07Z</time>
      </trkpt>
      <trkpt lat="59.9058789" lon="17.6431246">
        <ele>15.5184</ele>
        <time>2013-06-06T14:38:08Z</time>
      </trkpt>
      <trkpt lat="59.9059363" lon="17.6431645">
        <ele>14.557</ele>
        <time>2013-06-06T14:38:09Z</time>
      </trkpt>
      <trkpt lat="59.9059908" lon="17.6431987">
        <ele>13.5958</ele>
        <time>2013-06-06T14:38:10Z</time>
      </trkpt>
      <trkpt lat="59.906047" lon="17.6432282">
        <ele>13.1151</ele>
        <time>2013-06-06T14:38:11Z</time>
      </trkpt>
      <trkpt lat="59.9061045" lon="17.6432591">
        <ele>12.6344</ele>
        <time>2013-06-06T14:38:12Z</time>
      </trkpt>
      <trkpt lat="59.9061586" lon="17.6432886">
        <ele>12.1538</ele>
        <time>2013-06-06T14:38:13Z</time>
      </trkpt>
      <trkpt lat="59.9062185" lon="17.6433216">
        <ele>12.1538</ele>
        <time>2013-06-06T14:38:14Z</time>
      </trkpt>
      <trkpt lat="59.9062784" lon="17.6433474">
        <ele>12.1538</ele>
        <time>2013-06-06T14:38:15Z</time>
      </trkpt>
      <trkpt lat="59.9063379" lon="17.6433689">
        <ele>12.6344</ele>
        <time>2013-06-06T14:38:16Z</time>
      </trkpt>
      <trkpt lat="59.9063986" lon="17.6433878">
        <ele>12.6344</ele>
        <time>2013-06-06T14:38:17Z</time>
      </trkpt>
      <trkpt lat="59.9064603" lon="17.6434069">
        <ele>13.1151</ele>
        <time>2013-06-06T14:38:18Z</time>
      </trkpt>
      <trkpt lat="59.9065214" lon="17.6434282">
        <ele>13.1151</ele>
        <time>2013-06-06T14:38:19Z</time>
      </trkpt>
      <trkpt lat="59.9065825" lon="17.64345">
        <ele>13.5958</ele>
        <time>2013-06-06T14:38:20Z</time>
      </trkpt>
      <trkpt lat="59.906644" lon="17.6434685">
        <ele>13.5958</ele>
        <time>2013-06-06T14:38:21Z</time>
      </trkpt>
      <trkpt lat="59.9067053" lon="17.6434846">
        <ele>14.0764</ele>
        <time>2013-06-06T14:38:22Z</time>
      </trkpt>
      <trkpt lat="59.9067657" lon="17.6434993">
        <ele>14.0764</ele>
        <time>2013-06-06T14:38:23Z</time>
      </trkpt>
      <trkpt lat="59.9068265" lon="17.6435136">
        <ele>14.557</ele>
        <time>2013-06-06T14:38:24Z</time>
      </trkpt>
      <trkpt lat="59.9068876" lon="17.6435297">
        <ele>14.557</ele>
        <time>2013-06-06T14:38:25Z</time>
      </trkpt>
      <trkpt lat="59.9069478" lon="17.6435468">
        <ele>14.557</ele>
        <time>2013-06-06T14:38:26Z</time>
      </trkpt>
      <trkpt lat="59.9070094" lon="17.6435629">
        <ele>14.557</ele>
        <time>2013-06-06T14:38:27Z</time>
      </trkpt>
      <trkpt lat="59.9070725" lon="17.643578">
        <ele>15.0377</ele>
        <time>2013-06-06T14:38:28Z</time>
      </trkpt>
      <trkpt lat="59.9071366" lon="17.6435903">
        <ele>15.5184</ele>
        <time>2013-06-06T14:38:29Z</time>
      </trkpt>
      <trkpt lat="59.9072008" lon="17.6435996">
        <ele>15.5184</ele>
        <time>2013-06-06T14:38:30Z</time>
      </trkpt>
      <trkpt lat="59.9072654" lon="17.6436105">
        <ele>15.5184</ele>
        <time>2013-06-06T14:38:31Z</time>
      </trkpt>
      <trkpt lat="59.9073316" lon="17.6436239">
        <ele>15.999</ele>
        <time>2013-06-06T14:38:32Z</time>
      </trkpt>
      <trkpt lat="59.9073973" lon="17.6436375">
        <ele>15.999</ele>
        <time>2013-06-06T14:38:33Z</time>
      </trkpt>
      <trkpt lat="59.9074624" lon="17.6436482">
        <ele>15.999</ele>
        <time>2013-06-06T14:38:34Z</time>
      </trkpt>
      <trkpt lat="59.907527" lon="17.6436566">
        <ele>15.999</ele>
        <time>2013-06-06T14:38:35Z</time>
      </trkpt>
      <trkpt lat="59.9075911" lon="17.6436634">
        <ele>16.4797</ele>
        <time>2013-06-06T14:38:36Z</time>
      </trkpt>
      <trkpt lat="59.9076538" lon="17.6436716">
        <ele>16.4797</ele>
        <time>2013-06-06T14:38:37Z</time>
      </trkpt>
      <trkpt lat="59.907716" lon="17.6436829">
        <ele>16.9604</ele>
        <time>2013-06-06T14:38:38Z</time>
      </trkpt>
      <trkpt lat="59.9077776" lon="17.6436939">
        <ele>16.9604</ele>
        <time>2013-06-06T14:38:39Z</time>
      </trkpt>
      <trkpt lat="59.9078382" lon="17.6437034">
        <ele>17.4412</ele>
        <time>2013-06-06T14:38:40Z</time>
      </trkpt>
      <trkpt lat="59.9079003" lon="17.6437108">
        <ele>17.4412</ele>
        <time>2013-06-06T14:38:41Z</time>
      </trkpt>
      <trkpt lat="59.9079615" lon="17.6437175">
        <ele>17.9218</ele>
        <time>2013-06-06T14:38:42Z</time>
      </trkpt>
      <trkpt lat="59.908022" lon="17.6437272">
        <ele>17.9218</ele>
        <time>2013-06-06T14:38:43Z</time>
      </trkpt>
      <trkpt lat="59.9080809" lon="17.6437362">
        <ele>17.9218</ele>
        <time>2013-06-06T14:38:44Z</time>
      </trkpt>
      <trkpt lat="59.9081402" lon="17.6437452">
        <ele>17.9218</ele>
        <time>2013-06-06T14:38:45Z</time>
      </trkpt>
      <trkpt lat="59.9081998" lon="17.6437549">
        <ele>17.9218</ele>
        <time>2013-06-06T14:38:46Z</time>
      </trkpt>
      <trkpt lat="59.9082593" lon="17.6437637">
        <ele>18.4023</ele>
        <time>2013-06-06T14:38:47Z</time>
      </trkpt>
      <trkpt lat="59.9083183" lon="17.6437706">
        <ele>18.4023</ele>
        <time>2013-06-06T14:38:48Z</time>
      </trkpt>
      <trkpt lat="59.9083778" lon="17.6437758">
        <ele>18.4023</ele>
        <time>2013-06-06T14:38:49Z</time>
      </trkpt>
      <trkpt lat="59.9084396" lon="17.6437802">
        <ele>17.9218</ele>
        <time>2013-06-06T14:38:50Z</time>
      </trkpt>
      <trkpt lat="59.9085037" lon="17.6437809">
        <ele>17.9218</ele>
        <time>2013-06-06T14:38:51Z</time>
      </trkpt>
      <trkpt lat="59.9085702" lon="17.6437764">
        <ele>17.9218</ele>
        <time>2013-06-06T14:38:52Z</time>
      </trkpt>
      <trkpt lat="59.9086388" lon="17.6437706">
        <ele>18.4023</ele>
        <time>2013-06-06T14:38:53Z</time>
      </trkpt>
      <trkpt lat="59.9087074" lon="17.6437652">
        <ele>18.4023</ele>
        <time>2013-06-06T14:38:54Z</time>
      </trkpt>
      <trkpt lat="59.9087743" lon="17.6437606">
        <ele>17.9218</ele>
        <time>2013-06-06T14:38:55Z</time>
      </trkpt>
      <trkpt lat="59.9088401" lon="17.6437559">
        <ele>17.9218</ele>
        <time>2013-06-06T14:38:56Z</time>
      </trkpt>
      <trkpt lat="59.9089059" lon="17.6437519">
        <ele>17.4412</ele>
        <time>2013-06-06T14:38:57Z</time>
      </trkpt>
      <trkpt lat="59.9089731" lon="17.6437456">
        <ele>17.9218</ele>
        <time>2013-06-06T14:38:58Z</time>
      </trkpt>
      <trkpt lat="59.9090404" lon="17.6437362">
        <ele>18.4023</ele>
        <time>2013-06-06T14:38:59Z</time>
      </trkpt>
      <trkpt lat="59.9091078" lon="17.643726">
        <ele>18.4023</ele>
        <time>2013-06-06T14:39:00Z</time>
      </trkpt>
      <trkpt lat="59.9091756" lon="17.6437152">
        <ele>18.4023</ele>
        <time>2013-06-06T14:39:01Z</time>
      </trkpt>
      <trkpt lat="59.9092447" lon="17.6437021">
        <ele>18.4023</ele>
        <time>2013-06-06T14:39:02Z</time>
      </trkpt>
      <trkpt lat="59.9093153" lon="17.6436876">
        <ele>18.4023</ele>
        <time>2013-06-06T14:39:03Z</time>
      </trkpt>
      <trkpt lat="59.9093865" lon="17.6436726">
        <ele>18.8831</ele>
        <time>2013-06-06T14:39:04Z</time>
      </trkpt>
      <trkpt lat="59.9094586" lon="17.6436582">
        <ele>18.8831</ele>
        <time>2013-06-06T14:39:05Z</time>
      </trkpt>
      <trkpt lat="59.9095308" lon="17.6436431">
        <ele>18.8831</ele>
        <time>2013-06-06T14:39:06Z</time>
      </trkpt>
      <trkpt lat="59.9096016" lon="17.6436284">
        <ele>18.8831</ele>
        <time>2013-06-06T14:39:07Z</time>
      </trkpt>
      <trkpt lat="59.9096703" lon="17.6436131">
        <ele>18.8831</ele>
        <time>2013-06-06T14:39:08Z</time>
      </trkpt>
      <trkpt lat="59.9097366" lon="17.6435971">
        <ele>18.8831</ele>
        <time>2013-06-06T14:39:09Z</time>
      </trkpt>
      <trkpt lat="59.9098034" lon="17.6435862">
        <ele>18.8831</ele>
        <time>2013-06-06T14:39:10Z</time>
      </trkpt>
      <trkpt lat="59.9098709" lon="17.6435883">
        <ele>18.8831</ele>
        <time>2013-06-06T14:39:11Z</time>
      </trkpt>
      <trkpt lat="59.9099383" lon="17.643609">
        <ele>18.8831</ele>
        <time>2013-06-06T14:39:12Z</time>
      </trkpt>
      <trkpt lat="59.9100067" lon="17.6436375">
        <ele>19.3638</ele>
        <time>2013-06-06T14:39:13Z</time>
      </trkpt>
      <trkpt lat="59.9100698" lon="17.6436582">
        <ele>19.8444</ele>
        <time>2013-06-06T14:39:14Z</time>
      </trkpt>
      <trkpt lat="59.9101318" lon="17.6436674">
        <ele>19.8444</ele>
        <time>2013-06-06T14:39:15Z</time>
      </trkpt>
      <trkpt lat="59.9101937" lon="17.6436649">
        <ele>20.325</ele>
        <time>2013-06-06T14:39:16Z</time>
      </trkpt>
      <trkpt lat="59.9102586" lon="17.6436577">
        <ele>20.8057</ele>
        <time>2013-06-06T14:39:17Z</time>
      </trkpt>
      <trkpt lat="59.9103306" lon="17.6436463">
        <ele>22.2476</ele>
        <time>2013-06-06T14:39:18Z</time>
      </trkpt>
      <trkpt lat="59.9103991" lon="17.6436305">
        <ele>22.7283</ele>
        <time>2013-06-06T14:39:19Z</time>
      </trkpt>
      <trkpt lat="59.9104634" lon="17.6436053">
        <ele>22.7283</ele>
        <time>2013-06-06T14:39:20Z</time>
      </trkpt>
      <trkpt lat="59.9105308" lon="17.6435707">
        <ele>23.209</ele>
        <time>2013-06-06T14:39:21Z</time>
      </trkpt>
      <trkpt lat="59.9106007" lon="17.6435345">
        <ele>23.209</ele>
        <time>2013-06-06T14:39:22Z</time>
      </trkpt>
      <trkpt lat="59.9106717" lon="17.6435073">
        <ele>23.209</ele>
        <time>2013-06-06T14:39:23Z</time>
      </trkpt>
      <trkpt lat="59.9107443" lon="17.643487">
        <ele>23.209</ele>
        <time>2013-06-06T14:39:24Z</time>
      </trkpt>
      <trkpt lat="59.9108171" lon="17.6434692">
        <ele>23.6896</ele>
        <time>2013-06-06T14:39:25Z</time>
      </trkpt>
      <trkpt lat="59.9108887" lon="17.6434558">
        <ele>23.6896</ele>
        <time>2013-06-06T14:39:26Z</time>
      </trkpt>
      <trkpt lat="59.9109602" lon="17.6434437">
        <ele>23.6896</ele>
        <time>2013-06-06T14:39:27Z</time>
      </trkpt>
      <trkpt lat="59.9110315" lon="17.6434296">
        <ele>23.6896</ele>
        <time>2013-06-06T14:39:28Z</time>
      </trkpt>
      <trkpt lat="59.9111006" lon="17.6434162">
        <ele>24.1703</ele>
        <time>2013-06-06T14:39:29Z</time>
      </trkpt>
      <trkpt lat="59.9111673" lon="17.6434049">
        <ele>23.6896</ele>
        <time>2013-06-06T14:39:30Z</time>
      </trkpt>
      <trkpt lat="59.911232" lon="17.6433933">
        <ele>23.6896</ele>
        <time>2013-06-06T14:39:31Z</time>
      </trkpt>
      <trkpt lat="59.9112949" lon="17.6433793">
        <ele>23.6896</ele>
        <time>2013-06-06T14:39:32Z</time>
      </trkpt>
      <trkpt lat="59.9113566" lon="17.6433628">
        <ele>23.6896</ele>
        <time>2013-06-06T14:39:33Z</time>
      </trkpt>
      <trkpt lat="59.9114161" lon="17.6433462">
        <ele>23.209</ele>
        <time>2013-06-06T14:39:34Z</time>
      </trkpt>
      <trkpt lat="59.9114749" lon="17.6433292">
        <ele>23.209</ele>
        <time>2013-06-06T14:39:35Z</time>
      </trkpt>
      <trkpt lat="59.9115327" lon="17.6433172">
        <ele>23.209</ele>
        <time>2013-06-06T14:39:36Z</time>
      </trkpt>
      <trkpt lat="59.9115904" lon="17.6433085">
        <ele>23.209</ele>
        <time>2013-06-06T14:39:37Z</time>
      </trkpt>
      <trkpt lat="59.9116496" lon="17.643298">
        <ele>23.209</ele>
        <time>2013-06-06T14:39:38Z</time>
      </trkpt>
      <trkpt lat="59.9117109" lon="17.6432898">
        <ele>23.209</ele>
        <time>2013-06-06T14:39:39Z</time>
      </trkpt>
      <trkpt lat="59.911772" lon="17.6432815">
        <ele>23.209</ele>
        <time>2013-06-06T14:39:40Z</time>
      </trkpt>
      <trkpt lat="59.911833" lon="17.6432677">
        <ele>23.209</ele>
        <time>2013-06-06T14:39:41Z</time>
      </trkpt>
      <trkpt lat="59.9118926" lon="17.6432521">
        <ele>23.6896</ele>
        <time>2013-06-06T14:39:42Z</time>
      </trkpt>
      <trkpt lat="59.9119533" lon="17.6432374">
        <ele>23.6896</ele>
        <time>2013-06-06T14:39:43Z</time>
      </trkpt>
      <trkpt lat="59.9120148" lon="17.643223">
        <ele>23.6896</ele>
        <time>2013-06-06T14:39:44Z</time>
      </trkpt>
      <trkpt lat="59.9120779" lon="17.6432034">
        <ele>23.6896</ele>
        <time>2013-06-06T14:39:45Z</time>
      </trkpt>
      <trkpt lat="59.9121443" lon="17.6431781">
        <ele>23.6896</ele>
        <time>2013-06-06T14:39:46Z</time>
      </trkpt>
      <trkpt lat="59.9122154" lon="17.6431538">
        <ele>23.209</ele>
        <time>2013-06-06T14:39:47Z</time>
      </trkpt>
      <trkpt lat="59.9122883" lon="17.6431315">
        <ele>23.209</ele>
        <time>2013-06-06T14:39:48Z</time>
      </trkpt>
      <trkpt lat="59.9123617" lon="17.6431122">
        <ele>23.209</ele>
        <time>2013-06-06T14:39:49Z</time>
      </trkpt>
      <trkpt lat="59.9124333" lon="17.6430998">
        <ele>22.7283</ele>
        <time>2013-06-06T14:39:50Z</time>
      </trkpt>
      <trkpt lat="59.9125035" lon="17.6430944">
        <ele>22.7283</ele>
        <time>2013-06-06T14:39:51Z</time>
      </trkpt>
      <trkpt lat="59.9125738" lon="17.6430956">
        <ele>22.7283</ele>
        <time>2013-06-06T14:39:52Z</time>
      </trkpt>
      <trkpt lat="59.9126417" lon="17.6431148">
        <ele>22.7283</ele>
        <time>2013-06-06T14:39:53Z</time>
      </trkpt>
      <trkpt lat="59.9127006" lon="17.6431496">
        <ele>21.767</ele>
        <time>2013-06-06T14:39:54Z</time>
      </trkpt>
      <trkpt lat="59.9127609" lon="17.6431749">
        <ele>21.767</ele>
        <time>2013-06-06T14:39:55Z</time>
      </trkpt>
      <trkpt lat="59.9128275" lon="17.6431805">
        <ele>22.7283</ele>
        <time>2013-06-06T14:39:56Z</time>
      </trkpt>
      <trkpt lat="59.9128903" lon="17.6431769">
        <ele>22.7283</ele>
        <time>2013-06-06T14:39:57Z</time>
      </trkpt>
      <trkpt lat="59.912953" lon="17.6431638">
        <ele>22.7283</ele>
        <time>2013-06-06T14:39:58Z</time>
      </trkpt>
      <trkpt lat="59.9130209" lon="17.6431491">
        <ele>22.2476</ele>
        <time>2013-06-06T14:39:59Z</time>
      </trkpt>
      <trkpt lat="59.9130921" lon="17.6431401">
        <ele>22.2476</ele>
        <time>2013-06-06T14:40:00Z</time>
      </trkpt>
      <trkpt lat="59.9131633" lon="17.6431332">
        <ele>22.7283</ele>
        <time>2013-06-06T14:40:01Z</time>
      </trkpt>
      <trkpt lat="59.9132321" lon="17.6431252">
        <ele>22.2476</ele>
        <time>2013-06-06T14:40:02Z</time>
      </trkpt>
      <trkpt lat="59.9133037" lon="17.6431152">
        <ele>22.7283</ele>
        <time>2013-06-06T14:40:03Z</time>
      </trkpt>
      <trkpt lat="59.9133732" lon="17.6431014">
        <ele>22.7283</ele>
        <time>2013-06-06T14:40:04Z</time>
      </trkpt>
      <trkpt lat="59.9134447" lon="17.6430867">
        <ele>22.7283</ele>
        <time>2013-06-06T14:40:05Z</time>
      </trkpt>
      <trkpt lat="59.9135166" lon="17.6430716">
        <ele>22.7283</ele>
        <time>2013-06-06T14:40:06Z</time>
      </trkpt>
      <trkpt lat="59.9135933" lon="17.6430562">
        <ele>23.6896</ele>
        <time>2013-06-06T14:40:07Z</time>
      </trkpt>
      <trkpt lat="59.9136684" lon="17.6430387">
        <ele>24.1703</ele>
        <time>2013-06-06T14:40:08Z</time>
      </trkpt>
      <trkpt lat="59.9137419" lon="17.6430257">
        <ele>24.1703</ele>
        <time>2013-06-06T14:40:09Z</time>
      </trkpt>
      <trkpt lat="59.9138175" lon="17.6430132">
        <ele>24.651</ele>
        <time>2013-06-06T14:40:10Z</time>
      </trkpt>
      <trkpt lat="59.9138906" lon="17.6430014">
        <ele>24.651</ele>
        <time>2013-06-06T14:40:11Z</time>
      </trkpt>
      <trkpt lat="59.9139621" lon="17.64299">
        <ele>24.651</ele>
        <time>2013-06-06T14:40:12Z</time>
      </trkpt>
      <trkpt lat="59.914031" lon="17.6429728">
        <ele>24.651</ele>
        <time>2013-06-06T14:40:13Z</time>
      </trkpt>
      <trkpt lat="59.9140995" lon="17.6429557">
        <ele>24.651</ele>
        <time>2013-06-06T14:40:14Z</time>
      </trkpt>
      <trkpt lat="59.9141688" lon="17.6429396">
        <ele>24.651</ele>
        <time>2013-06-06T14:40:15Z</time>
      </trkpt>
      <trkpt lat="59.9142403" lon="17.6429268">
        <ele>24.1703</ele>
        <time>2013-06-06T14:40:16Z</time>
      </trkpt>
      <trkpt lat="59.9143132" lon="17.6429127">
        <ele>24.1703</ele>
        <time>2013-06-06T14:40:17Z</time>
      </trkpt>
      <trkpt lat="59.9143863" lon="17.6428997">
        <ele>23.6896</ele>
        <time>2013-06-06T14:40:18Z</time>
      </trkpt>
      <trkpt lat="59.9144649" lon="17.6428904">
        <ele>23.6896</ele>
        <time>2013-06-06T14:40:19Z</time>
      </trkpt>
      <trkpt lat="59.9145448" lon="17.6428776">
        <ele>23.209</ele>
        <time>2013-06-06T14:40:20Z</time>
      </trkpt>
      <trkpt lat="59.9146256" lon="17.642862">
        <ele>23.209</ele>
        <time>2013-06-06T14:40:21Z</time>
      </trkpt>
      <trkpt lat="59.9147085" lon="17.6428461">
        <ele>22.7283</ele>
        <time>2013-06-06T14:40:22Z</time>
      </trkpt>
      <trkpt lat="59.9147931" lon="17.6428328">
        <ele>22.7283</ele>
        <time>2013-06-06T14:40:23Z</time>
      </trkpt>
      <trkpt lat="59.9148803" lon="17.6428198">
        <ele>22.2476</ele>
        <time>2013-06-06T14:40:24Z</time>
      </trkpt>
      <trkpt lat="59.9149684" lon="17.6428053">
        <ele>22.2476</ele>
        <time>2013-06-06T14:40:25Z</time>
      </trkpt>
      <trkpt lat="59.9150557" lon="17.6427867">
        <ele>22.2476</ele>
        <time>2013-06-06T14:40:26Z</time>
      </trkpt>
      <trkpt lat="59.9151422" lon="17.6427561">
        <ele>22.2476</ele>
        <time>2013-06-06T14:40:27Z</time>
      </trkpt>
      <trkpt lat="59.9152245" lon="17.6427092">
        <ele>22.7283</ele>
        <time>2013-06-06T14:40:28Z</time>
      </trkpt>
      <trkpt lat="59.9153084" lon="17.6426531">
        <ele>22.7283</ele>
        <time>2013-06-06T14:40:29Z</time>
      </trkpt>
      <trkpt lat="59.9153997" lon="17.6426047">
        <ele>22.7283</ele>
        <time>2013-06-06T14:40:30Z</time>
      </trkpt>
      <trkpt lat="59.9154944" lon="17.642576">
        <ele>22.7283</ele>
        <time>2013-06-06T14:40:31Z</time>
      </trkpt>
      <trkpt lat="59.9155877" lon="17.6425572">
        <ele>22.7283</ele>
        <time>2013-06-06T14:40:32Z</time>
      </trkpt>
      <trkpt lat="59.9156787" lon="17.6425361">
        <ele>22.7283</ele>
        <time>2013-06-06T14:40:33Z</time>
      </trkpt>
      <trkpt lat="59.9157672" lon="17.6425196">
        <ele>22.7283</ele>
        <time>2013-06-06T14:40:34Z</time>
      </trkpt>
      <trkpt lat="59.915855" lon="17.6425127">
        <ele>22.7283</ele>
        <time>2013-06-06T14:40:35Z</time>
      </trkpt>
      <trkpt lat="59.9159425" lon="17.6425108">
        <ele>22.7283</ele>
        <time>2013-06-06T14:40:36Z</time>
      </trkpt>
      <trkpt lat="59.9160292" lon="17.6425087">
        <ele>22.7283</ele>
        <time>2013-06-06T14:40:37Z</time>
      </trkpt>
      <trkpt lat="59.9161142" lon="17.6425052">
        <ele>22.7283</ele>
        <time>2013-06-06T14:40:38Z</time>
      </trkpt>
      <trkpt lat="59.9161978" lon="17.642502">
        <ele>23.209</ele>
        <time>2013-06-06T14:40:39Z</time>
      </trkpt>
      <trkpt lat="59.9162802" lon="17.6424959">
        <ele>23.209</ele>
        <time>2013-06-06T14:40:40Z</time>
      </trkpt>
      <trkpt lat="59.9163635" lon="17.6424865">
        <ele>23.209</ele>
        <time>2013-06-06T14:40:41Z</time>
      </trkpt>
      <trkpt lat="59.9164485" lon="17.642475">
        <ele>23.209</ele>
        <time>2013-06-06T14:40:42Z</time>
      </trkpt>
      <trkpt lat="59.9165351" lon="17.6424626">
        <ele>23.209</ele>
        <time>2013-06-06T14:40:43Z</time>
      </trkpt>
      <trkpt lat="59.916622" lon="17.6424522">
        <ele>23.209</ele>
        <time>2013-06-06T14:40:44Z</time>
      </trkpt>
      <trkpt lat="59.9167079" lon="17.6424412">
        <ele>23.209</ele>
        <time>2013-06-06T14:40:45Z</time>
      </trkpt>
      <trkpt lat="59.9167935" lon="17.6424254">
        <ele>23.209</ele>
        <time>2013-06-06T14:40:46Z</time>
      </trkpt>
      <trkpt lat="59.9168789" lon="17.6424081">
        <ele>23.209</ele>
        <time>2013-06-06T14:40:47Z</time>
      </trkpt>
      <trkpt lat="59.9169639" lon="17.642392">
        <ele>22.7283</ele>
        <time>2013-06-06T14:40:48Z</time>
      </trkpt>
      <trkpt lat="59.9170479" lon="17.642374">
        <ele>22.7283</ele>
        <time>2013-06-06T14:40:49Z</time>
      </trkpt>
      <trkpt lat="59.9171309" lon="17.6423487">
        <ele>22.7283</ele>
        <time>2013-06-06T14:40:50Z</time>
      </trkpt>
      <trkpt lat="59.9172136" lon="17.6423232">
        <ele>22.7283</ele>
        <time>2013-06-06T14:40:51Z</time>
      </trkpt>
      <trkpt lat="59.917297" lon="17.6423108">
        <ele>22.7283</ele>
        <time>2013-06-06T14:40:52Z</time>
      </trkpt>
      <trkpt lat="59.9173802" lon="17.6423103">
        <ele>22.7283</ele>
        <time>2013-06-06T14:40:53Z</time>
      </trkpt>
      <trkpt lat="59.9174623" lon="17.6423111">
        <ele>22.7283</ele>
        <time>2013-06-06T14:40:54Z</time>
      </trkpt>
      <trkpt lat="59.9175431" lon="17.6423107">
        <ele>22.7283</ele>
        <time>2013-06-06T14:40:55Z</time>
      </trkpt>
      <trkpt lat="59.9176223" lon="17.6423108">
        <ele>22.7283</ele>
        <time>2013-06-06T14:40:56Z</time>
      </trkpt>
      <trkpt lat="59.917701" lon="17.6423108">
        <ele>22.7283</ele>
        <time>2013-06-06T14:40:57Z</time>
      </trkpt>
      <trkpt lat="59.9177789" lon="17.6423115">
        <ele>22.7283</ele>
        <time>2013-06-06T14:40:58Z</time>
      </trkpt>
      <trkpt lat="59.9178568" lon="17.6423097">
        <ele>22.2476</ele>
        <time>2013-06-06T14:40:59Z</time>
      </trkpt>
      <trkpt lat="59.917935" lon="17.6423037">
        <ele>22.7283</ele>
        <time>2013-06-06T14:41:00Z</time>
      </trkpt>
      <trkpt lat="59.9180138" lon="17.6422968">
        <ele>22.7283</ele>
        <time>2013-06-06T14:41:01Z</time>
      </trkpt>
      <trkpt lat="59.9180917" lon="17.642288">
        <ele>22.7283</ele>
        <time>2013-06-06T14:41:02Z</time>
      </trkpt>
      <trkpt lat="59.9181682" lon="17.6422812">
        <ele>22.7283</ele>
        <time>2013-06-06T14:41:03Z</time>
      </trkpt>
      <trkpt lat="59.9182428" lon="17.6422756">
        <ele>22.7283</ele>
        <time>2013-06-06T14:41:04Z</time>
      </trkpt>
      <trkpt lat="59.9183149" lon="17.6422703">
        <ele>23.209</ele>
        <time>2013-06-06T14:41:05Z</time>
      </trkpt>
      <trkpt lat="59.9183847" lon="17.642263">
        <ele>23.209</ele>
        <time>2013-06-06T14:41:06Z</time>
      </trkpt>
      <trkpt lat="59.9184527" lon="17.6422554">
        <ele>23.209</ele>
        <time>2013-06-06T14:41:07Z</time>
      </trkpt>
      <trkpt lat="59.9185206" lon="17.6422467">
        <ele>23.6896</ele>
        <time>2013-06-06T14:41:08Z</time>
      </trkpt>
      <trkpt lat="59.9185877" lon="17.6422397">
        <ele>23.6896</ele>
        <time>2013-06-06T14:41:09Z</time>
      </trkpt>
      <trkpt lat="59.9186546" lon="17.6422316">
        <ele>23.6896</ele>
        <time>2013-06-06T14:41:10Z</time>
      </trkpt>
      <trkpt lat="59.9187214" lon="17.6422221">
        <ele>23.6896</ele>
        <time>2013-06-06T14:41:11Z</time>
      </trkpt>
      <trkpt lat="59.9187879" lon="17.6422129">
        <ele>23.6896</ele>
        <time>2013-06-06T14:41:12Z</time>
      </trkpt>
      <trkpt lat="59.9188541" lon="17.6422051">
        <ele>23.6896</ele>
        <time>2013-06-06T14:41:13Z</time>
      </trkpt>
      <trkpt lat="59.9189194" lon="17.6421969">
        <ele>23.6896</ele>
        <time>2013-06-06T14:41:14Z</time>
      </trkpt>
      <trkpt lat="59.918985" lon="17.6421895">
        <ele>23.6896</ele>
        <time>2013-06-06T14:41:15Z</time>
      </trkpt>
      <trkpt lat="59.9190506" lon="17.642183">
        <ele>23.6896</ele>
        <time>2013-06-06T14:41:16Z</time>
      </trkpt>
      <trkpt lat="59.9191166" lon="17.6421757">
        <ele>23.209</ele>
        <time>2013-06-06T14:41:17Z</time>
      </trkpt>
      <trkpt lat="59.9191834" lon="17.6421657">
        <ele>23.6896</ele>
        <time>2013-06-06T14:41:18Z</time>
      </trkpt>
      <trkpt lat="59.9192488" lon="17.6421564">
        <ele>23.209</ele>
        <time>2013-06-06T14:41:19Z</time>
      </trkpt>
      <trkpt lat="59.9193125" lon="17.64215">
        <ele>23.209</ele>
        <time>2013-06-06T14:41:20Z</time>
      </trkpt>
      <trkpt lat="59.9193752" lon="17.6421418">
        <ele>23.209</ele>
        <time>2013-06-06T14:41:21Z</time>
      </trkpt>
      <trkpt lat="59.9194378" lon="17.6421333">
        <ele>23.209</ele>
        <time>2013-06-06T14:41:22Z</time>
      </trkpt>
      <trkpt lat="59.9194996" lon="17.6421285">
        <ele>23.209</ele>
        <time>2013-06-06T14:41:23Z</time>
      </trkpt>
      <trkpt lat="59.9195611" lon="17.6421238">
        <ele>23.209</ele>
        <time>2013-06-06T14:41:24Z</time>
      </trkpt>
      <trkpt lat="59.9196224" lon="17.6421184">
        <ele>23.209</ele>
        <time>2013-06-06T14:41:25Z</time>
      </trkpt>
      <trkpt lat="59.9196838" lon="17.6421093">
        <ele>23.209</ele>
        <time>2013-06-06T14:41:26Z</time>
      </trkpt>
      <trkpt lat="59.9197451" lon="17.6420969">
        <ele>23.209</ele>
        <time>2013-06-06T14:41:27Z</time>
      </trkpt>
      <trkpt lat="59.9198073" lon="17.6420804">
        <ele>23.209</ele>
        <time>2013-06-06T14:41:28Z</time>
      </trkpt>
      <trkpt lat="59.9198695" lon="17.6420621">
        <ele>23.6896</ele>
        <time>2013-06-06T14:41:29Z</time>
      </trkpt>
      <trkpt lat="59.9199311" lon="17.6420392">
        <ele>23.6896</ele>
        <time>2013-06-06T14:41:30Z</time>
      </trkpt>
      <trkpt lat="59.9199929" lon="17.6420178">
        <ele>23.6896</ele>
        <time>2013-06-06T14:41:31Z</time>
      </trkpt>
      <trkpt lat="59.9200564" lon="17.6420064">
        <ele>23.6896</ele>
        <time>2013-06-06T14:41:32Z</time>
      </trkpt>
      <trkpt lat="59.9201206" lon="17.6420016">
        <ele>23.6896</ele>
        <time>2013-06-06T14:41:33Z</time>
      </trkpt>
      <trkpt lat="59.9201847" lon="17.6420037">
        <ele>23.6896</ele>
        <time>2013-06-06T14:41:34Z</time>
      </trkpt>
      <trkpt lat="59.9202488" lon="17.6420026">
        <ele>23.6896</ele>
        <time>2013-06-06T14:41:35Z</time>
      </trkpt>
      <trkpt lat="59.9203144" lon="17.6419975">
        <ele>23.6896</ele>
        <time>2013-06-06T14:41:36Z</time>
      </trkpt>
      <trkpt lat="59.9203822" lon="17.6419949">
        <ele>23.6896</ele>
        <time>2013-06-06T14:41:37Z</time>
      </trkpt>
      <trkpt lat="59.9204512" lon="17.6419926">
        <ele>23.6896</ele>
        <time>2013-06-06T14:41:38Z</time>
      </trkpt>
      <trkpt lat="59.9205207" lon="17.6419907">
        <ele>23.6896</ele>
        <time>2013-06-06T14:41:39Z</time>
      </trkpt>
      <trkpt lat="59.9205906" lon="17.641986">
        <ele>23.6896</ele>
        <time>2013-06-06T14:41:40Z</time>
      </trkpt>
      <trkpt lat="59.9206587" lon="17.6419796">
        <ele>23.209</ele>
        <time>2013-06-06T14:41:41Z</time>
      </trkpt>
      <trkpt lat="59.9207251" lon="17.6419753">
        <ele>23.6896</ele>
        <time>2013-06-06T14:41:42Z</time>
      </trkpt>
      <trkpt lat="59.9207862" lon="17.6419772">
        <ele>23.6896</ele>
        <time>2013-06-06T14:41:43Z</time>
      </trkpt>
      <trkpt lat="59.9208453" lon="17.6419784">
        <ele>23.6896</ele>
        <time>2013-06-06T14:41:44Z</time>
      </trkpt>
      <trkpt lat="59.9209018" lon="17.6419744">
        <ele>24.1703</ele>
        <time>2013-06-06T14:41:45Z</time>
      </trkpt>
      <trkpt lat="59.9209547" lon="17.6419695">
        <ele>25.1317</ele>
        <time>2013-06-06T14:41:46Z</time>
      </trkpt>
      <trkpt lat="59.9210027" lon="17.6419632">
        <ele>25.6123</ele>
        <time>2013-06-06T14:41:47Z</time>
      </trkpt>
      <trkpt lat="59.9210457" lon="17.6419606">
        <ele>25.6123</ele>
        <time>2013-06-06T14:41:48Z</time>
      </trkpt>
      <trkpt lat="59.9210851" lon="17.6419642">
        <ele>26.0929</ele>
        <time>2013-06-06T14:41:49Z</time>
      </trkpt>
      <trkpt lat="59.9211198" lon="17.6419745">
        <ele>26.0929</ele>
        <time>2013-06-06T14:41:50Z</time>
      </trkpt>
      <trkpt lat="59.9211535" lon="17.6419774">
        <ele>25.6123</ele>
        <time>2013-06-06T14:41:51Z</time>
      </trkpt>
      <trkpt lat="59.9211816" lon="17.6419772">
        <ele>25.1317</ele>
        <time>2013-06-06T14:41:52Z</time>
      </trkpt>
      <trkpt lat="59.9212008" lon="17.6419783">
        <ele>24.1703</ele>
        <time>2013-06-06T14:41:53Z</time>
      </trkpt>
      <trkpt lat="59.9212085" lon="17.6419819">
        <ele>23.6896</ele>
        <time>2013-06-06T14:41:54Z</time>
      </trkpt>
      <trkpt lat="59.9212069" lon="17.6419854">
        <ele>23.6896</ele>
        <time>2013-06-06T14:41:55Z</time>
      </trkpt>
      <trkpt lat="59.9212076" lon="17.6419923">
        <ele>23.6896</ele>
        <time>2013-06-06T14:41:56Z</time>
      </trkpt>
      <trkpt lat="59.9212514" lon="17.6419601">
        <ele>20.325</ele>
        <time>2013-06-06T14:42:20Z</time>
      </trkpt>
      <trkpt lat="59.9228101" lon="17.6417782">
        <ele>27.5349</ele>
        <time>2013-06-06T14:43:37Z</time>
      </trkpt>
      <trkpt lat="59.9228511" lon="17.641773">
        <ele>27.5349</ele>
        <time>2013-06-06T14:43:38Z</time>
      </trkpt>
      <trkpt lat="59.9228915" lon="17.6417667">
        <ele>27.0543</ele>
        <time>2013-06-06T14:43:39Z</time>
      </trkpt>
      <trkpt lat="59.9229361" lon="17.6417618">
        <ele>27.0543</ele>
        <time>2013-06-06T14:43:40Z</time>
      </trkpt>
      <trkpt lat="59.9229852" lon="17.6417617">
        <ele>26.5736</ele>
        <time>2013-06-06T14:43:41Z</time>
      </trkpt>
      <trkpt lat="59.9230385" lon="17.6417623">
        <ele>26.5736</ele>
        <time>2013-06-06T14:43:42Z</time>
      </trkpt>
      <trkpt lat="59.9230962" lon="17.6417597">
        <ele>26.5736</ele>
        <time>2013-06-06T14:43:43Z</time>
      </trkpt>
      <trkpt lat="59.9231571" lon="17.6417548">
        <ele>26.0929</ele>
        <time>2013-06-06T14:43:44Z</time>
      </trkpt>
      <trkpt lat="59.9232221" lon="17.6417492">
        <ele>26.0929</ele>
        <time>2013-06-06T14:43:45Z</time>
      </trkpt>
      <trkpt lat="59.9232884" lon="17.6417445">
        <ele>25.1317</ele>
        <time>2013-06-06T14:43:46Z</time>
      </trkpt>
      <trkpt lat="59.9233531" lon="17.6417377">
        <ele>25.1317</ele>
        <time>2013-06-06T14:43:47Z</time>
      </trkpt>
      <trkpt lat="59.9234188" lon="17.6417303">
        <ele>24.651</ele>
        <time>2013-06-06T14:43:48Z</time>
      </trkpt>
      <trkpt lat="59.923485" lon="17.6417227">
        <ele>24.1703</ele>
        <time>2013-06-06T14:43:49Z</time>
      </trkpt>
      <trkpt lat="59.9235509" lon="17.6417146">
        <ele>23.6896</ele>
        <time>2013-06-06T14:43:50Z</time>
      </trkpt>
      <trkpt lat="59.9236174" lon="17.6417043">
        <ele>23.6896</ele>
        <time>2013-06-06T14:43:51Z</time>
      </trkpt>
      <trkpt lat="59.9236851" lon="17.6416939">
        <ele>23.209</ele>
        <time>2013-06-06T14:43:52Z</time>
      </trkpt>
      <trkpt lat="59.9237535" lon="17.6416849">
        <ele>23.209</ele>
        <time>2013-06-06T14:43:53Z</time>
      </trkpt>
      <trkpt lat="59.9238219" lon="17.6416752">
        <ele>22.7283</ele>
        <time>2013-06-06T14:43:54Z</time>
      </trkpt>
      <trkpt lat="59.9238899" lon="17.641664">
        <ele>22.7283</ele>
        <time>2013-06-06T14:43:55Z</time>
      </trkpt>
      <trkpt lat="59.9239574" lon="17.6416539">
        <ele>22.7283</ele>
        <time>2013-06-06T14:43:56Z</time>
      </trkpt>
      <trkpt lat="59.9240232" lon="17.6416461">
        <ele>22.7283</ele>
        <time>2013-06-06T14:43:57Z</time>
      </trkpt>
      <trkpt lat="59.9240876" lon="17.6416396">
        <ele>22.7283</ele>
        <time>2013-06-06T14:43:58Z</time>
      </trkpt>
      <trkpt lat="59.9241503" lon="17.6416352">
        <ele>22.7283</ele>
        <time>2013-06-06T14:43:59Z</time>
      </trkpt>
      <trkpt lat="59.9242156" lon="17.6416297">
        <ele>23.209</ele>
        <time>2013-06-06T14:44:00Z</time>
      </trkpt>
      <trkpt lat="59.9242845" lon="17.6416224">
        <ele>23.6896</ele>
        <time>2013-06-06T14:44:01Z</time>
      </trkpt>
      <trkpt lat="59.9243542" lon="17.6416127">
        <ele>23.6896</ele>
        <time>2013-06-06T14:44:02Z</time>
      </trkpt>
      <trkpt lat="59.9244247" lon="17.6416027">
        <ele>23.6896</ele>
        <time>2013-06-06T14:44:03Z</time>
      </trkpt>
      <trkpt lat="59.9244989" lon="17.6415887">
        <ele>24.1703</ele>
        <time>2013-06-06T14:44:04Z</time>
      </trkpt>
      <trkpt lat="59.9245746" lon="17.6415742">
        <ele>24.1703</ele>
        <time>2013-06-06T14:44:05Z</time>
      </trkpt>
      <trkpt lat="59.9246487" lon="17.6415604">
        <ele>24.1703</ele>
        <time>2013-06-06T14:44:06Z</time>
      </trkpt>
      <trkpt lat="59.9247205" lon="17.6415427">
        <ele>24.1703</ele>
        <time>2013-06-06T14:44:07Z</time>
      </trkpt>
      <trkpt lat="59.9247916" lon="17.6415223">
        <ele>24.1703</ele>
        <time>2013-06-06T14:44:08Z</time>
      </trkpt>
      <trkpt lat="59.9248626" lon="17.6415072">
        <ele>24.1703</ele>
        <time>2013-06-06T14:44:09Z</time>
      </trkpt>
      <trkpt lat="59.9249341" lon="17.6414971">
        <ele>24.1703</ele>
        <time>2013-06-06T14:44:10Z</time>
      </trkpt>
      <trkpt lat="59.9250065" lon="17.6414902">
        <ele>24.1703</ele>
        <time>2013-06-06T14:44:11Z</time>
      </trkpt>
      <trkpt lat="59.9250791" lon="17.6414852">
        <ele>24.1703</ele>
        <time>2013-06-06T14:44:12Z</time>
      </trkpt>
      <trkpt lat="59.925153" lon="17.6414816">
        <ele>24.1703</ele>
        <time>2013-06-06T14:44:13Z</time>
      </trkpt>
      <trkpt lat="59.9252278" lon="17.6414789">
        <ele>24.1703</ele>
        <time>2013-06-06T14:44:14Z</time>
      </trkpt>
      <trkpt lat="59.9253018" lon="17.6414768">
        <ele>23.6896</ele>
        <time>2013-06-06T14:44:15Z</time>
      </trkpt>
      <trkpt lat="59.925375" lon="17.6414717">
        <ele>23.6896</ele>
        <time>2013-06-06T14:44:16Z</time>
      </trkpt>
      <trkpt lat="59.9254478" lon="17.6414629">
        <ele>23.6896</ele>
        <time>2013-06-06T14:44:17Z</time>
      </trkpt>
      <trkpt lat="59.9255202" lon="17.6414534">
        <ele>23.6896</ele>
        <time>2013-06-06T14:44:18Z</time>
      </trkpt>
      <trkpt lat="59.9255917" lon="17.6414464">
        <ele>23.6896</ele>
        <time>2013-06-06T14:44:19Z</time>
      </trkpt>
      <trkpt lat="59.9256622" lon="17.6414385">
        <ele>23.209</ele>
        <time>2013-06-06T14:44:20Z</time>
      </trkpt>
      <trkpt lat="59.9257314" lon="17.6414277">
        <ele>23.209</ele>
        <time>2013-06-06T14:44:21Z</time>
      </trkpt>
      <trkpt lat="59.9257996" lon="17.6414168">
        <ele>23.209</ele>
        <time>2013-06-06T14:44:22Z</time>
      </trkpt>
      <trkpt lat="59.9258668" lon="17.6414059">
        <ele>23.209</ele>
        <time>2013-06-06T14:44:23Z</time>
      </trkpt>
      <trkpt lat="59.9259323" lon="17.6413964">
        <ele>23.209</ele>
        <time>2013-06-06T14:44:24Z</time>
      </trkpt>
      <trkpt lat="59.9259969" lon="17.6413862">
        <ele>23.209</ele>
        <time>2013-06-06T14:44:25Z</time>
      </trkpt>
      <trkpt lat="59.9260598" lon="17.6413743">
        <ele>22.7283</ele>
        <time>2013-06-06T14:44:26Z</time>
      </trkpt>
      <trkpt lat="59.9261218" lon="17.6413634">
        <ele>22.7283</ele>
        <time>2013-06-06T14:44:27Z</time>
      </trkpt>
      <trkpt lat="59.926184" lon="17.6413555">
        <ele>22.7283</ele>
        <time>2013-06-06T14:44:28Z</time>
      </trkpt>
      <trkpt lat="59.9262467" lon="17.641348">
        <ele>22.7283</ele>
        <time>2013-06-06T14:44:29Z</time>
      </trkpt>
      <trkpt lat="59.9263102" lon="17.6413401">
        <ele>22.7283</ele>
        <time>2013-06-06T14:44:30Z</time>
      </trkpt>
      <trkpt lat="59.9263746" lon="17.6413317">
        <ele>22.7283</ele>
        <time>2013-06-06T14:44:31Z</time>
      </trkpt>
      <trkpt lat="59.9264385" lon="17.6413255">
        <ele>22.2476</ele>
        <time>2013-06-06T14:44:32Z</time>
      </trkpt>
      <trkpt lat="59.9265037" lon="17.6413193">
        <ele>22.2476</ele>
        <time>2013-06-06T14:44:33Z</time>
      </trkpt>
      <trkpt lat="59.9265708" lon="17.6413098">
        <ele>22.2476</ele>
        <time>2013-06-06T14:44:34Z</time>
      </trkpt>
      <trkpt lat="59.9266392" lon="17.6412984">
        <ele>22.7283</ele>
        <time>2013-06-06T14:44:35Z</time>
      </trkpt>
      <trkpt lat="59.9267088" lon="17.6412878">
        <ele>22.7283</ele>
        <time>2013-06-06T14:44:36Z</time>
      </trkpt>
      <trkpt lat="59.9267803" lon="17.6412791">
        <ele>22.7283</ele>
        <time>2013-06-06T14:44:37Z</time>
      </trkpt>
      <trkpt lat="59.9268534" lon="17.6412732">
        <ele>22.7283</ele>
        <time>2013-06-06T14:44:38Z</time>
      </trkpt>
      <trkpt lat="59.9269283" lon="17.6412655">
        <ele>22.2476</ele>
        <time>2013-06-06T14:44:39Z</time>
      </trkpt>
      <trkpt lat="59.9270029" lon="17.6412544">
        <ele>22.2476</ele>
        <time>2013-06-06T14:44:40Z</time>
      </trkpt>
      <trkpt lat="59.927075" lon="17.6412452">
        <ele>22.2476</ele>
        <time>2013-06-06T14:44:41Z</time>
      </trkpt>
      <trkpt lat="59.9271449" lon="17.6412413">
        <ele>22.2476</ele>
        <time>2013-06-06T14:44:42Z</time>
      </trkpt>
      <trkpt lat="59.9272126" lon="17.641239">
        <ele>22.2476</ele>
        <time>2013-06-06T14:44:43Z</time>
      </trkpt>
      <trkpt lat="59.927278" lon="17.6412345">
        <ele>22.2476</ele>
        <time>2013-06-06T14:44:44Z</time>
      </trkpt>
      <trkpt lat="59.9273419" lon="17.6412292">
        <ele>22.2476</ele>
        <time>2013-06-06T14:44:45Z</time>
      </trkpt>
      <trkpt lat="59.9274056" lon="17.6412246">
        <ele>22.2476</ele>
        <time>2013-06-06T14:44:46Z</time>
      </trkpt>
      <trkpt lat="59.9274693" lon="17.6412203">
        <ele>22.2476</ele>
        <time>2013-06-06T14:44:47Z</time>
      </trkpt>
      <trkpt lat="59.9275332" lon="17.6412141">
        <ele>22.2476</ele>
        <time>2013-06-06T14:44:48Z</time>
      </trkpt>
      <trkpt lat="59.9275975" lon="17.6412066">
        <ele>22.2476</ele>
        <time>2013-06-06T14:44:49Z</time>
      </trkpt>
      <trkpt lat="59.9276628" lon="17.6411981">
        <ele>22.2476</ele>
        <time>2013-06-06T14:44:50Z</time>
      </trkpt>
      <trkpt lat="59.9277287" lon="17.6411904">
        <ele>22.2476</ele>
        <time>2013-06-06T14:44:51Z</time>
      </trkpt>
      <trkpt lat="59.9277955" lon="17.6411853">
        <ele>22.2476</ele>
        <time>2013-06-06T14:44:52Z</time>
      </trkpt>
      <trkpt lat="59.9278622" lon="17.6411812">
        <ele>22.2476</ele>
        <time>2013-06-06T14:44:53Z</time>
      </trkpt>
      <trkpt lat="59.9279292" lon="17.6411755">
        <ele>22.2476</ele>
        <time>2013-06-06T14:44:54Z</time>
      </trkpt>
      <trkpt lat="59.927997" lon="17.6411687">
        <ele>22.2476</ele>
        <time>2013-06-06T14:44:55Z</time>
      </trkpt>
      <trkpt lat="59.9280654" lon="17.6411608">
        <ele>22.2476</ele>
        <time>2013-06-06T14:44:56Z</time>
      </trkpt>
      <trkpt lat="59.9281333" lon="17.6411516">
        <ele>22.2476</ele>
        <time>2013-06-06T14:44:57Z</time>
      </trkpt>
      <trkpt lat="59.9281995" lon="17.6411431">
        <ele>22.2476</ele>
        <time>2013-06-06T14:44:58Z</time>
      </trkpt>
      <trkpt lat="59.9282638" lon="17.6411342">
        <ele>22.2476</ele>
        <time>2013-06-06T14:44:59Z</time>
      </trkpt>
      <trkpt lat="59.9283269" lon="17.6411236">
        <ele>22.2476</ele>
        <time>2013-06-06T14:45:00Z</time>
      </trkpt>
      <trkpt lat="59.9283886" lon="17.6411137">
        <ele>22.2476</ele>
        <time>2013-06-06T14:45:01Z</time>
      </trkpt>
      <trkpt lat="59.9284487" lon="17.6411037">
        <ele>22.2476</ele>
        <time>2013-06-06T14:45:02Z</time>
      </trkpt>
      <trkpt lat="59.9285068" lon="17.6410935">
        <ele>22.2476</ele>
        <time>2013-06-06T14:45:03Z</time>
      </trkpt>
      <trkpt lat="59.9285643" lon="17.6410861">
        <ele>22.2476</ele>
        <time>2013-06-06T14:45:04Z</time>
      </trkpt>
      <trkpt lat="59.9286212" lon="17.641079">
        <ele>22.2476</ele>
        <time>2013-06-06T14:45:05Z</time>
      </trkpt>
      <trkpt lat="59.928678" lon="17.6410706">
        <ele>22.2476</ele>
        <time>2013-06-06T14:45:06Z</time>
      </trkpt>
      <trkpt lat="59.9287356" lon="17.6410592">
        <ele>21.767</ele>
        <time>2013-06-06T14:45:07Z</time>
      </trkpt>
      <trkpt lat="59.9287951" lon="17.6410448">
        <ele>21.767</ele>
        <time>2013-06-06T14:45:08Z</time>
      </trkpt>
      <trkpt lat="59.9288565" lon="17.6410306">
        <ele>21.767</ele>
        <time>2013-06-06T14:45:09Z</time>
      </trkpt>
      <trkpt lat="59.9289201" lon="17.6410169">
        <ele>21.767</ele>
        <time>2013-06-06T14:45:10Z</time>
      </trkpt>
      <trkpt lat="59.9289844" lon="17.641005">
        <ele>21.767</ele>
        <time>2013-06-06T14:45:11Z</time>
      </trkpt>
      <trkpt lat="59.9290471" lon="17.6409956">
        <ele>21.767</ele>
        <time>2013-06-06T14:45:12Z</time>
      </trkpt>
      <trkpt lat="59.9291088" lon="17.6409899">
        <ele>21.767</ele>
        <time>2013-06-06T14:45:13Z</time>
      </trkpt>
      <trkpt lat="59.9291694" lon="17.6409894">
        <ele>21.767</ele>
        <time>2013-06-06T14:45:14Z</time>
      </trkpt>
      <trkpt lat="59.9292287" lon="17.64099">
        <ele>21.767</ele>
        <time>2013-06-06T14:45:15Z</time>
      </trkpt>
      <trkpt lat="59.9292858" lon="17.6409897">
        <ele>21.767</ele>
        <time>2013-06-06T14:45:16Z</time>
      </trkpt>
      <trkpt lat="59.9293406" lon="17.640988">
        <ele>21.767</ele>
        <time>2013-06-06T14:45:17Z</time>
      </trkpt>
      <trkpt lat="59.9293966" lon="17.6409858">
        <ele>21.767</ele>
        <time>2013-06-06T14:45:18Z</time>
      </trkpt>
      <trkpt lat="59.9294552" lon="17.6409819">
        <ele>21.767</ele>
        <time>2013-06-06T14:45:19Z</time>
      </trkpt>
      <trkpt lat="59.9295148" lon="17.6409722">
        <ele>21.767</ele>
        <time>2013-06-06T14:45:20Z</time>
      </trkpt>
      <trkpt lat="59.9295765" lon="17.6409574">
        <ele>21.767</ele>
        <time>2013-06-06T14:45:21Z</time>
      </trkpt>
      <trkpt lat="59.92964" lon="17.6409418">
        <ele>21.767</ele>
        <time>2013-06-06T14:45:22Z</time>
      </trkpt>
      <trkpt lat="59.9297049" lon="17.6409288">
        <ele>21.767</ele>
        <time>2013-06-06T14:45:23Z</time>
      </trkpt>
      <trkpt lat="59.92977" lon="17.6409157">
        <ele>21.767</ele>
        <time>2013-06-06T14:45:24Z</time>
      </trkpt>
      <trkpt lat="59.929835" lon="17.6409043">
        <ele>21.767</ele>
        <time>2013-06-06T14:45:25Z</time>
      </trkpt>
      <trkpt lat="59.9299026" lon="17.6408993">
        <ele>21.2864</ele>
        <time>2013-06-06T14:45:26Z</time>
      </trkpt>
      <trkpt lat="59.9299753" lon="17.6408991">
        <ele>21.2864</ele>
        <time>2013-06-06T14:45:27Z</time>
      </trkpt>
      <trkpt lat="59.9300513" lon="17.6409013">
        <ele>20.8057</ele>
        <time>2013-06-06T14:45:28Z</time>
      </trkpt>
      <trkpt lat="59.9301259" lon="17.6409028">
        <ele>20.8057</ele>
        <time>2013-06-06T14:45:29Z</time>
      </trkpt>
      <trkpt lat="59.9301977" lon="17.6409068">
        <ele>20.8057</ele>
        <time>2013-06-06T14:45:30Z</time>
      </trkpt>
      <trkpt lat="59.9302669" lon="17.6409113">
        <ele>21.2864</ele>
        <time>2013-06-06T14:45:31Z</time>
      </trkpt>
      <trkpt lat="59.9303328" lon="17.6409153">
        <ele>21.2864</ele>
        <time>2013-06-06T14:45:32Z</time>
      </trkpt>
      <trkpt lat="59.9303965" lon="17.6409169">
        <ele>21.2864</ele>
        <time>2013-06-06T14:45:33Z</time>
      </trkpt>
      <trkpt lat="59.9304571" lon="17.6409189">
        <ele>21.2864</ele>
        <time>2013-06-06T14:45:34Z</time>
      </trkpt>
      <trkpt lat="59.9305151" lon="17.6409211">
        <ele>21.767</ele>
        <time>2013-06-06T14:45:35Z</time>
      </trkpt>
      <trkpt lat="59.930571" lon="17.6409163">
        <ele>21.2864</ele>
        <time>2013-06-06T14:45:36Z</time>
      </trkpt>
      <trkpt lat="59.9306265" lon="17.6409071">
        <ele>21.767</ele>
        <time>2013-06-06T14:45:37Z</time>
      </trkpt>
      <trkpt lat="59.930683" lon="17.6409002">
        <ele>21.767</ele>
        <time>2013-06-06T14:45:38Z</time>
      </trkpt>
      <trkpt lat="59.9307394" lon="17.6408996">
        <ele>21.767</ele>
        <time>2013-06-06T14:45:39Z</time>
      </trkpt>
      <trkpt lat="59.930798" lon="17.6409007">
        <ele>21.2864</ele>
        <time>2013-06-06T14:45:40Z</time>
      </trkpt>
      <trkpt lat="59.9308588" lon="17.6409042">
        <ele>21.2864</ele>
        <time>2013-06-06T14:45:41Z</time>
      </trkpt>
      <trkpt lat="59.9309184" lon="17.6409178">
        <ele>21.2864</ele>
        <time>2013-06-06T14:45:42Z</time>
      </trkpt>
      <trkpt lat="59.9309765" lon="17.6409429">
        <ele>21.2864</ele>
        <time>2013-06-06T14:45:43Z</time>
      </trkpt>
      <trkpt lat="59.9310315" lon="17.6409783">
        <ele>21.2864</ele>
        <time>2013-06-06T14:45:44Z</time>
      </trkpt>
      <trkpt lat="59.9310839" lon="17.6410185">
        <ele>21.2864</ele>
        <time>2013-06-06T14:45:45Z</time>
      </trkpt>
      <trkpt lat="59.9311334" lon="17.6410574">
        <ele>21.2864</ele>
        <time>2013-06-06T14:45:46Z</time>
      </trkpt>
      <trkpt lat="59.9311823" lon="17.641093">
        <ele>21.767</ele>
        <time>2013-06-06T14:45:47Z</time>
      </trkpt>
      <trkpt lat="59.9312293" lon="17.6411316">
        <ele>21.767</ele>
        <time>2013-06-06T14:45:48Z</time>
      </trkpt>
      <trkpt lat="59.9312758" lon="17.6411693">
        <ele>22.2476</ele>
        <time>2013-06-06T14:45:49Z</time>
      </trkpt>
      <trkpt lat="59.9313212" lon="17.6412062">
        <ele>22.2476</ele>
        <time>2013-06-06T14:45:50Z</time>
      </trkpt>
      <trkpt lat="59.9313672" lon="17.6412396">
        <ele>22.7283</ele>
        <time>2013-06-06T14:45:51Z</time>
      </trkpt>
      <trkpt lat="59.9314129" lon="17.6412744">
        <ele>22.7283</ele>
        <time>2013-06-06T14:45:52Z</time>
      </trkpt>
      <trkpt lat="59.9314644" lon="17.6413126">
        <ele>22.7283</ele>
        <time>2013-06-06T14:45:53Z</time>
      </trkpt>
      <trkpt lat="59.9315181" lon="17.6413536">
        <ele>22.2476</ele>
        <time>2013-06-06T14:45:54Z</time>
      </trkpt>
      <trkpt lat="59.9315723" lon="17.6413919">
        <ele>22.2476</ele>
        <time>2013-06-06T14:45:55Z</time>
      </trkpt>
      <trkpt lat="59.9316277" lon="17.6414296">
        <ele>22.7283</ele>
        <time>2013-06-06T14:45:56Z</time>
      </trkpt>
      <trkpt lat="59.9316826" lon="17.6414706">
        <ele>22.2476</ele>
        <time>2013-06-06T14:45:57Z</time>
      </trkpt>
      <trkpt lat="59.9317387" lon="17.6415113">
        <ele>22.2476</ele>
        <time>2013-06-06T14:45:58Z</time>
      </trkpt>
      <trkpt lat="59.931797" lon="17.6415471">
        <ele>22.2476</ele>
        <time>2013-06-06T14:45:59Z</time>
      </trkpt>
      <trkpt lat="59.931856" lon="17.6415794">
        <ele>22.2476</ele>
        <time>2013-06-06T14:46:00Z</time>
      </trkpt>
      <trkpt lat="59.9319138" lon="17.6416137">
        <ele>22.2476</ele>
        <time>2013-06-06T14:46:01Z</time>
      </trkpt>
      <trkpt lat="59.9319693" lon="17.6416509">
        <ele>22.2476</ele>
        <time>2013-06-06T14:46:02Z</time>
      </trkpt>
      <trkpt lat="59.9320214" lon="17.6416918">
        <ele>22.7283</ele>
        <time>2013-06-06T14:46:03Z</time>
      </trkpt>
      <trkpt lat="59.9320706" lon="17.6417373">
        <ele>22.7283</ele>
        <time>2013-06-06T14:46:04Z</time>
      </trkpt>
      <trkpt lat="59.9321212" lon="17.6417849">
        <ele>22.7283</ele>
        <time>2013-06-06T14:46:05Z</time>
      </trkpt>
      <trkpt lat="59.9321747" lon="17.6418326">
        <ele>22.7283</ele>
        <time>2013-06-06T14:46:06Z</time>
      </trkpt>
      <trkpt lat="59.9322296" lon="17.64188">
        <ele>22.2476</ele>
        <time>2013-06-06T14:46:07Z</time>
      </trkpt>
      <trkpt lat="59.9322836" lon="17.6419302">
        <ele>22.2476</ele>
        <time>2013-06-06T14:46:08Z</time>
      </trkpt>
      <trkpt lat="59.9323369" lon="17.6419801">
        <ele>22.2476</ele>
        <time>2013-06-06T14:46:09Z</time>
      </trkpt>
      <trkpt lat="59.9323906" lon="17.6420285">
        <ele>22.2476</ele>
        <time>2013-06-06T14:46:10Z</time>
      </trkpt>
      <trkpt lat="59.9324435" lon="17.642076">
        <ele>22.7283</ele>
        <time>2013-06-06T14:46:11Z</time>
      </trkpt>
      <trkpt lat="59.9324945" lon="17.6421228">
        <ele>22.7283</ele>
        <time>2013-06-06T14:46:12Z</time>
      </trkpt>
      <trkpt lat="59.9325436" lon="17.6421689">
        <ele>22.7283</ele>
        <time>2013-06-06T14:46:13Z</time>
      </trkpt>
      <trkpt lat="59.9325926" lon="17.6422159">
        <ele>23.209</ele>
        <time>2013-06-06T14:46:14Z</time>
      </trkpt>
      <trkpt lat="59.932642" lon="17.6422689">
        <ele>23.6896</ele>
        <time>2013-06-06T14:46:15Z</time>
      </trkpt>
      <trkpt lat="59.9326913" lon="17.6423265">
        <ele>23.6896</ele>
        <time>2013-06-06T14:46:16Z</time>
      </trkpt>
      <trkpt lat="59.9327382" lon="17.6423942">
        <ele>24.1703</ele>
        <time>2013-06-06T14:46:17Z</time>
      </trkpt>
      <trkpt lat="59.9327815" lon="17.6424714">
        <ele>24.1703</ele>
        <time>2013-06-06T14:46:18Z</time>
      </trkpt>
      <trkpt lat="59.9328239" lon="17.6425526">
        <ele>24.651</ele>
        <time>2013-06-06T14:46:19Z</time>
      </trkpt>
      <trkpt lat="59.9328684" lon="17.6426324">
        <ele>24.651</ele>
        <time>2013-06-06T14:46:20Z</time>
      </trkpt>
      <trkpt lat="59.9329162" lon="17.6427076">
        <ele>25.1317</ele>
        <time>2013-06-06T14:46:21Z</time>
      </trkpt>
      <trkpt lat="59.9329677" lon="17.6427772">
        <ele>25.1317</ele>
        <time>2013-06-06T14:46:22Z</time>
      </trkpt>
      <trkpt lat="59.9330201" lon="17.6428459">
        <ele>25.1317</ele>
        <time>2013-06-06T14:46:23Z</time>
      </trkpt>
      <trkpt lat="59.9330735" lon="17.6429121">
        <ele>25.6123</ele>
        <time>2013-06-06T14:46:24Z</time>
      </trkpt>
      <trkpt lat="59.9331244" lon="17.642978">
        <ele>25.6123</ele>
        <time>2013-06-06T14:46:25Z</time>
      </trkpt>
      <trkpt lat="59.9331725" lon="17.6430474">
        <ele>25.6123</ele>
        <time>2013-06-06T14:46:26Z</time>
      </trkpt>
      <trkpt lat="59.9332181" lon="17.6431189">
        <ele>26.0929</ele>
        <time>2013-06-06T14:46:27Z</time>
      </trkpt>
      <trkpt lat="59.9332616" lon="17.6431899">
        <ele>26.5736</ele>
        <time>2013-06-06T14:46:28Z</time>
      </trkpt>
      <trkpt lat="59.9332989" lon="17.6432622">
        <ele>26.0929</ele>
        <time>2013-06-06T14:46:29Z</time>
      </trkpt>
      <trkpt lat="59.9333339" lon="17.6433306">
        <ele>25.6123</ele>
        <time>2013-06-06T14:46:30Z</time>
      </trkpt>
      <trkpt lat="59.9333671" lon="17.6433966">
        <ele>25.1317</ele>
        <time>2013-06-06T14:46:31Z</time>
      </trkpt>
      <trkpt lat="59.9334023" lon="17.6434544">
        <ele>25.6123</ele>
        <time>2013-06-06T14:46:32Z</time>
      </trkpt>
      <trkpt lat="59.9334371" lon="17.6435043">
        <ele>26.0929</ele>
        <time>2013-06-06T14:46:33Z</time>
      </trkpt>
      <trkpt lat="59.933478" lon="17.6435487">
        <ele>27.0543</ele>
        <time>2013-06-06T14:46:34Z</time>
      </trkpt>
      <trkpt lat="59.9335157" lon="17.6435964">
        <ele>26.5736</ele>
        <time>2013-06-06T14:46:35Z</time>
      </trkpt>
      <trkpt lat="59.9335543" lon="17.6436376">
        <ele>27.0543</ele>
        <time>2013-06-06T14:46:36Z</time>
      </trkpt>
      <trkpt lat="59.9335953" lon="17.6436741">
        <ele>27.5349</ele>
        <time>2013-06-06T14:46:37Z</time>
      </trkpt>
      <trkpt lat="59.933635" lon="17.6437189">
        <ele>27.5349</ele>
        <time>2013-06-06T14:46:38Z</time>
      </trkpt>
      <trkpt lat="59.9336806" lon="17.6437608">
        <ele>28.4962</ele>
        <time>2013-06-06T14:46:39Z</time>
      </trkpt>
      <trkpt lat="59.9337257" lon="17.6438006">
        <ele>28.9769</ele>
        <time>2013-06-06T14:46:40Z</time>
      </trkpt>
      <trkpt lat="59.9337652" lon="17.6438377">
        <ele>28.9769</ele>
        <time>2013-06-06T14:46:41Z</time>
      </trkpt>
      <trkpt lat="59.9338023" lon="17.6438736">
        <ele>28.9769</ele>
        <time>2013-06-06T14:46:42Z</time>
      </trkpt>
      <trkpt lat="59.9338386" lon="17.6439094">
        <ele>28.4962</ele>
        <time>2013-06-06T14:46:43Z</time>
      </trkpt>
      <trkpt lat="59.9338728" lon="17.6439535">
        <ele>28.0155</ele>
        <time>2013-06-06T14:46:44Z</time>
      </trkpt>
      <trkpt lat="59.9339111" lon="17.6439989">
        <ele>28.0155</ele>
        <time>2013-06-06T14:46:45Z</time>
      </trkpt>
      <trkpt lat="59.9339484" lon="17.6440451">
        <ele>28.4962</ele>
        <time>2013-06-06T14:46:46Z</time>
      </trkpt>
      <trkpt lat="59.9339843" lon="17.6440906">
        <ele>28.4962</ele>
        <time>2013-06-06T14:46:47Z</time>
      </trkpt>
      <trkpt lat="59.934019" lon="17.6441373">
        <ele>28.0155</ele>
        <time>2013-06-06T14:46:48Z</time>
      </trkpt>
      <trkpt lat="59.9340541" lon="17.644186">
        <ele>28.0155</ele>
        <time>2013-06-06T14:46:49Z</time>
      </trkpt>
      <trkpt lat="59.9340919" lon="17.6442311">
        <ele>28.0155</ele>
        <time>2013-06-06T14:46:50Z</time>
      </trkpt>
      <trkpt lat="59.9341302" lon="17.6442756">
        <ele>28.4962</ele>
        <time>2013-06-06T14:46:51Z</time>
      </trkpt>
      <trkpt lat="59.9341665" lon="17.6443238">
        <ele>28.4962</ele>
        <time>2013-06-06T14:46:52Z</time>
      </trkpt>
      <trkpt lat="59.9342026" lon="17.6443731">
        <ele>28.4962</ele>
        <time>2013-06-06T14:46:53Z</time>
      </trkpt>
      <trkpt lat="59.9342399" lon="17.6444212">
        <ele>28.4962</ele>
        <time>2013-06-06T14:46:54Z</time>
      </trkpt>
      <trkpt lat="59.9342782" lon="17.6444714">
        <ele>28.4962</ele>
        <time>2013-06-06T14:46:55Z</time>
      </trkpt>
      <trkpt lat="59.93432" lon="17.6445217">
        <ele>29.4575</ele>
        <time>2013-06-06T14:46:56Z</time>
      </trkpt>
      <trkpt lat="59.9343578" lon="17.6445747">
        <ele>29.4575</ele>
        <time>2013-06-06T14:46:57Z</time>
      </trkpt>
      <trkpt lat="59.9343911" lon="17.6446301">
        <ele>29.4575</ele>
        <time>2013-06-06T14:46:58Z</time>
      </trkpt>
      <trkpt lat="59.9344184" lon="17.644688">
        <ele>29.4575</ele>
        <time>2013-06-06T14:46:59Z</time>
      </trkpt>
      <trkpt lat="59.9344443" lon="17.6447434">
        <ele>29.9381</ele>
        <time>2013-06-06T14:47:00Z</time>
      </trkpt>
      <trkpt lat="59.9344733" lon="17.6447931">
        <ele>30.4188</ele>
        <time>2013-06-06T14:47:01Z</time>
      </trkpt>
      <trkpt lat="59.9345042" lon="17.6448382">
        <ele>30.8995</ele>
        <time>2013-06-06T14:47:02Z</time>
      </trkpt>
      <trkpt lat="59.934536" lon="17.6448832">
        <ele>31.3801</ele>
        <time>2013-06-06T14:47:03Z</time>
      </trkpt>
      <trkpt lat="59.9345648" lon="17.6449284">
        <ele>31.3801</ele>
        <time>2013-06-06T14:47:04Z</time>
      </trkpt>
      <trkpt lat="59.9345959" lon="17.6449718">
        <ele>31.3801</ele>
        <time>2013-06-06T14:47:05Z</time>
      </trkpt>
      <trkpt lat="59.9346286" lon="17.6450157">
        <ele>31.3801</ele>
        <time>2013-06-06T14:47:06Z</time>
      </trkpt>
      <trkpt lat="59.9346634" lon="17.645059">
        <ele>31.3801</ele>
        <time>2013-06-06T14:47:07Z</time>
      </trkpt>
      <trkpt lat="59.9346954" lon="17.6451065">
        <ele>31.3801</ele>
        <time>2013-06-06T14:47:08Z</time>
      </trkpt>
      <trkpt lat="59.9347294" lon="17.6451542">
        <ele>31.3801</ele>
        <time>2013-06-06T14:47:09Z</time>
      </trkpt>
      <trkpt lat="59.9347663" lon="17.6452028">
        <ele>31.3801</ele>
        <time>2013-06-06T14:47:10Z</time>
      </trkpt>
      <trkpt lat="59.9348068" lon="17.6452527">
        <ele>31.8607</ele>
        <time>2013-06-06T14:47:11Z</time>
      </trkpt>
      <trkpt lat="59.9348481" lon="17.6453028">
        <ele>31.8607</ele>
        <time>2013-06-06T14:47:12Z</time>
      </trkpt>
      <trkpt lat="59.9348915" lon="17.6453495">
        <ele>32.3416</ele>
        <time>2013-06-06T14:47:13Z</time>
      </trkpt>
      <trkpt lat="59.9349288" lon="17.6454012">
        <ele>32.3416</ele>
        <time>2013-06-06T14:47:14Z</time>
      </trkpt>
      <trkpt lat="59.9349714" lon="17.6454487">
        <ele>32.8223</ele>
        <time>2013-06-06T14:47:15Z</time>
      </trkpt>
      <trkpt lat="59.9350172" lon="17.6454917">
        <ele>32.3416</ele>
        <time>2013-06-06T14:47:16Z</time>
      </trkpt>
      <trkpt lat="59.9350672" lon="17.6455402">
        <ele>31.8607</ele>
        <time>2013-06-06T14:47:17Z</time>
      </trkpt>
      <trkpt lat="59.9351164" lon="17.6455959">
        <ele>31.8607</ele>
        <time>2013-06-06T14:47:18Z</time>
      </trkpt>
      <trkpt lat="59.9351642" lon="17.6456542">
        <ele>31.8607</ele>
        <time>2013-06-06T14:47:19Z</time>
      </trkpt>
      <trkpt lat="59.9352106" lon="17.6457163">
        <ele>31.8607</ele>
        <time>2013-06-06T14:47:20Z</time>
      </trkpt>
      <trkpt lat="59.9352558" lon="17.645777">
        <ele>31.8607</ele>
        <time>2013-06-06T14:47:21Z</time>
      </trkpt>
      <trkpt lat="59.9353013" lon="17.6458313">
        <ele>31.8607</ele>
        <time>2013-06-06T14:47:22Z</time>
      </trkpt>
      <trkpt lat="59.9353482" lon="17.645881">
        <ele>31.8607</ele>
        <time>2013-06-06T14:47:23Z</time>
      </trkpt>
      <trkpt lat="59.9353968" lon="17.6459298">
        <ele>31.8607</ele>
        <time>2013-06-06T14:47:24Z</time>
      </trkpt>
      <trkpt lat="59.9354467" lon="17.6459816">
        <ele>31.8607</ele>
        <time>2013-06-06T14:47:25Z</time>
      </trkpt>
      <trkpt lat="59.9354966" lon="17.6460365">
        <ele>32.3416</ele>
        <time>2013-06-06T14:47:26Z</time>
      </trkpt>
      <trkpt lat="59.9355474" lon="17.6460911">
        <ele>32.3416</ele>
        <time>2013-06-06T14:47:27Z</time>
      </trkpt>
      <trkpt lat="59.9355998" lon="17.6461477">
        <ele>32.8223</ele>
        <time>2013-06-06T14:47:28Z</time>
      </trkpt>
      <trkpt lat="59.9356486" lon="17.6462105">
        <ele>32.8223</ele>
        <time>2013-06-06T14:47:29Z</time>
      </trkpt>
      <trkpt lat="59.9356976" lon="17.6462711">
        <ele>32.8223</ele>
        <time>2013-06-06T14:47:30Z</time>
      </trkpt>
      <trkpt lat="59.9357454" lon="17.6463284">
        <ele>33.3029</ele>
        <time>2013-06-06T14:47:31Z</time>
      </trkpt>
      <trkpt lat="59.9357874" lon="17.6463872">
        <ele>33.7834</ele>
        <time>2013-06-06T14:47:32Z</time>
      </trkpt>
      <trkpt lat="59.9358338" lon="17.6464442">
        <ele>34.2642</ele>
        <time>2013-06-06T14:47:33Z</time>
      </trkpt>
      <trkpt lat="59.935881" lon="17.6465058">
        <ele>33.7834</ele>
        <time>2013-06-06T14:47:34Z</time>
      </trkpt>
      <trkpt lat="59.9359314" lon="17.6465673">
        <ele>34.2642</ele>
        <time>2013-06-06T14:47:35Z</time>
      </trkpt>
      <trkpt lat="59.9359837" lon="17.646631">
        <ele>34.2642</ele>
        <time>2013-06-06T14:47:36Z</time>
      </trkpt>
      <trkpt lat="59.936035" lon="17.6466961">
        <ele>34.2642</ele>
        <time>2013-06-06T14:47:37Z</time>
      </trkpt>
      <trkpt lat="59.9360914" lon="17.6467591">
        <ele>34.2642</ele>
        <time>2013-06-06T14:47:38Z</time>
      </trkpt>
      <trkpt lat="59.9361484" lon="17.6468187">
        <ele>34.2642</ele>
        <time>2013-06-06T14:47:39Z</time>
      </trkpt>
      <trkpt lat="59.9362027" lon="17.6468828">
        <ele>33.7834</ele>
        <time>2013-06-06T14:47:40Z</time>
      </trkpt>
      <trkpt lat="59.9362549" lon="17.6469501">
        <ele>33.7834</ele>
        <time>2013-06-06T14:47:41Z</time>
      </trkpt>
      <trkpt lat="59.9363059" lon="17.6470176">
        <ele>33.7834</ele>
        <time>2013-06-06T14:47:42Z</time>
      </trkpt>
      <trkpt lat="59.9363572" lon="17.6470828">
        <ele>33.3029</ele>
        <time>2013-06-06T14:47:43Z</time>
      </trkpt>
      <trkpt lat="59.936409" lon="17.647148">
        <ele>33.3029</ele>
        <time>2013-06-06T14:47:44Z</time>
      </trkpt>
      <trkpt lat="59.9364629" lon="17.6472126">
        <ele>32.8223</ele>
        <time>2013-06-06T14:47:45Z</time>
      </trkpt>
      <trkpt lat="59.9365173" lon="17.6472789">
        <ele>32.8223</ele>
        <time>2013-06-06T14:47:46Z</time>
      </trkpt>
      <trkpt lat="59.9365701" lon="17.647349">
        <ele>32.8223</ele>
        <time>2013-06-06T14:47:47Z</time>
      </trkpt>
      <trkpt lat="59.9366207" lon="17.6474213">
        <ele>32.8223</ele>
        <time>2013-06-06T14:47:48Z</time>
      </trkpt>
      <trkpt lat="59.9366716" lon="17.6474935">
        <ele>32.8223</ele>
        <time>2013-06-06T14:47:49Z</time>
      </trkpt>
      <trkpt lat="59.9367219" lon="17.6475624">
        <ele>32.8223</ele>
        <time>2013-06-06T14:47:50Z</time>
      </trkpt>
      <trkpt lat="59.9367752" lon="17.6476318">
        <ele>32.3416</ele>
        <time>2013-06-06T14:47:51Z</time>
      </trkpt>
      <trkpt lat="59.9368356" lon="17.6477031">
        <ele>32.3416</ele>
        <time>2013-06-06T14:47:52Z</time>
      </trkpt>
      <trkpt lat="59.9368944" lon="17.6477777">
        <ele>32.3416</ele>
        <time>2013-06-06T14:47:53Z</time>
      </trkpt>
      <trkpt lat="59.9369529" lon="17.6478474">
        <ele>31.8607</ele>
        <time>2013-06-06T14:47:54Z</time>
      </trkpt>
      <trkpt lat="59.9370089" lon="17.6479182">
        <ele>31.8607</ele>
        <time>2013-06-06T14:47:55Z</time>
      </trkpt>
      <trkpt lat="59.9370644" lon="17.6479889">
        <ele>31.8607</ele>
        <time>2013-06-06T14:47:56Z</time>
      </trkpt>
      <trkpt lat="59.9371177" lon="17.648056">
        <ele>31.8607</ele>
        <time>2013-06-06T14:47:57Z</time>
      </trkpt>
      <trkpt lat="59.9371674" lon="17.6481264">
        <ele>30.8995</ele>
        <time>2013-06-06T14:47:58Z</time>
      </trkpt>
      <trkpt lat="59.9372197" lon="17.6481961">
        <ele>30.4188</ele>
        <time>2013-06-06T14:47:59Z</time>
      </trkpt>
      <trkpt lat="59.9372725" lon="17.6482686">
        <ele>29.9381</ele>
        <time>2013-06-06T14:48:00Z</time>
      </trkpt>
      <trkpt lat="59.9373243" lon="17.6483503">
        <ele>29.9381</ele>
        <time>2013-06-06T14:48:01Z</time>
      </trkpt>
      <trkpt lat="59.9373668" lon="17.6484393">
        <ele>29.9381</ele>
        <time>2013-06-06T14:48:02Z</time>
      </trkpt>
      <trkpt lat="59.9373989" lon="17.6485273">
        <ele>29.9381</ele>
        <time>2013-06-06T14:48:03Z</time>
      </trkpt>
      <trkpt lat="59.9374312" lon="17.6486073">
        <ele>30.4188</ele>
        <time>2013-06-06T14:48:04Z</time>
      </trkpt>
      <trkpt lat="59.937463" lon="17.648693">
        <ele>30.4188</ele>
        <time>2013-06-06T14:48:05Z</time>
      </trkpt>
      <trkpt lat="59.9374906" lon="17.648786">
        <ele>31.3801</ele>
        <time>2013-06-06T14:48:06Z</time>
      </trkpt>
      <trkpt lat="59.9375227" lon="17.6488767">
        <ele>31.3801</ele>
        <time>2013-06-06T14:48:07Z</time>
      </trkpt>
      <trkpt lat="59.9375573" lon="17.6489683">
        <ele>31.3801</ele>
        <time>2013-06-06T14:48:08Z</time>
      </trkpt>
      <trkpt lat="59.9375962" lon="17.6490596">
        <ele>31.3801</ele>
        <time>2013-06-06T14:48:09Z</time>
      </trkpt>
      <trkpt lat="59.9376397" lon="17.6491495">
        <ele>31.3801</ele>
        <time>2013-06-06T14:48:10Z</time>
      </trkpt>
      <trkpt lat="59.9376852" lon="17.6492395">
        <ele>31.3801</ele>
        <time>2013-06-06T14:48:11Z</time>
      </trkpt>
      <trkpt lat="59.9377295" lon="17.6493375">
        <ele>31.3801</ele>
        <time>2013-06-06T14:48:12Z</time>
      </trkpt>
      <trkpt lat="59.9377719" lon="17.6494499">
        <ele>31.3801</ele>
        <time>2013-06-06T14:48:13Z</time>
      </trkpt>
      <trkpt lat="59.9378098" lon="17.6495739">
        <ele>31.8607</ele>
        <time>2013-06-06T14:48:14Z</time>
      </trkpt>
      <trkpt lat="59.9378516" lon="17.6496952">
        <ele>31.8607</ele>
        <time>2013-06-06T14:48:15Z</time>
      </trkpt>
      <trkpt lat="59.9378977" lon="17.6498127">
        <ele>31.8607</ele>
        <time>2013-06-06T14:48:16Z</time>
      </trkpt>
      <trkpt lat="59.9379463" lon="17.6499295">
        <ele>31.8607</ele>
        <time>2013-06-06T14:48:17Z</time>
      </trkpt>
      <trkpt lat="59.9379962" lon="17.6500453">
        <ele>31.3801</ele>
        <time>2013-06-06T14:48:18Z</time>
      </trkpt>
      <trkpt lat="59.9380455" lon="17.6501666">
        <ele>31.8607</ele>
        <time>2013-06-06T14:48:19Z</time>
      </trkpt>
      <trkpt lat="59.938093" lon="17.6502969">
        <ele>31.3801</ele>
        <time>2013-06-06T14:48:20Z</time>
      </trkpt>
      <trkpt lat="59.9381398" lon="17.6504306">
        <ele>31.3801</ele>
        <time>2013-06-06T14:48:21Z</time>
      </trkpt>
      <trkpt lat="59.9381847" lon="17.6505625">
        <ele>31.3801</ele>
        <time>2013-06-06T14:48:22Z</time>
      </trkpt>
      <trkpt lat="59.9382341" lon="17.6506913">
        <ele>31.8607</ele>
        <time>2013-06-06T14:48:23Z</time>
      </trkpt>
      <trkpt lat="59.9382827" lon="17.65082">
        <ele>31.3801</ele>
        <time>2013-06-06T14:48:24Z</time>
      </trkpt>
      <trkpt lat="59.9383368" lon="17.650944">
        <ele>31.3801</ele>
        <time>2013-06-06T14:48:25Z</time>
      </trkpt>
      <trkpt lat="59.9383945" lon="17.6510648">
        <ele>31.3801</ele>
        <time>2013-06-06T14:48:26Z</time>
      </trkpt>
      <trkpt lat="59.9384472" lon="17.6511972">
        <ele>31.3801</ele>
        <time>2013-06-06T14:48:27Z</time>
      </trkpt>
      <trkpt lat="59.9384953" lon="17.6513402">
        <ele>30.8995</ele>
        <time>2013-06-06T14:48:28Z</time>
      </trkpt>
      <trkpt lat="59.938542" lon="17.651483">
        <ele>30.8995</ele>
        <time>2013-06-06T14:48:29Z</time>
      </trkpt>
      <trkpt lat="59.9385882" lon="17.6516247">
        <ele>30.8995</ele>
        <time>2013-06-06T14:48:30Z</time>
      </trkpt>
      <trkpt lat="59.9386365" lon="17.6517646">
        <ele>31.3801</ele>
        <time>2013-06-06T14:48:31Z</time>
      </trkpt>
      <trkpt lat="59.9386824" lon="17.6519039">
        <ele>31.3801</ele>
        <time>2013-06-06T14:48:32Z</time>
      </trkpt>
      <trkpt lat="59.9387234" lon="17.6520459">
        <ele>31.3801</ele>
        <time>2013-06-06T14:48:33Z</time>
      </trkpt>
      <trkpt lat="59.938763" lon="17.6521889">
        <ele>31.3801</ele>
        <time>2013-06-06T14:48:34Z</time>
      </trkpt>
      <trkpt lat="59.9388031" lon="17.6523307">
        <ele>31.3801</ele>
        <time>2013-06-06T14:48:35Z</time>
      </trkpt>
      <trkpt lat="59.938843" lon="17.6524737">
        <ele>31.8607</ele>
        <time>2013-06-06T14:48:36Z</time>
      </trkpt>
      <trkpt lat="59.9388828" lon="17.6526172">
        <ele>31.8607</ele>
        <time>2013-06-06T14:48:37Z</time>
      </trkpt>
      <trkpt lat="59.9389219" lon="17.652761">
        <ele>31.8607</ele>
        <time>2013-06-06T14:48:38Z</time>
      </trkpt>
      <trkpt lat="59.9389598" lon="17.6529052">
        <ele>31.8607</ele>
        <time>2013-06-06T14:48:39Z</time>
      </trkpt>
      <trkpt lat="59.938997" lon="17.653046">
        <ele>31.8607</ele>
        <time>2013-06-06T14:48:40Z</time>
      </trkpt>
      <trkpt lat="59.9390338" lon="17.6531828">
        <ele>32.3416</ele>
        <time>2013-06-06T14:48:41Z</time>
      </trkpt>
      <trkpt lat="59.9390695" lon="17.6533179">
        <ele>32.3416</ele>
        <time>2013-06-06T14:48:42Z</time>
      </trkpt>
      <trkpt lat="59.9391019" lon="17.6534517">
        <ele>32.3416</ele>
        <time>2013-06-06T14:48:43Z</time>
      </trkpt>
      <trkpt lat="59.9391315" lon="17.6535838">
        <ele>32.3416</ele>
        <time>2013-06-06T14:48:44Z</time>
      </trkpt>
      <trkpt lat="59.9391606" lon="17.6537122">
        <ele>32.8223</ele>
        <time>2013-06-06T14:48:45Z</time>
      </trkpt>
      <trkpt lat="59.9391887" lon="17.6538385">
        <ele>32.8223</ele>
        <time>2013-06-06T14:48:46Z</time>
      </trkpt>
      <trkpt lat="59.9392157" lon="17.6539635">
        <ele>32.8223</ele>
        <time>2013-06-06T14:48:47Z</time>
      </trkpt>
      <trkpt lat="59.9392415" lon="17.6540888">
        <ele>32.8223</ele>
        <time>2013-06-06T14:48:48Z</time>
      </trkpt>
      <trkpt lat="59.9392664" lon="17.6542153">
        <ele>32.8223</ele>
        <time>2013-06-06T14:48:49Z</time>
      </trkpt>
      <trkpt lat="59.9392912" lon="17.6543427">
        <ele>32.8223</ele>
        <time>2013-06-06T14:48:50Z</time>
      </trkpt>
      <trkpt lat="59.9393166" lon="17.6544717">
        <ele>32.8223</ele>
        <time>2013-06-06T14:48:51Z</time>
      </trkpt>
      <trkpt lat="59.9393409" lon="17.6546027">
        <ele>32.8223</ele>
        <time>2013-06-06T14:48:52Z</time>
      </trkpt>
      <trkpt lat="59.9393658" lon="17.6547347">
        <ele>32.8223</ele>
        <time>2013-06-06T14:48:53Z</time>
      </trkpt>
      <trkpt lat="59.939392" lon="17.6548665">
        <ele>32.8223</ele>
        <time>2013-06-06T14:48:54Z</time>
      </trkpt>
      <trkpt lat="59.9394186" lon="17.6550001">
        <ele>32.8223</ele>
        <time>2013-06-06T14:48:55Z</time>
      </trkpt>
      <trkpt lat="59.9394452" lon="17.6551367">
        <ele>32.8223</ele>
        <time>2013-06-06T14:48:56Z</time>
      </trkpt>
      <trkpt lat="59.939472" lon="17.6552751">
        <ele>32.8223</ele>
        <time>2013-06-06T14:48:57Z</time>
      </trkpt>
      <trkpt lat="59.9395004" lon="17.6554134">
        <ele>32.8223</ele>
        <time>2013-06-06T14:48:58Z</time>
      </trkpt>
      <trkpt lat="59.9395289" lon="17.6555516">
        <ele>32.8223</ele>
        <time>2013-06-06T14:48:59Z</time>
      </trkpt>
      <trkpt lat="59.9395562" lon="17.6556895">
        <ele>32.3416</ele>
        <time>2013-06-06T14:49:00Z</time>
      </trkpt>
      <trkpt lat="59.9395847" lon="17.6558278">
        <ele>32.3416</ele>
        <time>2013-06-06T14:49:01Z</time>
      </trkpt>
      <trkpt lat="59.9396156" lon="17.6559649">
        <ele>32.3416</ele>
        <time>2013-06-06T14:49:02Z</time>
      </trkpt>
      <trkpt lat="59.9396433" lon="17.6561029">
        <ele>32.3416</ele>
        <time>2013-06-06T14:49:03Z</time>
      </trkpt>
      <trkpt lat="59.9396674" lon="17.6562405">
        <ele>32.3416</ele>
        <time>2013-06-06T14:49:04Z</time>
      </trkpt>
      <trkpt lat="59.9396927" lon="17.6563756">
        <ele>31.8607</ele>
        <time>2013-06-06T14:49:05Z</time>
      </trkpt>
      <trkpt lat="59.9397196" lon="17.6565074">
        <ele>31.8607</ele>
        <time>2013-06-06T14:49:06Z</time>
      </trkpt>
      <trkpt lat="59.939747" lon="17.6566376">
        <ele>31.8607</ele>
        <time>2013-06-06T14:49:07Z</time>
      </trkpt>
      <trkpt lat="59.9397712" lon="17.656765">
        <ele>31.8607</ele>
        <time>2013-06-06T14:49:08Z</time>
      </trkpt>
      <trkpt lat="59.9397948" lon="17.6568938">
        <ele>31.3801</ele>
        <time>2013-06-06T14:49:09Z</time>
      </trkpt>
      <trkpt lat="59.9398186" lon="17.6570203">
        <ele>31.3801</ele>
        <time>2013-06-06T14:49:10Z</time>
      </trkpt>
      <trkpt lat="59.9398435" lon="17.6571527">
        <ele>31.3801</ele>
        <time>2013-06-06T14:49:11Z</time>
      </trkpt>
      <trkpt lat="59.9398691" lon="17.6572843">
        <ele>31.3801</ele>
        <time>2013-06-06T14:49:12Z</time>
      </trkpt>
      <trkpt lat="59.9398946" lon="17.6574176">
        <ele>31.3801</ele>
        <time>2013-06-06T14:49:13Z</time>
      </trkpt>
      <trkpt lat="59.9399232" lon="17.6575611">
        <ele>31.3801</ele>
        <time>2013-06-06T14:49:14Z</time>
      </trkpt>
      <trkpt lat="59.9399537" lon="17.6577067">
        <ele>31.3801</ele>
        <time>2013-06-06T14:49:15Z</time>
      </trkpt>
      <trkpt lat="59.9399841" lon="17.6578517">
        <ele>31.3801</ele>
        <time>2013-06-06T14:49:16Z</time>
      </trkpt>
      <trkpt lat="59.9400134" lon="17.6579957">
        <ele>30.8995</ele>
        <time>2013-06-06T14:49:17Z</time>
      </trkpt>
      <trkpt lat="59.9400439" lon="17.6581408">
        <ele>30.8995</ele>
        <time>2013-06-06T14:49:18Z</time>
      </trkpt>
      <trkpt lat="59.9400753" lon="17.6582881">
        <ele>30.8995</ele>
        <time>2013-06-06T14:49:19Z</time>
      </trkpt>
      <trkpt lat="59.9401076" lon="17.658436">
        <ele>30.8995</ele>
        <time>2013-06-06T14:49:20Z</time>
      </trkpt>
      <trkpt lat="59.9401419" lon="17.6585865">
        <ele>30.8995</ele>
        <time>2013-06-06T14:49:21Z</time>
      </trkpt>
      <trkpt lat="59.9401796" lon="17.6587383">
        <ele>30.8995</ele>
        <time>2013-06-06T14:49:22Z</time>
      </trkpt>
      <trkpt lat="59.9402164" lon="17.6588985">
        <ele>30.8995</ele>
        <time>2013-06-06T14:49:23Z</time>
      </trkpt>
      <trkpt lat="59.9402496" lon="17.6590586">
        <ele>30.8995</ele>
        <time>2013-06-06T14:49:24Z</time>
      </trkpt>
      <trkpt lat="59.9402789" lon="17.6592138">
        <ele>30.8995</ele>
        <time>2013-06-06T14:49:25Z</time>
      </trkpt>
      <trkpt lat="59.940305" lon="17.6593621">
        <ele>31.3801</ele>
        <time>2013-06-06T14:49:26Z</time>
      </trkpt>
      <trkpt lat="59.9403294" lon="17.6595034">
        <ele>31.3801</ele>
        <time>2013-06-06T14:49:27Z</time>
      </trkpt>
      <trkpt lat="59.9403545" lon="17.6596402">
        <ele>31.8607</ele>
        <time>2013-06-06T14:49:28Z</time>
      </trkpt>
      <trkpt lat="59.9403796" lon="17.6597643">
        <ele>31.8607</ele>
        <time>2013-06-06T14:49:29Z</time>
      </trkpt>
      <trkpt lat="59.9404069" lon="17.6598854">
        <ele>31.8607</ele>
        <time>2013-06-06T14:49:30Z</time>
      </trkpt>
      <trkpt lat="59.9404338" lon="17.6599984">
        <ele>31.8607</ele>
        <time>2013-06-06T14:49:31Z</time>
      </trkpt>
      <trkpt lat="59.9404516" lon="17.6601064">
        <ele>31.3801</ele>
        <time>2013-06-06T14:49:32Z</time>
      </trkpt>
      <trkpt lat="59.9404842" lon="17.6602241">
        <ele>30.8995</ele>
        <time>2013-06-06T14:49:33Z</time>
      </trkpt>
      <trkpt lat="59.9405083" lon="17.6603643">
        <ele>30.8995</ele>
        <time>2013-06-06T14:49:34Z</time>
      </trkpt>
      <trkpt lat="59.9405059" lon="17.6605009">
        <ele>30.4188</ele>
        <time>2013-06-06T14:49:35Z</time>
      </trkpt>
      <trkpt lat="59.9404863" lon="17.6606544">
        <ele>30.4188</ele>
        <time>2013-06-06T14:49:36Z</time>
      </trkpt>
      <trkpt lat="59.9404479" lon="17.6608188">
        <ele>30.8995</ele>
        <time>2013-06-06T14:49:37Z</time>
      </trkpt>
      <trkpt lat="59.9404166" lon="17.6609652">
        <ele>30.4188</ele>
        <time>2013-06-06T14:49:38Z</time>
      </trkpt>
      <trkpt lat="59.9403951" lon="17.6611121">
        <ele>31.3801</ele>
        <time>2013-06-06T14:49:39Z</time>
      </trkpt>
      <trkpt lat="59.9403783" lon="17.6612691">
        <ele>31.8607</ele>
        <time>2013-06-06T14:49:40Z</time>
      </trkpt>
      <trkpt lat="59.9403629" lon="17.6614456">
        <ele>32.3416</ele>
        <time>2013-06-06T14:49:41Z</time>
      </trkpt>
      <trkpt lat="59.9403754" lon="17.6616084">
        <ele>32.3416</ele>
        <time>2013-06-06T14:49:42Z</time>
      </trkpt>
      <trkpt lat="59.9404003" lon="17.6617676">
        <ele>32.8223</ele>
        <time>2013-06-06T14:49:43Z</time>
      </trkpt>
      <trkpt lat="59.9404562" lon="17.6618914">
        <ele>32.8223</ele>
        <time>2013-06-06T14:49:44Z</time>
      </trkpt>
      <trkpt lat="59.9405125" lon="17.662006">
        <ele>33.3029</ele>
        <time>2013-06-06T14:49:45Z</time>
      </trkpt>
      <trkpt lat="59.9405815" lon="17.6621026">
        <ele>32.3416</ele>
        <time>2013-06-06T14:49:46Z</time>
      </trkpt>
      <trkpt lat="59.9406665" lon="17.6621385">
        <ele>30.4188</ele>
        <time>2013-06-06T14:49:47Z</time>
      </trkpt>
      <trkpt lat="59.940765" lon="17.6621758">
        <ele>29.9381</ele>
        <time>2013-06-06T14:49:48Z</time>
      </trkpt>
      <trkpt lat="59.9408535" lon="17.6621944">
        <ele>29.9381</ele>
        <time>2013-06-06T14:49:49Z</time>
      </trkpt>
      <trkpt lat="59.940935" lon="17.6622126">
        <ele>29.9381</ele>
        <time>2013-06-06T14:49:50Z</time>
      </trkpt>
      <trkpt lat="59.9410214" lon="17.6622521">
        <ele>29.4575</ele>
        <time>2013-06-06T14:49:51Z</time>
      </trkpt>
      <trkpt lat="59.9411057" lon="17.6622978">
        <ele>28.9769</ele>
        <time>2013-06-06T14:49:52Z</time>
      </trkpt>
      <trkpt lat="59.9411851" lon="17.6623464">
        <ele>28.0155</ele>
        <time>2013-06-06T14:49:53Z</time>
      </trkpt>
      <trkpt lat="59.9412602" lon="17.662396">
        <ele>28.4962</ele>
        <time>2013-06-06T14:49:54Z</time>
      </trkpt>
      <trkpt lat="59.9413311" lon="17.6624538">
        <ele>28.9769</ele>
        <time>2013-06-06T14:49:55Z</time>
      </trkpt>
      <trkpt lat="59.9413978" lon="17.6625256">
        <ele>28.4962</ele>
        <time>2013-06-06T14:49:56Z</time>
      </trkpt>
      <trkpt lat="59.94146" lon="17.6626083">
        <ele>27.5349</ele>
        <time>2013-06-06T14:49:57Z</time>
      </trkpt>
      <trkpt lat="59.9415212" lon="17.662693">
        <ele>27.0543</ele>
        <time>2013-06-06T14:49:58Z</time>
      </trkpt>
      <trkpt lat="59.941582" lon="17.6627815">
        <ele>27.0543</ele>
        <time>2013-06-06T14:49:59Z</time>
      </trkpt>
      <trkpt lat="59.9416451" lon="17.6628744">
        <ele>27.0543</ele>
        <time>2013-06-06T14:50:00Z</time>
      </trkpt>
      <trkpt lat="59.9417052" lon="17.6629691">
        <ele>27.5349</ele>
        <time>2013-06-06T14:50:01Z</time>
      </trkpt>
      <trkpt lat="59.94176" lon="17.6630762">
        <ele>27.5349</ele>
        <time>2013-06-06T14:50:02Z</time>
      </trkpt>
      <trkpt lat="59.9418155" lon="17.6631818">
        <ele>27.5349</ele>
        <time>2013-06-06T14:50:03Z</time>
      </trkpt>
      <trkpt lat="59.9418689" lon="17.6632876">
        <ele>28.0155</ele>
        <time>2013-06-06T14:50:04Z</time>
      </trkpt>
      <trkpt lat="59.9419201" lon="17.6633985">
        <ele>26.5736</ele>
        <time>2013-06-06T14:50:05Z</time>
      </trkpt>
      <trkpt lat="59.9419801" lon="17.6635089">
        <ele>26.5736</ele>
        <time>2013-06-06T14:50:06Z</time>
      </trkpt>
      <trkpt lat="59.9420424" lon="17.6636082">
        <ele>27.0543</ele>
        <time>2013-06-06T14:50:07Z</time>
      </trkpt>
      <trkpt lat="59.9421028" lon="17.6637045">
        <ele>27.0543</ele>
        <time>2013-06-06T14:50:08Z</time>
      </trkpt>
      <trkpt lat="59.9421667" lon="17.6637994">
        <ele>26.5736</ele>
        <time>2013-06-06T14:50:09Z</time>
      </trkpt>
      <trkpt lat="59.9422326" lon="17.6638864">
        <ele>26.5736</ele>
        <time>2013-06-06T14:50:10Z</time>
      </trkpt>
      <trkpt lat="59.942292" lon="17.6639746">
        <ele>25.6123</ele>
        <time>2013-06-06T14:50:11Z</time>
      </trkpt>
      <trkpt lat="59.9423531" lon="17.6640574">
        <ele>26.5736</ele>
        <time>2013-06-06T14:50:12Z</time>
      </trkpt>
      <trkpt lat="59.9424138" lon="17.6641381">
        <ele>26.5736</ele>
        <time>2013-06-06T14:50:13Z</time>
      </trkpt>
      <trkpt lat="59.9424774" lon="17.6642158">
        <ele>26.0929</ele>
        <time>2013-06-06T14:50:14Z</time>
      </trkpt>
      <trkpt lat="59.9425415" lon="17.664294">
        <ele>25.6123</ele>
        <time>2013-06-06T14:50:15Z</time>
      </trkpt>
      <trkpt lat="59.9426055" lon="17.6643682">
        <ele>25.6123</ele>
        <time>2013-06-06T14:50:16Z</time>
      </trkpt>
      <trkpt lat="59.942669" lon="17.6644414">
        <ele>25.6123</ele>
        <time>2013-06-06T14:50:17Z</time>
      </trkpt>
      <trkpt lat="59.9427339" lon="17.6645153">
        <ele>25.6123</ele>
        <time>2013-06-06T14:50:18Z</time>
      </trkpt>
      <trkpt lat="59.9427993" lon="17.6645884">
        <ele>25.1317</ele>
        <time>2013-06-06T14:50:19Z</time>
      </trkpt>
      <trkpt lat="59.9428644" lon="17.6646655">
        <ele>25.1317</ele>
        <time>2013-06-06T14:50:20Z</time>
      </trkpt>
      <trkpt lat="59.9429302" lon="17.6647396">
        <ele>25.6123</ele>
        <time>2013-06-06T14:50:21Z</time>
      </trkpt>
      <trkpt lat="59.9429964" lon="17.6648132">
        <ele>24.651</ele>
        <time>2013-06-06T14:50:22Z</time>
      </trkpt>
      <trkpt lat="59.9430654" lon="17.6648852">
        <ele>24.651</ele>
        <time>2013-06-06T14:50:23Z</time>
      </trkpt>
      <trkpt lat="59.9431381" lon="17.6649525">
        <ele>24.651</ele>
        <time>2013-06-06T14:50:24Z</time>
      </trkpt>
      <trkpt lat="59.9432079" lon="17.6650217">
        <ele>24.651</ele>
        <time>2013-06-06T14:50:25Z</time>
      </trkpt>
      <trkpt lat="59.9432773" lon="17.6650877">
        <ele>24.651</ele>
        <time>2013-06-06T14:50:26Z</time>
      </trkpt>
      <trkpt lat="59.9433479" lon="17.6651471">
        <ele>24.1703</ele>
        <time>2013-06-06T14:50:27Z</time>
      </trkpt>
      <trkpt lat="59.9434166" lon="17.6652037">
        <ele>24.1703</ele>
        <time>2013-06-06T14:50:28Z</time>
      </trkpt>
      <trkpt lat="59.9434856" lon="17.6652564">
        <ele>23.6896</ele>
        <time>2013-06-06T14:50:29Z</time>
      </trkpt>
      <trkpt lat="59.9435574" lon="17.6653069">
        <ele>23.6896</ele>
        <time>2013-06-06T14:50:30Z</time>
      </trkpt>
      <trkpt lat="59.9436288" lon="17.665355">
        <ele>24.1703</ele>
        <time>2013-06-06T14:50:31Z</time>
      </trkpt>
      <trkpt lat="59.9437" lon="17.6654026">
        <ele>24.1703</ele>
        <time>2013-06-06T14:50:32Z</time>
      </trkpt>
      <trkpt lat="59.9437736" lon="17.6654498">
        <ele>24.1703</ele>
        <time>2013-06-06T14:50:33Z</time>
      </trkpt>
      <trkpt lat="59.9438482" lon="17.6654955">
        <ele>24.651</ele>
        <time>2013-06-06T14:50:34Z</time>
      </trkpt>
      <trkpt lat="59.9439234" lon="17.6655387">
        <ele>24.651</ele>
        <time>2013-06-06T14:50:35Z</time>
      </trkpt>
      <trkpt lat="59.9439995" lon="17.6655765">
        <ele>25.1317</ele>
        <time>2013-06-06T14:50:36Z</time>
      </trkpt>
      <trkpt lat="59.9440766" lon="17.6656151">
        <ele>24.651</ele>
        <time>2013-06-06T14:50:37Z</time>
      </trkpt>
      <trkpt lat="59.9441543" lon="17.6656504">
        <ele>24.651</ele>
        <time>2013-06-06T14:50:38Z</time>
      </trkpt>
      <trkpt lat="59.9442303" lon="17.6656846">
        <ele>24.651</ele>
        <time>2013-06-06T14:50:39Z</time>
      </trkpt>
      <trkpt lat="59.9443087" lon="17.6657182">
        <ele>24.1703</ele>
        <time>2013-06-06T14:50:40Z</time>
      </trkpt>
      <trkpt lat="59.9443839" lon="17.6657509">
        <ele>24.1703</ele>
        <time>2013-06-06T14:50:41Z</time>
      </trkpt>
      <trkpt lat="59.9444605" lon="17.6657871">
        <ele>23.6896</ele>
        <time>2013-06-06T14:50:42Z</time>
      </trkpt>
      <trkpt lat="59.9445372" lon="17.665819">
        <ele>23.6896</ele>
        <time>2013-06-06T14:50:43Z</time>
      </trkpt>
      <trkpt lat="59.9446149" lon="17.6658467">
        <ele>23.6896</ele>
        <time>2013-06-06T14:50:44Z</time>
      </trkpt>
      <trkpt lat="59.9446945" lon="17.6658725">
        <ele>23.6896</ele>
        <time>2013-06-06T14:50:45Z</time>
      </trkpt>
      <trkpt lat="59.9447759" lon="17.6658967">
        <ele>23.6896</ele>
        <time>2013-06-06T14:50:46Z</time>
      </trkpt>
      <trkpt lat="59.9448572" lon="17.6659241">
        <ele>24.1703</ele>
        <time>2013-06-06T14:50:47Z</time>
      </trkpt>
      <trkpt lat="59.9449391" lon="17.6659529">
        <ele>24.1703</ele>
        <time>2013-06-06T14:50:48Z</time>
      </trkpt>
      <trkpt lat="59.9450204" lon="17.6659825">
        <ele>24.1703</ele>
        <time>2013-06-06T14:50:49Z</time>
      </trkpt>
      <trkpt lat="59.9451017" lon="17.6660134">
        <ele>24.1703</ele>
        <time>2013-06-06T14:50:50Z</time>
      </trkpt>
      <trkpt lat="59.9451865" lon="17.6660498">
        <ele>23.209</ele>
        <time>2013-06-06T14:50:51Z</time>
      </trkpt>
      <trkpt lat="59.9452742" lon="17.6660881">
        <ele>22.7283</ele>
        <time>2013-06-06T14:50:52Z</time>
      </trkpt>
      <trkpt lat="59.9453612" lon="17.6661226">
        <ele>22.2476</ele>
        <time>2013-06-06T14:50:53Z</time>
      </trkpt>
      <trkpt lat="59.9454488" lon="17.6661567">
        <ele>22.2476</ele>
        <time>2013-06-06T14:50:54Z</time>
      </trkpt>
      <trkpt lat="59.9455364" lon="17.6661884">
        <ele>22.2476</ele>
        <time>2013-06-06T14:50:55Z</time>
      </trkpt>
      <trkpt lat="59.9456263" lon="17.6662231">
        <ele>22.2476</ele>
        <time>2013-06-06T14:50:56Z</time>
      </trkpt>
      <trkpt lat="59.9457126" lon="17.6662564">
        <ele>21.767</ele>
        <time>2013-06-06T14:50:57Z</time>
      </trkpt>
      <trkpt lat="59.9457984" lon="17.6662898">
        <ele>21.2864</ele>
        <time>2013-06-06T14:50:58Z</time>
      </trkpt>
      <trkpt lat="59.9458843" lon="17.6663217">
        <ele>21.2864</ele>
        <time>2013-06-06T14:50:59Z</time>
      </trkpt>
      <trkpt lat="59.9459705" lon="17.6663495">
        <ele>21.2864</ele>
        <time>2013-06-06T14:51:00Z</time>
      </trkpt>
      <trkpt lat="59.9460586" lon="17.6663786">
        <ele>20.8057</ele>
        <time>2013-06-06T14:51:01Z</time>
      </trkpt>
      <trkpt lat="59.9461439" lon="17.6664092">
        <ele>21.767</ele>
        <time>2013-06-06T14:51:02Z</time>
      </trkpt>
      <trkpt lat="59.94623" lon="17.6664521">
        <ele>20.8057</ele>
        <time>2013-06-06T14:51:03Z</time>
      </trkpt>
      <trkpt lat="59.9463154" lon="17.666505">
        <ele>21.2864</ele>
        <time>2013-06-06T14:51:04Z</time>
      </trkpt>
      <trkpt lat="59.9463987" lon="17.666561">
        <ele>20.8057</ele>
        <time>2013-06-06T14:51:05Z</time>
      </trkpt>
      <trkpt lat="59.9464806" lon="17.6666076">
        <ele>21.2864</ele>
        <time>2013-06-06T14:51:06Z</time>
      </trkpt>
      <trkpt lat="59.946563" lon="17.666637">
        <ele>21.2864</ele>
        <time>2013-06-06T14:51:07Z</time>
      </trkpt>
      <trkpt lat="59.9466501" lon="17.666665">
        <ele>20.8057</ele>
        <time>2013-06-06T14:51:08Z</time>
      </trkpt>
      <trkpt lat="59.9467298" lon="17.666676">
        <ele>20.8057</ele>
        <time>2013-06-06T14:51:09Z</time>
      </trkpt>
      <trkpt lat="59.9468065" lon="17.6666851">
        <ele>20.8057</ele>
        <time>2013-06-06T14:51:10Z</time>
      </trkpt>
      <trkpt lat="59.9468797" lon="17.6667014">
        <ele>20.8057</ele>
        <time>2013-06-06T14:51:11Z</time>
      </trkpt>
      <trkpt lat="59.946956" lon="17.6667334">
        <ele>20.8057</ele>
        <time>2013-06-06T14:51:12Z</time>
      </trkpt>
      <trkpt lat="59.9470303" lon="17.6667654">
        <ele>21.2864</ele>
        <time>2013-06-06T14:51:13Z</time>
      </trkpt>
      <trkpt lat="59.9471034" lon="17.6667992">
        <ele>20.8057</ele>
        <time>2013-06-06T14:51:14Z</time>
      </trkpt>
      <trkpt lat="59.9471768" lon="17.6668345">
        <ele>20.8057</ele>
        <time>2013-06-06T14:51:15Z</time>
      </trkpt>
      <trkpt lat="59.9472525" lon="17.6668687">
        <ele>20.8057</ele>
        <time>2013-06-06T14:51:16Z</time>
      </trkpt>
      <trkpt lat="59.9473287" lon="17.6669064">
        <ele>20.325</ele>
        <time>2013-06-06T14:51:17Z</time>
      </trkpt>
      <trkpt lat="59.9474031" lon="17.6669448">
        <ele>20.8057</ele>
        <time>2013-06-06T14:51:18Z</time>
      </trkpt>
      <trkpt lat="59.9474758" lon="17.6669791">
        <ele>20.8057</ele>
        <time>2013-06-06T14:51:19Z</time>
      </trkpt>
      <trkpt lat="59.9475483" lon="17.6670123">
        <ele>20.8057</ele>
        <time>2013-06-06T14:51:20Z</time>
      </trkpt>
      <trkpt lat="59.9476191" lon="17.6670435">
        <ele>20.325</ele>
        <time>2013-06-06T14:51:21Z</time>
      </trkpt>
      <trkpt lat="59.9476898" lon="17.6670782">
        <ele>20.8057</ele>
        <time>2013-06-06T14:51:22Z</time>
      </trkpt>
      <trkpt lat="59.9477553" lon="17.6671146">
        <ele>20.325</ele>
        <time>2013-06-06T14:51:23Z</time>
      </trkpt>
      <trkpt lat="59.9478228" lon="17.6671454">
        <ele>20.325</ele>
        <time>2013-06-06T14:51:24Z</time>
      </trkpt>
      <trkpt lat="59.9478881" lon="17.6671758">
        <ele>19.8444</ele>
        <time>2013-06-06T14:51:25Z</time>
      </trkpt>
      <trkpt lat="59.9479507" lon="17.6672135">
        <ele>19.8444</ele>
        <time>2013-06-06T14:51:26Z</time>
      </trkpt>
      <trkpt lat="59.9480138" lon="17.6672504">
        <ele>19.8444</ele>
        <time>2013-06-06T14:51:27Z</time>
      </trkpt>
      <trkpt lat="59.9480773" lon="17.6672813">
        <ele>20.325</ele>
        <time>2013-06-06T14:51:28Z</time>
      </trkpt>
      <trkpt lat="59.948141" lon="17.6673125">
        <ele>20.8057</ele>
        <time>2013-06-06T14:51:29Z</time>
      </trkpt>
      <trkpt lat="59.9482058" lon="17.6673437">
        <ele>21.767</ele>
        <time>2013-06-06T14:51:30Z</time>
      </trkpt>
      <trkpt lat="59.9482729" lon="17.6673805">
        <ele>22.2476</ele>
        <time>2013-06-06T14:51:31Z</time>
      </trkpt>
      <trkpt lat="59.9483388" lon="17.6674136">
        <ele>22.2476</ele>
        <time>2013-06-06T14:51:32Z</time>
      </trkpt>
      <trkpt lat="59.948408" lon="17.6674512">
        <ele>22.7283</ele>
        <time>2013-06-06T14:51:33Z</time>
      </trkpt>
      <trkpt lat="59.9484766" lon="17.6674887">
        <ele>23.209</ele>
        <time>2013-06-06T14:51:34Z</time>
      </trkpt>
      <trkpt lat="59.9485437" lon="17.6675258">
        <ele>22.2476</ele>
        <time>2013-06-06T14:51:35Z</time>
      </trkpt>
      <trkpt lat="59.9486092" lon="17.6675633">
        <ele>22.2476</ele>
        <time>2013-06-06T14:51:36Z</time>
      </trkpt>
      <trkpt lat="59.9486742" lon="17.6676032">
        <ele>21.767</ele>
        <time>2013-06-06T14:51:37Z</time>
      </trkpt>
      <trkpt lat="59.9487397" lon="17.6676477">
        <ele>21.767</ele>
        <time>2013-06-06T14:51:38Z</time>
      </trkpt>
      <trkpt lat="59.9488111" lon="17.6676835">
        <ele>21.767</ele>
        <time>2013-06-06T14:51:39Z</time>
      </trkpt>
      <trkpt lat="59.9488852" lon="17.6677229">
        <ele>21.2864</ele>
        <time>2013-06-06T14:51:40Z</time>
      </trkpt>
      <trkpt lat="59.9489595" lon="17.6677627">
        <ele>21.767</ele>
        <time>2013-06-06T14:51:41Z</time>
      </trkpt>
      <trkpt lat="59.9490345" lon="17.6678073">
        <ele>21.767</ele>
        <time>2013-06-06T14:51:42Z</time>
      </trkpt>
      <trkpt lat="59.9491127" lon="17.6678498">
        <ele>21.2864</ele>
        <time>2013-06-06T14:51:43Z</time>
      </trkpt>
      <trkpt lat="59.9491922" lon="17.6678959">
        <ele>20.8057</ele>
        <time>2013-06-06T14:51:44Z</time>
      </trkpt>
      <trkpt lat="59.9492676" lon="17.6679407">
        <ele>20.8057</ele>
        <time>2013-06-06T14:51:45Z</time>
      </trkpt>
      <trkpt lat="59.9493428" lon="17.6679875">
        <ele>20.325</ele>
        <time>2013-06-06T14:51:46Z</time>
      </trkpt>
      <trkpt lat="59.9494162" lon="17.6680314">
        <ele>19.8444</ele>
        <time>2013-06-06T14:51:47Z</time>
      </trkpt>
      <trkpt lat="59.9494888" lon="17.6680728">
        <ele>19.8444</ele>
        <time>2013-06-06T14:51:48Z</time>
      </trkpt>
      <trkpt lat="59.9495618" lon="17.6681165">
        <ele>19.3638</ele>
        <time>2013-06-06T14:51:49Z</time>
      </trkpt>
      <trkpt lat="59.9496359" lon="17.6681588">
        <ele>18.8831</ele>
        <time>2013-06-06T14:51:50Z</time>
      </trkpt>
      <trkpt lat="59.949712" lon="17.6681964">
        <ele>18.8831</ele>
        <time>2013-06-06T14:51:51Z</time>
      </trkpt>
      <trkpt lat="59.9497913" lon="17.6682313">
        <ele>19.3638</ele>
        <time>2013-06-06T14:51:52Z</time>
      </trkpt>
      <trkpt lat="59.9498719" lon="17.6682651">
        <ele>19.3638</ele>
        <time>2013-06-06T14:51:53Z</time>
      </trkpt>
      <trkpt lat="59.9499545" lon="17.6682921">
        <ele>18.8831</ele>
        <time>2013-06-06T14:51:54Z</time>
      </trkpt>
      <trkpt lat="59.9500373" lon="17.6683199">
        <ele>19.3638</ele>
        <time>2013-06-06T14:51:55Z</time>
      </trkpt>
      <trkpt lat="59.9501234" lon="17.668346">
        <ele>18.8831</ele>
        <time>2013-06-06T14:51:56Z</time>
      </trkpt>
      <trkpt lat="59.9502092" lon="17.6683684">
        <ele>18.8831</ele>
        <time>2013-06-06T14:51:57Z</time>
      </trkpt>
      <trkpt lat="59.9502927" lon="17.6683831">
        <ele>18.4023</ele>
        <time>2013-06-06T14:51:58Z</time>
      </trkpt>
      <trkpt lat="59.9503759" lon="17.6683915">
        <ele>17.9218</ele>
        <time>2013-06-06T14:51:59Z</time>
      </trkpt>
      <trkpt lat="59.9504585" lon="17.6684012">
        <ele>17.9218</ele>
        <time>2013-06-06T14:52:00Z</time>
      </trkpt>
      <trkpt lat="59.9505318" lon="17.6684113">
        <ele>16.4797</ele>
        <time>2013-06-06T14:52:01Z</time>
      </trkpt>
      <trkpt lat="59.9506121" lon="17.6684033">
        <ele>16.4797</ele>
        <time>2013-06-06T14:52:02Z</time>
      </trkpt>
      <trkpt lat="59.950691" lon="17.6683962">
        <ele>15.5184</ele>
        <time>2013-06-06T14:52:03Z</time>
      </trkpt>
      <trkpt lat="59.9507688" lon="17.6683869">
        <ele>15.0377</ele>
        <time>2013-06-06T14:52:04Z</time>
      </trkpt>
      <trkpt lat="59.9508453" lon="17.6683729">
        <ele>15.0377</ele>
        <time>2013-06-06T14:52:05Z</time>
      </trkpt>
      <trkpt lat="59.9509204" lon="17.6683567">
        <ele>14.557</ele>
        <time>2013-06-06T14:52:06Z</time>
      </trkpt>
      <trkpt lat="59.9509962" lon="17.6683404">
        <ele>14.557</ele>
        <time>2013-06-06T14:52:07Z</time>
      </trkpt>
      <trkpt lat="59.9510771" lon="17.6683165">
        <ele>14.557</ele>
        <time>2013-06-06T14:52:08Z</time>
      </trkpt>
      <trkpt lat="59.9511557" lon="17.6682869">
        <ele>15.0377</ele>
        <time>2013-06-06T14:52:09Z</time>
      </trkpt>
      <trkpt lat="59.951236" lon="17.668245">
        <ele>14.557</ele>
        <time>2013-06-06T14:52:10Z</time>
      </trkpt>
      <trkpt lat="59.9513178" lon="17.6682072">
        <ele>14.0764</ele>
        <time>2013-06-06T14:52:11Z</time>
      </trkpt>
      <trkpt lat="59.951397" lon="17.6681811">
        <ele>13.5958</ele>
        <time>2013-06-06T14:52:12Z</time>
      </trkpt>
      <trkpt lat="59.9514756" lon="17.6681575">
        <ele>14.0764</ele>
        <time>2013-06-06T14:52:13Z</time>
      </trkpt>
      <trkpt lat="59.9515524" lon="17.6681526">
        <ele>15.0377</ele>
        <time>2013-06-06T14:52:14Z</time>
      </trkpt>
      <trkpt lat="59.9516329" lon="17.6681689">
        <ele>15.999</ele>
        <time>2013-06-06T14:52:15Z</time>
      </trkpt>
      <trkpt lat="59.9517058" lon="17.668244">
        <ele>16.4797</ele>
        <time>2013-06-06T14:52:16Z</time>
      </trkpt>
      <trkpt lat="59.9517655" lon="17.668364">
        <ele>16.4797</ele>
        <time>2013-06-06T14:52:17Z</time>
      </trkpt>
      <trkpt lat="59.9518087" lon="17.6685251">
        <ele>16.4797</ele>
        <time>2013-06-06T14:52:18Z</time>
      </trkpt>
      <trkpt lat="59.9518488" lon="17.6686967">
        <ele>15.999</ele>
        <time>2013-06-06T14:52:19Z</time>
      </trkpt>
      <trkpt lat="59.9518417" lon="17.6688956">
        <ele>14.0764</ele>
        <time>2013-06-06T14:52:20Z</time>
      </trkpt>
      <trkpt lat="59.9518317" lon="17.6690951">
        <ele>12.6344</ele>
        <time>2013-06-06T14:52:21Z</time>
      </trkpt>
      <trkpt lat="59.951826" lon="17.6692784">
        <ele>11.6732</ele>
        <time>2013-06-06T14:52:22Z</time>
      </trkpt>
      <trkpt lat="59.9518202" lon="17.6694622">
        <ele>11.6732</ele>
        <time>2013-06-06T14:52:23Z</time>
      </trkpt>
      <trkpt lat="59.9518126" lon="17.6696481">
        <ele>12.1538</ele>
        <time>2013-06-06T14:52:24Z</time>
      </trkpt>
      <trkpt lat="59.951807" lon="17.6698344">
        <ele>12.1538</ele>
        <time>2013-06-06T14:52:25Z</time>
      </trkpt>
      <trkpt lat="59.9517981" lon="17.6700188">
        <ele>12.6344</ele>
        <time>2013-06-06T14:52:26Z</time>
      </trkpt>
      <trkpt lat="59.9517862" lon="17.6701958">
        <ele>13.1151</ele>
        <time>2013-06-06T14:52:27Z</time>
      </trkpt>
      <trkpt lat="59.9517753" lon="17.6703636">
        <ele>13.5958</ele>
        <time>2013-06-06T14:52:28Z</time>
      </trkpt>
      <trkpt lat="59.9517607" lon="17.6705283">
        <ele>14.0764</ele>
        <time>2013-06-06T14:52:29Z</time>
      </trkpt>
      <trkpt lat="59.9517486" lon="17.6706982">
        <ele>14.557</ele>
        <time>2013-06-06T14:52:30Z</time>
      </trkpt>
      <trkpt lat="59.9517393" lon="17.670862">
        <ele>15.0377</ele>
        <time>2013-06-06T14:52:31Z</time>
      </trkpt>
      <trkpt lat="59.9517368" lon="17.6710386">
        <ele>15.5184</ele>
        <time>2013-06-06T14:52:32Z</time>
      </trkpt>
      <trkpt lat="59.9517333" lon="17.6711992">
        <ele>16.9604</ele>
        <time>2013-06-06T14:52:33Z</time>
      </trkpt>
      <trkpt lat="59.9517712" lon="17.6713671">
        <ele>16.9604</ele>
        <time>2013-06-06T14:52:34Z</time>
      </trkpt>
      <trkpt lat="59.9517947" lon="17.6714933">
        <ele>17.4412</ele>
        <time>2013-06-06T14:52:35Z</time>
      </trkpt>
      <trkpt lat="59.9518131" lon="17.6716183">
        <ele>17.9218</ele>
        <time>2013-06-06T14:52:36Z</time>
      </trkpt>
      <trkpt lat="59.9518192" lon="17.6717505">
        <ele>17.9218</ele>
        <time>2013-06-06T14:52:37Z</time>
      </trkpt>
      <trkpt lat="59.9518196" lon="17.6718918">
        <ele>18.8831</ele>
        <time>2013-06-06T14:52:38Z</time>
      </trkpt>
      <trkpt lat="59.951823" lon="17.6720219">
        <ele>19.3638</ele>
        <time>2013-06-06T14:52:39Z</time>
      </trkpt>
      <trkpt lat="59.9518307" lon="17.6721466">
        <ele>19.3638</ele>
        <time>2013-06-06T14:52:40Z</time>
      </trkpt>
      <trkpt lat="59.9518441" lon="17.6722674">
        <ele>19.3638</ele>
        <time>2013-06-06T14:52:41Z</time>
      </trkpt>
      <trkpt lat="59.9518592" lon="17.6723858">
        <ele>19.8444</ele>
        <time>2013-06-06T14:52:42Z</time>
      </trkpt>
      <trkpt lat="59.9518746" lon="17.672501">
        <ele>20.325</ele>
        <time>2013-06-06T14:52:43Z</time>
      </trkpt>
      <trkpt lat="59.9518895" lon="17.6726129">
        <ele>20.8057</ele>
        <time>2013-06-06T14:52:44Z</time>
      </trkpt>
      <trkpt lat="59.9519037" lon="17.6727207">
        <ele>21.2864</ele>
        <time>2013-06-06T14:52:45Z</time>
      </trkpt>
      <trkpt lat="59.9519163" lon="17.6728274">
        <ele>21.767</ele>
        <time>2013-06-06T14:52:46Z</time>
      </trkpt>
      <trkpt lat="59.9519284" lon="17.6729284">
        <ele>22.2476</ele>
        <time>2013-06-06T14:52:47Z</time>
      </trkpt>
      <trkpt lat="59.9519405" lon="17.6730266">
        <ele>22.7283</ele>
        <time>2013-06-06T14:52:48Z</time>
      </trkpt>
      <trkpt lat="59.951953" lon="17.6731251">
        <ele>22.7283</ele>
        <time>2013-06-06T14:52:49Z</time>
      </trkpt>
      <trkpt lat="59.9519665" lon="17.6732227">
        <ele>23.209</ele>
        <time>2013-06-06T14:52:50Z</time>
      </trkpt>
      <trkpt lat="59.9519815" lon="17.6733194">
        <ele>23.6896</ele>
        <time>2013-06-06T14:52:51Z</time>
      </trkpt>
      <trkpt lat="59.9519929" lon="17.6734111">
        <ele>25.1317</ele>
        <time>2013-06-06T14:52:52Z</time>
      </trkpt>
      <trkpt lat="59.9520109" lon="17.6735095">
        <ele>25.6123</ele>
        <time>2013-06-06T14:52:53Z</time>
      </trkpt>
      <trkpt lat="59.9520286" lon="17.6736085">
        <ele>25.6123</ele>
        <time>2013-06-06T14:52:54Z</time>
      </trkpt>
      <trkpt lat="59.952042" lon="17.6736985">
        <ele>26.0929</ele>
        <time>2013-06-06T14:52:55Z</time>
      </trkpt>
      <trkpt lat="59.9520574" lon="17.6737888">
        <ele>26.0929</ele>
        <time>2013-06-06T14:52:56Z</time>
      </trkpt>
      <trkpt lat="59.952069" lon="17.6738761">
        <ele>27.5349</ele>
        <time>2013-06-06T14:52:57Z</time>
      </trkpt>
      <trkpt lat="59.9520813" lon="17.6739675">
        <ele>28.0155</ele>
        <time>2013-06-06T14:52:58Z</time>
      </trkpt>
      <trkpt lat="59.9520949" lon="17.6740592">
        <ele>28.0155</ele>
        <time>2013-06-06T14:52:59Z</time>
      </trkpt>
      <trkpt lat="59.9521124" lon="17.6741465">
        <ele>28.4962</ele>
        <time>2013-06-06T14:53:00Z</time>
      </trkpt>
      <trkpt lat="59.9521311" lon="17.6742341">
        <ele>28.4962</ele>
        <time>2013-06-06T14:53:01Z</time>
      </trkpt>
      <trkpt lat="59.9521497" lon="17.674326">
        <ele>28.4962</ele>
        <time>2013-06-06T14:53:02Z</time>
      </trkpt>
      <trkpt lat="59.9521699" lon="17.6744167">
        <ele>28.0155</ele>
        <time>2013-06-06T14:53:03Z</time>
      </trkpt>
      <trkpt lat="59.9521859" lon="17.6745129">
        <ele>28.0155</ele>
        <time>2013-06-06T14:53:04Z</time>
      </trkpt>
      <trkpt lat="59.952202" lon="17.6746103">
        <ele>27.5349</ele>
        <time>2013-06-06T14:53:05Z</time>
      </trkpt>
      <trkpt lat="59.9522191" lon="17.6747098">
        <ele>27.5349</ele>
        <time>2013-06-06T14:53:06Z</time>
      </trkpt>
      <trkpt lat="59.9522325" lon="17.6748025">
        <ele>28.4962</ele>
        <time>2013-06-06T14:53:07Z</time>
      </trkpt>
      <trkpt lat="59.9522435" lon="17.6748932">
        <ele>28.9769</ele>
        <time>2013-06-06T14:53:08Z</time>
      </trkpt>
      <trkpt lat="59.9522524" lon="17.6749851">
        <ele>29.4575</ele>
        <time>2013-06-06T14:53:09Z</time>
      </trkpt>
      <trkpt lat="59.9522663" lon="17.6750597">
        <ele>29.4575</ele>
        <time>2013-06-06T14:53:10Z</time>
      </trkpt>
      <trkpt lat="59.9522808" lon="17.6751255">
        <ele>29.4575</ele>
        <time>2013-06-06T14:53:11Z</time>
      </trkpt>
      <trkpt lat="59.9522969" lon="17.6751858">
        <ele>29.9381</ele>
        <time>2013-06-06T14:53:12Z</time>
      </trkpt>
      <trkpt lat="59.9523136" lon="17.6752547">
        <ele>29.9381</ele>
        <time>2013-06-06T14:53:13Z</time>
      </trkpt>
      <trkpt lat="59.9523347" lon="17.675326">
        <ele>29.9381</ele>
        <time>2013-06-06T14:53:14Z</time>
      </trkpt>
      <trkpt lat="59.9523554" lon="17.6754054">
        <ele>29.9381</ele>
        <time>2013-06-06T14:53:15Z</time>
      </trkpt>
      <trkpt lat="59.9523812" lon="17.6754861">
        <ele>30.4188</ele>
        <time>2013-06-06T14:53:16Z</time>
      </trkpt>
      <trkpt lat="59.9524098" lon="17.6755675">
        <ele>30.4188</ele>
        <time>2013-06-06T14:53:17Z</time>
      </trkpt>
      <trkpt lat="59.9524425" lon="17.6756474">
        <ele>30.8995</ele>
        <time>2013-06-06T14:53:18Z</time>
      </trkpt>
      <trkpt lat="59.9524809" lon="17.6757297">
        <ele>30.8995</ele>
        <time>2013-06-06T14:53:19Z</time>
      </trkpt>
      <trkpt lat="59.9525253" lon="17.6758158">
        <ele>31.3801</ele>
        <time>2013-06-06T14:53:20Z</time>
      </trkpt>
      <trkpt lat="59.9525694" lon="17.6759105">
        <ele>30.8995</ele>
        <time>2013-06-06T14:53:21Z</time>
      </trkpt>
      <trkpt lat="59.9526133" lon="17.6760089">
        <ele>30.8995</ele>
        <time>2013-06-06T14:53:22Z</time>
      </trkpt>
      <trkpt lat="59.9526572" lon="17.676113">
        <ele>30.8995</ele>
        <time>2013-06-06T14:53:23Z</time>
      </trkpt>
      <trkpt lat="59.9526992" lon="17.6762191">
        <ele>30.8995</ele>
        <time>2013-06-06T14:53:24Z</time>
      </trkpt>
      <trkpt lat="59.952738" lon="17.6763249">
        <ele>31.3801</ele>
        <time>2013-06-06T14:53:25Z</time>
      </trkpt>
      <trkpt lat="59.9527753" lon="17.6764289">
        <ele>31.3801</ele>
        <time>2013-06-06T14:53:26Z</time>
      </trkpt>
      <trkpt lat="59.9528143" lon="17.6765288">
        <ele>31.3801</ele>
        <time>2013-06-06T14:53:27Z</time>
      </trkpt>
      <trkpt lat="59.9528543" lon="17.6766293">
        <ele>31.3801</ele>
        <time>2013-06-06T14:53:28Z</time>
      </trkpt>
      <trkpt lat="59.9528939" lon="17.6767299">
        <ele>31.3801</ele>
        <time>2013-06-06T14:53:29Z</time>
      </trkpt>
      <trkpt lat="59.9529335" lon="17.6768315">
        <ele>31.3801</ele>
        <time>2013-06-06T14:53:30Z</time>
      </trkpt>
      <trkpt lat="59.9529734" lon="17.676937">
        <ele>30.8995</ele>
        <time>2013-06-06T14:53:31Z</time>
      </trkpt>
      <trkpt lat="59.9530133" lon="17.677044">
        <ele>30.8995</ele>
        <time>2013-06-06T14:53:32Z</time>
      </trkpt>
      <trkpt lat="59.9530538" lon="17.6771532">
        <ele>30.4188</ele>
        <time>2013-06-06T14:53:33Z</time>
      </trkpt>
      <trkpt lat="59.9530926" lon="17.6772611">
        <ele>30.4188</ele>
        <time>2013-06-06T14:53:34Z</time>
      </trkpt>
      <trkpt lat="59.9531297" lon="17.6773664">
        <ele>30.4188</ele>
        <time>2013-06-06T14:53:35Z</time>
      </trkpt>
      <trkpt lat="59.9531671" lon="17.6774713">
        <ele>31.3801</ele>
        <time>2013-06-06T14:53:36Z</time>
      </trkpt>
      <trkpt lat="59.9532085" lon="17.6775807">
        <ele>31.3801</ele>
        <time>2013-06-06T14:53:37Z</time>
      </trkpt>
      <trkpt lat="59.9532514" lon="17.6776899">
        <ele>31.8607</ele>
        <time>2013-06-06T14:53:38Z</time>
      </trkpt>
      <trkpt lat="59.9532928" lon="17.6778019">
        <ele>31.8607</ele>
        <time>2013-06-06T14:53:39Z</time>
      </trkpt>
      <trkpt lat="59.9533396" lon="17.6779064">
        <ele>32.8223</ele>
        <time>2013-06-06T14:53:40Z</time>
      </trkpt>
      <trkpt lat="59.9533794" lon="17.6780262">
        <ele>31.8607</ele>
        <time>2013-06-06T14:53:41Z</time>
      </trkpt>
      <trkpt lat="59.9534146" lon="17.6781437">
        <ele>31.3801</ele>
        <time>2013-06-06T14:53:42Z</time>
      </trkpt>
      <trkpt lat="59.9534541" lon="17.6782591">
        <ele>31.8607</ele>
        <time>2013-06-06T14:53:43Z</time>
      </trkpt>
      <trkpt lat="59.9534936" lon="17.6783737">
        <ele>32.3416</ele>
        <time>2013-06-06T14:53:44Z</time>
      </trkpt>
      <trkpt lat="59.9535325" lon="17.6784885">
        <ele>33.3029</ele>
        <time>2013-06-06T14:53:45Z</time>
      </trkpt>
      <trkpt lat="59.9535737" lon="17.6786073">
        <ele>33.7834</ele>
        <time>2013-06-06T14:53:46Z</time>
      </trkpt>
      <trkpt lat="59.9536137" lon="17.6787265">
        <ele>34.7449</ele>
        <time>2013-06-06T14:53:47Z</time>
      </trkpt>
      <trkpt lat="59.9536559" lon="17.6788514">
        <ele>35.2255</ele>
        <time>2013-06-06T14:53:48Z</time>
      </trkpt>
      <trkpt lat="59.9536996" lon="17.6789782">
        <ele>35.7061</ele>
        <time>2013-06-06T14:53:49Z</time>
      </trkpt>
      <trkpt lat="59.9537452" lon="17.6791065">
        <ele>35.7061</ele>
        <time>2013-06-06T14:53:50Z</time>
      </trkpt>
      <trkpt lat="59.9537915" lon="17.6792383">
        <ele>35.7061</ele>
        <time>2013-06-06T14:53:51Z</time>
      </trkpt>
      <trkpt lat="59.9538376" lon="17.6793732">
        <ele>35.7061</ele>
        <time>2013-06-06T14:53:52Z</time>
      </trkpt>
      <trkpt lat="59.9538835" lon="17.6795045">
        <ele>36.1868</ele>
        <time>2013-06-06T14:53:53Z</time>
      </trkpt>
      <trkpt lat="59.9539276" lon="17.6796351">
        <ele>35.7061</ele>
        <time>2013-06-06T14:53:54Z</time>
      </trkpt>
      <trkpt lat="59.9539717" lon="17.6797636">
        <ele>35.7061</ele>
        <time>2013-06-06T14:53:55Z</time>
      </trkpt>
      <trkpt lat="59.9540142" lon="17.6798934">
        <ele>35.2255</ele>
        <time>2013-06-06T14:53:56Z</time>
      </trkpt>
      <trkpt lat="59.954057" lon="17.68002">
        <ele>35.2255</ele>
        <time>2013-06-06T14:53:57Z</time>
      </trkpt>
      <trkpt lat="59.954099" lon="17.6801432">
        <ele>35.2255</ele>
        <time>2013-06-06T14:53:58Z</time>
      </trkpt>
      <trkpt lat="59.954141" lon="17.6802634">
        <ele>34.7449</ele>
        <time>2013-06-06T14:53:59Z</time>
      </trkpt>
      <trkpt lat="59.9541823" lon="17.6803819">
        <ele>34.2642</ele>
        <time>2013-06-06T14:54:00Z</time>
      </trkpt>
      <trkpt lat="59.9542221" lon="17.6804985">
        <ele>34.2642</ele>
        <time>2013-06-06T14:54:01Z</time>
      </trkpt>
      <trkpt lat="59.9542603" lon="17.6806161">
        <ele>33.7834</ele>
        <time>2013-06-06T14:54:02Z</time>
      </trkpt>
      <trkpt lat="59.9542979" lon="17.6807372">
        <ele>32.8223</ele>
        <time>2013-06-06T14:54:03Z</time>
      </trkpt>
      <trkpt lat="59.9543358" lon="17.68086">
        <ele>32.3416</ele>
        <time>2013-06-06T14:54:04Z</time>
      </trkpt>
      <trkpt lat="59.9543745" lon="17.680984">
        <ele>31.3801</ele>
        <time>2013-06-06T14:54:05Z</time>
      </trkpt>
      <trkpt lat="59.9544113" lon="17.6811093">
        <ele>30.8995</ele>
        <time>2013-06-06T14:54:06Z</time>
      </trkpt>
      <trkpt lat="59.9544488" lon="17.6812331">
        <ele>30.4188</ele>
        <time>2013-06-06T14:54:07Z</time>
      </trkpt>
      <trkpt lat="59.9544859" lon="17.6813512">
        <ele>29.4575</ele>
        <time>2013-06-06T14:54:08Z</time>
      </trkpt>
      <trkpt lat="59.9545177" lon="17.6814693">
        <ele>28.0155</ele>
        <time>2013-06-06T14:54:09Z</time>
      </trkpt>
      <trkpt lat="59.9545527" lon="17.6815812">
        <ele>28.0155</ele>
        <time>2013-06-06T14:54:10Z</time>
      </trkpt>
      <trkpt lat="59.9545892" lon="17.6816878">
        <ele>28.0155</ele>
        <time>2013-06-06T14:54:11Z</time>
      </trkpt>
      <trkpt lat="59.9546316" lon="17.6817935">
        <ele>28.0155</ele>
        <time>2013-06-06T14:54:12Z</time>
      </trkpt>
      <trkpt lat="59.9546801" lon="17.6818907">
        <ele>28.0155</ele>
        <time>2013-06-06T14:54:13Z</time>
      </trkpt>
      <trkpt lat="59.9547409" lon="17.6819747">
        <ele>28.4962</ele>
        <time>2013-06-06T14:54:14Z</time>
      </trkpt>
      <trkpt lat="59.9548024" lon="17.6820786">
        <ele>28.0155</ele>
        <time>2013-06-06T14:54:15Z</time>
      </trkpt>
      <trkpt lat="59.9548568" lon="17.6822089">
        <ele>27.0543</ele>
        <time>2013-06-06T14:54:16Z</time>
      </trkpt>
      <trkpt lat="59.9549025" lon="17.6823407">
        <ele>28.0155</ele>
        <time>2013-06-06T14:54:17Z</time>
      </trkpt>
      <trkpt lat="59.9549404" lon="17.6824779">
        <ele>28.0155</ele>
        <time>2013-06-06T14:54:18Z</time>
      </trkpt>
      <trkpt lat="59.9549763" lon="17.6826165">
        <ele>28.4962</ele>
        <time>2013-06-06T14:54:19Z</time>
      </trkpt>
      <trkpt lat="59.9550128" lon="17.6827477">
        <ele>28.4962</ele>
        <time>2013-06-06T14:54:20Z</time>
      </trkpt>
      <trkpt lat="59.955051" lon="17.6828767">
        <ele>28.4962</ele>
        <time>2013-06-06T14:54:21Z</time>
      </trkpt>
      <trkpt lat="59.9550884" lon="17.6830025">
        <ele>28.4962</ele>
        <time>2013-06-06T14:54:22Z</time>
      </trkpt>
      <trkpt lat="59.9551289" lon="17.6831301">
        <ele>28.0155</ele>
        <time>2013-06-06T14:54:23Z</time>
      </trkpt>
      <trkpt lat="59.9551625" lon="17.6832512">
        <ele>28.0155</ele>
        <time>2013-06-06T14:54:24Z</time>
      </trkpt>
      <trkpt lat="59.9551916" lon="17.6833726">
        <ele>27.0543</ele>
        <time>2013-06-06T14:54:25Z</time>
      </trkpt>
      <trkpt lat="59.9552224" lon="17.6834983">
        <ele>27.0543</ele>
        <time>2013-06-06T14:54:26Z</time>
      </trkpt>
      <trkpt lat="59.9552454" lon="17.6836285">
        <ele>25.6123</ele>
        <time>2013-06-06T14:54:27Z</time>
      </trkpt>
      <trkpt lat="59.9552717" lon="17.6837594">
        <ele>25.1317</ele>
        <time>2013-06-06T14:54:28Z</time>
      </trkpt>
      <trkpt lat="59.9552708" lon="17.683894">
        <ele>22.2476</ele>
        <time>2013-06-06T14:54:29Z</time>
      </trkpt>
      <trkpt lat="59.955308" lon="17.6840329">
        <ele>22.7283</ele>
        <time>2013-06-06T14:54:30Z</time>
      </trkpt>
      <trkpt lat="59.9553397" lon="17.6841692">
        <ele>22.7283</ele>
        <time>2013-06-06T14:54:31Z</time>
      </trkpt>
      <trkpt lat="59.9553709" lon="17.6843016">
        <ele>22.2476</ele>
        <time>2013-06-06T14:54:32Z</time>
      </trkpt>
      <trkpt lat="59.9553951" lon="17.6844342">
        <ele>22.7283</ele>
        <time>2013-06-06T14:54:33Z</time>
      </trkpt>
      <trkpt lat="59.9554189" lon="17.6845722">
        <ele>22.2476</ele>
        <time>2013-06-06T14:54:34Z</time>
      </trkpt>
      <trkpt lat="59.9554427" lon="17.6847037">
        <ele>22.2476</ele>
        <time>2013-06-06T14:54:35Z</time>
      </trkpt>
      <trkpt lat="59.9554635" lon="17.6848306">
        <ele>22.7283</ele>
        <time>2013-06-06T14:54:36Z</time>
      </trkpt>
      <trkpt lat="59.9554827" lon="17.6849519">
        <ele>23.209</ele>
        <time>2013-06-06T14:54:37Z</time>
      </trkpt>
      <trkpt lat="59.9555008" lon="17.6850727">
        <ele>23.6896</ele>
        <time>2013-06-06T14:54:38Z</time>
      </trkpt>
      <trkpt lat="59.9555178" lon="17.6851926">
        <ele>23.6896</ele>
        <time>2013-06-06T14:54:39Z</time>
      </trkpt>
      <trkpt lat="59.9555351" lon="17.6853129">
        <ele>24.1703</ele>
        <time>2013-06-06T14:54:40Z</time>
      </trkpt>
      <trkpt lat="59.9555535" lon="17.6854378">
        <ele>24.651</ele>
        <time>2013-06-06T14:54:41Z</time>
      </trkpt>
      <trkpt lat="59.9555687" lon="17.685565">
        <ele>25.1317</ele>
        <time>2013-06-06T14:54:42Z</time>
      </trkpt>
      <trkpt lat="59.9555883" lon="17.6856967">
        <ele>25.1317</ele>
        <time>2013-06-06T14:54:43Z</time>
      </trkpt>
      <trkpt lat="59.9556096" lon="17.6858307">
        <ele>26.0929</ele>
        <time>2013-06-06T14:54:44Z</time>
      </trkpt>
      <trkpt lat="59.9556299" lon="17.6859659">
        <ele>26.5736</ele>
        <time>2013-06-06T14:54:45Z</time>
      </trkpt>
      <trkpt lat="59.9556505" lon="17.6861061">
        <ele>26.5736</ele>
        <time>2013-06-06T14:54:46Z</time>
      </trkpt>
      <trkpt lat="59.955671" lon="17.6862453">
        <ele>27.5349</ele>
        <time>2013-06-06T14:54:47Z</time>
      </trkpt>
      <trkpt lat="59.9556917" lon="17.6863805">
        <ele>28.0155</ele>
        <time>2013-06-06T14:54:48Z</time>
      </trkpt>
      <trkpt lat="59.9557116" lon="17.6865146">
        <ele>28.4962</ele>
        <time>2013-06-06T14:54:49Z</time>
      </trkpt>
      <trkpt lat="59.9557295" lon="17.6866502">
        <ele>28.4962</ele>
        <time>2013-06-06T14:54:50Z</time>
      </trkpt>
      <trkpt lat="59.9557479" lon="17.6867842">
        <ele>28.4962</ele>
        <time>2013-06-06T14:54:51Z</time>
      </trkpt>
      <trkpt lat="59.955768" lon="17.6869056">
        <ele>28.4962</ele>
        <time>2013-06-06T14:54:52Z</time>
      </trkpt>
      <trkpt lat="59.9557831" lon="17.6870297">
        <ele>28.9769</ele>
        <time>2013-06-06T14:54:53Z</time>
      </trkpt>
      <trkpt lat="59.9557977" lon="17.6871573">
        <ele>28.9769</ele>
        <time>2013-06-06T14:54:54Z</time>
      </trkpt>
      <trkpt lat="59.9558157" lon="17.6872922">
        <ele>28.9769</ele>
        <time>2013-06-06T14:54:55Z</time>
      </trkpt>
      <trkpt lat="59.9558352" lon="17.6874311">
        <ele>29.9381</ele>
        <time>2013-06-06T14:54:56Z</time>
      </trkpt>
      <trkpt lat="59.9558568" lon="17.6875749">
        <ele>28.9769</ele>
        <time>2013-06-06T14:54:57Z</time>
      </trkpt>
      <trkpt lat="59.9558758" lon="17.6877118">
        <ele>29.4575</ele>
        <time>2013-06-06T14:54:58Z</time>
      </trkpt>
      <trkpt lat="59.9558977" lon="17.6878527">
        <ele>29.9381</ele>
        <time>2013-06-06T14:54:59Z</time>
      </trkpt>
      <trkpt lat="59.9559233" lon="17.6879989">
        <ele>30.4188</ele>
        <time>2013-06-06T14:55:00Z</time>
      </trkpt>
      <trkpt lat="59.9559546" lon="17.6881467">
        <ele>30.4188</ele>
        <time>2013-06-06T14:55:01Z</time>
      </trkpt>
      <trkpt lat="59.9559844" lon="17.6882991">
        <ele>30.4188</ele>
        <time>2013-06-06T14:55:02Z</time>
      </trkpt>
      <trkpt lat="59.9560105" lon="17.6884537">
        <ele>30.8995</ele>
        <time>2013-06-06T14:55:03Z</time>
      </trkpt>
      <trkpt lat="59.9560323" lon="17.688612">
        <ele>31.3801</ele>
        <time>2013-06-06T14:55:04Z</time>
      </trkpt>
      <trkpt lat="59.9560508" lon="17.6887686">
        <ele>31.8607</ele>
        <time>2013-06-06T14:55:05Z</time>
      </trkpt>
      <trkpt lat="59.9560707" lon="17.6889144">
        <ele>32.3416</ele>
        <time>2013-06-06T14:55:06Z</time>
      </trkpt>
      <trkpt lat="59.9560912" lon="17.6890519">
        <ele>33.3029</ele>
        <time>2013-06-06T14:55:07Z</time>
      </trkpt>
      <trkpt lat="59.9561158" lon="17.689187">
        <ele>34.2642</ele>
        <time>2013-06-06T14:55:08Z</time>
      </trkpt>
      <trkpt lat="59.9561415" lon="17.6893269">
        <ele>35.7061</ele>
        <time>2013-06-06T14:55:09Z</time>
      </trkpt>
      <trkpt lat="59.956175" lon="17.6894647">
        <ele>35.7061</ele>
        <time>2013-06-06T14:55:10Z</time>
      </trkpt>
      <trkpt lat="59.9562137" lon="17.6895746">
        <ele>35.7061</ele>
        <time>2013-06-06T14:55:11Z</time>
      </trkpt>
      <trkpt lat="59.9562539" lon="17.6896798">
        <ele>35.2255</ele>
        <time>2013-06-06T14:55:12Z</time>
      </trkpt>
      <trkpt lat="59.956296" lon="17.6897793">
        <ele>34.2642</ele>
        <time>2013-06-06T14:55:13Z</time>
      </trkpt>
      <trkpt lat="59.9563265" lon="17.689891">
        <ele>34.7449</ele>
        <time>2013-06-06T14:55:14Z</time>
      </trkpt>
      <trkpt lat="59.9563623" lon="17.6899907">
        <ele>34.2642</ele>
        <time>2013-06-06T14:55:15Z</time>
      </trkpt>
      <trkpt lat="59.9563933" lon="17.6900981">
        <ele>33.7834</ele>
        <time>2013-06-06T14:55:16Z</time>
      </trkpt>
      <trkpt lat="59.9564249" lon="17.6902033">
        <ele>33.3029</ele>
        <time>2013-06-06T14:55:17Z</time>
      </trkpt>
      <trkpt lat="59.9564611" lon="17.6903023">
        <ele>33.7834</ele>
        <time>2013-06-06T14:55:18Z</time>
      </trkpt>
      <trkpt lat="59.9564979" lon="17.6903986">
        <ele>32.8223</ele>
        <time>2013-06-06T14:55:19Z</time>
      </trkpt>
      <trkpt lat="59.9565385" lon="17.6904977">
        <ele>32.8223</ele>
        <time>2013-06-06T14:55:20Z</time>
      </trkpt>
      <trkpt lat="59.9565744" lon="17.6906059">
        <ele>33.7834</ele>
        <time>2013-06-06T14:55:21Z</time>
      </trkpt>
      <trkpt lat="59.9566144" lon="17.6907264">
        <ele>33.7834</ele>
        <time>2013-06-06T14:55:22Z</time>
      </trkpt>
      <trkpt lat="59.956658" lon="17.6908473">
        <ele>33.7834</ele>
        <time>2013-06-06T14:55:23Z</time>
      </trkpt>
      <trkpt lat="59.9566983" lon="17.6909687">
        <ele>32.8223</ele>
        <time>2013-06-06T14:55:24Z</time>
      </trkpt>
      <trkpt lat="59.9567371" lon="17.6910799">
        <ele>32.3416</ele>
        <time>2013-06-06T14:55:25Z</time>
      </trkpt>
      <trkpt lat="59.9567739" lon="17.6911989">
        <ele>32.3416</ele>
        <time>2013-06-06T14:55:26Z</time>
      </trkpt>
      <trkpt lat="59.9568154" lon="17.6913194">
        <ele>30.8995</ele>
        <time>2013-06-06T14:55:27Z</time>
      </trkpt>
      <trkpt lat="59.9568595" lon="17.6914477">
        <ele>29.9381</ele>
        <time>2013-06-06T14:55:28Z</time>
      </trkpt>
      <trkpt lat="59.956903" lon="17.6915726">
        <ele>29.4575</ele>
        <time>2013-06-06T14:55:29Z</time>
      </trkpt>
      <trkpt lat="59.9569453" lon="17.6916908">
        <ele>28.9769</ele>
        <time>2013-06-06T14:55:30Z</time>
      </trkpt>
      <trkpt lat="59.9569879" lon="17.6918093">
        <ele>28.4962</ele>
        <time>2013-06-06T14:55:31Z</time>
      </trkpt>
      <trkpt lat="59.9570263" lon="17.6919316">
        <ele>28.9769</ele>
        <time>2013-06-06T14:55:32Z</time>
      </trkpt>
      <trkpt lat="59.9570655" lon="17.6920507">
        <ele>28.9769</ele>
        <time>2013-06-06T14:55:33Z</time>
      </trkpt>
      <trkpt lat="59.9571024" lon="17.6921678">
        <ele>28.9769</ele>
        <time>2013-06-06T14:55:34Z</time>
      </trkpt>
      <trkpt lat="59.9571407" lon="17.6922791">
        <ele>28.9769</ele>
        <time>2013-06-06T14:55:35Z</time>
      </trkpt>
      <trkpt lat="59.9571795" lon="17.6923971">
        <ele>29.4575</ele>
        <time>2013-06-06T14:55:36Z</time>
      </trkpt>
      <trkpt lat="59.957219" lon="17.692512">
        <ele>29.4575</ele>
        <time>2013-06-06T14:55:37Z</time>
      </trkpt>
      <trkpt lat="59.9572594" lon="17.6926204">
        <ele>29.4575</ele>
        <time>2013-06-06T14:55:38Z</time>
      </trkpt>
      <trkpt lat="59.957296" lon="17.6927288">
        <ele>28.9769</ele>
        <time>2013-06-06T14:55:39Z</time>
      </trkpt>
      <trkpt lat="59.9573366" lon="17.6928428">
        <ele>28.9769</ele>
        <time>2013-06-06T14:55:40Z</time>
      </trkpt>
      <trkpt lat="59.9573742" lon="17.6929542">
        <ele>28.9769</ele>
        <time>2013-06-06T14:55:41Z</time>
      </trkpt>
      <trkpt lat="59.9574115" lon="17.6930645">
        <ele>28.9769</ele>
        <time>2013-06-06T14:55:42Z</time>
      </trkpt>
      <trkpt lat="59.957448" lon="17.6931735">
        <ele>28.9769</ele>
        <time>2013-06-06T14:55:43Z</time>
      </trkpt>
      <trkpt lat="59.9574851" lon="17.6932795">
        <ele>28.4962</ele>
        <time>2013-06-06T14:55:44Z</time>
      </trkpt>
      <trkpt lat="59.9575227" lon="17.6933812">
        <ele>28.0155</ele>
        <time>2013-06-06T14:55:45Z</time>
      </trkpt>
      <trkpt lat="59.9575573" lon="17.6934771">
        <ele>28.0155</ele>
        <time>2013-06-06T14:55:46Z</time>
      </trkpt>
      <trkpt lat="59.9575951" lon="17.6935808">
        <ele>28.0155</ele>
        <time>2013-06-06T14:55:47Z</time>
      </trkpt>
      <trkpt lat="59.9576335" lon="17.693687">
        <ele>28.4962</ele>
        <time>2013-06-06T14:55:48Z</time>
      </trkpt>
      <trkpt lat="59.9576703" lon="17.6937931">
        <ele>28.4962</ele>
        <time>2013-06-06T14:55:49Z</time>
      </trkpt>
      <trkpt lat="59.9577079" lon="17.6939063">
        <ele>28.4962</ele>
        <time>2013-06-06T14:55:50Z</time>
      </trkpt>
      <trkpt lat="59.9577469" lon="17.6940202">
        <ele>28.9769</ele>
        <time>2013-06-06T14:55:51Z</time>
      </trkpt>
      <trkpt lat="59.9577856" lon="17.6941344">
        <ele>29.4575</ele>
        <time>2013-06-06T14:55:52Z</time>
      </trkpt>
      <trkpt lat="59.957826" lon="17.6942486">
        <ele>29.9381</ele>
        <time>2013-06-06T14:55:53Z</time>
      </trkpt>
      <trkpt lat="59.9578641" lon="17.6943686">
        <ele>29.9381</ele>
        <time>2013-06-06T14:55:54Z</time>
      </trkpt>
      <trkpt lat="59.9579059" lon="17.6944901">
        <ele>30.4188</ele>
        <time>2013-06-06T14:55:55Z</time>
      </trkpt>
      <trkpt lat="59.9579437" lon="17.6946155">
        <ele>30.4188</ele>
        <time>2013-06-06T14:55:56Z</time>
      </trkpt>
      <trkpt lat="59.957987" lon="17.6947403">
        <ele>30.8995</ele>
        <time>2013-06-06T14:55:57Z</time>
      </trkpt>
      <trkpt lat="59.9580308" lon="17.6948628">
        <ele>30.4188</ele>
        <time>2013-06-06T14:55:58Z</time>
      </trkpt>
      <trkpt lat="59.95808" lon="17.694982">
        <ele>29.4575</ele>
        <time>2013-06-06T14:55:59Z</time>
      </trkpt>
      <trkpt lat="59.9581215" lon="17.6950971">
        <ele>29.4575</ele>
        <time>2013-06-06T14:56:00Z</time>
      </trkpt>
      <trkpt lat="59.9581639" lon="17.695211">
        <ele>28.9769</ele>
        <time>2013-06-06T14:56:01Z</time>
      </trkpt>
      <trkpt lat="59.9582043" lon="17.6953222">
        <ele>28.4962</ele>
        <time>2013-06-06T14:56:02Z</time>
      </trkpt>
      <trkpt lat="59.9582456" lon="17.6954285">
        <ele>27.5349</ele>
        <time>2013-06-06T14:56:03Z</time>
      </trkpt>
      <trkpt lat="59.9582846" lon="17.6955281">
        <ele>27.5349</ele>
        <time>2013-06-06T14:56:04Z</time>
      </trkpt>
      <trkpt lat="59.9583244" lon="17.6956306">
        <ele>27.5349</ele>
        <time>2013-06-06T14:56:05Z</time>
      </trkpt>
      <trkpt lat="59.95837" lon="17.6957429">
        <ele>26.5736</ele>
        <time>2013-06-06T14:56:06Z</time>
      </trkpt>
      <trkpt lat="59.9584144" lon="17.6958558">
        <ele>25.6123</ele>
        <time>2013-06-06T14:56:07Z</time>
      </trkpt>
      <trkpt lat="59.9584574" lon="17.6959642">
        <ele>25.6123</ele>
        <time>2013-06-06T14:56:08Z</time>
      </trkpt>
      <trkpt lat="59.9585038" lon="17.6960746">
        <ele>25.1317</ele>
        <time>2013-06-06T14:56:09Z</time>
      </trkpt>
      <trkpt lat="59.9585502" lon="17.6961871">
        <ele>24.651</ele>
        <time>2013-06-06T14:56:10Z</time>
      </trkpt>
      <trkpt lat="59.9585933" lon="17.6962992">
        <ele>24.651</ele>
        <time>2013-06-06T14:56:11Z</time>
      </trkpt>
      <trkpt lat="59.9586338" lon="17.6964005">
        <ele>25.1317</ele>
        <time>2013-06-06T14:56:12Z</time>
      </trkpt>
      <trkpt lat="59.9586751" lon="17.6964994">
        <ele>25.6123</ele>
        <time>2013-06-06T14:56:13Z</time>
      </trkpt>
      <trkpt lat="59.9587099" lon="17.6966024">
        <ele>26.0929</ele>
        <time>2013-06-06T14:56:14Z</time>
      </trkpt>
      <trkpt lat="59.9587393" lon="17.6967081">
        <ele>26.0929</ele>
        <time>2013-06-06T14:56:15Z</time>
      </trkpt>
      <trkpt lat="59.9587689" lon="17.69682">
        <ele>26.5736</ele>
        <time>2013-06-06T14:56:16Z</time>
      </trkpt>
      <trkpt lat="59.9587987" lon="17.6969372">
        <ele>27.0543</ele>
        <time>2013-06-06T14:56:17Z</time>
      </trkpt>
      <trkpt lat="59.9588263" lon="17.6970593">
        <ele>26.5736</ele>
        <time>2013-06-06T14:56:18Z</time>
      </trkpt>
      <trkpt lat="59.9588549" lon="17.6971867">
        <ele>27.0543</ele>
        <time>2013-06-06T14:56:19Z</time>
      </trkpt>
      <trkpt lat="59.9588821" lon="17.6973162">
        <ele>28.0155</ele>
        <time>2013-06-06T14:56:20Z</time>
      </trkpt>
      <trkpt lat="59.9589078" lon="17.6974476">
        <ele>28.0155</ele>
        <time>2013-06-06T14:56:21Z</time>
      </trkpt>
      <trkpt lat="59.95893" lon="17.697581">
        <ele>27.5349</ele>
        <time>2013-06-06T14:56:22Z</time>
      </trkpt>
      <trkpt lat="59.9589544" lon="17.6977097">
        <ele>28.4962</ele>
        <time>2013-06-06T14:56:23Z</time>
      </trkpt>
      <trkpt lat="59.9589735" lon="17.6978423">
        <ele>28.9769</ele>
        <time>2013-06-06T14:56:24Z</time>
      </trkpt>
      <trkpt lat="59.9589892" lon="17.6979741">
        <ele>29.9381</ele>
        <time>2013-06-06T14:56:25Z</time>
      </trkpt>
      <trkpt lat="59.9590003" lon="17.6981081">
        <ele>29.4575</ele>
        <time>2013-06-06T14:56:26Z</time>
      </trkpt>
      <trkpt lat="59.959003" lon="17.6982356">
        <ele>31.3801</ele>
        <time>2013-06-06T14:56:27Z</time>
      </trkpt>
      <trkpt lat="59.9590063" lon="17.6983664">
        <ele>29.9381</ele>
        <time>2013-06-06T14:56:28Z</time>
      </trkpt>
      <trkpt lat="59.9590091" lon="17.698495">
        <ele>28.9769</ele>
        <time>2013-06-06T14:56:29Z</time>
      </trkpt>
      <trkpt lat="59.9590145" lon="17.6986165">
        <ele>29.4575</ele>
        <time>2013-06-06T14:56:30Z</time>
      </trkpt>
      <trkpt lat="59.9590113" lon="17.6987315">
        <ele>29.9381</ele>
        <time>2013-06-06T14:56:31Z</time>
      </trkpt>
      <trkpt lat="59.9590066" lon="17.6988519">
        <ele>29.4575</ele>
        <time>2013-06-06T14:56:32Z</time>
      </trkpt>
      <trkpt lat="59.9590075" lon="17.6989646">
        <ele>30.4188</ele>
        <time>2013-06-06T14:56:33Z</time>
      </trkpt>
      <trkpt lat="59.9590127" lon="17.6990858">
        <ele>30.4188</ele>
        <time>2013-06-06T14:56:34Z</time>
      </trkpt>
      <trkpt lat="59.959023" lon="17.6992147">
        <ele>29.9381</ele>
        <time>2013-06-06T14:56:35Z</time>
      </trkpt>
      <trkpt lat="59.9590295" lon="17.6993462">
        <ele>30.4188</ele>
        <time>2013-06-06T14:56:36Z</time>
      </trkpt>
      <trkpt lat="59.9590438" lon="17.699477">
        <ele>30.8995</ele>
        <time>2013-06-06T14:56:37Z</time>
      </trkpt>
      <trkpt lat="59.9590529" lon="17.6996086">
        <ele>31.3801</ele>
        <time>2013-06-06T14:56:38Z</time>
      </trkpt>
      <trkpt lat="59.9590595" lon="17.6997374">
        <ele>31.3801</ele>
        <time>2013-06-06T14:56:39Z</time>
      </trkpt>
      <trkpt lat="59.9590681" lon="17.6998642">
        <ele>31.3801</ele>
        <time>2013-06-06T14:56:40Z</time>
      </trkpt>
      <trkpt lat="59.9590777" lon="17.6999893">
        <ele>31.3801</ele>
        <time>2013-06-06T14:56:41Z</time>
      </trkpt>
      <trkpt lat="59.9590886" lon="17.7001109">
        <ele>31.3801</ele>
        <time>2013-06-06T14:56:42Z</time>
      </trkpt>
      <trkpt lat="59.9590976" lon="17.7002328">
        <ele>30.8995</ele>
        <time>2013-06-06T14:56:43Z</time>
      </trkpt>
      <trkpt lat="59.9591046" lon="17.7003564">
        <ele>30.8995</ele>
        <time>2013-06-06T14:56:44Z</time>
      </trkpt>
      <trkpt lat="59.9591148" lon="17.7004824">
        <ele>30.8995</ele>
        <time>2013-06-06T14:56:45Z</time>
      </trkpt>
      <trkpt lat="59.9591301" lon="17.7006134">
        <ele>31.3801</ele>
        <time>2013-06-06T14:56:46Z</time>
      </trkpt>
      <trkpt lat="59.9591415" lon="17.7007458">
        <ele>31.3801</ele>
        <time>2013-06-06T14:56:47Z</time>
      </trkpt>
      <trkpt lat="59.9591526" lon="17.7008841">
        <ele>31.8607</ele>
        <time>2013-06-06T14:56:48Z</time>
      </trkpt>
      <trkpt lat="59.9591678" lon="17.701017">
        <ele>31.8607</ele>
        <time>2013-06-06T14:56:49Z</time>
      </trkpt>
      <trkpt lat="59.9591871" lon="17.7011507">
        <ele>32.3416</ele>
        <time>2013-06-06T14:56:50Z</time>
      </trkpt>
      <trkpt lat="59.9592092" lon="17.7012821">
        <ele>32.8223</ele>
        <time>2013-06-06T14:56:51Z</time>
      </trkpt>
      <trkpt lat="59.9592293" lon="17.7014085">
        <ele>33.3029</ele>
        <time>2013-06-06T14:56:52Z</time>
      </trkpt>
      <trkpt lat="59.9592522" lon="17.7015304">
        <ele>32.8223</ele>
        <time>2013-06-06T14:56:53Z</time>
      </trkpt>
      <trkpt lat="59.9592793" lon="17.7016489">
        <ele>33.7834</ele>
        <time>2013-06-06T14:56:54Z</time>
      </trkpt>
      <trkpt lat="59.9593004" lon="17.7017732">
        <ele>33.7834</ele>
        <time>2013-06-06T14:56:55Z</time>
      </trkpt>
      <trkpt lat="59.9593271" lon="17.7018938">
        <ele>32.8223</ele>
        <time>2013-06-06T14:56:56Z</time>
      </trkpt>
      <trkpt lat="59.9593476" lon="17.7020161">
        <ele>33.3029</ele>
        <time>2013-06-06T14:56:57Z</time>
      </trkpt>
      <trkpt lat="59.9593745" lon="17.70214">
        <ele>32.3416</ele>
        <time>2013-06-06T14:56:58Z</time>
      </trkpt>
      <trkpt lat="59.9594095" lon="17.7022534">
        <ele>32.8223</ele>
        <time>2013-06-06T14:56:59Z</time>
      </trkpt>
      <trkpt lat="59.9594479" lon="17.7023609">
        <ele>33.3029</ele>
        <time>2013-06-06T14:57:00Z</time>
      </trkpt>
      <trkpt lat="59.9594848" lon="17.7024688">
        <ele>31.8607</ele>
        <time>2013-06-06T14:57:01Z</time>
      </trkpt>
      <trkpt lat="59.9595204" lon="17.7025694">
        <ele>31.3801</ele>
        <time>2013-06-06T14:57:02Z</time>
      </trkpt>
      <trkpt lat="59.9595522" lon="17.7026626">
        <ele>33.3029</ele>
        <time>2013-06-06T14:57:03Z</time>
      </trkpt>
      <trkpt lat="59.9595832" lon="17.7027591">
        <ele>33.7834</ele>
        <time>2013-06-06T14:57:04Z</time>
      </trkpt>
      <trkpt lat="59.9596143" lon="17.7028538">
        <ele>34.7449</ele>
        <time>2013-06-06T14:57:05Z</time>
      </trkpt>
      <trkpt lat="59.9596455" lon="17.7029459">
        <ele>35.2255</ele>
        <time>2013-06-06T14:57:06Z</time>
      </trkpt>
      <trkpt lat="59.9596806" lon="17.7030464">
        <ele>34.7449</ele>
        <time>2013-06-06T14:57:07Z</time>
      </trkpt>
      <trkpt lat="59.9597224" lon="17.7031469">
        <ele>35.7061</ele>
        <time>2013-06-06T14:57:08Z</time>
      </trkpt>
      <trkpt lat="59.9597586" lon="17.7032621">
        <ele>34.2642</ele>
        <time>2013-06-06T14:57:09Z</time>
      </trkpt>
      <trkpt lat="59.959795" lon="17.7033732">
        <ele>33.7834</ele>
        <time>2013-06-06T14:57:10Z</time>
      </trkpt>
      <trkpt lat="59.9598324" lon="17.7034804">
        <ele>34.2642</ele>
        <time>2013-06-06T14:57:11Z</time>
      </trkpt>
      <trkpt lat="59.9598702" lon="17.7035952">
        <ele>33.7834</ele>
        <time>2013-06-06T14:57:12Z</time>
      </trkpt>
      <trkpt lat="59.9599114" lon="17.7037106">
        <ele>32.8223</ele>
        <time>2013-06-06T14:57:13Z</time>
      </trkpt>
      <trkpt lat="59.9599552" lon="17.7038292">
        <ele>32.3416</ele>
        <time>2013-06-06T14:57:14Z</time>
      </trkpt>
      <trkpt lat="59.9599964" lon="17.7039445">
        <ele>32.3416</ele>
        <time>2013-06-06T14:57:15Z</time>
      </trkpt>
      <trkpt lat="59.9600391" lon="17.7040654">
        <ele>31.8607</ele>
        <time>2013-06-06T14:57:16Z</time>
      </trkpt>
      <trkpt lat="59.9600879" lon="17.7041742">
        <ele>30.8995</ele>
        <time>2013-06-06T14:57:17Z</time>
      </trkpt>
      <trkpt lat="59.9601366" lon="17.7042804">
        <ele>30.8995</ele>
        <time>2013-06-06T14:57:18Z</time>
      </trkpt>
      <trkpt lat="59.9601867" lon="17.7043703">
        <ele>29.9381</ele>
        <time>2013-06-06T14:57:19Z</time>
      </trkpt>
      <trkpt lat="59.9602435" lon="17.704458">
        <ele>27.5349</ele>
        <time>2013-06-06T14:57:20Z</time>
      </trkpt>
      <trkpt lat="59.9603044" lon="17.7045431">
        <ele>26.0929</ele>
        <time>2013-06-06T14:57:21Z</time>
      </trkpt>
      <trkpt lat="59.9603644" lon="17.7046248">
        <ele>25.1317</ele>
        <time>2013-06-06T14:57:22Z</time>
      </trkpt>
      <trkpt lat="59.9604241" lon="17.7047065">
        <ele>23.6896</ele>
        <time>2013-06-06T14:57:23Z</time>
      </trkpt>
      <trkpt lat="59.9604813" lon="17.7047839">
        <ele>23.6896</ele>
        <time>2013-06-06T14:57:24Z</time>
      </trkpt>
      <trkpt lat="59.9605409" lon="17.7048573">
        <ele>24.1703</ele>
        <time>2013-06-06T14:57:25Z</time>
      </trkpt>
      <trkpt lat="59.9605959" lon="17.7049311">
        <ele>23.6896</ele>
        <time>2013-06-06T14:57:26Z</time>
      </trkpt>
      <trkpt lat="59.960654" lon="17.7050071">
        <ele>23.6896</ele>
        <time>2013-06-06T14:57:27Z</time>
      </trkpt>
      <trkpt lat="59.9607099" lon="17.7050916">
        <ele>23.209</ele>
        <time>2013-06-06T14:57:28Z</time>
      </trkpt>
      <trkpt lat="59.9607664" lon="17.7051873">
        <ele>22.7283</ele>
        <time>2013-06-06T14:57:29Z</time>
      </trkpt>
      <trkpt lat="59.9608187" lon="17.7052781">
        <ele>22.2476</ele>
        <time>2013-06-06T14:57:30Z</time>
      </trkpt>
      <trkpt lat="59.9608726" lon="17.7053635">
        <ele>22.7283</ele>
        <time>2013-06-06T14:57:31Z</time>
      </trkpt>
      <trkpt lat="59.9609149" lon="17.7054526">
        <ele>22.7283</ele>
        <time>2013-06-06T14:57:32Z</time>
      </trkpt>
      <trkpt lat="59.9609666" lon="17.705536">
        <ele>21.2864</ele>
        <time>2013-06-06T14:57:33Z</time>
      </trkpt>
      <trkpt lat="59.9610186" lon="17.7056069">
        <ele>21.767</ele>
        <time>2013-06-06T14:57:34Z</time>
      </trkpt>
      <trkpt lat="59.9610715" lon="17.7056863">
        <ele>22.7283</ele>
        <time>2013-06-06T14:57:35Z</time>
      </trkpt>
      <trkpt lat="59.9611251" lon="17.7057778">
        <ele>21.767</ele>
        <time>2013-06-06T14:57:36Z</time>
      </trkpt>
      <trkpt lat="59.9611832" lon="17.7058566">
        <ele>22.7283</ele>
        <time>2013-06-06T14:57:37Z</time>
      </trkpt>
      <trkpt lat="59.9612358" lon="17.7059426">
        <ele>22.7283</ele>
        <time>2013-06-06T14:57:38Z</time>
      </trkpt>
      <trkpt lat="59.9612881" lon="17.7060327">
        <ele>22.2476</ele>
        <time>2013-06-06T14:57:39Z</time>
      </trkpt>
      <trkpt lat="59.9613351" lon="17.7061255">
        <ele>22.2476</ele>
        <time>2013-06-06T14:57:40Z</time>
      </trkpt>
      <trkpt lat="59.9613875" lon="17.7062229">
        <ele>21.2864</ele>
        <time>2013-06-06T14:57:41Z</time>
      </trkpt>
      <trkpt lat="59.9614345" lon="17.7063171">
        <ele>20.325</ele>
        <time>2013-06-06T14:57:42Z</time>
      </trkpt>
      <trkpt lat="59.9614854" lon="17.7064022">
        <ele>20.325</ele>
        <time>2013-06-06T14:57:43Z</time>
      </trkpt>
      <trkpt lat="59.9615378" lon="17.706487">
        <ele>20.325</ele>
        <time>2013-06-06T14:57:44Z</time>
      </trkpt>
      <trkpt lat="59.961594" lon="17.7065616">
        <ele>20.8057</ele>
        <time>2013-06-06T14:57:45Z</time>
      </trkpt>
      <trkpt lat="59.9616454" lon="17.7066327">
        <ele>20.8057</ele>
        <time>2013-06-06T14:57:46Z</time>
      </trkpt>
      <trkpt lat="59.9616989" lon="17.7066985">
        <ele>19.8444</ele>
        <time>2013-06-06T14:57:47Z</time>
      </trkpt>
      <trkpt lat="59.9617538" lon="17.706761">
        <ele>19.8444</ele>
        <time>2013-06-06T14:57:48Z</time>
      </trkpt>
      <trkpt lat="59.9618091" lon="17.7068191">
        <ele>19.3638</ele>
        <time>2013-06-06T14:57:49Z</time>
      </trkpt>
      <trkpt lat="59.9618657" lon="17.7068656">
        <ele>18.4023</ele>
        <time>2013-06-06T14:57:50Z</time>
      </trkpt>
      <trkpt lat="59.9619214" lon="17.7068963">
        <ele>19.3638</ele>
        <time>2013-06-06T14:57:51Z</time>
      </trkpt>
      <trkpt lat="59.9619801" lon="17.7069332">
        <ele>19.8444</ele>
        <time>2013-06-06T14:57:52Z</time>
      </trkpt>
      <trkpt lat="59.9620407" lon="17.7069704">
        <ele>20.325</ele>
        <time>2013-06-06T14:57:53Z</time>
      </trkpt>
      <trkpt lat="59.9621042" lon="17.7070103">
        <ele>20.8057</ele>
        <time>2013-06-06T14:57:54Z</time>
      </trkpt>
      <trkpt lat="59.962166" lon="17.7070529">
        <ele>20.8057</ele>
        <time>2013-06-06T14:57:55Z</time>
      </trkpt>
      <trkpt lat="59.9622379" lon="17.7070792">
        <ele>22.7283</ele>
        <time>2013-06-06T14:57:56Z</time>
      </trkpt>
      <trkpt lat="59.9623044" lon="17.7071168">
        <ele>22.2476</ele>
        <time>2013-06-06T14:57:57Z</time>
      </trkpt>
      <trkpt lat="59.9623744" lon="17.7071449">
        <ele>23.209</ele>
        <time>2013-06-06T14:57:58Z</time>
      </trkpt>
      <trkpt lat="59.962445" lon="17.7071683">
        <ele>23.6896</ele>
        <time>2013-06-06T14:57:59Z</time>
      </trkpt>
      <trkpt lat="59.9625094" lon="17.7071983">
        <ele>24.1703</ele>
        <time>2013-06-06T14:58:00Z</time>
      </trkpt>
      <trkpt lat="59.9625686" lon="17.7072371">
        <ele>23.209</ele>
        <time>2013-06-06T14:58:01Z</time>
      </trkpt>
      <trkpt lat="59.9626419" lon="17.7072443">
        <ele>24.651</ele>
        <time>2013-06-06T14:58:02Z</time>
      </trkpt>
      <trkpt lat="59.9627094" lon="17.7072501">
        <ele>26.0929</ele>
        <time>2013-06-06T14:58:03Z</time>
      </trkpt>
      <trkpt lat="59.9627757" lon="17.7072556">
        <ele>26.5736</ele>
        <time>2013-06-06T14:58:04Z</time>
      </trkpt>
      <trkpt lat="59.962841" lon="17.7072559">
        <ele>27.0543</ele>
        <time>2013-06-06T14:58:05Z</time>
      </trkpt>
      <trkpt lat="59.9629094" lon="17.7072499">
        <ele>27.5349</ele>
        <time>2013-06-06T14:58:06Z</time>
      </trkpt>
      <trkpt lat="59.9629793" lon="17.7072598">
        <ele>27.5349</ele>
        <time>2013-06-06T14:58:07Z</time>
      </trkpt>
      <trkpt lat="59.9630478" lon="17.7072817">
        <ele>26.0929</ele>
        <time>2013-06-06T14:58:08Z</time>
      </trkpt>
      <trkpt lat="59.9631202" lon="17.7072843">
        <ele>26.0929</ele>
        <time>2013-06-06T14:58:09Z</time>
      </trkpt>
      <trkpt lat="59.9631961" lon="17.707278">
        <ele>26.0929</ele>
        <time>2013-06-06T14:58:10Z</time>
      </trkpt>
      <trkpt lat="59.9632702" lon="17.7072697">
        <ele>26.0929</ele>
        <time>2013-06-06T14:58:11Z</time>
      </trkpt>
      <trkpt lat="59.9633428" lon="17.7072513">
        <ele>26.5736</ele>
        <time>2013-06-06T14:58:12Z</time>
      </trkpt>
      <trkpt lat="59.9634155" lon="17.707238">
        <ele>27.0543</ele>
        <time>2013-06-06T14:58:13Z</time>
      </trkpt>
      <trkpt lat="59.9634874" lon="17.7072315">
        <ele>27.0543</ele>
        <time>2013-06-06T14:58:14Z</time>
      </trkpt>
      <trkpt lat="59.9635646" lon="17.7072216">
        <ele>27.0543</ele>
        <time>2013-06-06T14:58:15Z</time>
      </trkpt>
      <trkpt lat="59.9636404" lon="17.7072231">
        <ele>27.0543</ele>
        <time>2013-06-06T14:58:16Z</time>
      </trkpt>
      <trkpt lat="59.9637159" lon="17.7072359">
        <ele>26.5736</ele>
        <time>2013-06-06T14:58:17Z</time>
      </trkpt>
      <trkpt lat="59.9637934" lon="17.7072445">
        <ele>26.5736</ele>
        <time>2013-06-06T14:58:18Z</time>
      </trkpt>
      <trkpt lat="59.9638734" lon="17.7072548">
        <ele>26.5736</ele>
        <time>2013-06-06T14:58:19Z</time>
      </trkpt>
      <trkpt lat="59.963954" lon="17.7072708">
        <ele>26.0929</ele>
        <time>2013-06-06T14:58:20Z</time>
      </trkpt>
      <trkpt lat="59.964034" lon="17.7072877">
        <ele>25.6123</ele>
        <time>2013-06-06T14:58:21Z</time>
      </trkpt>
      <trkpt lat="59.9641147" lon="17.7072997">
        <ele>25.1317</ele>
        <time>2013-06-06T14:58:22Z</time>
      </trkpt>
      <trkpt lat="59.9641955" lon="17.7073205">
        <ele>24.651</ele>
        <time>2013-06-06T14:58:23Z</time>
      </trkpt>
      <trkpt lat="59.9642769" lon="17.7073435">
        <ele>24.651</ele>
        <time>2013-06-06T14:58:24Z</time>
      </trkpt>
      <trkpt lat="59.9643588" lon="17.7073698">
        <ele>24.1703</ele>
        <time>2013-06-06T14:58:25Z</time>
      </trkpt>
      <trkpt lat="59.9644389" lon="17.7074079">
        <ele>22.7283</ele>
        <time>2013-06-06T14:58:26Z</time>
      </trkpt>
      <trkpt lat="59.9645204" lon="17.7074455">
        <ele>22.2476</ele>
        <time>2013-06-06T14:58:27Z</time>
      </trkpt>
      <trkpt lat="59.9646006" lon="17.7074949">
        <ele>21.767</ele>
        <time>2013-06-06T14:58:28Z</time>
      </trkpt>
      <trkpt lat="59.9646763" lon="17.7075512">
        <ele>21.767</ele>
        <time>2013-06-06T14:58:29Z</time>
      </trkpt>
      <trkpt lat="59.9647526" lon="17.7076146">
        <ele>19.8444</ele>
        <time>2013-06-06T14:58:30Z</time>
      </trkpt>
      <trkpt lat="59.964826" lon="17.7076683">
        <ele>19.8444</ele>
        <time>2013-06-06T14:58:31Z</time>
      </trkpt>
      <trkpt lat="59.9648988" lon="17.7077262">
        <ele>19.3638</ele>
        <time>2013-06-06T14:58:32Z</time>
      </trkpt>
      <trkpt lat="59.9649675" lon="17.7077916">
        <ele>18.8831</ele>
        <time>2013-06-06T14:58:33Z</time>
      </trkpt>
      <trkpt lat="59.9650383" lon="17.7078513">
        <ele>17.9218</ele>
        <time>2013-06-06T14:58:34Z</time>
      </trkpt>
      <trkpt lat="59.9651074" lon="17.7079042">
        <ele>17.9218</ele>
        <time>2013-06-06T14:58:35Z</time>
      </trkpt>
      <trkpt lat="59.9651725" lon="17.7079646">
        <ele>17.9218</ele>
        <time>2013-06-06T14:58:36Z</time>
      </trkpt>
      <trkpt lat="59.9652374" lon="17.7080308">
        <ele>16.9604</ele>
        <time>2013-06-06T14:58:37Z</time>
      </trkpt>
      <trkpt lat="59.9652985" lon="17.7080898">
        <ele>16.9604</ele>
        <time>2013-06-06T14:58:38Z</time>
      </trkpt>
      <trkpt lat="59.9653575" lon="17.7081531">
        <ele>16.4797</ele>
        <time>2013-06-06T14:58:39Z</time>
      </trkpt>
      <trkpt lat="59.9654215" lon="17.7082117">
        <ele>16.4797</ele>
        <time>2013-06-06T14:58:40Z</time>
      </trkpt>
      <trkpt lat="59.9654865" lon="17.7082753">
        <ele>16.4797</ele>
        <time>2013-06-06T14:58:41Z</time>
      </trkpt>
      <trkpt lat="59.9655508" lon="17.7083495">
        <ele>16.9604</ele>
        <time>2013-06-06T14:58:42Z</time>
      </trkpt>
      <trkpt lat="59.9656145" lon="17.7084287">
        <ele>17.4412</ele>
        <time>2013-06-06T14:58:43Z</time>
      </trkpt>
      <trkpt lat="59.9656751" lon="17.7085134">
        <ele>18.4023</ele>
        <time>2013-06-06T14:58:44Z</time>
      </trkpt>
      <trkpt lat="59.9657302" lon="17.7086042">
        <ele>18.4023</ele>
        <time>2013-06-06T14:58:45Z</time>
      </trkpt>
      <trkpt lat="59.9657782" lon="17.7087022">
        <ele>18.8831</ele>
        <time>2013-06-06T14:58:46Z</time>
      </trkpt>
      <trkpt lat="59.9658207" lon="17.7088045">
        <ele>19.3638</ele>
        <time>2013-06-06T14:58:47Z</time>
      </trkpt>
      <trkpt lat="59.9658631" lon="17.7089094">
        <ele>19.3638</ele>
        <time>2013-06-06T14:58:48Z</time>
      </trkpt>
      <trkpt lat="59.9659028" lon="17.7090189">
        <ele>20.325</ele>
        <time>2013-06-06T14:58:49Z</time>
      </trkpt>
      <trkpt lat="59.9659386" lon="17.709135">
        <ele>20.8057</ele>
        <time>2013-06-06T14:58:50Z</time>
      </trkpt>
      <trkpt lat="59.9659739" lon="17.7092555">
        <ele>20.8057</ele>
        <time>2013-06-06T14:58:51Z</time>
      </trkpt>
      <trkpt lat="59.9660086" lon="17.7093784">
        <ele>21.2864</ele>
        <time>2013-06-06T14:58:52Z</time>
      </trkpt>
      <trkpt lat="59.9660405" lon="17.7094982">
        <ele>21.767</ele>
        <time>2013-06-06T14:58:53Z</time>
      </trkpt>
      <trkpt lat="59.9660723" lon="17.7096134">
        <ele>21.767</ele>
        <time>2013-06-06T14:58:54Z</time>
      </trkpt>
      <trkpt lat="59.9661058" lon="17.7097265">
        <ele>20.8057</ele>
        <time>2013-06-06T14:58:55Z</time>
      </trkpt>
      <trkpt lat="59.9661354" lon="17.7098334">
        <ele>19.3638</ele>
        <time>2013-06-06T14:58:56Z</time>
      </trkpt>
      <trkpt lat="59.9661568" lon="17.7099355">
        <ele>19.8444</ele>
        <time>2013-06-06T14:58:57Z</time>
      </trkpt>
      <trkpt lat="59.9661842" lon="17.7100272">
        <ele>21.2864</ele>
        <time>2013-06-06T14:58:58Z</time>
      </trkpt>
      <trkpt lat="59.9662163" lon="17.7101264">
        <ele>22.2476</ele>
        <time>2013-06-06T14:58:59Z</time>
      </trkpt>
      <trkpt lat="59.9662495" lon="17.7102329">
        <ele>22.2476</ele>
        <time>2013-06-06T14:59:00Z</time>
      </trkpt>
      <trkpt lat="59.9662733" lon="17.7103385">
        <ele>23.209</ele>
        <time>2013-06-06T14:59:01Z</time>
      </trkpt>
      <trkpt lat="59.9663034" lon="17.7104494">
        <ele>23.209</ele>
        <time>2013-06-06T14:59:02Z</time>
      </trkpt>
      <trkpt lat="59.9663442" lon="17.7105636">
        <ele>22.7283</ele>
        <time>2013-06-06T14:59:03Z</time>
      </trkpt>
      <trkpt lat="59.9663793" lon="17.7106725">
        <ele>23.6896</ele>
        <time>2013-06-06T14:59:04Z</time>
      </trkpt>
      <trkpt lat="59.9664107" lon="17.710784">
        <ele>23.6896</ele>
        <time>2013-06-06T14:59:05Z</time>
      </trkpt>
      <trkpt lat="59.9664381" lon="17.7108943">
        <ele>24.1703</ele>
        <time>2013-06-06T14:59:06Z</time>
      </trkpt>
      <trkpt lat="59.9664661" lon="17.7110042">
        <ele>24.651</ele>
        <time>2013-06-06T14:59:07Z</time>
      </trkpt>
      <trkpt lat="59.9664964" lon="17.711116">
        <ele>24.651</ele>
        <time>2013-06-06T14:59:08Z</time>
      </trkpt>
      <trkpt lat="59.9665278" lon="17.7112215">
        <ele>25.6123</ele>
        <time>2013-06-06T14:59:09Z</time>
      </trkpt>
      <trkpt lat="59.9665602" lon="17.71132">
        <ele>27.0543</ele>
        <time>2013-06-06T14:59:10Z</time>
      </trkpt>
      <trkpt lat="59.9665912" lon="17.7114145">
        <ele>28.4962</ele>
        <time>2013-06-06T14:59:11Z</time>
      </trkpt>
      <trkpt lat="59.9666168" lon="17.711507">
        <ele>29.9381</ele>
        <time>2013-06-06T14:59:12Z</time>
      </trkpt>
      <trkpt lat="59.966641" lon="17.7115978">
        <ele>30.4188</ele>
        <time>2013-06-06T14:59:13Z</time>
      </trkpt>
      <trkpt lat="59.9666639" lon="17.7116891">
        <ele>30.8995</ele>
        <time>2013-06-06T14:59:14Z</time>
      </trkpt>
      <trkpt lat="59.9666877" lon="17.7117828">
        <ele>31.3801</ele>
        <time>2013-06-06T14:59:15Z</time>
      </trkpt>
      <trkpt lat="59.9667082" lon="17.7118733">
        <ele>30.4188</ele>
        <time>2013-06-06T14:59:16Z</time>
      </trkpt>
      <trkpt lat="59.9667322" lon="17.7119479">
        <ele>30.8995</ele>
        <time>2013-06-06T14:59:17Z</time>
      </trkpt>
      <trkpt lat="59.9667627" lon="17.712023">
        <ele>30.8995</ele>
        <time>2013-06-06T14:59:18Z</time>
      </trkpt>
      <trkpt lat="59.9667964" lon="17.7121069">
        <ele>29.9381</ele>
        <time>2013-06-06T14:59:19Z</time>
      </trkpt>
      <trkpt lat="59.9668272" lon="17.7121948">
        <ele>29.4575</ele>
        <time>2013-06-06T14:59:20Z</time>
      </trkpt>
      <trkpt lat="59.9668591" lon="17.7122857">
        <ele>28.0155</ele>
        <time>2013-06-06T14:59:21Z</time>
      </trkpt>
      <trkpt lat="59.9668877" lon="17.7123717">
        <ele>28.4962</ele>
        <time>2013-06-06T14:59:22Z</time>
      </trkpt>
      <trkpt lat="59.9669079" lon="17.7124608">
        <ele>29.4575</ele>
        <time>2013-06-06T14:59:23Z</time>
      </trkpt>
      <trkpt lat="59.9669377" lon="17.7125616">
        <ele>28.4962</ele>
        <time>2013-06-06T14:59:24Z</time>
      </trkpt>
      <trkpt lat="59.9669619" lon="17.7126607">
        <ele>28.9769</ele>
        <time>2013-06-06T14:59:25Z</time>
      </trkpt>
      <trkpt lat="59.9669861" lon="17.7127605">
        <ele>28.9769</ele>
        <time>2013-06-06T14:59:26Z</time>
      </trkpt>
      <trkpt lat="59.9670114" lon="17.7128637">
        <ele>29.4575</ele>
        <time>2013-06-06T14:59:27Z</time>
      </trkpt>
      <trkpt lat="59.9670368" lon="17.712969">
        <ele>29.9381</ele>
        <time>2013-06-06T14:59:28Z</time>
      </trkpt>
      <trkpt lat="59.9670608" lon="17.7130731">
        <ele>30.4188</ele>
        <time>2013-06-06T14:59:29Z</time>
      </trkpt>
      <trkpt lat="59.9670866" lon="17.7131806">
        <ele>30.4188</ele>
        <time>2013-06-06T14:59:30Z</time>
      </trkpt>
      <trkpt lat="59.9671108" lon="17.7132906">
        <ele>30.4188</ele>
        <time>2013-06-06T14:59:31Z</time>
      </trkpt>
      <trkpt lat="59.9671361" lon="17.7134015">
        <ele>30.8995</ele>
        <time>2013-06-06T14:59:32Z</time>
      </trkpt>
      <trkpt lat="59.9671684" lon="17.7135296">
        <ele>27.5349</ele>
        <time>2013-06-06T14:59:33Z</time>
      </trkpt>
      <trkpt lat="59.9671924" lon="17.7136564">
        <ele>26.0929</ele>
        <time>2013-06-06T14:59:34Z</time>
      </trkpt>
      <trkpt lat="59.9672109" lon="17.7137829">
        <ele>24.651</ele>
        <time>2013-06-06T14:59:35Z</time>
      </trkpt>
      <trkpt lat="59.9672249" lon="17.7139126">
        <ele>24.1703</ele>
        <time>2013-06-06T14:59:36Z</time>
      </trkpt>
      <trkpt lat="59.967241" lon="17.7140459">
        <ele>23.6896</ele>
        <time>2013-06-06T14:59:37Z</time>
      </trkpt>
      <trkpt lat="59.9672542" lon="17.7141868">
        <ele>22.2476</ele>
        <time>2013-06-06T14:59:38Z</time>
      </trkpt>
      <trkpt lat="59.9672682" lon="17.714337">
        <ele>20.8057</ele>
        <time>2013-06-06T14:59:39Z</time>
      </trkpt>
      <trkpt lat="59.9672846" lon="17.714491">
        <ele>18.8831</ele>
        <time>2013-06-06T14:59:40Z</time>
      </trkpt>
      <trkpt lat="59.9673062" lon="17.7146507">
        <ele>18.4023</ele>
        <time>2013-06-06T14:59:41Z</time>
      </trkpt>
      <trkpt lat="59.9673301" lon="17.714811">
        <ele>16.9604</ele>
        <time>2013-06-06T14:59:42Z</time>
      </trkpt>
      <trkpt lat="59.9673575" lon="17.7149747">
        <ele>15.0377</ele>
        <time>2013-06-06T14:59:43Z</time>
      </trkpt>
      <trkpt lat="59.9673815" lon="17.7151164">
        <ele>15.5184</ele>
        <time>2013-06-06T14:59:44Z</time>
      </trkpt>
      <trkpt lat="59.9674047" lon="17.7152765">
        <ele>15.5184</ele>
        <time>2013-06-06T14:59:45Z</time>
      </trkpt>
      <trkpt lat="59.9674252" lon="17.715429">
        <ele>15.999</ele>
        <time>2013-06-06T14:59:46Z</time>
      </trkpt>
      <trkpt lat="59.967443" lon="17.7155782">
        <ele>15.5184</ele>
        <time>2013-06-06T14:59:47Z</time>
      </trkpt>
      <trkpt lat="59.9674699" lon="17.7157158">
        <ele>15.999</ele>
        <time>2013-06-06T14:59:48Z</time>
      </trkpt>
      <trkpt lat="59.9675009" lon="17.7158538">
        <ele>17.4412</ele>
        <time>2013-06-06T14:59:49Z</time>
      </trkpt>
      <trkpt lat="59.967527" lon="17.7159623">
        <ele>17.9218</ele>
        <time>2013-06-06T14:59:50Z</time>
      </trkpt>
      <trkpt lat="59.9675518" lon="17.7160827">
        <ele>17.9218</ele>
        <time>2013-06-06T14:59:51Z</time>
      </trkpt>
      <trkpt lat="59.9675886" lon="17.7162014">
        <ele>18.4023</ele>
        <time>2013-06-06T14:59:52Z</time>
      </trkpt>
      <trkpt lat="59.9676242" lon="17.7163162">
        <ele>19.3638</ele>
        <time>2013-06-06T14:59:53Z</time>
      </trkpt>
      <trkpt lat="59.9676687" lon="17.7164277">
        <ele>19.8444</ele>
        <time>2013-06-06T14:59:54Z</time>
      </trkpt>
      <trkpt lat="59.9677044" lon="17.7165282">
        <ele>21.767</ele>
        <time>2013-06-06T14:59:55Z</time>
      </trkpt>
      <trkpt lat="59.9677542" lon="17.716622">
        <ele>23.209</ele>
        <time>2013-06-06T14:59:56Z</time>
      </trkpt>
      <trkpt lat="59.9677881" lon="17.716724">
        <ele>23.6896</ele>
        <time>2013-06-06T14:59:57Z</time>
      </trkpt>
      <trkpt lat="59.9678367" lon="17.7168108">
        <ele>23.209</ele>
        <time>2013-06-06T14:59:58Z</time>
      </trkpt>
      <trkpt lat="59.9678847" lon="17.7168914">
        <ele>24.651</ele>
        <time>2013-06-06T14:59:59Z</time>
      </trkpt>
      <trkpt lat="59.9679355" lon="17.7169748">
        <ele>23.6896</ele>
        <time>2013-06-06T15:00:00Z</time>
      </trkpt>
      <trkpt lat="59.9680019" lon="17.7170417">
        <ele>24.651</ele>
        <time>2013-06-06T15:00:01Z</time>
      </trkpt>
      <trkpt lat="59.9680637" lon="17.7170958">
        <ele>25.1317</ele>
        <time>2013-06-06T15:00:02Z</time>
      </trkpt>
      <trkpt lat="59.9681154" lon="17.717156">
        <ele>25.1317</ele>
        <time>2013-06-06T15:00:03Z</time>
      </trkpt>
      <trkpt lat="59.9681732" lon="17.7172076">
        <ele>25.6123</ele>
        <time>2013-06-06T15:00:04Z</time>
      </trkpt>
      <trkpt lat="59.9682247" lon="17.717268">
        <ele>25.1317</ele>
        <time>2013-06-06T15:00:05Z</time>
      </trkpt>
      <trkpt lat="59.9682875" lon="17.7173143">
        <ele>25.1317</ele>
        <time>2013-06-06T15:00:06Z</time>
      </trkpt>
      <trkpt lat="59.968349" lon="17.7173555">
        <ele>25.1317</ele>
        <time>2013-06-06T15:00:07Z</time>
      </trkpt>
      <trkpt lat="59.9684042" lon="17.7173943">
        <ele>25.1317</ele>
        <time>2013-06-06T15:00:08Z</time>
      </trkpt>
      <trkpt lat="59.9684641" lon="17.7174259">
        <ele>25.6123</ele>
        <time>2013-06-06T15:00:09Z</time>
      </trkpt>
      <trkpt lat="59.9685239" lon="17.7174569">
        <ele>25.6123</ele>
        <time>2013-06-06T15:00:10Z</time>
      </trkpt>
      <trkpt lat="59.9685808" lon="17.7175016">
        <ele>24.651</ele>
        <time>2013-06-06T15:00:11Z</time>
      </trkpt>
      <trkpt lat="59.968636" lon="17.717531">
        <ele>24.651</ele>
        <time>2013-06-06T15:00:12Z</time>
      </trkpt>
      <trkpt lat="59.9686888" lon="17.7175553">
        <ele>23.209</ele>
        <time>2013-06-06T15:00:13Z</time>
      </trkpt>
      <trkpt lat="59.9687409" lon="17.7175666">
        <ele>22.2476</ele>
        <time>2013-06-06T15:00:14Z</time>
      </trkpt>
      <trkpt lat="59.968796" lon="17.7175585">
        <ele>22.7283</ele>
        <time>2013-06-06T15:00:15Z</time>
      </trkpt>
      <trkpt lat="59.9688545" lon="17.71753">
        <ele>24.1703</ele>
        <time>2013-06-06T15:00:16Z</time>
      </trkpt>
      <trkpt lat="59.9689095" lon="17.7175036">
        <ele>25.6123</ele>
        <time>2013-06-06T15:00:17Z</time>
      </trkpt>
      <trkpt lat="59.9689638" lon="17.7174839">
        <ele>27.0543</ele>
        <time>2013-06-06T15:00:18Z</time>
      </trkpt>
      <trkpt lat="59.9690151" lon="17.7174724">
        <ele>27.5349</ele>
        <time>2013-06-06T15:00:19Z</time>
      </trkpt>
      <trkpt lat="59.9690628" lon="17.7174819">
        <ele>27.5349</ele>
        <time>2013-06-06T15:00:20Z</time>
      </trkpt>
      <trkpt lat="59.9691113" lon="17.7174921">
        <ele>28.4962</ele>
        <time>2013-06-06T15:00:21Z</time>
      </trkpt>
      <trkpt lat="59.9691648" lon="17.7175145">
        <ele>28.0155</ele>
        <time>2013-06-06T15:00:22Z</time>
      </trkpt>
      <trkpt lat="59.9692154" lon="17.7175269">
        <ele>28.9769</ele>
        <time>2013-06-06T15:00:23Z</time>
      </trkpt>
      <trkpt lat="59.9692657" lon="17.7175451">
        <ele>29.4575</ele>
        <time>2013-06-06T15:00:24Z</time>
      </trkpt>
      <trkpt lat="59.9693157" lon="17.717573">
        <ele>29.9381</ele>
        <time>2013-06-06T15:00:25Z</time>
      </trkpt>
      <trkpt lat="59.9693673" lon="17.7176047">
        <ele>29.4575</ele>
        <time>2013-06-06T15:00:26Z</time>
      </trkpt>
      <trkpt lat="59.9694208" lon="17.717636">
        <ele>29.4575</ele>
        <time>2013-06-06T15:00:27Z</time>
      </trkpt>
      <trkpt lat="59.9694777" lon="17.717669">
        <ele>29.4575</ele>
        <time>2013-06-06T15:00:28Z</time>
      </trkpt>
      <trkpt lat="59.9695366" lon="17.717702">
        <ele>29.4575</ele>
        <time>2013-06-06T15:00:29Z</time>
      </trkpt>
      <trkpt lat="59.9695958" lon="17.7177367">
        <ele>28.9769</ele>
        <time>2013-06-06T15:00:30Z</time>
      </trkpt>
      <trkpt lat="59.9696554" lon="17.7177754">
        <ele>28.9769</ele>
        <time>2013-06-06T15:00:31Z</time>
      </trkpt>
      <trkpt lat="59.9697155" lon="17.7178169">
        <ele>28.9769</ele>
        <time>2013-06-06T15:00:32Z</time>
      </trkpt>
      <trkpt lat="59.9697766" lon="17.7178629">
        <ele>28.9769</ele>
        <time>2013-06-06T15:00:33Z</time>
      </trkpt>
      <trkpt lat="59.9698383" lon="17.717916">
        <ele>28.0155</ele>
        <time>2013-06-06T15:00:34Z</time>
      </trkpt>
      <trkpt lat="59.9699009" lon="17.7179714">
        <ele>27.0543</ele>
        <time>2013-06-06T15:00:35Z</time>
      </trkpt>
      <trkpt lat="59.9699634" lon="17.7180316">
        <ele>26.5736</ele>
        <time>2013-06-06T15:00:36Z</time>
      </trkpt>
      <trkpt lat="59.9700269" lon="17.7180889">
        <ele>27.0543</ele>
        <time>2013-06-06T15:00:37Z</time>
      </trkpt>
      <trkpt lat="59.9700926" lon="17.7181569">
        <ele>26.0929</ele>
        <time>2013-06-06T15:00:38Z</time>
      </trkpt>
      <trkpt lat="59.9701594" lon="17.7182195">
        <ele>26.0929</ele>
        <time>2013-06-06T15:00:39Z</time>
      </trkpt>
      <trkpt lat="59.9702278" lon="17.7182802">
        <ele>25.6123</ele>
        <time>2013-06-06T15:00:40Z</time>
      </trkpt>
      <trkpt lat="59.9702962" lon="17.7183406">
        <ele>25.1317</ele>
        <time>2013-06-06T15:00:41Z</time>
      </trkpt>
      <trkpt lat="59.970364" lon="17.7183998">
        <ele>25.6123</ele>
        <time>2013-06-06T15:00:42Z</time>
      </trkpt>
      <trkpt lat="59.970433" lon="17.7184599">
        <ele>25.6123</ele>
        <time>2013-06-06T15:00:43Z</time>
      </trkpt>
      <trkpt lat="59.9705033" lon="17.7185203">
        <ele>25.6123</ele>
        <time>2013-06-06T15:00:44Z</time>
      </trkpt>
      <trkpt lat="59.9705728" lon="17.7185806">
        <ele>26.0929</ele>
        <time>2013-06-06T15:00:45Z</time>
      </trkpt>
      <trkpt lat="59.9706431" lon="17.7186432">
        <ele>26.5736</ele>
        <time>2013-06-06T15:00:46Z</time>
      </trkpt>
      <trkpt lat="59.9707142" lon="17.7187074">
        <ele>26.5736</ele>
        <time>2013-06-06T15:00:47Z</time>
      </trkpt>
      <trkpt lat="59.9707857" lon="17.7187722">
        <ele>27.0543</ele>
        <time>2013-06-06T15:00:48Z</time>
      </trkpt>
      <trkpt lat="59.9708576" lon="17.7188406">
        <ele>26.5736</ele>
        <time>2013-06-06T15:00:49Z</time>
      </trkpt>
      <trkpt lat="59.97093" lon="17.718908">
        <ele>26.5736</ele>
        <time>2013-06-06T15:00:50Z</time>
      </trkpt>
      <trkpt lat="59.9710011" lon="17.7189722">
        <ele>26.5736</ele>
        <time>2013-06-06T15:00:51Z</time>
      </trkpt>
      <trkpt lat="59.9710707" lon="17.7190333">
        <ele>27.0543</ele>
        <time>2013-06-06T15:00:52Z</time>
      </trkpt>
      <trkpt lat="59.9711384" lon="17.7190929">
        <ele>27.5349</ele>
        <time>2013-06-06T15:00:53Z</time>
      </trkpt>
      <trkpt lat="59.9712048" lon="17.7191498">
        <ele>27.5349</ele>
        <time>2013-06-06T15:00:54Z</time>
      </trkpt>
      <trkpt lat="59.9712702" lon="17.7192042">
        <ele>28.0155</ele>
        <time>2013-06-06T15:00:55Z</time>
      </trkpt>
      <trkpt lat="59.9713353" lon="17.719255">
        <ele>28.9769</ele>
        <time>2013-06-06T15:00:56Z</time>
      </trkpt>
      <trkpt lat="59.9714001" lon="17.7193077">
        <ele>28.9769</ele>
        <time>2013-06-06T15:00:57Z</time>
      </trkpt>
      <trkpt lat="59.9714633" lon="17.7193606">
        <ele>28.9769</ele>
        <time>2013-06-06T15:00:58Z</time>
      </trkpt>
      <trkpt lat="59.9715258" lon="17.7194143">
        <ele>28.9769</ele>
        <time>2013-06-06T15:00:59Z</time>
      </trkpt>
      <trkpt lat="59.9715882" lon="17.7194775">
        <ele>27.5349</ele>
        <time>2013-06-06T15:01:00Z</time>
      </trkpt>
      <trkpt lat="59.9716534" lon="17.7195379">
        <ele>27.0543</ele>
        <time>2013-06-06T15:01:01Z</time>
      </trkpt>
      <trkpt lat="59.9717212" lon="17.7195982">
        <ele>26.5736</ele>
        <time>2013-06-06T15:01:02Z</time>
      </trkpt>
      <trkpt lat="59.9717908" lon="17.719655">
        <ele>26.5736</ele>
        <time>2013-06-06T15:01:03Z</time>
      </trkpt>
      <trkpt lat="59.9718544" lon="17.719712">
        <ele>26.5736</ele>
        <time>2013-06-06T15:01:04Z</time>
      </trkpt>
      <trkpt lat="59.971916" lon="17.7197689">
        <ele>26.0929</ele>
        <time>2013-06-06T15:01:05Z</time>
      </trkpt>
      <trkpt lat="59.971978" lon="17.7198254">
        <ele>26.5736</ele>
        <time>2013-06-06T15:01:06Z</time>
      </trkpt>
      <trkpt lat="59.9720465" lon="17.7198818">
        <ele>26.0929</ele>
        <time>2013-06-06T15:01:07Z</time>
      </trkpt>
      <trkpt lat="59.972118" lon="17.7199406">
        <ele>25.6123</ele>
        <time>2013-06-06T15:01:08Z</time>
      </trkpt>
      <trkpt lat="59.9721896" lon="17.7199999">
        <ele>25.6123</ele>
        <time>2013-06-06T15:01:09Z</time>
      </trkpt>
      <trkpt lat="59.9722551" lon="17.720057">
        <ele>25.6123</ele>
        <time>2013-06-06T15:01:10Z</time>
      </trkpt>
      <trkpt lat="59.9723206" lon="17.7201134">
        <ele>25.6123</ele>
        <time>2013-06-06T15:01:11Z</time>
      </trkpt>
      <trkpt lat="59.9723865" lon="17.7201719">
        <ele>25.6123</ele>
        <time>2013-06-06T15:01:12Z</time>
      </trkpt>
      <trkpt lat="59.972451" lon="17.7202318">
        <ele>25.6123</ele>
        <time>2013-06-06T15:01:13Z</time>
      </trkpt>
      <trkpt lat="59.9725138" lon="17.7202869">
        <ele>26.0929</ele>
        <time>2013-06-06T15:01:14Z</time>
      </trkpt>
      <trkpt lat="59.9725771" lon="17.7203413">
        <ele>26.0929</ele>
        <time>2013-06-06T15:01:15Z</time>
      </trkpt>
      <trkpt lat="59.9726393" lon="17.7203947">
        <ele>26.0929</ele>
        <time>2013-06-06T15:01:16Z</time>
      </trkpt>
      <trkpt lat="59.9726993" lon="17.7204494">
        <ele>26.5736</ele>
        <time>2013-06-06T15:01:17Z</time>
      </trkpt>
      <trkpt lat="59.972757" lon="17.7205069">
        <ele>26.5736</ele>
        <time>2013-06-06T15:01:18Z</time>
      </trkpt>
      <trkpt lat="59.9728122" lon="17.7205683">
        <ele>27.0543</ele>
        <time>2013-06-06T15:01:19Z</time>
      </trkpt>
      <trkpt lat="59.9728712" lon="17.7206308">
        <ele>27.5349</ele>
        <time>2013-06-06T15:01:20Z</time>
      </trkpt>
      <trkpt lat="59.9729329" lon="17.7206956">
        <ele>28.0155</ele>
        <time>2013-06-06T15:01:21Z</time>
      </trkpt>
      <trkpt lat="59.972995" lon="17.7207661">
        <ele>28.0155</ele>
        <time>2013-06-06T15:01:22Z</time>
      </trkpt>
      <trkpt lat="59.9730596" lon="17.7208418">
        <ele>27.0543</ele>
        <time>2013-06-06T15:01:23Z</time>
      </trkpt>
      <trkpt lat="59.9731246" lon="17.7209286">
        <ele>27.0543</ele>
        <time>2013-06-06T15:01:24Z</time>
      </trkpt>
      <trkpt lat="59.9731844" lon="17.721022">
        <ele>26.5736</ele>
        <time>2013-06-06T15:01:25Z</time>
      </trkpt>
      <trkpt lat="59.973242" lon="17.7211183">
        <ele>26.5736</ele>
        <time>2013-06-06T15:01:26Z</time>
      </trkpt>
      <trkpt lat="59.9732964" lon="17.7212142">
        <ele>26.0929</ele>
        <time>2013-06-06T15:01:27Z</time>
      </trkpt>
      <trkpt lat="59.9733439" lon="17.7213022">
        <ele>27.0543</ele>
        <time>2013-06-06T15:01:28Z</time>
      </trkpt>
      <trkpt lat="59.9733902" lon="17.7213904">
        <ele>26.5736</ele>
        <time>2013-06-06T15:01:29Z</time>
      </trkpt>
      <trkpt lat="59.9734372" lon="17.7214856">
        <ele>26.0929</ele>
        <time>2013-06-06T15:01:30Z</time>
      </trkpt>
      <trkpt lat="59.973481" lon="17.7215876">
        <ele>26.0929</ele>
        <time>2013-06-06T15:01:31Z</time>
      </trkpt>
      <trkpt lat="59.9735233" lon="17.7216848">
        <ele>26.0929</ele>
        <time>2013-06-06T15:01:32Z</time>
      </trkpt>
      <trkpt lat="59.9735662" lon="17.721786">
        <ele>26.0929</ele>
        <time>2013-06-06T15:01:33Z</time>
      </trkpt>
      <trkpt lat="59.9736052" lon="17.7218922">
        <ele>25.1317</ele>
        <time>2013-06-06T15:01:34Z</time>
      </trkpt>
      <trkpt lat="59.973647" lon="17.7220103">
        <ele>25.6123</ele>
        <time>2013-06-06T15:01:35Z</time>
      </trkpt>
      <trkpt lat="59.9736887" lon="17.7221292">
        <ele>25.6123</ele>
        <time>2013-06-06T15:01:36Z</time>
      </trkpt>
      <trkpt lat="59.9737337" lon="17.7222458">
        <ele>26.0929</ele>
        <time>2013-06-06T15:01:37Z</time>
      </trkpt>
      <trkpt lat="59.9737777" lon="17.7223559">
        <ele>26.5736</ele>
        <time>2013-06-06T15:01:38Z</time>
      </trkpt>
      <trkpt lat="59.9738162" lon="17.7224737">
        <ele>26.0929</ele>
        <time>2013-06-06T15:01:39Z</time>
      </trkpt>
      <trkpt lat="59.9738507" lon="17.7225955">
        <ele>25.6123</ele>
        <time>2013-06-06T15:01:40Z</time>
      </trkpt>
      <trkpt lat="59.9738799" lon="17.722722">
        <ele>25.1317</ele>
        <time>2013-06-06T15:01:41Z</time>
      </trkpt>
      <trkpt lat="59.9739067" lon="17.7228495">
        <ele>25.1317</ele>
        <time>2013-06-06T15:01:42Z</time>
      </trkpt>
      <trkpt lat="59.9739368" lon="17.7229824">
        <ele>25.1317</ele>
        <time>2013-06-06T15:01:43Z</time>
      </trkpt>
      <trkpt lat="59.9739733" lon="17.7231187">
        <ele>25.1317</ele>
        <time>2013-06-06T15:01:44Z</time>
      </trkpt>
      <trkpt lat="59.974" lon="17.7232611">
        <ele>25.1317</ele>
        <time>2013-06-06T15:01:45Z</time>
      </trkpt>
      <trkpt lat="59.9740259" lon="17.7234007">
        <ele>24.651</ele>
        <time>2013-06-06T15:01:46Z</time>
      </trkpt>
      <trkpt lat="59.9740491" lon="17.7235362">
        <ele>24.1703</ele>
        <time>2013-06-06T15:01:47Z</time>
      </trkpt>
      <trkpt lat="59.9740674" lon="17.7236731">
        <ele>24.1703</ele>
        <time>2013-06-06T15:01:48Z</time>
      </trkpt>
      <trkpt lat="59.9740881" lon="17.7238035">
        <ele>24.1703</ele>
        <time>2013-06-06T15:01:49Z</time>
      </trkpt>
      <trkpt lat="59.9741052" lon="17.7239296">
        <ele>24.1703</ele>
        <time>2013-06-06T15:01:50Z</time>
      </trkpt>
      <trkpt lat="59.9741233" lon="17.7240537">
        <ele>24.1703</ele>
        <time>2013-06-06T15:01:51Z</time>
      </trkpt>
      <trkpt lat="59.974142" lon="17.7241801">
        <ele>25.1317</ele>
        <time>2013-06-06T15:01:52Z</time>
      </trkpt>
      <trkpt lat="59.974161" lon="17.7243078">
        <ele>25.1317</ele>
        <time>2013-06-06T15:01:53Z</time>
      </trkpt>
      <trkpt lat="59.9741775" lon="17.7244404">
        <ele>24.651</ele>
        <time>2013-06-06T15:01:54Z</time>
      </trkpt>
      <trkpt lat="59.9741945" lon="17.7245753">
        <ele>24.651</ele>
        <time>2013-06-06T15:01:55Z</time>
      </trkpt>
      <trkpt lat="59.9742118" lon="17.7247138">
        <ele>24.651</ele>
        <time>2013-06-06T15:01:56Z</time>
      </trkpt>
      <trkpt lat="59.9742272" lon="17.7248595">
        <ele>24.1703</ele>
        <time>2013-06-06T15:01:57Z</time>
      </trkpt>
      <trkpt lat="59.9742435" lon="17.7250096">
        <ele>24.1703</ele>
        <time>2013-06-06T15:01:58Z</time>
      </trkpt>
      <trkpt lat="59.9742594" lon="17.7251613">
        <ele>23.6896</ele>
        <time>2013-06-06T15:01:59Z</time>
      </trkpt>
      <trkpt lat="59.9742786" lon="17.7253069">
        <ele>23.209</ele>
        <time>2013-06-06T15:02:00Z</time>
      </trkpt>
      <trkpt lat="59.974302" lon="17.7254551">
        <ele>21.2864</ele>
        <time>2013-06-06T15:02:01Z</time>
      </trkpt>
      <trkpt lat="59.9743165" lon="17.7255948">
        <ele>19.3638</ele>
        <time>2013-06-06T15:02:02Z</time>
      </trkpt>
      <trkpt lat="59.9743276" lon="17.7257321">
        <ele>18.4023</ele>
        <time>2013-06-06T15:02:03Z</time>
      </trkpt>
      <trkpt lat="59.974337" lon="17.7258663">
        <ele>17.4412</ele>
        <time>2013-06-06T15:02:04Z</time>
      </trkpt>
      <trkpt lat="59.9743428" lon="17.7259979">
        <ele>17.4412</ele>
        <time>2013-06-06T15:02:05Z</time>
      </trkpt>
      <trkpt lat="59.9743475" lon="17.7261265">
        <ele>17.9218</ele>
        <time>2013-06-06T15:02:06Z</time>
      </trkpt>
      <trkpt lat="59.9743521" lon="17.7262502">
        <ele>18.8831</ele>
        <time>2013-06-06T15:02:07Z</time>
      </trkpt>
      <trkpt lat="59.9743605" lon="17.726365">
        <ele>18.8831</ele>
        <time>2013-06-06T15:02:08Z</time>
      </trkpt>
      <trkpt lat="59.9743641" lon="17.726474">
        <ele>19.3638</ele>
        <time>2013-06-06T15:02:09Z</time>
      </trkpt>
      <trkpt lat="59.9743665" lon="17.7265848">
        <ele>19.3638</ele>
        <time>2013-06-06T15:02:10Z</time>
      </trkpt>
      <trkpt lat="59.9743665" lon="17.7267129">
        <ele>19.8444</ele>
        <time>2013-06-06T15:02:11Z</time>
      </trkpt>
      <trkpt lat="59.9743691" lon="17.7268333">
        <ele>20.325</ele>
        <time>2013-06-06T15:02:12Z</time>
      </trkpt>
      <trkpt lat="59.974371" lon="17.7269612">
        <ele>20.325</ele>
        <time>2013-06-06T15:02:13Z</time>
      </trkpt>
      <trkpt lat="59.9743712" lon="17.7270987">
        <ele>21.2864</ele>
        <time>2013-06-06T15:02:14Z</time>
      </trkpt>
      <trkpt lat="59.9743717" lon="17.727241">
        <ele>21.767</ele>
        <time>2013-06-06T15:02:15Z</time>
      </trkpt>
      <trkpt lat="59.9743714" lon="17.7273831">
        <ele>21.767</ele>
        <time>2013-06-06T15:02:16Z</time>
      </trkpt>
      <trkpt lat="59.9743709" lon="17.727524">
        <ele>22.2476</ele>
        <time>2013-06-06T15:02:17Z</time>
      </trkpt>
      <trkpt lat="59.9743713" lon="17.7276652">
        <ele>22.2476</ele>
        <time>2013-06-06T15:02:18Z</time>
      </trkpt>
      <trkpt lat="59.9743723" lon="17.7278077">
        <ele>22.2476</ele>
        <time>2013-06-06T15:02:19Z</time>
      </trkpt>
      <trkpt lat="59.9743745" lon="17.7279497">
        <ele>22.7283</ele>
        <time>2013-06-06T15:02:20Z</time>
      </trkpt>
      <trkpt lat="59.974379" lon="17.7280917">
        <ele>23.209</ele>
        <time>2013-06-06T15:02:21Z</time>
      </trkpt>
      <trkpt lat="59.9743818" lon="17.7282307">
        <ele>23.209</ele>
        <time>2013-06-06T15:02:22Z</time>
      </trkpt>
      <trkpt lat="59.9743838" lon="17.728371">
        <ele>23.6896</ele>
        <time>2013-06-06T15:02:23Z</time>
      </trkpt>
      <trkpt lat="59.9743886" lon="17.7285102">
        <ele>24.1703</ele>
        <time>2013-06-06T15:02:24Z</time>
      </trkpt>
      <trkpt lat="59.974394" lon="17.7286485">
        <ele>24.1703</ele>
        <time>2013-06-06T15:02:25Z</time>
      </trkpt>
      <trkpt lat="59.9743995" lon="17.7287826">
        <ele>24.1703</ele>
        <time>2013-06-06T15:02:26Z</time>
      </trkpt>
      <trkpt lat="59.9744031" lon="17.7289139">
        <ele>24.651</ele>
        <time>2013-06-06T15:02:27Z</time>
      </trkpt>
      <trkpt lat="59.9744065" lon="17.7290431">
        <ele>24.651</ele>
        <time>2013-06-06T15:02:28Z</time>
      </trkpt>
      <trkpt lat="59.9744102" lon="17.7291692">
        <ele>24.651</ele>
        <time>2013-06-06T15:02:29Z</time>
      </trkpt>
      <trkpt lat="59.9744142" lon="17.7292961">
        <ele>24.651</ele>
        <time>2013-06-06T15:02:30Z</time>
      </trkpt>
      <trkpt lat="59.9744163" lon="17.7294275">
        <ele>24.651</ele>
        <time>2013-06-06T15:02:31Z</time>
      </trkpt>
      <trkpt lat="59.9744169" lon="17.7295613">
        <ele>24.1703</ele>
        <time>2013-06-06T15:02:32Z</time>
      </trkpt>
      <trkpt lat="59.9744116" lon="17.7297015">
        <ele>24.1703</ele>
        <time>2013-06-06T15:02:33Z</time>
      </trkpt>
      <trkpt lat="59.9744056" lon="17.7298425">
        <ele>23.6896</ele>
        <time>2013-06-06T15:02:34Z</time>
      </trkpt>
      <trkpt lat="59.974396" lon="17.7299799">
        <ele>23.209</ele>
        <time>2013-06-06T15:02:35Z</time>
      </trkpt>
      <trkpt lat="59.9743863" lon="17.7301197">
        <ele>23.6896</ele>
        <time>2013-06-06T15:02:36Z</time>
      </trkpt>
      <trkpt lat="59.9743745" lon="17.7302569">
        <ele>24.651</ele>
        <time>2013-06-06T15:02:37Z</time>
      </trkpt>
      <trkpt lat="59.974358" lon="17.7304058">
        <ele>25.6123</ele>
        <time>2013-06-06T15:02:38Z</time>
      </trkpt>
      <trkpt lat="59.9743451" lon="17.7305554">
        <ele>26.0929</ele>
        <time>2013-06-06T15:02:39Z</time>
      </trkpt>
      <trkpt lat="59.974334" lon="17.7307045">
        <ele>26.0929</ele>
        <time>2013-06-06T15:02:40Z</time>
      </trkpt>
      <trkpt lat="59.9743248" lon="17.7308517">
        <ele>26.5736</ele>
        <time>2013-06-06T15:02:41Z</time>
      </trkpt>
      <trkpt lat="59.9743196" lon="17.7309961">
        <ele>25.6123</ele>
        <time>2013-06-06T15:02:42Z</time>
      </trkpt>
      <trkpt lat="59.9743163" lon="17.7311386">
        <ele>25.1317</ele>
        <time>2013-06-06T15:02:43Z</time>
      </trkpt>
      <trkpt lat="59.9743143" lon="17.7312799">
        <ele>24.651</ele>
        <time>2013-06-06T15:02:44Z</time>
      </trkpt>
      <trkpt lat="59.9743127" lon="17.7314204">
        <ele>23.6896</ele>
        <time>2013-06-06T15:02:45Z</time>
      </trkpt>
      <trkpt lat="59.9743117" lon="17.7315588">
        <ele>23.209</ele>
        <time>2013-06-06T15:02:46Z</time>
      </trkpt>
      <trkpt lat="59.9743086" lon="17.7316965">
        <ele>23.209</ele>
        <time>2013-06-06T15:02:47Z</time>
      </trkpt>
      <trkpt lat="59.9743095" lon="17.7318385">
        <ele>23.6896</ele>
        <time>2013-06-06T15:02:48Z</time>
      </trkpt>
      <trkpt lat="59.9743134" lon="17.7319903">
        <ele>23.209</ele>
        <time>2013-06-06T15:02:49Z</time>
      </trkpt>
      <trkpt lat="59.974318" lon="17.7321421">
        <ele>22.7283</ele>
        <time>2013-06-06T15:02:50Z</time>
      </trkpt>
      <trkpt lat="59.9743216" lon="17.732291">
        <ele>23.209</ele>
        <time>2013-06-06T15:02:51Z</time>
      </trkpt>
      <trkpt lat="59.9743285" lon="17.7324399">
        <ele>22.2476</ele>
        <time>2013-06-06T15:02:52Z</time>
      </trkpt>
      <trkpt lat="59.9743341" lon="17.732586">
        <ele>22.2476</ele>
        <time>2013-06-06T15:02:53Z</time>
      </trkpt>
      <trkpt lat="59.974337" lon="17.7327294">
        <ele>21.767</ele>
        <time>2013-06-06T15:02:54Z</time>
      </trkpt>
      <trkpt lat="59.9743365" lon="17.7328709">
        <ele>21.767</ele>
        <time>2013-06-06T15:02:55Z</time>
      </trkpt>
      <trkpt lat="59.974333" lon="17.7330088">
        <ele>21.767</ele>
        <time>2013-06-06T15:02:56Z</time>
      </trkpt>
      <trkpt lat="59.974328" lon="17.733147">
        <ele>21.2864</ele>
        <time>2013-06-06T15:02:57Z</time>
      </trkpt>
      <trkpt lat="59.9743266" lon="17.7332931">
        <ele>20.8057</ele>
        <time>2013-06-06T15:02:58Z</time>
      </trkpt>
      <trkpt lat="59.9743226" lon="17.7334407">
        <ele>21.2864</ele>
        <time>2013-06-06T15:02:59Z</time>
      </trkpt>
      <trkpt lat="59.9743165" lon="17.7335892">
        <ele>21.767</ele>
        <time>2013-06-06T15:03:00Z</time>
      </trkpt>
      <trkpt lat="59.9743116" lon="17.7337406">
        <ele>22.2476</ele>
        <time>2013-06-06T15:03:01Z</time>
      </trkpt>
      <trkpt lat="59.9743074" lon="17.733897">
        <ele>22.7283</ele>
        <time>2013-06-06T15:03:02Z</time>
      </trkpt>
      <trkpt lat="59.974302" lon="17.7340592">
        <ele>23.209</ele>
        <time>2013-06-06T15:03:03Z</time>
      </trkpt>
      <trkpt lat="59.9742967" lon="17.7342285">
        <ele>23.209</ele>
        <time>2013-06-06T15:03:04Z</time>
      </trkpt>
      <trkpt lat="59.9742935" lon="17.7343959">
        <ele>23.6896</ele>
        <time>2013-06-06T15:03:05Z</time>
      </trkpt>
      <trkpt lat="59.9742932" lon="17.7345582">
        <ele>23.6896</ele>
        <time>2013-06-06T15:03:06Z</time>
      </trkpt>
      <trkpt lat="59.9742938" lon="17.7347176">
        <ele>24.1703</ele>
        <time>2013-06-06T15:03:07Z</time>
      </trkpt>
      <trkpt lat="59.9742963" lon="17.7348729">
        <ele>24.1703</ele>
        <time>2013-06-06T15:03:08Z</time>
      </trkpt>
      <trkpt lat="59.9743028" lon="17.7350238">
        <ele>24.1703</ele>
        <time>2013-06-06T15:03:09Z</time>
      </trkpt>
      <trkpt lat="59.9743132" lon="17.7351702">
        <ele>24.651</ele>
        <time>2013-06-06T15:03:10Z</time>
      </trkpt>
      <trkpt lat="59.9743252" lon="17.7353097">
        <ele>24.651</ele>
        <time>2013-06-06T15:03:11Z</time>
      </trkpt>
      <trkpt lat="59.9743388" lon="17.7354443">
        <ele>25.1317</ele>
        <time>2013-06-06T15:03:12Z</time>
      </trkpt>
      <trkpt lat="59.9743544" lon="17.735577">
        <ele>25.6123</ele>
        <time>2013-06-06T15:03:13Z</time>
      </trkpt>
      <trkpt lat="59.9743699" lon="17.7357116">
        <ele>25.6123</ele>
        <time>2013-06-06T15:03:14Z</time>
      </trkpt>
      <trkpt lat="59.9743895" lon="17.7358474">
        <ele>25.6123</ele>
        <time>2013-06-06T15:03:15Z</time>
      </trkpt>
      <trkpt lat="59.9744117" lon="17.7359857">
        <ele>25.6123</ele>
        <time>2013-06-06T15:03:16Z</time>
      </trkpt>
      <trkpt lat="59.9744387" lon="17.7361223">
        <ele>25.6123</ele>
        <time>2013-06-06T15:03:17Z</time>
      </trkpt>
      <trkpt lat="59.9744701" lon="17.7362566">
        <ele>25.6123</ele>
        <time>2013-06-06T15:03:18Z</time>
      </trkpt>
      <trkpt lat="59.9744998" lon="17.7363862">
        <ele>26.0929</ele>
        <time>2013-06-06T15:03:19Z</time>
      </trkpt>
      <trkpt lat="59.9745315" lon="17.7365097">
        <ele>26.0929</ele>
        <time>2013-06-06T15:03:20Z</time>
      </trkpt>
      <trkpt lat="59.9745649" lon="17.7366301">
        <ele>26.5736</ele>
        <time>2013-06-06T15:03:21Z</time>
      </trkpt>
      <trkpt lat="59.9746008" lon="17.7367512">
        <ele>26.0929</ele>
        <time>2013-06-06T15:03:22Z</time>
      </trkpt>
      <trkpt lat="59.9746319" lon="17.7368614">
        <ele>26.5736</ele>
        <time>2013-06-06T15:03:23Z</time>
      </trkpt>
      <trkpt lat="59.9746651" lon="17.7369685">
        <ele>27.5349</ele>
        <time>2013-06-06T15:03:24Z</time>
      </trkpt>
      <trkpt lat="59.9746982" lon="17.7370721">
        <ele>28.0155</ele>
        <time>2013-06-06T15:03:25Z</time>
      </trkpt>
      <trkpt lat="59.9747327" lon="17.7371756">
        <ele>28.0155</ele>
        <time>2013-06-06T15:03:26Z</time>
      </trkpt>
      <trkpt lat="59.9747698" lon="17.7372766">
        <ele>28.0155</ele>
        <time>2013-06-06T15:03:27Z</time>
      </trkpt>
      <trkpt lat="59.9748101" lon="17.7373754">
        <ele>28.0155</ele>
        <time>2013-06-06T15:03:28Z</time>
      </trkpt>
      <trkpt lat="59.9748534" lon="17.7374724">
        <ele>28.0155</ele>
        <time>2013-06-06T15:03:29Z</time>
      </trkpt>
      <trkpt lat="59.9748996" lon="17.7375659">
        <ele>28.0155</ele>
        <time>2013-06-06T15:03:30Z</time>
      </trkpt>
      <trkpt lat="59.9749457" lon="17.7376527">
        <ele>28.0155</ele>
        <time>2013-06-06T15:03:31Z</time>
      </trkpt>
      <trkpt lat="59.9749908" lon="17.7377355">
        <ele>28.0155</ele>
        <time>2013-06-06T15:03:32Z</time>
      </trkpt>
      <trkpt lat="59.9750363" lon="17.7378165">
        <ele>28.4962</ele>
        <time>2013-06-06T15:03:33Z</time>
      </trkpt>
      <trkpt lat="59.9750803" lon="17.7378925">
        <ele>28.0155</ele>
        <time>2013-06-06T15:03:34Z</time>
      </trkpt>
      <trkpt lat="59.9751225" lon="17.7379671">
        <ele>28.4962</ele>
        <time>2013-06-06T15:03:35Z</time>
      </trkpt>
      <trkpt lat="59.9751611" lon="17.7380389">
        <ele>29.4575</ele>
        <time>2013-06-06T15:03:36Z</time>
      </trkpt>
      <trkpt lat="59.975207" lon="17.7381167">
        <ele>29.9381</ele>
        <time>2013-06-06T15:03:37Z</time>
      </trkpt>
      <trkpt lat="59.9752556" lon="17.7381974">
        <ele>29.9381</ele>
        <time>2013-06-06T15:03:38Z</time>
      </trkpt>
      <trkpt lat="59.9753027" lon="17.73828">
        <ele>30.4188</ele>
        <time>2013-06-06T15:03:39Z</time>
      </trkpt>
      <trkpt lat="59.9753546" lon="17.7383697">
        <ele>30.4188</ele>
        <time>2013-06-06T15:03:40Z</time>
      </trkpt>
      <trkpt lat="59.975407" lon="17.738464">
        <ele>30.4188</ele>
        <time>2013-06-06T15:03:41Z</time>
      </trkpt>
      <trkpt lat="59.9754632" lon="17.7385598">
        <ele>30.4188</ele>
        <time>2013-06-06T15:03:42Z</time>
      </trkpt>
      <trkpt lat="59.9755199" lon="17.7386551">
        <ele>30.4188</ele>
        <time>2013-06-06T15:03:43Z</time>
      </trkpt>
      <trkpt lat="59.9755809" lon="17.738742">
        <ele>30.8995</ele>
        <time>2013-06-06T15:03:44Z</time>
      </trkpt>
      <trkpt lat="59.9756349" lon="17.7388301">
        <ele>31.3801</ele>
        <time>2013-06-06T15:03:45Z</time>
      </trkpt>
      <trkpt lat="59.9756844" lon="17.7389201">
        <ele>30.4188</ele>
        <time>2013-06-06T15:03:46Z</time>
      </trkpt>
      <trkpt lat="59.9757362" lon="17.7390092">
        <ele>28.9769</ele>
        <time>2013-06-06T15:03:47Z</time>
      </trkpt>
      <trkpt lat="59.9757796" lon="17.7390886">
        <ele>29.9381</ele>
        <time>2013-06-06T15:03:48Z</time>
      </trkpt>
      <trkpt lat="59.9758245" lon="17.739169">
        <ele>29.9381</ele>
        <time>2013-06-06T15:03:49Z</time>
      </trkpt>
      <trkpt lat="59.975871" lon="17.7392477">
        <ele>30.4188</ele>
        <time>2013-06-06T15:03:50Z</time>
      </trkpt>
      <trkpt lat="59.975917" lon="17.7393269">
        <ele>30.4188</ele>
        <time>2013-06-06T15:03:51Z</time>
      </trkpt>
      <trkpt lat="59.9759609" lon="17.739404">
        <ele>30.8995</ele>
        <time>2013-06-06T15:03:52Z</time>
      </trkpt>
      <trkpt lat="59.9760058" lon="17.7394774">
        <ele>31.3801</ele>
        <time>2013-06-06T15:03:53Z</time>
      </trkpt>
      <trkpt lat="59.9760524" lon="17.7395469">
        <ele>31.3801</ele>
        <time>2013-06-06T15:03:54Z</time>
      </trkpt>
      <trkpt lat="59.9760913" lon="17.7396105">
        <ele>32.3416</ele>
        <time>2013-06-06T15:03:55Z</time>
      </trkpt>
      <trkpt lat="59.9761291" lon="17.7396673">
        <ele>32.8223</ele>
        <time>2013-06-06T15:03:56Z</time>
      </trkpt>
      <trkpt lat="59.9761693" lon="17.7397198">
        <ele>32.8223</ele>
        <time>2013-06-06T15:03:57Z</time>
      </trkpt>
      <trkpt lat="59.9762057" lon="17.7397611">
        <ele>33.7834</ele>
        <time>2013-06-06T15:03:58Z</time>
      </trkpt>
      <trkpt lat="59.976237" lon="17.7397863">
        <ele>35.7061</ele>
        <time>2013-06-06T15:03:59Z</time>
      </trkpt>
      <trkpt lat="59.9762743" lon="17.7398071">
        <ele>35.7061</ele>
        <time>2013-06-06T15:04:00Z</time>
      </trkpt>
      <trkpt lat="59.9763171" lon="17.739818">
        <ele>35.2255</ele>
        <time>2013-06-06T15:04:01Z</time>
      </trkpt>
      <trkpt lat="59.9763627" lon="17.7398019">
        <ele>33.7834</ele>
        <time>2013-06-06T15:04:02Z</time>
      </trkpt>
      <trkpt lat="59.9764039" lon="17.7397723">
        <ele>32.8223</ele>
        <time>2013-06-06T15:04:03Z</time>
      </trkpt>
      <trkpt lat="59.9764437" lon="17.739734">
        <ele>31.3801</ele>
        <time>2013-06-06T15:04:04Z</time>
      </trkpt>
      <trkpt lat="59.9764789" lon="17.7396858">
        <ele>31.8607</ele>
        <time>2013-06-06T15:04:05Z</time>
      </trkpt>
      <trkpt lat="59.9765181" lon="17.7396396">
        <ele>31.8607</ele>
        <time>2013-06-06T15:04:06Z</time>
      </trkpt>
      <trkpt lat="59.9765604" lon="17.7395993">
        <ele>32.3416</ele>
        <time>2013-06-06T15:04:07Z</time>
      </trkpt>
      <trkpt lat="59.9766082" lon="17.739567">
        <ele>32.8223</ele>
        <time>2013-06-06T15:04:08Z</time>
      </trkpt>
      <trkpt lat="59.976654" lon="17.7395284">
        <ele>32.8223</ele>
        <time>2013-06-06T15:04:09Z</time>
      </trkpt>
      <trkpt lat="59.9767002" lon="17.7394906">
        <ele>33.3029</ele>
        <time>2013-06-06T15:04:10Z</time>
      </trkpt>
      <trkpt lat="59.9767462" lon="17.7394574">
        <ele>33.3029</ele>
        <time>2013-06-06T15:04:11Z</time>
      </trkpt>
      <trkpt lat="59.9767923" lon="17.7394321">
        <ele>33.7834</ele>
        <time>2013-06-06T15:04:12Z</time>
      </trkpt>
      <trkpt lat="59.9768361" lon="17.7394236">
        <ele>33.3029</ele>
        <time>2013-06-06T15:04:13Z</time>
      </trkpt>
      <trkpt lat="59.9768786" lon="17.7394057">
        <ele>33.3029</ele>
        <time>2013-06-06T15:04:14Z</time>
      </trkpt>
      <trkpt lat="59.9769214" lon="17.7393932">
        <ele>33.3029</ele>
        <time>2013-06-06T15:04:15Z</time>
      </trkpt>
      <trkpt lat="59.976963" lon="17.7393781">
        <ele>32.8223</ele>
        <time>2013-06-06T15:04:16Z</time>
      </trkpt>
      <trkpt lat="59.9770053" lon="17.7393435">
        <ele>33.3029</ele>
        <time>2013-06-06T15:04:17Z</time>
      </trkpt>
      <trkpt lat="59.9770495" lon="17.7393109">
        <ele>32.8223</ele>
        <time>2013-06-06T15:04:18Z</time>
      </trkpt>
      <trkpt lat="59.9770926" lon="17.7392813">
        <ele>31.8607</ele>
        <time>2013-06-06T15:04:19Z</time>
      </trkpt>
      <trkpt lat="59.9771344" lon="17.7392585">
        <ele>31.3801</ele>
        <time>2013-06-06T15:04:20Z</time>
      </trkpt>
      <trkpt lat="59.9771747" lon="17.7392358">
        <ele>30.8995</ele>
        <time>2013-06-06T15:04:21Z</time>
      </trkpt>
      <trkpt lat="59.9772102" lon="17.739202">
        <ele>30.8995</ele>
        <time>2013-06-06T15:04:22Z</time>
      </trkpt>
      <trkpt lat="59.9772448" lon="17.7391782">
        <ele>30.4188</ele>
        <time>2013-06-06T15:04:23Z</time>
      </trkpt>
      <trkpt lat="59.9772777" lon="17.7391637">
        <ele>30.4188</ele>
        <time>2013-06-06T15:04:24Z</time>
      </trkpt>
      <trkpt lat="59.9773111" lon="17.7391543">
        <ele>30.8995</ele>
        <time>2013-06-06T15:04:25Z</time>
      </trkpt>
      <trkpt lat="59.9773425" lon="17.7391454">
        <ele>30.4188</ele>
        <time>2013-06-06T15:04:26Z</time>
      </trkpt>
      <trkpt lat="59.9773746" lon="17.7391305">
        <ele>30.8995</ele>
        <time>2013-06-06T15:04:27Z</time>
      </trkpt>
      <trkpt lat="59.9774064" lon="17.7391138">
        <ele>31.3801</ele>
        <time>2013-06-06T15:04:28Z</time>
      </trkpt>
      <trkpt lat="59.9774393" lon="17.7390982">
        <ele>30.8995</ele>
        <time>2013-06-06T15:04:29Z</time>
      </trkpt>
      <trkpt lat="59.9774686" lon="17.7390797">
        <ele>31.3801</ele>
        <time>2013-06-06T15:04:30Z</time>
      </trkpt>
      <trkpt lat="59.9774982" lon="17.7390637">
        <ele>31.3801</ele>
        <time>2013-06-06T15:04:31Z</time>
      </trkpt>
      <trkpt lat="59.9775266" lon="17.7390486">
        <ele>31.8607</ele>
        <time>2013-06-06T15:04:32Z</time>
      </trkpt>
      <trkpt lat="59.977553" lon="17.7390347">
        <ele>32.3416</ele>
        <time>2013-06-06T15:04:33Z</time>
      </trkpt>
      <trkpt lat="59.977581" lon="17.7390255">
        <ele>32.8223</ele>
        <time>2013-06-06T15:04:34Z</time>
      </trkpt>
      <trkpt lat="59.9776082" lon="17.7390205">
        <ele>32.8223</ele>
        <time>2013-06-06T15:04:35Z</time>
      </trkpt>
      <trkpt lat="59.9776355" lon="17.7390191">
        <ele>33.3029</ele>
        <time>2013-06-06T15:04:36Z</time>
      </trkpt>
      <trkpt lat="59.9776653" lon="17.7390217">
        <ele>33.7834</ele>
        <time>2013-06-06T15:04:37Z</time>
      </trkpt>
      <trkpt lat="59.9776945" lon="17.739027">
        <ele>33.7834</ele>
        <time>2013-06-06T15:04:38Z</time>
      </trkpt>
      <trkpt lat="59.9777237" lon="17.7390358">
        <ele>33.7834</ele>
        <time>2013-06-06T15:04:39Z</time>
      </trkpt>
      <trkpt lat="59.9777534" lon="17.7390467">
        <ele>34.2642</ele>
        <time>2013-06-06T15:04:40Z</time>
      </trkpt>
      <trkpt lat="59.9777824" lon="17.7390522">
        <ele>34.7449</ele>
        <time>2013-06-06T15:04:41Z</time>
      </trkpt>
      <trkpt lat="59.977812" lon="17.7390702">
        <ele>35.2255</ele>
        <time>2013-06-06T15:04:42Z</time>
      </trkpt>
      <trkpt lat="59.9778401" lon="17.7390954">
        <ele>35.2255</ele>
        <time>2013-06-06T15:04:43Z</time>
      </trkpt>
      <trkpt lat="59.9778705" lon="17.7391175">
        <ele>34.2642</ele>
        <time>2013-06-06T15:04:44Z</time>
      </trkpt>
      <trkpt lat="59.9778985" lon="17.7391555">
        <ele>33.3029</ele>
        <time>2013-06-06T15:04:45Z</time>
      </trkpt>
      <trkpt lat="59.9779254" lon="17.7391808">
        <ele>33.3029</ele>
        <time>2013-06-06T15:04:46Z</time>
      </trkpt>
      <trkpt lat="59.9779616" lon="17.7392088">
        <ele>33.7834</ele>
        <time>2013-06-06T15:04:47Z</time>
      </trkpt>
      <trkpt lat="59.9779955" lon="17.7392316">
        <ele>34.2642</ele>
        <time>2013-06-06T15:04:48Z</time>
      </trkpt>
      <trkpt lat="59.9780305" lon="17.739251">
        <ele>34.7449</ele>
        <time>2013-06-06T15:04:49Z</time>
      </trkpt>
      <trkpt lat="59.9780704" lon="17.7392699">
        <ele>35.7061</ele>
        <time>2013-06-06T15:04:50Z</time>
      </trkpt>
      <trkpt lat="59.9781105" lon="17.7392821">
        <ele>35.7061</ele>
        <time>2013-06-06T15:04:51Z</time>
      </trkpt>
      <trkpt lat="59.9781529" lon="17.7392895">
        <ele>36.1868</ele>
        <time>2013-06-06T15:04:52Z</time>
      </trkpt>
      <trkpt lat="59.9781901" lon="17.7393035">
        <ele>36.1868</ele>
        <time>2013-06-06T15:04:53Z</time>
      </trkpt>
      <trkpt lat="59.97823" lon="17.7393159">
        <ele>36.1868</ele>
        <time>2013-06-06T15:04:54Z</time>
      </trkpt>
      <trkpt lat="59.9782745" lon="17.7393186">
        <ele>35.7061</ele>
        <time>2013-06-06T15:04:55Z</time>
      </trkpt>
      <trkpt lat="59.9783213" lon="17.7393199">
        <ele>34.7449</ele>
        <time>2013-06-06T15:04:56Z</time>
      </trkpt>
      <trkpt lat="59.9783707" lon="17.7393326">
        <ele>35.2255</ele>
        <time>2013-06-06T15:04:57Z</time>
      </trkpt>
      <trkpt lat="59.9784166" lon="17.7393446">
        <ele>35.7061</ele>
        <time>2013-06-06T15:04:58Z</time>
      </trkpt>
      <trkpt lat="59.9784642" lon="17.7393534">
        <ele>35.2255</ele>
        <time>2013-06-06T15:04:59Z</time>
      </trkpt>
      <trkpt lat="59.9785133" lon="17.7393559">
        <ele>34.7449</ele>
        <time>2013-06-06T15:05:00Z</time>
      </trkpt>
      <trkpt lat="59.9785643" lon="17.7393673">
        <ele>34.7449</ele>
        <time>2013-06-06T15:05:01Z</time>
      </trkpt>
      <trkpt lat="59.978615" lon="17.7393792">
        <ele>34.7449</ele>
        <time>2013-06-06T15:05:02Z</time>
      </trkpt>
      <trkpt lat="59.9786661" lon="17.7393906">
        <ele>34.2642</ele>
        <time>2013-06-06T15:05:03Z</time>
      </trkpt>
      <trkpt lat="59.9787144" lon="17.7393922">
        <ele>34.7449</ele>
        <time>2013-06-06T15:05:04Z</time>
      </trkpt>
    </trkseg>
  </trk>
</gpx>